<?xml version='1.0' encoding='UTF-8'?>
<gpx version="1.1" creator="https://www.komoot.de" xmlns="http://www.topografix.com/GPX/1/1" xmlns:xsi="http://www.w3.org/2001/XMLSchema-instance" xsi:schemaLocation="http://www.topografix.com/GPX/1/1 http://www.topografix.com/GPX/1/1/gpx.xsd">
  <metadata>
    <name>moerdijk-willenstad TCP 6 sept 2026-2</name>
    <author>
      <link href="https://www.komoot.de">
        <text>komoot</text>
        <type>text/html</type>
      </link>
    </author>
  </metadata>
  <trk>
    <name>moerdijk-willenstad TCP 6 sept 2026-2</name>
    <type>racebike</type>
    <trkseg>
      <trkpt lat="52.025203" lon="4.420177">
        <ele>-1.947321</ele>
        <time>2026-09-03T13:26:16.096Z</time>
      </trkpt>
      <trkpt lat="52.024922" lon="4.419356">
        <ele>-1.947321</ele>
        <time>2026-09-03T13:26:25.026Z</time>
      </trkpt>
      <trkpt lat="52.024794" lon="4.418962">
        <ele>-1.947321</ele>
        <time>2026-09-03T13:26:29.296Z</time>
      </trkpt>
      <trkpt lat="52.024764" lon="4.418883">
        <ele>-1.947491</ele>
        <time>2026-09-03T13:26:30.181Z</time>
      </trkpt>
      <trkpt lat="52.024506" lon="4.418150">
        <ele>-1.956342</ele>
        <time>2026-09-03T13:26:38.167Z</time>
      </trkpt>
      <trkpt lat="52.024433" lon="4.417927">
        <ele>-1.958990</ele>
        <time>2026-09-03T13:26:40.538Z</time>
      </trkpt>
      <trkpt lat="52.024379" lon="4.417770">
        <ele>-1.960875</ele>
        <time>2026-09-03T13:26:42.219Z</time>
      </trkpt>
      <trkpt lat="52.023933" lon="4.416477">
        <ele>-1.976411</ele>
        <time>2026-09-03T13:26:55.573Z</time>
      </trkpt>
      <trkpt lat="52.023866" lon="4.416332">
        <ele>-1.981190</ele>
        <time>2026-09-03T13:26:57.109Z</time>
      </trkpt>
      <trkpt lat="52.023639" lon="4.416003">
        <ele>-2.028524</ele>
        <time>2026-09-03T13:27:01.151Z</time>
      </trkpt>
      <trkpt lat="52.023544" lon="4.415743">
        <ele>-2.057480</ele>
        <time>2026-09-03T13:27:03.706Z</time>
      </trkpt>
      <trkpt lat="52.023527" lon="4.415657">
        <ele>-2.066129</ele>
        <time>2026-09-03T13:27:04.494Z</time>
      </trkpt>
      <trkpt lat="52.023514" lon="4.415578">
        <ele>-2.073960</ele>
        <time>2026-09-03T13:27:05.156Z</time>
      </trkpt>
      <trkpt lat="52.023495" lon="4.415489">
        <ele>-2.082981</ele>
        <time>2026-09-03T13:27:05.978Z</time>
      </trkpt>
      <trkpt lat="52.023470" lon="4.415390">
        <ele>-2.093229</ele>
        <time>2026-09-03T13:27:07.202Z</time>
      </trkpt>
      <trkpt lat="52.023390" lon="4.415130">
        <ele>-2.121065</ele>
        <time>2026-09-03T13:27:10.517Z</time>
      </trkpt>
      <trkpt lat="52.023320" lon="4.414990">
        <ele>-2.138339</ele>
        <time>2026-09-03T13:27:12.574Z</time>
      </trkpt>
      <trkpt lat="52.023050" lon="4.415350">
        <ele>-2.192689</ele>
        <time>2026-09-03T13:27:19.047Z</time>
      </trkpt>
      <trkpt lat="52.023000" lon="4.415490">
        <ele>-2.208190</ele>
        <time>2026-09-03T13:27:20.893Z</time>
      </trkpt>
      <trkpt lat="52.023006" lon="4.415491">
        <ele>-2.209129</ele>
        <time>2026-09-03T13:27:20.996Z</time>
      </trkpt>
      <trkpt lat="52.022863" lon="4.415699">
        <ele>-2.238995</ele>
        <time>2026-09-03T13:27:23.777Z</time>
      </trkpt>
      <trkpt lat="52.021980" lon="4.416902">
        <ele>-2.215372</ele>
        <time>2026-09-03T13:27:47.361Z</time>
      </trkpt>
      <trkpt lat="52.021905" lon="4.417009">
        <ele>-2.211259</ele>
        <time>2026-09-03T13:27:48.904Z</time>
      </trkpt>
      <trkpt lat="52.021236" lon="4.417964">
        <ele>-2.134335</ele>
        <time>2026-09-03T13:28:02.285Z</time>
      </trkpt>
      <trkpt lat="52.020970" lon="4.418282">
        <ele>-2.061057</ele>
        <time>2026-09-03T13:28:07.244Z</time>
      </trkpt>
      <trkpt lat="52.020891" lon="4.418361">
        <ele>-2.040474</ele>
        <time>2026-09-03T13:28:08.678Z</time>
      </trkpt>
      <trkpt lat="52.020618" lon="4.418602">
        <ele>-1.971533</ele>
        <time>2026-09-03T13:28:13.614Z</time>
      </trkpt>
      <trkpt lat="52.019418" lon="4.419648">
        <ele>-1.552096</ele>
        <time>2026-09-03T13:28:35.739Z</time>
      </trkpt>
      <trkpt lat="52.019072" lon="4.419946">
        <ele>-1.376787</ele>
        <time>2026-09-03T13:28:42.245Z</time>
      </trkpt>
      <trkpt lat="52.018961" lon="4.420042">
        <ele>-1.320495</ele>
        <time>2026-09-03T13:28:44.292Z</time>
      </trkpt>
      <trkpt lat="52.018794" lon="4.420179">
        <ele>-1.236745</ele>
        <time>2026-09-03T13:28:47.382Z</time>
      </trkpt>
      <trkpt lat="52.018774" lon="4.420196">
        <ele>-1.226641</ele>
        <time>2026-09-03T13:28:47.776Z</time>
      </trkpt>
      <trkpt lat="52.018013" lon="4.420822">
        <ele>-0.912742</ele>
        <time>2026-09-03T13:29:02.175Z</time>
      </trkpt>
      <trkpt lat="52.017441" lon="4.421195">
        <ele>-0.776109</ele>
        <time>2026-09-03T13:29:12.541Z</time>
      </trkpt>
      <trkpt lat="52.017068" lon="4.421423">
        <ele>-0.687763</ele>
        <time>2026-09-03T13:29:18.685Z</time>
      </trkpt>
      <trkpt lat="52.016909" lon="4.421400">
        <ele>-0.652375</ele>
        <time>2026-09-03T13:29:21.078Z</time>
      </trkpt>
      <trkpt lat="52.016861" lon="4.421390">
        <ele>-0.641647</ele>
        <time>2026-09-03T13:29:21.778Z</time>
      </trkpt>
      <trkpt lat="52.016716" lon="4.421259">
        <ele>-0.604869</ele>
        <time>2026-09-03T13:29:24.177Z</time>
      </trkpt>
      <trkpt lat="52.016670" lon="4.421296">
        <ele>-0.593490</ele>
        <time>2026-09-03T13:29:24.911Z</time>
      </trkpt>
      <trkpt lat="52.016622" lon="4.421340">
        <ele>-0.581273</ele>
        <time>2026-09-03T13:29:25.701Z</time>
      </trkpt>
      <trkpt lat="52.016558" lon="4.421508">
        <ele>-0.620396</ele>
        <time>2026-09-03T13:29:27.402Z</time>
      </trkpt>
      <trkpt lat="52.016553" lon="4.421638">
        <ele>-0.647189</ele>
        <time>2026-09-03T13:29:28.494Z</time>
      </trkpt>
      <trkpt lat="52.016469" lon="4.421781">
        <ele>-0.687851</ele>
        <time>2026-09-03T13:29:30.150Z</time>
      </trkpt>
      <trkpt lat="52.015696" lon="4.422254">
        <ele>-0.963923</ele>
        <time>2026-09-03T13:29:41.044Z</time>
      </trkpt>
      <trkpt lat="52.015081" lon="4.422629">
        <ele>-1.183195</ele>
        <time>2026-09-03T13:29:50.108Z</time>
      </trkpt>
      <trkpt lat="52.014310" lon="4.423098">
        <ele>-1.412062</ele>
        <time>2026-09-03T13:30:01.635Z</time>
      </trkpt>
      <trkpt lat="52.012383" lon="4.424308">
        <ele>-1.803488</ele>
        <time>2026-09-03T13:30:30.116Z</time>
      </trkpt>
      <trkpt lat="52.011223" lon="4.425042">
        <ele>-1.789307</ele>
        <time>2026-09-03T13:30:49.699Z</time>
      </trkpt>
      <trkpt lat="52.010701" lon="4.425374">
        <ele>-1.693824</ele>
        <time>2026-09-03T13:30:58.292Z</time>
      </trkpt>
      <trkpt lat="52.010090" lon="4.425762">
        <ele>-1.582084</ele>
        <time>2026-09-03T13:31:08.660Z</time>
      </trkpt>
      <trkpt lat="52.009793" lon="4.425953">
        <ele>-1.596196</ele>
        <time>2026-09-03T13:31:13.450Z</time>
      </trkpt>
      <trkpt lat="52.008385" lon="4.426858">
        <ele>-1.710101</ele>
        <time>2026-09-03T13:31:35.245Z</time>
      </trkpt>
      <trkpt lat="52.008030" lon="4.427230">
        <ele>-1.755801</ele>
        <time>2026-09-03T13:31:41.183Z</time>
      </trkpt>
      <trkpt lat="52.007934" lon="4.427358">
        <ele>-1.769290</ele>
        <time>2026-09-03T13:31:42.981Z</time>
      </trkpt>
      <trkpt lat="52.007739" lon="4.427618">
        <ele>-1.796688</ele>
        <time>2026-09-03T13:31:46.579Z</time>
      </trkpt>
      <trkpt lat="52.007559" lon="4.427879">
        <ele>-1.822893</ele>
        <time>2026-09-03T13:31:49.995Z</time>
      </trkpt>
      <trkpt lat="52.007251" lon="4.428386">
        <ele>-1.870516</ele>
        <time>2026-09-03T13:31:56.369Z</time>
      </trkpt>
      <trkpt lat="52.006943" lon="4.428879">
        <ele>-1.930810</ele>
        <time>2026-09-03T13:32:02.849Z</time>
      </trkpt>
      <trkpt lat="52.006814" lon="4.429087">
        <ele>-1.973200</ele>
        <time>2026-09-03T13:32:05.596Z</time>
      </trkpt>
      <trkpt lat="52.006744" lon="4.429198">
        <ele>-1.996014</ele>
        <time>2026-09-03T13:32:07.045Z</time>
      </trkpt>
      <trkpt lat="52.006601" lon="4.429429">
        <ele>-2.043049</ele>
        <time>2026-09-03T13:32:10.007Z</time>
      </trkpt>
      <trkpt lat="52.006515" lon="4.429566">
        <ele>-2.071141</ele>
        <time>2026-09-03T13:32:11.641Z</time>
      </trkpt>
      <trkpt lat="52.006449" lon="4.429676">
        <ele>-2.093194</ele>
        <time>2026-09-03T13:32:12.911Z</time>
      </trkpt>
      <trkpt lat="52.006240" lon="4.430021">
        <ele>-2.162688</ele>
        <time>2026-09-03T13:32:17.081Z</time>
      </trkpt>
      <trkpt lat="52.005990" lon="4.430437">
        <ele>-2.246156</ele>
        <time>2026-09-03T13:32:22.045Z</time>
      </trkpt>
      <trkpt lat="52.005973" lon="4.430465">
        <ele>-2.251802</ele>
        <time>2026-09-03T13:32:22.394Z</time>
      </trkpt>
      <trkpt lat="52.005797" lon="4.430769">
        <ele>-2.311718</ele>
        <time>2026-09-03T13:32:25.754Z</time>
      </trkpt>
      <trkpt lat="52.005837" lon="4.430940">
        <ele>-2.336044</ele>
        <time>2026-09-03T13:32:27.190Z</time>
      </trkpt>
      <trkpt lat="52.005940" lon="4.431386">
        <ele>-2.393946</ele>
        <time>2026-09-03T13:32:31.004Z</time>
      </trkpt>
      <trkpt lat="52.005989" lon="4.431596">
        <ele>-2.421244</ele>
        <time>2026-09-03T13:32:32.854Z</time>
      </trkpt>
      <trkpt lat="52.006157" lon="4.432324">
        <ele>-2.515747</ele>
        <time>2026-09-03T13:32:39.747Z</time>
      </trkpt>
      <trkpt lat="52.006077" lon="4.432360">
        <ele>-2.532138</ele>
        <time>2026-09-03T13:32:40.953Z</time>
      </trkpt>
      <trkpt lat="52.006021" lon="4.432337">
        <ele>-2.543544</ele>
        <time>2026-09-03T13:32:41.863Z</time>
      </trkpt>
      <trkpt lat="52.005927" lon="4.431987">
        <ele>-2.589960</ele>
        <time>2026-09-03T13:32:45.460Z</time>
      </trkpt>
      <trkpt lat="52.005836" lon="4.431836">
        <ele>-2.615646</ele>
        <time>2026-09-03T13:32:47.371Z</time>
      </trkpt>
      <trkpt lat="52.005579" lon="4.431723">
        <ele>-2.668218</ele>
        <time>2026-09-03T13:32:51.151Z</time>
      </trkpt>
      <trkpt lat="52.005437" lon="4.431584">
        <ele>-2.692780</ele>
        <time>2026-09-03T13:32:53.560Z</time>
      </trkpt>
      <trkpt lat="52.005356" lon="4.431499">
        <ele>-2.704207</ele>
        <time>2026-09-03T13:32:54.978Z</time>
      </trkpt>
      <trkpt lat="52.005320" lon="4.431500">
        <ele>-2.708474</ele>
        <time>2026-09-03T13:32:55.542Z</time>
      </trkpt>
      <trkpt lat="52.004464" lon="4.432902">
        <ele>-2.852524</ele>
        <time>2026-09-03T13:33:13.208Z</time>
      </trkpt>
      <trkpt lat="52.004165" lon="4.433414">
        <ele>-2.909521</ele>
        <time>2026-09-03T13:33:19.195Z</time>
      </trkpt>
      <trkpt lat="52.002951" lon="4.435321">
        <ele>-3.216225</ele>
        <time>2026-09-03T13:33:42.801Z</time>
      </trkpt>
      <trkpt lat="52.002693" lon="4.435844">
        <ele>-3.155736</ele>
        <time>2026-09-03T13:33:49.068Z</time>
      </trkpt>
      <trkpt lat="52.002536" lon="4.436072">
        <ele>-3.120873</ele>
        <time>2026-09-03T13:33:52.341Z</time>
      </trkpt>
      <trkpt lat="52.001586" lon="4.437052">
        <ele>-2.934573</ele>
        <time>2026-09-03T13:34:10.221Z</time>
      </trkpt>
      <trkpt lat="52.001537" lon="4.437140">
        <ele>-2.922549</ele>
        <time>2026-09-03T13:34:11.338Z</time>
      </trkpt>
      <trkpt lat="52.001491" lon="4.437366">
        <ele>-2.919720</ele>
        <time>2026-09-03T13:34:13.616Z</time>
      </trkpt>
      <trkpt lat="52.001446" lon="4.437481">
        <ele>-2.918100</ele>
        <time>2026-09-03T13:34:15.403Z</time>
      </trkpt>
      <trkpt lat="52.001169" lon="4.437761">
        <ele>-2.911801</ele>
        <time>2026-09-03T13:34:20.481Z</time>
      </trkpt>
      <trkpt lat="52.000989" lon="4.437901">
        <ele>-2.907948</ele>
        <time>2026-09-03T13:34:23.459Z</time>
      </trkpt>
      <trkpt lat="52.000758" lon="4.438029">
        <ele>-2.903235</ele>
        <time>2026-09-03T13:34:26.999Z</time>
      </trkpt>
      <trkpt lat="52.000166" lon="4.438337">
        <ele>-2.891233</ele>
        <time>2026-09-03T13:34:36.160Z</time>
      </trkpt>
      <trkpt lat="51.999778" lon="4.438552">
        <ele>-2.961664</ele>
        <time>2026-09-03T13:34:42.058Z</time>
      </trkpt>
      <trkpt lat="51.999175" lon="4.438860">
        <ele>-3.161327</ele>
        <time>2026-09-03T13:34:50.616Z</time>
      </trkpt>
      <trkpt lat="51.999122" lon="4.438836">
        <ele>-3.178707</ele>
        <time>2026-09-03T13:34:51.332Z</time>
      </trkpt>
      <trkpt lat="51.999103" lon="4.438780">
        <ele>-3.191141</ele>
        <time>2026-09-03T13:34:51.835Z</time>
      </trkpt>
      <trkpt lat="51.999008" lon="4.438911">
        <ele>-3.230504</ele>
        <time>2026-09-03T13:34:54.183Z</time>
      </trkpt>
      <trkpt lat="51.998994" lon="4.439067">
        <ele>-3.261163</ele>
        <time>2026-09-03T13:34:56.048Z</time>
      </trkpt>
      <trkpt lat="51.998797" lon="4.439138">
        <ele>-3.324902</ele>
        <time>2026-09-03T13:34:58.821Z</time>
      </trkpt>
      <trkpt lat="51.998659" lon="4.439224">
        <ele>-3.371590</ele>
        <time>2026-09-03T13:35:00.894Z</time>
      </trkpt>
      <trkpt lat="51.998497" lon="4.439409">
        <ele>-3.434142</ele>
        <time>2026-09-03T13:35:03.600Z</time>
      </trkpt>
      <trkpt lat="51.998099" lon="4.439861">
        <ele>-3.523448</ele>
        <time>2026-09-03T13:35:10.253Z</time>
      </trkpt>
      <trkpt lat="51.997694" lon="4.440289">
        <ele>-3.601727</ele>
        <time>2026-09-03T13:35:17.202Z</time>
      </trkpt>
      <trkpt lat="51.996765" lon="4.441464">
        <ele>-3.802803</ele>
        <time>2026-09-03T13:35:34.569Z</time>
      </trkpt>
      <trkpt lat="51.996658" lon="4.441556">
        <ele>-3.826902</ele>
        <time>2026-09-03T13:35:36.178Z</time>
      </trkpt>
      <trkpt lat="51.996604" lon="4.441567">
        <ele>-3.837735</ele>
        <time>2026-09-03T13:35:36.883Z</time>
      </trkpt>
      <trkpt lat="51.996386" lon="4.441434">
        <ele>-3.884090</ele>
        <time>2026-09-03T13:35:39.964Z</time>
      </trkpt>
      <trkpt lat="51.995552" lon="4.440908">
        <ele>-4.062179</ele>
        <time>2026-09-03T13:35:52.451Z</time>
      </trkpt>
      <trkpt lat="51.994743" lon="4.440397">
        <ele>-4.125965</ele>
        <time>2026-09-03T13:36:05.072Z</time>
      </trkpt>
      <trkpt lat="51.993862" lon="4.439841">
        <ele>-4.155850</ele>
        <time>2026-09-03T13:36:19.701Z</time>
      </trkpt>
      <trkpt lat="51.993664" lon="4.439653">
        <ele>-4.167589</ele>
        <time>2026-09-03T13:36:22.786Z</time>
      </trkpt>
      <trkpt lat="51.993460" lon="4.439348">
        <ele>-4.222641</ele>
        <time>2026-09-03T13:36:26.514Z</time>
      </trkpt>
      <trkpt lat="51.992926" lon="4.438431">
        <ele>-4.376939</ele>
        <time>2026-09-03T13:36:37.089Z</time>
      </trkpt>
      <trkpt lat="51.992518" lon="4.437584">
        <ele>-4.508407</ele>
        <time>2026-09-03T13:36:46.605Z</time>
      </trkpt>
      <trkpt lat="51.992370" lon="4.437251">
        <ele>-4.462307</ele>
        <time>2026-09-03T13:36:50.526Z</time>
      </trkpt>
      <trkpt lat="51.992213" lon="4.436788">
        <ele>-4.368414</ele>
        <time>2026-09-03T13:36:55.700Z</time>
      </trkpt>
      <trkpt lat="51.992178" lon="4.436666">
        <ele>-4.344506</ele>
        <time>2026-09-03T13:36:57.048Z</time>
      </trkpt>
      <trkpt lat="51.992037" lon="4.436167">
        <ele>-4.246977</ele>
        <time>2026-09-03T13:37:02.387Z</time>
      </trkpt>
      <trkpt lat="51.991687" lon="4.434916">
        <ele>-4.002888</ele>
        <time>2026-09-03T13:37:16.492Z</time>
      </trkpt>
      <trkpt lat="51.991288" lon="4.433634">
        <ele>-3.621169</ele>
        <time>2026-09-03T13:37:31.186Z</time>
      </trkpt>
      <trkpt lat="51.990887" lon="4.432581">
        <ele>-3.291117</ele>
        <time>2026-09-03T13:37:43.957Z</time>
      </trkpt>
      <trkpt lat="51.990578" lon="4.431892">
        <ele>-3.160508</ele>
        <time>2026-09-03T13:37:52.386Z</time>
      </trkpt>
      <trkpt lat="51.989819" lon="4.430446">
        <ele>-2.963862</ele>
        <time>2026-09-03T13:38:10.219Z</time>
      </trkpt>
      <trkpt lat="51.989687" lon="4.430160">
        <ele>-2.926871</ele>
        <time>2026-09-03T13:38:13.585Z</time>
      </trkpt>
      <trkpt lat="51.989556" lon="4.429792">
        <ele>-2.930875</ele>
        <time>2026-09-03T13:38:17.562Z</time>
      </trkpt>
      <trkpt lat="51.989273" lon="4.429003">
        <ele>-2.960146</ele>
        <time>2026-09-03T13:38:25.995Z</time>
      </trkpt>
      <trkpt lat="51.988664" lon="4.427356">
        <ele>-3.048379</ele>
        <time>2026-09-03T13:38:42.959Z</time>
      </trkpt>
      <trkpt lat="51.988267" lon="4.426314">
        <ele>-3.209725</ele>
        <time>2026-09-03T13:38:53.434Z</time>
      </trkpt>
      <trkpt lat="51.988003" lon="4.425066">
        <ele>-3.383487</ele>
        <time>2026-09-03T13:39:04.721Z</time>
      </trkpt>
      <trkpt lat="51.987873" lon="4.424615">
        <ele>-3.393294</ele>
        <time>2026-09-03T13:39:09.073Z</time>
      </trkpt>
      <trkpt lat="51.987812" lon="4.424494">
        <ele>-3.391503</ele>
        <time>2026-09-03T13:39:10.468Z</time>
      </trkpt>
      <trkpt lat="51.987204" lon="4.423702">
        <ele>-3.377005</ele>
        <time>2026-09-03T13:39:22.106Z</time>
      </trkpt>
      <trkpt lat="51.985955" lon="4.422250">
        <ele>-3.411459</ele>
        <time>2026-09-03T13:39:46.117Z</time>
      </trkpt>
      <trkpt lat="51.985527" lon="4.421717">
        <ele>-3.441274</ele>
        <time>2026-09-03T13:39:53.682Z</time>
      </trkpt>
      <trkpt lat="51.985489" lon="4.421786">
        <ele>-3.444425</ele>
        <time>2026-09-03T13:39:54.460Z</time>
      </trkpt>
      <trkpt lat="51.985418" lon="4.421928">
        <ele>-3.450651</ele>
        <time>2026-09-03T13:39:56.005Z</time>
      </trkpt>
      <trkpt lat="51.984842" lon="4.422756">
        <ele>-3.572938</ele>
        <time>2026-09-03T13:40:06.367Z</time>
      </trkpt>
      <trkpt lat="51.984533" lon="4.423182">
        <ele>-3.656027</ele>
        <time>2026-09-03T13:40:11.801Z</time>
      </trkpt>
      <trkpt lat="51.980478" lon="4.428715">
        <ele>-3.882271</ele>
        <time>2026-09-03T13:41:29.520Z</time>
      </trkpt>
      <trkpt lat="51.980114" lon="4.429082">
        <ele>-3.838349</ele>
        <time>2026-09-03T13:41:35.854Z</time>
      </trkpt>
      <trkpt lat="51.979798" lon="4.429319">
        <ele>-3.802667</ele>
        <time>2026-09-03T13:41:41.460Z</time>
      </trkpt>
      <trkpt lat="51.979646" lon="4.429299">
        <ele>-3.787034</ele>
        <time>2026-09-03T13:41:43.980Z</time>
      </trkpt>
      <trkpt lat="51.979497" lon="4.429123">
        <ele>-3.675849</ele>
        <time>2026-09-03T13:41:47.108Z</time>
      </trkpt>
      <trkpt lat="51.979223" lon="4.428697">
        <ele>-3.409188</ele>
        <time>2026-09-03T13:41:53.613Z</time>
      </trkpt>
      <trkpt lat="51.979171" lon="4.428657">
        <ele>-3.368742</ele>
        <time>2026-09-03T13:41:54.579Z</time>
      </trkpt>
      <trkpt lat="51.979176" lon="4.428619">
        <ele>-3.351919</ele>
        <time>2026-09-03T13:41:55.133Z</time>
      </trkpt>
      <trkpt lat="51.979189" lon="4.428236">
        <ele>-3.185848</ele>
        <time>2026-09-03T13:42:00.636Z</time>
      </trkpt>
      <trkpt lat="51.979176" lon="4.428050">
        <ele>-3.104803</ele>
        <time>2026-09-03T13:42:02.857Z</time>
      </trkpt>
      <trkpt lat="51.979140" lon="4.427906">
        <ele>-3.037519</ele>
        <time>2026-09-03T13:42:04.732Z</time>
      </trkpt>
      <trkpt lat="51.978283" lon="4.426533">
        <ele>-2.386022</ele>
        <time>2026-09-03T13:42:26.487Z</time>
      </trkpt>
      <trkpt lat="51.978246" lon="4.426474">
        <ele>-2.371191</ele>
        <time>2026-09-03T13:42:27.360Z</time>
      </trkpt>
      <trkpt lat="51.978021" lon="4.426109">
        <ele>-2.280228</ele>
        <time>2026-09-03T13:42:32.598Z</time>
      </trkpt>
      <trkpt lat="51.977734" lon="4.426477">
        <ele>-2.175641</ele>
        <time>2026-09-03T13:42:38.473Z</time>
      </trkpt>
      <trkpt lat="51.977286" lon="4.427192">
        <ele>-2.026264</ele>
        <time>2026-09-03T13:42:47.505Z</time>
      </trkpt>
      <trkpt lat="51.977173" lon="4.427317">
        <ele>-2.114602</ele>
        <time>2026-09-03T13:42:49.322Z</time>
      </trkpt>
      <trkpt lat="51.977045" lon="4.427457">
        <ele>-2.214310</ele>
        <time>2026-09-03T13:42:51.339Z</time>
      </trkpt>
      <trkpt lat="51.976815" lon="4.427691">
        <ele>-2.389665</ele>
        <time>2026-09-03T13:42:54.921Z</time>
      </trkpt>
      <trkpt lat="51.976727" lon="4.427777">
        <ele>-2.456021</ele>
        <time>2026-09-03T13:42:56.254Z</time>
      </trkpt>
      <trkpt lat="51.976704" lon="4.427801">
        <ele>-2.473685</ele>
        <time>2026-09-03T13:42:56.751Z</time>
      </trkpt>
      <trkpt lat="51.976364" lon="4.428133">
        <ele>-2.730008</ele>
        <time>2026-09-03T13:43:03.848Z</time>
      </trkpt>
      <trkpt lat="51.976156" lon="4.428357">
        <ele>-2.891261</ele>
        <time>2026-09-03T13:43:08.241Z</time>
      </trkpt>
      <trkpt lat="51.975958" lon="4.428785">
        <ele>-3.104267</ele>
        <time>2026-09-03T13:43:13.982Z</time>
      </trkpt>
      <trkpt lat="51.975852" lon="4.428925">
        <ele>-3.179371</ele>
        <time>2026-09-03T13:43:16.352Z</time>
      </trkpt>
      <trkpt lat="51.975564" lon="4.429315">
        <ele>-3.295450</ele>
        <time>2026-09-03T13:43:23.016Z</time>
      </trkpt>
      <trkpt lat="51.974121" lon="4.431187">
        <ele>-3.659612</ele>
        <time>2026-09-03T13:43:59.326Z</time>
      </trkpt>
      <trkpt lat="51.973329" lon="4.432302">
        <ele>-3.513862</ele>
        <time>2026-09-03T13:44:22.213Z</time>
      </trkpt>
      <trkpt lat="51.972741" lon="4.433107">
        <ele>-3.626363</ele>
        <time>2026-09-03T13:44:37.758Z</time>
      </trkpt>
      <trkpt lat="51.972416" lon="4.433553">
        <ele>-3.761095</ele>
        <time>2026-09-03T13:44:45.565Z</time>
      </trkpt>
      <trkpt lat="51.972127" lon="4.433948">
        <ele>-3.880703</ele>
        <time>2026-09-03T13:44:52.537Z</time>
      </trkpt>
      <trkpt lat="51.972032" lon="4.434020">
        <ele>-3.913895</ele>
        <time>2026-09-03T13:44:54.499Z</time>
      </trkpt>
      <trkpt lat="51.971950" lon="4.434037">
        <ele>-3.940066</ele>
        <time>2026-09-03T13:44:56.051Z</time>
      </trkpt>
      <trkpt lat="51.971930" lon="4.434139">
        <ele>-3.960943</ele>
        <time>2026-09-03T13:44:57.293Z</time>
      </trkpt>
      <trkpt lat="51.971713" lon="4.434439">
        <ele>-4.049931</ele>
        <time>2026-09-03T13:45:02.718Z</time>
      </trkpt>
      <trkpt lat="51.970426" lon="4.436161">
        <ele>-4.494002</ele>
        <time>2026-09-03T13:45:35.301Z</time>
      </trkpt>
      <trkpt lat="51.970000" lon="4.436738">
        <ele>-4.601633</ele>
        <time>2026-09-03T13:45:42.532Z</time>
      </trkpt>
      <trkpt lat="51.969758" lon="4.437065">
        <ele>-4.657348</ele>
        <time>2026-09-03T13:45:46.569Z</time>
      </trkpt>
      <trkpt lat="51.967089" lon="4.440679">
        <ele>-5.059819</ele>
        <time>2026-09-03T13:46:39.108Z</time>
      </trkpt>
      <trkpt lat="51.966403" lon="4.441607">
        <ele>-5.490086</ele>
        <time>2026-09-03T13:46:50.582Z</time>
      </trkpt>
      <trkpt lat="51.966418" lon="4.441635">
        <ele>-5.501101</ele>
        <time>2026-09-03T13:46:50.858Z</time>
      </trkpt>
      <trkpt lat="51.966464" lon="4.441718">
        <ele>-5.534241</ele>
        <time>2026-09-03T13:46:51.686Z</time>
      </trkpt>
      <trkpt lat="51.966519" lon="4.441824">
        <ele>-5.575379</ele>
        <time>2026-09-03T13:46:52.732Z</time>
      </trkpt>
      <trkpt lat="51.966709" lon="4.442183">
        <ele>-5.769725</ele>
        <time>2026-09-03T13:46:56.215Z</time>
      </trkpt>
      <trkpt lat="51.967685" lon="4.444034">
        <ele>-6.886698</ele>
        <time>2026-09-03T13:47:14.532Z</time>
      </trkpt>
      <trkpt lat="51.969636" lon="4.447745">
        <ele>-5.872808</ele>
        <time>2026-09-03T13:48:06.403Z</time>
      </trkpt>
      <trkpt lat="51.969687" lon="4.447841">
        <ele>-5.852158</ele>
        <time>2026-09-03T13:48:07.594Z</time>
      </trkpt>
      <trkpt lat="51.969969" lon="4.448387">
        <ele>-5.736089</ele>
        <time>2026-09-03T13:48:13.899Z</time>
      </trkpt>
      <trkpt lat="51.969969" lon="4.448531">
        <ele>-5.712631</ele>
        <time>2026-09-03T13:48:15.109Z</time>
      </trkpt>
      <trkpt lat="51.969883" lon="4.448667">
        <ele>-5.710067</ele>
        <time>2026-09-03T13:48:16.690Z</time>
      </trkpt>
      <trkpt lat="51.968538" lon="4.450521">
        <ele>-6.467059</ele>
        <time>2026-09-03T13:48:39.623Z</time>
      </trkpt>
      <trkpt lat="51.968466" lon="4.450618">
        <ele>-6.424996</ele>
        <time>2026-09-03T13:48:41.092Z</time>
      </trkpt>
      <trkpt lat="51.968397" lon="4.450716">
        <ele>-6.383780</ele>
        <time>2026-09-03T13:48:42.554Z</time>
      </trkpt>
      <trkpt lat="51.968017" lon="4.451196">
        <ele>-6.167325</ele>
        <time>2026-09-03T13:48:50.578Z</time>
      </trkpt>
      <trkpt lat="51.967910" lon="4.451339">
        <ele>-6.105018</ele>
        <time>2026-09-03T13:48:53.006Z</time>
      </trkpt>
      <trkpt lat="51.967890" lon="4.451362">
        <ele>-6.093999</ele>
        <time>2026-09-03T13:48:53.459Z</time>
      </trkpt>
      <trkpt lat="51.967734" lon="4.451530">
        <ele>-6.009840</ele>
        <time>2026-09-03T13:48:56.855Z</time>
      </trkpt>
      <trkpt lat="51.967529" lon="4.451617">
        <ele>-5.914588</ele>
        <time>2026-09-03T13:49:00.860Z</time>
      </trkpt>
      <trkpt lat="51.967417" lon="4.451716">
        <ele>-5.857259</ele>
        <time>2026-09-03T13:49:03.335Z</time>
      </trkpt>
      <trkpt lat="51.966529" lon="4.452970">
        <ele>-5.489650</ele>
        <time>2026-09-03T13:49:22.897Z</time>
      </trkpt>
      <trkpt lat="51.966400" lon="4.453201">
        <ele>-5.445074</ele>
        <time>2026-09-03T13:49:26.051Z</time>
      </trkpt>
      <trkpt lat="51.966347" lon="4.453373">
        <ele>-5.417577</ele>
        <time>2026-09-03T13:49:27.969Z</time>
      </trkpt>
      <trkpt lat="51.966304" lon="4.453618">
        <ele>-5.381153</ele>
        <time>2026-09-03T13:49:30.473Z</time>
      </trkpt>
      <trkpt lat="51.966359" lon="4.454480">
        <ele>-5.257245</ele>
        <time>2026-09-03T13:49:38.516Z</time>
      </trkpt>
      <trkpt lat="51.966362" lon="4.455110">
        <ele>-5.313654</ele>
        <time>2026-09-03T13:49:43.715Z</time>
      </trkpt>
      <trkpt lat="51.966310" lon="4.455726">
        <ele>-5.392915</ele>
        <time>2026-09-03T13:49:48.596Z</time>
      </trkpt>
      <trkpt lat="51.966165" lon="4.456522">
        <ele>-5.498732</ele>
        <time>2026-09-03T13:49:55.312Z</time>
      </trkpt>
      <trkpt lat="51.966594" lon="4.457424">
        <ele>-5.516392</ele>
        <time>2026-09-03T13:50:05.883Z</time>
      </trkpt>
      <trkpt lat="51.966772" lon="4.457810">
        <ele>-5.289895</ele>
        <time>2026-09-03T13:50:11.248Z</time>
      </trkpt>
      <trkpt lat="51.967432" lon="4.459211">
        <ele>-4.461407</ele>
        <time>2026-09-03T13:50:32.082Z</time>
      </trkpt>
      <trkpt lat="51.967611" lon="4.459057">
        <ele>-4.306938</ele>
        <time>2026-09-03T13:50:35.686Z</time>
      </trkpt>
      <trkpt lat="51.967789" lon="4.458625">
        <ele>-4.125181</ele>
        <time>2026-09-03T13:50:41.181Z</time>
      </trkpt>
      <trkpt lat="51.968012" lon="4.458360">
        <ele>-3.986463</ele>
        <time>2026-09-03T13:50:45.813Z</time>
      </trkpt>
      <trkpt lat="51.968154" lon="4.458283">
        <ele>-3.911319</ele>
        <time>2026-09-03T13:50:48.285Z</time>
      </trkpt>
      <trkpt lat="51.968238" lon="4.458278">
        <ele>-3.869130</ele>
        <time>2026-09-03T13:50:49.641Z</time>
      </trkpt>
      <trkpt lat="51.968395" lon="4.458348">
        <ele>-3.787410</ele>
        <time>2026-09-03T13:50:52.283Z</time>
      </trkpt>
      <trkpt lat="51.968481" lon="4.458443">
        <ele>-3.735197</ele>
        <time>2026-09-03T13:50:53.970Z</time>
      </trkpt>
      <trkpt lat="51.968585" lon="4.458678">
        <ele>-3.645724</ele>
        <time>2026-09-03T13:50:56.868Z</time>
      </trkpt>
      <trkpt lat="51.969089" lon="4.460760">
        <ele>-3.562896</ele>
        <time>2026-09-03T13:51:19.969Z</time>
      </trkpt>
      <trkpt lat="51.969193" lon="4.461256">
        <ele>-3.654752</ele>
        <time>2026-09-03T13:51:24.086Z</time>
      </trkpt>
      <trkpt lat="51.969272" lon="4.461817">
        <ele>-3.755643</ele>
        <time>2026-09-03T13:51:28.613Z</time>
      </trkpt>
      <trkpt lat="51.969376" lon="4.462709">
        <ele>-3.977429</ele>
        <time>2026-09-03T13:51:35.482Z</time>
      </trkpt>
      <trkpt lat="51.969476" lon="4.463512">
        <ele>-4.270028</ele>
        <time>2026-09-03T13:51:41.493Z</time>
      </trkpt>
      <trkpt lat="51.969529" lon="4.463959">
        <ele>-4.432607</ele>
        <time>2026-09-03T13:51:44.950Z</time>
      </trkpt>
      <trkpt lat="51.969722" lon="4.465492">
        <ele>-4.900283</ele>
        <time>2026-09-03T13:51:59.098Z</time>
      </trkpt>
      <trkpt lat="51.970146" lon="4.467733">
        <ele>-4.928168</ele>
        <time>2026-09-03T13:52:20.577Z</time>
      </trkpt>
      <trkpt lat="51.970427" lon="4.469351">
        <ele>-4.961213</ele>
        <time>2026-09-03T13:52:35.404Z</time>
      </trkpt>
      <trkpt lat="51.970670" lon="4.471260">
        <ele>-4.987713</ele>
        <time>2026-09-03T13:52:53.498Z</time>
      </trkpt>
      <trkpt lat="51.971134" lon="4.474619">
        <ele>-5.008682</ele>
        <time>2026-09-03T13:53:25.008Z</time>
      </trkpt>
      <trkpt lat="51.971143" lon="4.474684">
        <ele>-5.013246</ele>
        <time>2026-09-03T13:53:25.589Z</time>
      </trkpt>
      <trkpt lat="51.971277" lon="4.475608">
        <ele>-5.078266</ele>
        <time>2026-09-03T13:53:33.923Z</time>
      </trkpt>
      <trkpt lat="51.971578" lon="4.478371">
        <ele>-5.355243</ele>
        <time>2026-09-03T13:53:58.419Z</time>
      </trkpt>
      <trkpt lat="51.972195" lon="4.482217">
        <ele>-5.671287</ele>
        <time>2026-09-03T13:54:33.465Z</time>
      </trkpt>
      <trkpt lat="51.972259" lon="4.482767">
        <ele>-5.673366</ele>
        <time>2026-09-03T13:54:38.556Z</time>
      </trkpt>
      <trkpt lat="51.972258" lon="4.483161">
        <ele>-5.672919</ele>
        <time>2026-09-03T13:54:42.075Z</time>
      </trkpt>
      <trkpt lat="51.972210" lon="4.483164">
        <ele>-5.672831</ele>
        <time>2026-09-03T13:54:42.790Z</time>
      </trkpt>
      <trkpt lat="51.972014" lon="4.483178">
        <ele>-5.672470</ele>
        <time>2026-09-03T13:54:45.645Z</time>
      </trkpt>
      <trkpt lat="51.971751" lon="4.483239">
        <ele>-5.671981</ele>
        <time>2026-09-03T13:54:49.514Z</time>
      </trkpt>
      <trkpt lat="51.971282" lon="4.483466">
        <ele>-5.671081</ele>
        <time>2026-09-03T13:54:56.501Z</time>
      </trkpt>
      <trkpt lat="51.971048" lon="4.483683">
        <ele>-5.658960</ele>
        <time>2026-09-03T13:55:00.445Z</time>
      </trkpt>
      <trkpt lat="51.970364" lon="4.484315">
        <ele>-5.378630</ele>
        <time>2026-09-03T13:55:13.749Z</time>
      </trkpt>
      <trkpt lat="51.970176" lon="4.484291">
        <ele>-5.311462</ele>
        <time>2026-09-03T13:55:16.931Z</time>
      </trkpt>
      <trkpt lat="51.970099" lon="4.484368">
        <ele>-5.279249</ele>
        <time>2026-09-03T13:55:18.922Z</time>
      </trkpt>
      <trkpt lat="51.970042" lon="4.484432">
        <ele>-5.254563</ele>
        <time>2026-09-03T13:55:20.434Z</time>
      </trkpt>
      <trkpt lat="51.970001" lon="4.484483">
        <ele>-5.236165</ele>
        <time>2026-09-03T13:55:21.564Z</time>
      </trkpt>
      <trkpt lat="51.969969" lon="4.484687">
        <ele>-5.189973</ele>
        <time>2026-09-03T13:55:24.423Z</time>
      </trkpt>
      <trkpt lat="51.969924" lon="4.484801">
        <ele>-5.160263</ele>
        <time>2026-09-03T13:55:26.240Z</time>
      </trkpt>
      <trkpt lat="51.969983" lon="4.484950">
        <ele>-5.121397</ele>
        <time>2026-09-03T13:55:28.054Z</time>
      </trkpt>
      <trkpt lat="51.970008" lon="4.485011">
        <ele>-5.105320</ele>
        <time>2026-09-03T13:55:28.789Z</time>
      </trkpt>
      <trkpt lat="51.970042" lon="4.485174">
        <ele>-5.067558</ele>
        <time>2026-09-03T13:55:30.556Z</time>
      </trkpt>
      <trkpt lat="51.970061" lon="4.485218">
        <ele>-5.055768</ele>
        <time>2026-09-03T13:55:31.101Z</time>
      </trkpt>
      <trkpt lat="51.970118" lon="4.485314">
        <ele>-5.031422</ele>
        <time>2026-09-03T13:55:32.481Z</time>
      </trkpt>
      <trkpt lat="51.970497" lon="4.485322">
        <ele>-5.085967</ele>
        <time>2026-09-03T13:55:38.767Z</time>
      </trkpt>
      <trkpt lat="51.971592" lon="4.486656">
        <ele>-5.282990</ele>
        <time>2026-09-03T13:55:57.672Z</time>
      </trkpt>
      <trkpt lat="51.971792" lon="4.486212">
        <ele>-5.451294</ele>
        <time>2026-09-03T13:56:02.177Z</time>
      </trkpt>
      <trkpt lat="51.971896" lon="4.486003">
        <ele>-5.541472</ele>
        <time>2026-09-03T13:56:04.341Z</time>
      </trkpt>
      <trkpt lat="51.972183" lon="4.485414">
        <ele>-5.793539</ele>
        <time>2026-09-03T13:56:10.330Z</time>
      </trkpt>
      <trkpt lat="51.972241" lon="4.485343">
        <ele>-5.833119</ele>
        <time>2026-09-03T13:56:11.259Z</time>
      </trkpt>
      <trkpt lat="51.972345" lon="4.485294">
        <ele>-5.892122</ele>
        <time>2026-09-03T13:56:12.641Z</time>
      </trkpt>
      <trkpt lat="51.972560" lon="4.486680">
        <ele>-6.304685</ele>
        <time>2026-09-03T13:56:24.077Z</time>
      </trkpt>
      <trkpt lat="51.972630" lon="4.487383">
        <ele>-6.387853</ele>
        <time>2026-09-03T13:56:30.048Z</time>
      </trkpt>
      <trkpt lat="51.972672" lon="4.488450">
        <ele>-6.512721</ele>
        <time>2026-09-03T13:56:39.557Z</time>
      </trkpt>
      <trkpt lat="51.972640" lon="4.489325">
        <ele>-6.607663</ele>
        <time>2026-09-03T13:56:47.938Z</time>
      </trkpt>
      <trkpt lat="51.972527" lon="4.490997">
        <ele>-6.526796</ele>
        <time>2026-09-03T13:57:03.617Z</time>
      </trkpt>
      <trkpt lat="51.972430" lon="4.492031">
        <ele>-6.476511</ele>
        <time>2026-09-03T13:57:12.667Z</time>
      </trkpt>
      <trkpt lat="51.972226" lon="4.493695">
        <ele>-5.761083</ele>
        <time>2026-09-03T13:57:29.919Z</time>
      </trkpt>
      <trkpt lat="51.971956" lon="4.495469">
        <ele>-4.905927</ele>
        <time>2026-09-03T13:57:52.531Z</time>
      </trkpt>
      <trkpt lat="51.971944" lon="4.495654">
        <ele>-4.812779</ele>
        <time>2026-09-03T13:57:54.614Z</time>
      </trkpt>
      <trkpt lat="51.971941" lon="4.495693">
        <ele>-4.793098</ele>
        <time>2026-09-03T13:57:55.042Z</time>
      </trkpt>
      <trkpt lat="51.971926" lon="4.495864">
        <ele>-4.706608</ele>
        <time>2026-09-03T13:57:57.011Z</time>
      </trkpt>
      <trkpt lat="51.971920" lon="4.495898">
        <ele>-4.688899</ele>
        <time>2026-09-03T13:57:57.374Z</time>
      </trkpt>
      <trkpt lat="51.971912" lon="4.495993">
        <ele>-4.640886</ele>
        <time>2026-09-03T13:57:58.431Z</time>
      </trkpt>
      <trkpt lat="51.971904" lon="4.496115">
        <ele>-4.579451</ele>
        <time>2026-09-03T13:57:59.847Z</time>
      </trkpt>
      <trkpt lat="51.971872" lon="4.496617">
        <ele>-4.326738</ele>
        <time>2026-09-03T13:58:05.270Z</time>
      </trkpt>
      <trkpt lat="51.971914" lon="4.497269">
        <ele>-3.998477</ele>
        <time>2026-09-03T13:58:12.260Z</time>
      </trkpt>
      <trkpt lat="51.971954" lon="4.497788">
        <ele>-3.736568</ele>
        <time>2026-09-03T13:58:17.617Z</time>
      </trkpt>
      <trkpt lat="51.971913" lon="4.498317">
        <ele>-3.518230</ele>
        <time>2026-09-03T13:58:23.114Z</time>
      </trkpt>
      <trkpt lat="51.971798" lon="4.498807">
        <ele>-3.318422</ele>
        <time>2026-09-03T13:58:29.337Z</time>
      </trkpt>
      <trkpt lat="51.971600" lon="4.499517">
        <ele>-3.021443</ele>
        <time>2026-09-03T13:58:39.036Z</time>
      </trkpt>
      <trkpt lat="51.971448" lon="4.499965">
        <ele>-2.826551</ele>
        <time>2026-09-03T13:58:44.327Z</time>
      </trkpt>
      <trkpt lat="51.971099" lon="4.500962">
        <ele>-2.461198</ele>
        <time>2026-09-03T13:58:54.269Z</time>
      </trkpt>
      <trkpt lat="51.970852" lon="4.501733">
        <ele>-2.268759</ele>
        <time>2026-09-03T13:59:02.480Z</time>
      </trkpt>
      <trkpt lat="51.970689" lon="4.502419">
        <ele>-2.105940</ele>
        <time>2026-09-03T13:59:10.073Z</time>
      </trkpt>
      <trkpt lat="51.970559" lon="4.502950">
        <ele>-1.979407</ele>
        <time>2026-09-03T13:59:16.311Z</time>
      </trkpt>
      <trkpt lat="51.970361" lon="4.503419">
        <ele>-1.937625</ele>
        <time>2026-09-03T13:59:22.694Z</time>
      </trkpt>
      <trkpt lat="51.970155" lon="4.503732">
        <ele>-1.977187</ele>
        <time>2026-09-03T13:59:27.884Z</time>
      </trkpt>
      <trkpt lat="51.969820" lon="4.504158">
        <ele>-2.036853</ele>
        <time>2026-09-03T13:59:34.783Z</time>
      </trkpt>
      <trkpt lat="51.969669" lon="4.504419">
        <ele>-2.067780</ele>
        <time>2026-09-03T13:59:37.726Z</time>
      </trkpt>
      <trkpt lat="51.968331" lon="4.507097">
        <ele>-3.299583</ele>
        <time>2026-09-03T14:00:03.768Z</time>
      </trkpt>
      <trkpt lat="51.967899" lon="4.507968">
        <ele>-3.554351</ele>
        <time>2026-09-03T14:00:12.958Z</time>
      </trkpt>
      <trkpt lat="51.966547" lon="4.510632">
        <ele>-3.039619</ele>
        <time>2026-09-03T14:00:47.405Z</time>
      </trkpt>
      <trkpt lat="51.965993" lon="4.511774">
        <ele>-2.620100</ele>
        <time>2026-09-03T14:01:02.620Z</time>
      </trkpt>
      <trkpt lat="51.965870" lon="4.512242">
        <ele>-2.483972</ele>
        <time>2026-09-03T14:01:08.187Z</time>
      </trkpt>
      <trkpt lat="51.965770" lon="4.512600">
        <ele>-2.421731</ele>
        <time>2026-09-03T14:01:12.286Z</time>
      </trkpt>
      <trkpt lat="51.965643" lon="4.512894">
        <ele>-2.364875</ele>
        <time>2026-09-03T14:01:15.938Z</time>
      </trkpt>
      <trkpt lat="51.965500" lon="4.513161">
        <ele>-2.308856</ele>
        <time>2026-09-03T14:01:19.573Z</time>
      </trkpt>
      <trkpt lat="51.965220" lon="4.513488">
        <ele>-2.220203</ele>
        <time>2026-09-03T14:01:25.103Z</time>
      </trkpt>
      <trkpt lat="51.965128" lon="4.513585">
        <ele>-2.192008</ele>
        <time>2026-09-03T14:01:26.856Z</time>
      </trkpt>
      <trkpt lat="51.964979" lon="4.513766">
        <ele>-2.144176</ele>
        <time>2026-09-03T14:01:29.616Z</time>
      </trkpt>
      <trkpt lat="51.964822" lon="4.514020">
        <ele>-2.087205</ele>
        <time>2026-09-03T14:01:32.904Z</time>
      </trkpt>
      <trkpt lat="51.964652" lon="4.514376">
        <ele>-2.052553</ele>
        <time>2026-09-03T14:01:36.926Z</time>
      </trkpt>
      <trkpt lat="51.964552" lon="4.514653">
        <ele>-2.100491</ele>
        <time>2026-09-03T14:01:39.819Z</time>
      </trkpt>
      <trkpt lat="51.964421" lon="4.515221">
        <ele>-2.191052</ele>
        <time>2026-09-03T14:01:44.956Z</time>
      </trkpt>
      <trkpt lat="51.964384" lon="4.515979">
        <ele>-2.304591</ele>
        <time>2026-09-03T14:01:51.438Z</time>
      </trkpt>
      <trkpt lat="51.964405" lon="4.516202">
        <ele>-2.338276</ele>
        <time>2026-09-03T14:01:53.255Z</time>
      </trkpt>
      <trkpt lat="51.964530" lon="4.516841">
        <ele>-2.438384</ele>
        <time>2026-09-03T14:01:58.763Z</time>
      </trkpt>
      <trkpt lat="51.964752" lon="4.517837">
        <ele>-2.292044</ele>
        <time>2026-09-03T14:02:08.211Z</time>
      </trkpt>
      <trkpt lat="51.964816" lon="4.518277">
        <ele>-2.196275</ele>
        <time>2026-09-03T14:02:12.301Z</time>
      </trkpt>
      <trkpt lat="51.964759" lon="4.518759">
        <ele>-2.092308</ele>
        <time>2026-09-03T14:02:17.139Z</time>
      </trkpt>
      <trkpt lat="51.964297" lon="4.518278">
        <ele>-1.903598</ele>
        <time>2026-09-03T14:02:30.024Z</time>
      </trkpt>
      <trkpt lat="51.963884" lon="4.517930">
        <ele>-1.721135</ele>
        <time>2026-09-03T14:02:41.595Z</time>
      </trkpt>
      <trkpt lat="51.963578" lon="4.517776">
        <ele>-1.588205</ele>
        <time>2026-09-03T14:02:49.359Z</time>
      </trkpt>
      <trkpt lat="51.963183" lon="4.517866">
        <ele>-1.422704</ele>
        <time>2026-09-03T14:02:58.577Z</time>
      </trkpt>
      <trkpt lat="51.962978" lon="4.517907">
        <ele>-1.337002</ele>
        <time>2026-09-03T14:03:01.995Z</time>
      </trkpt>
      <trkpt lat="51.962859" lon="4.517885">
        <ele>-1.287307</ele>
        <time>2026-09-03T14:03:03.809Z</time>
      </trkpt>
      <trkpt lat="51.962010" lon="4.517778">
        <ele>-1.192088</ele>
        <time>2026-09-03T14:03:15.020Z</time>
      </trkpt>
      <trkpt lat="51.961463" lon="4.517693">
        <ele>-1.306253</ele>
        <time>2026-09-03T14:03:22.256Z</time>
      </trkpt>
      <trkpt lat="51.960960" lon="4.517529">
        <ele>-1.412845</ele>
        <time>2026-09-03T14:03:29.495Z</time>
      </trkpt>
      <trkpt lat="51.960303" lon="4.517180">
        <ele>-1.277442</ele>
        <time>2026-09-03T14:03:40.758Z</time>
      </trkpt>
      <trkpt lat="51.960152" lon="4.517083">
        <ele>-1.188620</ele>
        <time>2026-09-03T14:03:43.695Z</time>
      </trkpt>
      <trkpt lat="51.959701" lon="4.516795">
        <ele>-0.923543</ele>
        <time>2026-09-03T14:03:52.502Z</time>
      </trkpt>
      <trkpt lat="51.959296" lon="4.516477">
        <ele>-0.677470</ele>
        <time>2026-09-03T14:04:00.347Z</time>
      </trkpt>
      <trkpt lat="51.959099" lon="4.516285">
        <ele>-0.551785</ele>
        <time>2026-09-03T14:04:04.182Z</time>
      </trkpt>
      <trkpt lat="51.958742" lon="4.515797">
        <ele>-0.402438</ele>
        <time>2026-09-03T14:04:11.721Z</time>
      </trkpt>
      <trkpt lat="51.957874" lon="4.515206">
        <ele>-0.161114</ele>
        <time>2026-09-03T14:04:26.369Z</time>
      </trkpt>
      <trkpt lat="51.957662" lon="4.515139">
        <ele>-0.105742</ele>
        <time>2026-09-03T14:04:29.689Z</time>
      </trkpt>
      <trkpt lat="51.957376" lon="4.515185">
        <ele>-0.033176</ele>
        <time>2026-09-03T14:04:34.125Z</time>
      </trkpt>
      <trkpt lat="51.956541" lon="4.515628">
        <ele>0.100274</ele>
        <time>2026-09-03T14:04:48.151Z</time>
      </trkpt>
      <trkpt lat="51.956334" lon="4.515858">
        <ele>0.138384</ele>
        <time>2026-09-03T14:04:52.252Z</time>
      </trkpt>
      <trkpt lat="51.955958" lon="4.516160">
        <ele>0.202116</ele>
        <time>2026-09-03T14:04:58.788Z</time>
      </trkpt>
      <trkpt lat="51.955850" lon="4.516190">
        <ele>0.218761</ele>
        <time>2026-09-03T14:05:00.417Z</time>
      </trkpt>
      <trkpt lat="51.955799" lon="4.516204">
        <ele>0.226618</ele>
        <time>2026-09-03T14:05:01.198Z</time>
      </trkpt>
      <trkpt lat="51.955717" lon="4.516230">
        <ele>0.231791</ele>
        <time>2026-09-03T14:05:02.392Z</time>
      </trkpt>
      <trkpt lat="51.955755" lon="4.516551">
        <ele>0.001156</ele>
        <time>2026-09-03T14:05:05.220Z</time>
      </trkpt>
      <trkpt lat="51.955759" lon="4.516974">
        <ele>-0.297342</ele>
        <time>2026-09-03T14:05:08.829Z</time>
      </trkpt>
      <trkpt lat="51.955626" lon="4.517843">
        <ele>-0.929124</ele>
        <time>2026-09-03T14:05:15.619Z</time>
      </trkpt>
      <trkpt lat="51.955565" lon="4.518354">
        <ele>-1.296383</ele>
        <time>2026-09-03T14:05:20.738Z</time>
      </trkpt>
      <trkpt lat="51.955508" lon="4.518717">
        <ele>-1.560696</ele>
        <time>2026-09-03T14:05:23.249Z</time>
      </trkpt>
      <trkpt lat="51.955491" lon="4.518816">
        <ele>-1.633210</ele>
        <time>2026-09-03T14:05:23.926Z</time>
      </trkpt>
      <trkpt lat="51.955443" lon="4.518937">
        <ele>-1.734746</ele>
        <time>2026-09-03T14:05:24.894Z</time>
      </trkpt>
      <trkpt lat="51.955154" lon="4.519330">
        <ele>-2.200970</ele>
        <time>2026-09-03T14:05:29.006Z</time>
      </trkpt>
      <trkpt lat="51.955024" lon="4.519585">
        <ele>-2.457800</ele>
        <time>2026-09-03T14:05:31.307Z</time>
      </trkpt>
      <trkpt lat="51.954762" lon="4.520050">
        <ele>-2.946755</ele>
        <time>2026-09-03T14:05:35.745Z</time>
      </trkpt>
      <trkpt lat="51.954544" lon="4.520203">
        <ele>-3.245853</ele>
        <time>2026-09-03T14:05:38.514Z</time>
      </trkpt>
      <trkpt lat="51.954398" lon="4.520433">
        <ele>-3.502100</ele>
        <time>2026-09-03T14:05:41.023Z</time>
      </trkpt>
      <trkpt lat="51.954327" lon="4.520556">
        <ele>-3.632889</ele>
        <time>2026-09-03T14:05:42.401Z</time>
      </trkpt>
      <trkpt lat="51.954265" lon="4.520656">
        <ele>-3.742972</ele>
        <time>2026-09-03T14:05:43.540Z</time>
      </trkpt>
      <trkpt lat="51.953692" lon="4.521936">
        <ele>-4.375080</ele>
        <time>2026-09-03T14:05:57.266Z</time>
      </trkpt>
      <trkpt lat="51.953535" lon="4.522215">
        <ele>-4.470913</ele>
        <time>2026-09-03T14:06:00.384Z</time>
      </trkpt>
      <trkpt lat="51.952172" lon="4.524646">
        <ele>-4.930272</ele>
        <time>2026-09-03T14:06:27.317Z</time>
      </trkpt>
      <trkpt lat="51.952095" lon="4.524746">
        <ele>-4.939107</ele>
        <time>2026-09-03T14:06:28.812Z</time>
      </trkpt>
      <trkpt lat="51.951923" lon="4.524863">
        <ele>-4.955814</ele>
        <time>2026-09-03T14:06:31.920Z</time>
      </trkpt>
      <trkpt lat="51.951847" lon="4.524889">
        <ele>-4.962772</ele>
        <time>2026-09-03T14:06:33.302Z</time>
      </trkpt>
      <trkpt lat="51.951014" lon="4.525213">
        <ele>-4.975630</ele>
        <time>2026-09-03T14:06:48.284Z</time>
      </trkpt>
      <trkpt lat="51.950881" lon="4.525151">
        <ele>-4.972869</ele>
        <time>2026-09-03T14:06:50.561Z</time>
      </trkpt>
      <trkpt lat="51.950845" lon="4.525149">
        <ele>-4.972150</ele>
        <time>2026-09-03T14:06:51.134Z</time>
      </trkpt>
      <trkpt lat="51.950738" lon="4.525128">
        <ele>-4.969998</ele>
        <time>2026-09-03T14:06:52.841Z</time>
      </trkpt>
      <trkpt lat="51.950520" lon="4.525145">
        <ele>-4.965642</ele>
        <time>2026-09-03T14:06:56.029Z</time>
      </trkpt>
      <trkpt lat="51.949148" lon="4.525726">
        <ele>-4.991849</ele>
        <time>2026-09-03T14:07:14.375Z</time>
      </trkpt>
      <trkpt lat="51.948555" lon="4.526110">
        <ele>-5.028619</ele>
        <time>2026-09-03T14:07:24.388Z</time>
      </trkpt>
      <trkpt lat="51.948024" lon="4.526362">
        <ele>-5.030129</ele>
        <time>2026-09-03T14:07:33.743Z</time>
      </trkpt>
      <trkpt lat="51.947880" lon="4.526425">
        <ele>-4.991557</ele>
        <time>2026-09-03T14:07:36.322Z</time>
      </trkpt>
      <trkpt lat="51.947178" lon="4.526706">
        <ele>-4.804561</ele>
        <time>2026-09-03T14:07:47.828Z</time>
      </trkpt>
      <trkpt lat="51.946934" lon="4.526851">
        <ele>-4.737357</ele>
        <time>2026-09-03T14:07:51.906Z</time>
      </trkpt>
      <trkpt lat="51.946755" lon="4.526959">
        <ele>-4.687966</ele>
        <time>2026-09-03T14:07:54.759Z</time>
      </trkpt>
      <trkpt lat="51.946480" lon="4.527092">
        <ele>-4.613752</ele>
        <time>2026-09-03T14:07:59.058Z</time>
      </trkpt>
      <trkpt lat="51.946402" lon="4.527107">
        <ele>-4.593438</ele>
        <time>2026-09-03T14:08:00.263Z</time>
      </trkpt>
      <trkpt lat="51.945871" lon="4.527148">
        <ele>-4.474833</ele>
        <time>2026-09-03T14:08:09.145Z</time>
      </trkpt>
      <trkpt lat="51.945680" lon="4.527126">
        <ele>-4.432297</ele>
        <time>2026-09-03T14:08:12.090Z</time>
      </trkpt>
      <trkpt lat="51.945287" lon="4.527080">
        <ele>-4.344768</ele>
        <time>2026-09-03T14:08:18.197Z</time>
      </trkpt>
      <trkpt lat="51.945177" lon="4.527054">
        <ele>-4.320075</ele>
        <time>2026-09-03T14:08:19.869Z</time>
      </trkpt>
      <trkpt lat="51.945026" lon="4.527024">
        <ele>-4.286281</ele>
        <time>2026-09-03T14:08:22.210Z</time>
      </trkpt>
      <trkpt lat="51.944890" lon="4.526996">
        <ele>-4.255827</ele>
        <time>2026-09-03T14:08:24.303Z</time>
      </trkpt>
      <trkpt lat="51.944865" lon="4.527270">
        <ele>-4.217899</ele>
        <time>2026-09-03T14:08:26.902Z</time>
      </trkpt>
      <trkpt lat="51.944848" lon="4.527487">
        <ele>-4.187180</ele>
        <time>2026-09-03T14:08:28.930Z</time>
      </trkpt>
      <trkpt lat="51.944828" lon="4.527743">
        <ele>-4.140007</ele>
        <time>2026-09-03T14:08:31.417Z</time>
      </trkpt>
      <trkpt lat="51.944286" lon="4.527719">
        <ele>-3.979210</ele>
        <time>2026-09-03T14:08:40.270Z</time>
      </trkpt>
      <trkpt lat="51.943986" lon="4.527761">
        <ele>-3.889910</ele>
        <time>2026-09-03T14:08:44.859Z</time>
      </trkpt>
      <trkpt lat="51.943710" lon="4.527871">
        <ele>-3.805625</ele>
        <time>2026-09-03T14:08:49.794Z</time>
      </trkpt>
      <trkpt lat="51.942850" lon="4.528412">
        <ele>-3.531170</ele>
        <time>2026-09-03T14:09:04.716Z</time>
      </trkpt>
      <trkpt lat="51.942025" lon="4.528804">
        <ele>-3.274376</ele>
        <time>2026-09-03T14:09:18.371Z</time>
      </trkpt>
      <trkpt lat="51.940031" lon="4.529643">
        <ele>-2.782288</ele>
        <time>2026-09-03T14:09:51.388Z</time>
      </trkpt>
      <trkpt lat="51.939766" lon="4.529807">
        <ele>-2.730627</ele>
        <time>2026-09-03T14:09:55.372Z</time>
      </trkpt>
      <trkpt lat="51.939706" lon="4.529833">
        <ele>-2.741262</ele>
        <time>2026-09-03T14:09:56.245Z</time>
      </trkpt>
      <trkpt lat="51.939635" lon="4.529863">
        <ele>-2.753826</ele>
        <time>2026-09-03T14:09:57.264Z</time>
      </trkpt>
      <trkpt lat="51.939610" lon="4.529872">
        <ele>-2.758211</ele>
        <time>2026-09-03T14:09:57.635Z</time>
      </trkpt>
      <trkpt lat="51.939581" lon="4.529886">
        <ele>-2.763392</ele>
        <time>2026-09-03T14:09:58.063Z</time>
      </trkpt>
      <trkpt lat="51.939180" lon="4.530003">
        <ele>-2.833160</ele>
        <time>2026-09-03T14:10:03.742Z</time>
      </trkpt>
      <trkpt lat="51.937716" lon="4.530625">
        <ele>-3.096746</ele>
        <time>2026-09-03T14:10:25.194Z</time>
      </trkpt>
      <trkpt lat="51.936838" lon="4.531115">
        <ele>-3.267851</ele>
        <time>2026-09-03T14:10:38.174Z</time>
      </trkpt>
      <trkpt lat="51.936695" lon="4.531173">
        <ele>-3.295014</ele>
        <time>2026-09-03T14:10:40.295Z</time>
      </trkpt>
      <trkpt lat="51.936591" lon="4.531219">
        <ele>-3.314879</ele>
        <time>2026-09-03T14:10:41.842Z</time>
      </trkpt>
      <trkpt lat="51.936401" lon="4.531299">
        <ele>-3.351052</ele>
        <time>2026-09-03T14:10:44.659Z</time>
      </trkpt>
      <trkpt lat="51.936061" lon="4.531434">
        <ele>-3.354434</ele>
        <time>2026-09-03T14:10:49.837Z</time>
      </trkpt>
      <trkpt lat="51.935690" lon="4.531497">
        <ele>-3.339217</ele>
        <time>2026-09-03T14:10:55.494Z</time>
      </trkpt>
      <trkpt lat="51.933618" lon="4.532364">
        <ele>-3.318590</ele>
        <time>2026-09-03T14:11:27.751Z</time>
      </trkpt>
      <trkpt lat="51.932785" lon="4.532860">
        <ele>-3.327125</ele>
        <time>2026-09-03T14:11:40.340Z</time>
      </trkpt>
      <trkpt lat="51.932705" lon="4.532892">
        <ele>-3.312444</ele>
        <time>2026-09-03T14:11:41.538Z</time>
      </trkpt>
      <trkpt lat="51.932646" lon="4.532918">
        <ele>-3.301551</ele>
        <time>2026-09-03T14:11:42.420Z</time>
      </trkpt>
      <trkpt lat="51.932060" lon="4.533061">
        <ele>-3.195964</ele>
        <time>2026-09-03T14:11:51.313Z</time>
      </trkpt>
      <trkpt lat="51.929288" lon="4.534199">
        <ele>-2.351785</ele>
        <time>2026-09-03T14:12:37.956Z</time>
      </trkpt>
      <trkpt lat="51.927608" lon="4.534583">
        <ele>-1.986011</ele>
        <time>2026-09-03T14:13:04.325Z</time>
      </trkpt>
      <trkpt lat="51.927475" lon="4.534584">
        <ele>-1.951432</ele>
        <time>2026-09-03T14:13:06.438Z</time>
      </trkpt>
      <trkpt lat="51.927339" lon="4.534560">
        <ele>-1.914153</ele>
        <time>2026-09-03T14:13:08.608Z</time>
      </trkpt>
      <trkpt lat="51.927100" lon="4.534499">
        <ele>-1.848225</ele>
        <time>2026-09-03T14:13:12.425Z</time>
      </trkpt>
      <trkpt lat="51.926283" lon="4.534128">
        <ele>-1.617030</ele>
        <time>2026-09-03T14:13:25.964Z</time>
      </trkpt>
      <trkpt lat="51.925797" lon="4.533876">
        <ele>-1.472524</ele>
        <time>2026-09-03T14:13:34.015Z</time>
      </trkpt>
      <trkpt lat="51.925710" lon="4.533829">
        <ele>-1.435751</ele>
        <time>2026-09-03T14:13:35.486Z</time>
      </trkpt>
      <trkpt lat="51.925580" lon="4.533757">
        <ele>-1.380662</ele>
        <time>2026-09-03T14:13:37.698Z</time>
      </trkpt>
      <trkpt lat="51.925470" lon="4.533697">
        <ele>-1.334121</ele>
        <time>2026-09-03T14:13:39.586Z</time>
      </trkpt>
      <trkpt lat="51.925424" lon="4.533671">
        <ele>-1.314586</ele>
        <time>2026-09-03T14:13:40.380Z</time>
      </trkpt>
      <trkpt lat="51.924026" lon="4.532887">
        <ele>-0.728640</ele>
        <time>2026-09-03T14:14:05.222Z</time>
      </trkpt>
      <trkpt lat="51.922599" lon="4.532083">
        <ele>-0.216528</ele>
        <time>2026-09-03T14:14:29.842Z</time>
      </trkpt>
      <trkpt lat="51.922567" lon="4.532063">
        <ele>-0.204903</ele>
        <time>2026-09-03T14:14:30.392Z</time>
      </trkpt>
      <trkpt lat="51.922472" lon="4.532008">
        <ele>-0.170707</ele>
        <time>2026-09-03T14:14:31.929Z</time>
      </trkpt>
      <trkpt lat="51.922409" lon="4.531971">
        <ele>-0.155429</ele>
        <time>2026-09-03T14:14:32.981Z</time>
      </trkpt>
      <trkpt lat="51.922283" lon="4.531896">
        <ele>-0.141916</ele>
        <time>2026-09-03T14:14:35.012Z</time>
      </trkpt>
      <trkpt lat="51.922042" lon="4.531745">
        <ele>-0.115905</ele>
        <time>2026-09-03T14:14:38.832Z</time>
      </trkpt>
      <trkpt lat="51.921883" lon="4.531645">
        <ele>-0.098735</ele>
        <time>2026-09-03T14:14:41.305Z</time>
      </trkpt>
      <trkpt lat="51.921570" lon="4.531451">
        <ele>-0.065000</ele>
        <time>2026-09-03T14:14:46.069Z</time>
      </trkpt>
      <trkpt lat="51.920573" lon="4.530853">
        <ele>0.228646</ele>
        <time>2026-09-03T14:15:01.926Z</time>
      </trkpt>
      <trkpt lat="51.920548" lon="4.530839">
        <ele>0.256777</ele>
        <time>2026-09-03T14:15:02.368Z</time>
      </trkpt>
      <trkpt lat="51.920432" lon="4.530778">
        <ele>0.386481</ele>
        <time>2026-09-03T14:15:04.443Z</time>
      </trkpt>
      <trkpt lat="51.920333" lon="4.530716">
        <ele>0.499358</ele>
        <time>2026-09-03T14:15:06.316Z</time>
      </trkpt>
      <trkpt lat="51.920260" lon="4.530673">
        <ele>0.581965</ele>
        <time>2026-09-03T14:15:07.699Z</time>
      </trkpt>
      <trkpt lat="51.919233" lon="4.530055">
        <ele>1.747078</ele>
        <time>2026-09-03T14:15:30.585Z</time>
      </trkpt>
      <trkpt lat="51.919188" lon="4.530031">
        <ele>1.797462</ele>
        <time>2026-09-03T14:15:31.616Z</time>
      </trkpt>
      <trkpt lat="51.919052" lon="4.529954">
        <ele>1.945929</ele>
        <time>2026-09-03T14:15:34.591Z</time>
      </trkpt>
      <trkpt lat="51.918215" lon="4.529459">
        <ele>2.596434</ele>
        <time>2026-09-03T14:15:51.301Z</time>
      </trkpt>
      <trkpt lat="51.917924" lon="4.529324">
        <ele>2.817428</ele>
        <time>2026-09-03T14:15:56.263Z</time>
      </trkpt>
      <trkpt lat="51.917417" lon="4.529235">
        <ele>3.189768</ele>
        <time>2026-09-03T14:16:04.174Z</time>
      </trkpt>
      <trkpt lat="51.916734" lon="4.529313">
        <ele>3.337907</ele>
        <time>2026-09-03T14:16:15.893Z</time>
      </trkpt>
      <trkpt lat="51.916615" lon="4.529338">
        <ele>3.355618</ele>
        <time>2026-09-03T14:16:18.064Z</time>
      </trkpt>
      <trkpt lat="51.916569" lon="4.529335">
        <ele>3.362413</ele>
        <time>2026-09-03T14:16:18.900Z</time>
      </trkpt>
      <trkpt lat="51.916244" lon="4.529303">
        <ele>3.410471</ele>
        <time>2026-09-03T14:16:24.488Z</time>
      </trkpt>
      <trkpt lat="51.915800" lon="4.529157">
        <ele>3.477339</ele>
        <time>2026-09-03T14:16:31.342Z</time>
      </trkpt>
      <trkpt lat="51.915743" lon="4.529136">
        <ele>3.485966</ele>
        <time>2026-09-03T14:16:32.135Z</time>
      </trkpt>
      <trkpt lat="51.915639" lon="4.529108">
        <ele>3.501527</ele>
        <time>2026-09-03T14:16:33.519Z</time>
      </trkpt>
      <trkpt lat="51.915516" lon="4.529043">
        <ele>3.468602</ele>
        <time>2026-09-03T14:16:35.099Z</time>
      </trkpt>
      <trkpt lat="51.914726" lon="4.528635">
        <ele>2.591402</ele>
        <time>2026-09-03T14:16:44.886Z</time>
      </trkpt>
      <trkpt lat="51.914621" lon="4.528553">
        <ele>2.468095</ele>
        <time>2026-09-03T14:16:46.264Z</time>
      </trkpt>
      <trkpt lat="51.914567" lon="4.528492">
        <ele>2.398462</ele>
        <time>2026-09-03T14:16:47.030Z</time>
      </trkpt>
      <trkpt lat="51.914495" lon="4.528432">
        <ele>2.312812</ele>
        <time>2026-09-03T14:16:47.975Z</time>
      </trkpt>
      <trkpt lat="51.914327" lon="4.528252">
        <ele>2.099759</ele>
        <time>2026-09-03T14:16:50.301Z</time>
      </trkpt>
      <trkpt lat="51.913869" lon="4.527986">
        <ele>1.601779</ele>
        <time>2026-09-03T14:16:58.612Z</time>
      </trkpt>
      <trkpt lat="51.913746" lon="4.527952">
        <ele>1.553910</ele>
        <time>2026-09-03T14:17:00.166Z</time>
      </trkpt>
      <trkpt lat="51.913645" lon="4.527912">
        <ele>1.514023</ele>
        <time>2026-09-03T14:17:01.499Z</time>
      </trkpt>
      <trkpt lat="51.913529" lon="4.527800">
        <ele>1.462226</ele>
        <time>2026-09-03T14:17:03.293Z</time>
      </trkpt>
      <trkpt lat="51.911150" lon="4.526407">
        <ele>0.448392</ele>
        <time>2026-09-03T14:17:38.873Z</time>
      </trkpt>
      <trkpt lat="51.910909" lon="4.526276">
        <ele>0.341011</ele>
        <time>2026-09-03T14:17:42.314Z</time>
      </trkpt>
      <trkpt lat="51.910580" lon="4.526102">
        <ele>0.194815</ele>
        <time>2026-09-03T14:17:46.644Z</time>
      </trkpt>
      <trkpt lat="51.910351" lon="4.526076">
        <ele>0.087347</ele>
        <time>2026-09-03T14:17:49.397Z</time>
      </trkpt>
      <trkpt lat="51.910120" lon="4.526124">
        <ele>-0.027266</ele>
        <time>2026-09-03T14:17:52.302Z</time>
      </trkpt>
      <trkpt lat="51.909966" lon="4.526223">
        <ele>-0.108796</ele>
        <time>2026-09-03T14:17:54.404Z</time>
      </trkpt>
      <trkpt lat="51.909829" lon="4.526423">
        <ele>-0.199530</ele>
        <time>2026-09-03T14:17:56.741Z</time>
      </trkpt>
      <trkpt lat="51.909785" lon="4.526537">
        <ele>-0.240355</ele>
        <time>2026-09-03T14:17:57.799Z</time>
      </trkpt>
      <trkpt lat="51.909694" lon="4.526964">
        <ele>-0.377509</ele>
        <time>2026-09-03T14:18:01.433Z</time>
      </trkpt>
      <trkpt lat="51.909309" lon="4.528827">
        <ele>-0.552886</ele>
        <time>2026-09-03T14:18:19.117Z</time>
      </trkpt>
      <trkpt lat="51.909085" lon="4.529913">
        <ele>-0.315558</ele>
        <time>2026-09-03T14:18:30.980Z</time>
      </trkpt>
      <trkpt lat="51.908880" lon="4.530902">
        <ele>-0.066790</ele>
        <time>2026-09-03T14:18:41.534Z</time>
      </trkpt>
      <trkpt lat="51.908623" lon="4.532165">
        <ele>0.653935</ele>
        <time>2026-09-03T14:18:56.368Z</time>
      </trkpt>
      <trkpt lat="51.908448" lon="4.533015">
        <ele>1.139549</ele>
        <time>2026-09-03T14:19:06.688Z</time>
      </trkpt>
      <trkpt lat="51.908373" lon="4.533404">
        <ele>1.360415</ele>
        <time>2026-09-03T14:19:11.495Z</time>
      </trkpt>
      <trkpt lat="51.908302" lon="4.533999">
        <ele>1.783046</ele>
        <time>2026-09-03T14:19:18.828Z</time>
      </trkpt>
      <trkpt lat="51.908269" lon="4.534553">
        <ele>2.209136</ele>
        <time>2026-09-03T14:19:25.693Z</time>
      </trkpt>
      <trkpt lat="51.908288" lon="4.535386">
        <ele>2.847280</ele>
        <time>2026-09-03T14:19:35.826Z</time>
      </trkpt>
      <trkpt lat="51.908359" lon="4.536161">
        <ele>3.447092</ele>
        <time>2026-09-03T14:19:45.578Z</time>
      </trkpt>
      <trkpt lat="51.908452" lon="4.536681">
        <ele>3.784809</ele>
        <time>2026-09-03T14:19:52.276Z</time>
      </trkpt>
      <trkpt lat="51.908784" lon="4.538035">
        <ele>4.393711</ele>
        <time>2026-09-03T14:20:09.585Z</time>
      </trkpt>
      <trkpt lat="51.908892" lon="4.538463">
        <ele>4.586958</ele>
        <time>2026-09-03T14:20:14.495Z</time>
      </trkpt>
      <trkpt lat="51.909199" lon="4.539745">
        <ele>4.675587</ele>
        <time>2026-09-03T14:20:26.447Z</time>
      </trkpt>
      <trkpt lat="51.909275" lon="4.539807">
        <ele>4.621478</ele>
        <time>2026-09-03T14:20:27.556Z</time>
      </trkpt>
      <trkpt lat="51.909423" lon="4.539833">
        <ele>4.526804</ele>
        <time>2026-09-03T14:20:29.512Z</time>
      </trkpt>
      <trkpt lat="51.909514" lon="4.539805">
        <ele>4.467897</ele>
        <time>2026-09-03T14:20:30.734Z</time>
      </trkpt>
      <trkpt lat="51.909703" lon="4.539662">
        <ele>4.335251</ele>
        <time>2026-09-03T14:20:33.405Z</time>
      </trkpt>
      <trkpt lat="51.910603" lon="4.538961">
        <ele>3.793728</ele>
        <time>2026-09-03T14:20:45.395Z</time>
      </trkpt>
      <trkpt lat="51.910857" lon="4.538848">
        <ele>3.860526</ele>
        <time>2026-09-03T14:20:49.333Z</time>
      </trkpt>
      <trkpt lat="51.911085" lon="4.538844">
        <ele>3.918351</ele>
        <time>2026-09-03T14:20:52.853Z</time>
      </trkpt>
      <trkpt lat="51.911448" lon="4.538972">
        <ele>4.012563</ele>
        <time>2026-09-03T14:20:58.737Z</time>
      </trkpt>
      <trkpt lat="51.911560" lon="4.538951">
        <ele>4.041156</ele>
        <time>2026-09-03T14:21:00.567Z</time>
      </trkpt>
      <trkpt lat="51.911684" lon="4.538774">
        <ele>4.083057</ele>
        <time>2026-09-03T14:21:03.306Z</time>
      </trkpt>
      <trkpt lat="51.911707" lon="4.538601">
        <ele>4.110743</ele>
        <time>2026-09-03T14:21:05.154Z</time>
      </trkpt>
      <trkpt lat="51.911696" lon="4.538468">
        <ele>4.131736</ele>
        <time>2026-09-03T14:21:06.577Z</time>
      </trkpt>
      <trkpt lat="51.911607" lon="4.538272">
        <ele>4.169810</ele>
        <time>2026-09-03T14:21:09.256Z</time>
      </trkpt>
      <trkpt lat="51.911440" lon="4.538184">
        <ele>4.214344</ele>
        <time>2026-09-03T14:21:12.520Z</time>
      </trkpt>
      <trkpt lat="51.910892" lon="4.538485">
        <ele>4.757773</ele>
        <time>2026-09-03T14:21:23.984Z</time>
      </trkpt>
      <trkpt lat="51.910153" lon="4.538967">
        <ele>5.541090</ele>
        <time>2026-09-03T14:21:38.986Z</time>
      </trkpt>
      <trkpt lat="51.909606" lon="4.539323">
        <ele>6.029898</ele>
        <time>2026-09-03T14:21:50.168Z</time>
      </trkpt>
      <trkpt lat="51.909417" lon="4.539438">
        <ele>6.088429</ele>
        <time>2026-09-03T14:21:53.877Z</time>
      </trkpt>
      <trkpt lat="51.905176" lon="4.542439">
        <ele>7.291828</ele>
        <time>2026-09-03T14:23:06.214Z</time>
      </trkpt>
      <trkpt lat="51.904811" lon="4.542693">
        <ele>7.366701</ele>
        <time>2026-09-03T14:23:12.278Z</time>
      </trkpt>
      <trkpt lat="51.900812" lon="4.545540">
        <ele>7.804939</ele>
        <time>2026-09-03T14:24:18.813Z</time>
      </trkpt>
      <trkpt lat="51.900332" lon="4.545961">
        <ele>7.858072</ele>
        <time>2026-09-03T14:24:27.146Z</time>
      </trkpt>
      <trkpt lat="51.899611" lon="4.546716">
        <ele>7.760478</ele>
        <time>2026-09-03T14:24:40.243Z</time>
      </trkpt>
      <trkpt lat="51.899175" lon="4.547240">
        <ele>7.522134</ele>
        <time>2026-09-03T14:24:48.303Z</time>
      </trkpt>
      <trkpt lat="51.898655" lon="4.548011">
        <ele>7.212663</ele>
        <time>2026-09-03T14:24:57.491Z</time>
      </trkpt>
      <trkpt lat="51.898539" lon="4.548219">
        <ele>7.136699</ele>
        <time>2026-09-03T14:24:59.603Z</time>
      </trkpt>
      <trkpt lat="51.898316" lon="4.548709">
        <ele>6.743911</ele>
        <time>2026-09-03T14:25:03.972Z</time>
      </trkpt>
      <trkpt lat="51.898252" lon="4.548969">
        <ele>6.550727</ele>
        <time>2026-09-03T14:25:05.911Z</time>
      </trkpt>
      <trkpt lat="51.898231" lon="4.549164">
        <ele>6.414117</ele>
        <time>2026-09-03T14:25:07.249Z</time>
      </trkpt>
      <trkpt lat="51.898247" lon="4.549363">
        <ele>6.275620</ele>
        <time>2026-09-03T14:25:08.576Z</time>
      </trkpt>
      <trkpt lat="51.898346" lon="4.549635">
        <ele>6.057683</ele>
        <time>2026-09-03T14:25:10.643Z</time>
      </trkpt>
      <trkpt lat="51.898408" lon="4.549734">
        <ele>5.960336</ele>
        <time>2026-09-03T14:25:11.586Z</time>
      </trkpt>
      <trkpt lat="51.898508" lon="4.549813">
        <ele>5.835913</ele>
        <time>2026-09-03T14:25:12.831Z</time>
      </trkpt>
      <trkpt lat="51.898685" lon="4.549852">
        <ele>5.636132</ele>
        <time>2026-09-03T14:25:14.975Z</time>
      </trkpt>
      <trkpt lat="51.898787" lon="4.549818">
        <ele>5.519665</ele>
        <time>2026-09-03T14:25:16.354Z</time>
      </trkpt>
      <trkpt lat="51.898876" lon="4.549735">
        <ele>5.404822</ele>
        <time>2026-09-03T14:25:17.829Z</time>
      </trkpt>
      <trkpt lat="51.898961" lon="4.549589">
        <ele>5.266295</ele>
        <time>2026-09-03T14:25:19.739Z</time>
      </trkpt>
      <trkpt lat="51.899060" lon="4.549231">
        <ele>5.116904</ele>
        <time>2026-09-03T14:25:23.800Z</time>
      </trkpt>
      <trkpt lat="51.899059" lon="4.549139">
        <ele>5.122328</ele>
        <time>2026-09-03T14:25:24.755Z</time>
      </trkpt>
      <trkpt lat="51.899056" lon="4.548693">
        <ele>5.148623</ele>
        <time>2026-09-03T14:25:29.376Z</time>
      </trkpt>
      <trkpt lat="51.898957" lon="4.548148">
        <ele>5.182116</ele>
        <time>2026-09-03T14:25:35.088Z</time>
      </trkpt>
      <trkpt lat="51.898862" lon="4.547817">
        <ele>5.203637</ele>
        <time>2026-09-03T14:25:38.703Z</time>
      </trkpt>
      <trkpt lat="51.898689" lon="4.547425">
        <ele>5.232049</ele>
        <time>2026-09-03T14:25:43.807Z</time>
      </trkpt>
      <trkpt lat="51.898435" lon="4.546977">
        <ele>5.267916</ele>
        <time>2026-09-03T14:25:49.533Z</time>
      </trkpt>
      <trkpt lat="51.898314" lon="4.546857">
        <ele>5.265551</ele>
        <time>2026-09-03T14:25:51.394Z</time>
      </trkpt>
      <trkpt lat="51.898176" lon="4.546849">
        <ele>5.186344</ele>
        <time>2026-09-03T14:25:53.117Z</time>
      </trkpt>
      <trkpt lat="51.898103" lon="4.546889">
        <ele>5.142142</ele>
        <time>2026-09-03T14:25:54.035Z</time>
      </trkpt>
      <trkpt lat="51.897579" lon="4.547441">
        <ele>4.783654</ele>
        <time>2026-09-03T14:26:01.536Z</time>
      </trkpt>
      <trkpt lat="51.897478" lon="4.547457">
        <ele>4.725444</ele>
        <time>2026-09-03T14:26:02.825Z</time>
      </trkpt>
      <trkpt lat="51.897380" lon="4.547415">
        <ele>4.667299</ele>
        <time>2026-09-03T14:26:04.147Z</time>
      </trkpt>
      <trkpt lat="51.897263" lon="4.547254">
        <ele>4.579257</ele>
        <time>2026-09-03T14:26:06.261Z</time>
      </trkpt>
      <trkpt lat="51.897215" lon="4.547107">
        <ele>4.520390</ele>
        <time>2026-09-03T14:26:07.766Z</time>
      </trkpt>
      <trkpt lat="51.897125" lon="4.546792">
        <ele>4.397523</ele>
        <time>2026-09-03T14:26:10.993Z</time>
      </trkpt>
      <trkpt lat="51.897060" lon="4.546311">
        <ele>4.213572</ele>
        <time>2026-09-03T14:26:15.174Z</time>
      </trkpt>
      <trkpt lat="51.896992" lon="4.545743">
        <ele>3.927186</ele>
        <time>2026-09-03T14:26:19.936Z</time>
      </trkpt>
      <trkpt lat="51.896867" lon="4.545420">
        <ele>3.738471</ele>
        <time>2026-09-03T14:26:23.054Z</time>
      </trkpt>
      <trkpt lat="51.896778" lon="4.545361">
        <ele>3.661340</ele>
        <time>2026-09-03T14:26:24.312Z</time>
      </trkpt>
      <trkpt lat="51.896244" lon="4.545387">
        <ele>3.232813</ele>
        <time>2026-09-03T14:26:30.893Z</time>
      </trkpt>
      <trkpt lat="51.896174" lon="4.545426">
        <ele>3.173439</ele>
        <time>2026-09-03T14:26:31.766Z</time>
      </trkpt>
      <trkpt lat="51.896144" lon="4.545647">
        <ele>3.061433</ele>
        <time>2026-09-03T14:26:33.376Z</time>
      </trkpt>
      <trkpt lat="51.896141" lon="4.546267">
        <ele>2.769236</ele>
        <time>2026-09-03T14:26:37.781Z</time>
      </trkpt>
      <trkpt lat="51.896123" lon="4.546367">
        <ele>2.732766</ele>
        <time>2026-09-03T14:26:38.539Z</time>
      </trkpt>
      <trkpt lat="51.896070" lon="4.546477">
        <ele>2.683905</ele>
        <time>2026-09-03T14:26:39.555Z</time>
      </trkpt>
      <trkpt lat="51.895851" lon="4.546780">
        <ele>2.520528</ele>
        <time>2026-09-03T14:26:43.212Z</time>
      </trkpt>
      <trkpt lat="51.895735" lon="4.546946">
        <ele>2.432727</ele>
        <time>2026-09-03T14:26:45.401Z</time>
      </trkpt>
      <trkpt lat="51.895991" lon="4.547840">
        <ele>2.087670</ele>
        <time>2026-09-03T14:26:53.800Z</time>
      </trkpt>
      <trkpt lat="51.896125" lon="4.548602">
        <ele>1.810265</ele>
        <time>2026-09-03T14:27:00.579Z</time>
      </trkpt>
      <trkpt lat="51.896193" lon="4.549650">
        <ele>1.406764</ele>
        <time>2026-09-03T14:27:09.571Z</time>
      </trkpt>
      <trkpt lat="51.896171" lon="4.550601">
        <ele>1.039998</ele>
        <time>2026-09-03T14:27:16.775Z</time>
      </trkpt>
      <trkpt lat="51.896067" lon="4.551474">
        <ele>0.697337</ele>
        <time>2026-09-03T14:27:23.692Z</time>
      </trkpt>
      <trkpt lat="51.896012" lon="4.551672">
        <ele>0.648866</ele>
        <time>2026-09-03T14:27:25.401Z</time>
      </trkpt>
      <trkpt lat="51.895891" lon="4.551819">
        <ele>0.624696</ele>
        <time>2026-09-03T14:27:27.360Z</time>
      </trkpt>
      <trkpt lat="51.895801" lon="4.551845">
        <ele>0.610085</ele>
        <time>2026-09-03T14:27:28.563Z</time>
      </trkpt>
      <trkpt lat="51.895585" lon="4.551825">
        <ele>0.575507</ele>
        <time>2026-09-03T14:27:31.471Z</time>
      </trkpt>
      <trkpt lat="51.895486" lon="4.551882">
        <ele>0.558715</ele>
        <time>2026-09-03T14:27:32.918Z</time>
      </trkpt>
      <trkpt lat="51.895410" lon="4.551990">
        <ele>0.542560</ele>
        <time>2026-09-03T14:27:34.373Z</time>
      </trkpt>
      <trkpt lat="51.894931" lon="4.553856">
        <ele>0.354414</ele>
        <time>2026-09-03T14:27:53.548Z</time>
      </trkpt>
      <trkpt lat="51.894617" lon="4.554827">
        <ele>0.286224</ele>
        <time>2026-09-03T14:28:03.512Z</time>
      </trkpt>
      <trkpt lat="51.894128" lon="4.556051">
        <ele>0.195523</ele>
        <time>2026-09-03T14:28:16.246Z</time>
      </trkpt>
      <trkpt lat="51.893566" lon="4.557174">
        <ele>0.008819</ele>
        <time>2026-09-03T14:28:28.612Z</time>
      </trkpt>
      <trkpt lat="51.893085" lon="4.557999">
        <ele>-0.140649</ele>
        <time>2026-09-03T14:28:38.387Z</time>
      </trkpt>
      <trkpt lat="51.892914" lon="4.558244">
        <ele>-0.189359</ele>
        <time>2026-09-03T14:28:41.510Z</time>
      </trkpt>
      <trkpt lat="51.892709" lon="4.558543">
        <ele>-0.141736</ele>
        <time>2026-09-03T14:28:45.571Z</time>
      </trkpt>
      <trkpt lat="51.892179" lon="4.559208">
        <ele>-0.015651</ele>
        <time>2026-09-03T14:28:55.910Z</time>
      </trkpt>
      <trkpt lat="51.891997" lon="4.559421">
        <ele>0.026579</ele>
        <time>2026-09-03T14:28:59.739Z</time>
      </trkpt>
      <trkpt lat="51.891768" lon="4.559599">
        <ele>0.074353</ele>
        <time>2026-09-03T14:29:04.011Z</time>
      </trkpt>
      <trkpt lat="51.891280" lon="4.560026">
        <ele>0.072933</ele>
        <time>2026-09-03T14:29:12.857Z</time>
      </trkpt>
      <trkpt lat="51.890727" lon="4.560419">
        <ele>-0.189109</ele>
        <time>2026-09-03T14:29:21.473Z</time>
      </trkpt>
      <trkpt lat="51.889748" lon="4.561008">
        <ele>-0.642921</ele>
        <time>2026-09-03T14:29:34.817Z</time>
      </trkpt>
      <trkpt lat="51.888973" lon="4.561330">
        <ele>-1.016042</ele>
        <time>2026-09-03T14:29:44.639Z</time>
      </trkpt>
      <trkpt lat="51.888168" lon="4.561655">
        <ele>-1.402940</ele>
        <time>2026-09-03T14:29:56.280Z</time>
      </trkpt>
      <trkpt lat="51.887747" lon="4.561827">
        <ele>-1.353596</ele>
        <time>2026-09-03T14:30:02.541Z</time>
      </trkpt>
      <trkpt lat="51.887003" lon="4.562129">
        <ele>-1.032927</ele>
        <time>2026-09-03T14:30:15.332Z</time>
      </trkpt>
      <trkpt lat="51.885488" lon="4.562704">
        <ele>-0.698823</ele>
        <time>2026-09-03T14:30:42.595Z</time>
      </trkpt>
      <trkpt lat="51.885159" lon="4.562764">
        <ele>-0.689892</ele>
        <time>2026-09-03T14:30:47.345Z</time>
      </trkpt>
      <trkpt lat="51.885069" lon="4.562777">
        <ele>-0.687454</ele>
        <time>2026-09-03T14:30:48.547Z</time>
      </trkpt>
      <trkpt lat="51.884730" lon="4.562824">
        <ele>-0.678275</ele>
        <time>2026-09-03T14:30:53.023Z</time>
      </trkpt>
      <trkpt lat="51.884421" lon="4.562880">
        <ele>-0.722055</ele>
        <time>2026-09-03T14:30:57.001Z</time>
      </trkpt>
      <trkpt lat="51.883993" lon="4.562821">
        <ele>-0.980278</ele>
        <time>2026-09-03T14:31:02.360Z</time>
      </trkpt>
      <trkpt lat="51.883872" lon="4.562846">
        <ele>-1.053606</ele>
        <time>2026-09-03T14:31:03.890Z</time>
      </trkpt>
      <trkpt lat="51.883669" lon="4.562988">
        <ele>-1.186530</ele>
        <time>2026-09-03T14:31:06.787Z</time>
      </trkpt>
      <trkpt lat="51.883383" lon="4.563363">
        <ele>-1.407715</ele>
        <time>2026-09-03T14:31:11.775Z</time>
      </trkpt>
      <trkpt lat="51.883257" lon="4.563460">
        <ele>-1.491578</ele>
        <time>2026-09-03T14:31:13.628Z</time>
      </trkpt>
      <trkpt lat="51.882554" lon="4.563739">
        <ele>-1.824001</ele>
        <time>2026-09-03T14:31:23.041Z</time>
      </trkpt>
      <trkpt lat="51.882096" lon="4.563614">
        <ele>-1.937770</ele>
        <time>2026-09-03T14:31:28.962Z</time>
      </trkpt>
      <trkpt lat="51.881800" lon="4.563400">
        <ele>-2.017169</ele>
        <time>2026-09-03T14:31:33.228Z</time>
      </trkpt>
      <trkpt lat="51.881698" lon="4.563362">
        <ele>-2.042806</ele>
        <time>2026-09-03T14:31:34.664Z</time>
      </trkpt>
      <trkpt lat="51.881128" lon="4.563594">
        <ele>-2.186769</ele>
        <time>2026-09-03T14:31:43.633Z</time>
      </trkpt>
      <trkpt lat="51.881035" lon="4.563687">
        <ele>-2.146627</ele>
        <time>2026-09-03T14:31:45.541Z</time>
      </trkpt>
      <trkpt lat="51.880609" lon="4.564467">
        <ele>-1.765667</ele>
        <time>2026-09-03T14:31:57.441Z</time>
      </trkpt>
      <trkpt lat="51.880483" lon="4.564648">
        <ele>-1.665875</ele>
        <time>2026-09-03T14:32:00.593Z</time>
      </trkpt>
      <trkpt lat="51.880333" lon="4.564763">
        <ele>-1.567538</ele>
        <time>2026-09-03T14:32:03.697Z</time>
      </trkpt>
      <trkpt lat="51.880162" lon="4.564782">
        <ele>-1.465970</ele>
        <time>2026-09-03T14:32:06.839Z</time>
      </trkpt>
      <trkpt lat="51.879072" lon="4.564702">
        <ele>-1.076553</ele>
        <time>2026-09-03T14:32:24.407Z</time>
      </trkpt>
      <trkpt lat="51.878735" lon="4.564769">
        <ele>-1.042932</ele>
        <time>2026-09-03T14:32:29.077Z</time>
      </trkpt>
      <trkpt lat="51.878413" lon="4.564897">
        <ele>-1.010100</ele>
        <time>2026-09-03T14:32:33.697Z</time>
      </trkpt>
      <trkpt lat="51.877667" lon="4.565283">
        <ele>-0.931959</ele>
        <time>2026-09-03T14:32:45.979Z</time>
      </trkpt>
      <trkpt lat="51.877430" lon="4.565491">
        <ele>-0.904363</ele>
        <time>2026-09-03T14:32:50.225Z</time>
      </trkpt>
      <trkpt lat="51.877270" lon="4.565753">
        <ele>-0.881071</ele>
        <time>2026-09-03T14:32:53.742Z</time>
      </trkpt>
      <trkpt lat="51.877083" lon="4.566322">
        <ele>-0.840331</ele>
        <time>2026-09-03T14:32:59.841Z</time>
      </trkpt>
      <trkpt lat="51.876910" lon="4.566569">
        <ele>-0.816722</ele>
        <time>2026-09-03T14:33:03.380Z</time>
      </trkpt>
      <trkpt lat="51.876519" lon="4.567292">
        <ele>-0.752198</ele>
        <time>2026-09-03T14:33:12.270Z</time>
      </trkpt>
      <trkpt lat="51.876412" lon="4.567408">
        <ele>-0.734004</ele>
        <time>2026-09-03T14:33:14.123Z</time>
      </trkpt>
      <trkpt lat="51.876244" lon="4.567421">
        <ele>-0.710237</ele>
        <time>2026-09-03T14:33:16.478Z</time>
      </trkpt>
      <trkpt lat="51.875922" lon="4.567342">
        <ele>-0.664215</ele>
        <time>2026-09-03T14:33:21.019Z</time>
      </trkpt>
      <trkpt lat="51.875008" lon="4.566992">
        <ele>-0.531497</ele>
        <time>2026-09-03T14:33:35.454Z</time>
      </trkpt>
      <trkpt lat="51.874610" lon="4.566897">
        <ele>-0.349150</ele>
        <time>2026-09-03T14:33:42.828Z</time>
      </trkpt>
      <trkpt lat="51.874499" lon="4.566940">
        <ele>-0.278442</ele>
        <time>2026-09-03T14:33:45.014Z</time>
      </trkpt>
      <trkpt lat="51.873954" lon="4.567358">
        <ele>0.095147</ele>
        <time>2026-09-03T14:33:55.201Z</time>
      </trkpt>
      <trkpt lat="51.873526" lon="4.567460">
        <ele>0.363164</ele>
        <time>2026-09-03T14:34:03.406Z</time>
      </trkpt>
      <trkpt lat="51.873123" lon="4.567554">
        <ele>0.587903</ele>
        <time>2026-09-03T14:34:11.109Z</time>
      </trkpt>
      <trkpt lat="51.872426" lon="4.567704">
        <ele>0.088458</ele>
        <time>2026-09-03T14:34:20.644Z</time>
      </trkpt>
      <trkpt lat="51.872287" lon="4.567734">
        <ele>-0.011150</ele>
        <time>2026-09-03T14:34:22.297Z</time>
      </trkpt>
      <trkpt lat="51.872231" lon="4.567746">
        <ele>-0.051274</ele>
        <time>2026-09-03T14:34:22.953Z</time>
      </trkpt>
      <trkpt lat="51.872093" lon="4.567776">
        <ele>-0.150178</ele>
        <time>2026-09-03T14:34:24.687Z</time>
      </trkpt>
      <trkpt lat="51.872013" lon="4.567793">
        <ele>-0.207490</ele>
        <time>2026-09-03T14:34:25.708Z</time>
      </trkpt>
      <trkpt lat="51.871891" lon="4.567819">
        <ele>-0.294897</ele>
        <time>2026-09-03T14:34:27.295Z</time>
      </trkpt>
      <trkpt lat="51.871344" lon="4.567939">
        <ele>-0.687437</ele>
        <time>2026-09-03T14:34:33.830Z</time>
      </trkpt>
      <trkpt lat="51.871119" lon="4.568099">
        <ele>-0.868493</ele>
        <time>2026-09-03T14:34:36.535Z</time>
      </trkpt>
      <trkpt lat="51.871003" lon="4.568239">
        <ele>-0.975083</ele>
        <time>2026-09-03T14:34:38.136Z</time>
      </trkpt>
      <trkpt lat="51.870942" lon="4.568462">
        <ele>-1.086042</ele>
        <time>2026-09-03T14:34:39.856Z</time>
      </trkpt>
      <trkpt lat="51.870887" lon="4.569960">
        <ele>-1.768730</ele>
        <time>2026-09-03T14:34:52.111Z</time>
      </trkpt>
      <trkpt lat="51.870630" lon="4.571122">
        <ele>-1.963575</ele>
        <time>2026-09-03T14:35:03.127Z</time>
      </trkpt>
      <trkpt lat="51.870558" lon="4.571351">
        <ele>-1.950577</ele>
        <time>2026-09-03T14:35:05.522Z</time>
      </trkpt>
      <trkpt lat="51.868884" lon="4.575176">
        <ele>-1.379698</ele>
        <time>2026-09-03T14:35:50.887Z</time>
      </trkpt>
      <trkpt lat="51.868639" lon="4.575831">
        <ele>-1.149575</ele>
        <time>2026-09-03T14:35:59.013Z</time>
      </trkpt>
      <trkpt lat="51.868454" lon="4.576630">
        <ele>-0.865168</ele>
        <time>2026-09-03T14:36:08.409Z</time>
      </trkpt>
      <trkpt lat="51.868332" lon="4.577531">
        <ele>-0.557736</ele>
        <time>2026-09-03T14:36:18.636Z</time>
      </trkpt>
      <trkpt lat="51.868182" lon="4.578199">
        <ele>-0.446798</ele>
        <time>2026-09-03T14:36:25.880Z</time>
      </trkpt>
      <trkpt lat="51.868100" lon="4.578477">
        <ele>-0.554928</ele>
        <time>2026-09-03T14:36:28.741Z</time>
      </trkpt>
      <trkpt lat="51.867850" lon="4.578959">
        <ele>-0.775859</ele>
        <time>2026-09-03T14:36:34.058Z</time>
      </trkpt>
      <trkpt lat="51.867764" lon="4.579192">
        <ele>-0.871131</ele>
        <time>2026-09-03T14:36:36.203Z</time>
      </trkpt>
      <trkpt lat="51.867233" lon="4.580714">
        <ele>-1.468015</ele>
        <time>2026-09-03T14:36:49.254Z</time>
      </trkpt>
      <trkpt lat="51.866932" lon="4.581453">
        <ele>-1.714107</ele>
        <time>2026-09-03T14:36:55.976Z</time>
      </trkpt>
      <trkpt lat="51.866335" lon="4.582529">
        <ele>-2.116222</ele>
        <time>2026-09-03T14:37:08.281Z</time>
      </trkpt>
      <trkpt lat="51.866271" lon="4.582642">
        <ele>-2.158846</ele>
        <time>2026-09-03T14:37:09.720Z</time>
      </trkpt>
      <trkpt lat="51.866130" lon="4.582886">
        <ele>-2.179041</ele>
        <time>2026-09-03T14:37:12.947Z</time>
      </trkpt>
      <trkpt lat="51.863641" lon="4.587210">
        <ele>-0.633662</ele>
        <time>2026-09-03T14:38:14.584Z</time>
      </trkpt>
      <trkpt lat="51.863512" lon="4.587308">
        <ele>-0.655480</ele>
        <time>2026-09-03T14:38:16.808Z</time>
      </trkpt>
      <trkpt lat="51.863207" lon="4.587799">
        <ele>-0.721332</ele>
        <time>2026-09-03T14:38:23.214Z</time>
      </trkpt>
      <trkpt lat="51.862971" lon="4.587859">
        <ele>-0.757912</ele>
        <time>2026-09-03T14:38:26.627Z</time>
      </trkpt>
      <trkpt lat="51.862172" lon="4.589168">
        <ele>-0.920089</ele>
        <time>2026-09-03T14:38:41.658Z</time>
      </trkpt>
      <trkpt lat="51.861914" lon="4.589477">
        <ele>-0.955907</ele>
        <time>2026-09-03T14:38:45.869Z</time>
      </trkpt>
      <trkpt lat="51.861717" lon="4.589719">
        <ele>-0.983507</ele>
        <time>2026-09-03T14:38:49.194Z</time>
      </trkpt>
      <trkpt lat="51.861416" lon="4.590183">
        <ele>-1.029893</ele>
        <time>2026-09-03T14:38:55.092Z</time>
      </trkpt>
      <trkpt lat="51.861206" lon="4.590505">
        <ele>-1.062174</ele>
        <time>2026-09-03T14:38:59.607Z</time>
      </trkpt>
      <trkpt lat="51.860845" lon="4.590975">
        <ele>-0.935471</ele>
        <time>2026-09-03T14:39:07.563Z</time>
      </trkpt>
      <trkpt lat="51.860590" lon="4.591169">
        <ele>-0.741813</ele>
        <time>2026-09-03T14:39:12.678Z</time>
      </trkpt>
      <trkpt lat="51.859867" lon="4.591494">
        <ele>-0.226059</ele>
        <time>2026-09-03T14:39:26.880Z</time>
      </trkpt>
      <trkpt lat="51.859106" lon="4.591814">
        <ele>0.124343</ele>
        <time>2026-09-03T14:39:40.583Z</time>
      </trkpt>
      <trkpt lat="51.858070" lon="4.591979">
        <ele>0.025752</ele>
        <time>2026-09-03T14:39:55.528Z</time>
      </trkpt>
      <trkpt lat="51.857809" lon="4.592052">
        <ele>0.000667</ele>
        <time>2026-09-03T14:39:58.994Z</time>
      </trkpt>
      <trkpt lat="51.857453" lon="4.592220">
        <ele>-0.061136</ele>
        <time>2026-09-03T14:40:03.806Z</time>
      </trkpt>
      <trkpt lat="51.856997" lon="4.592516">
        <ele>-0.215994</ele>
        <time>2026-09-03T14:40:10.205Z</time>
      </trkpt>
      <trkpt lat="51.856683" lon="4.592848">
        <ele>-0.334206</ele>
        <time>2026-09-03T14:40:15.274Z</time>
      </trkpt>
      <trkpt lat="51.856318" lon="4.593423">
        <ele>-0.494732</ele>
        <time>2026-09-03T14:40:22.566Z</time>
      </trkpt>
      <trkpt lat="51.856216" lon="4.593624">
        <ele>-0.545378</ele>
        <time>2026-09-03T14:40:24.882Z</time>
      </trkpt>
      <trkpt lat="51.856060" lon="4.594039">
        <ele>-0.620006</ele>
        <time>2026-09-03T14:40:29.223Z</time>
      </trkpt>
      <trkpt lat="51.855933" lon="4.594528">
        <ele>-0.682079</ele>
        <time>2026-09-03T14:40:34.021Z</time>
      </trkpt>
      <trkpt lat="51.855594" lon="4.596036">
        <ele>-0.869863</ele>
        <time>2026-09-03T14:40:48.234Z</time>
      </trkpt>
      <trkpt lat="51.855571" lon="4.596417">
        <ele>-0.914658</ele>
        <time>2026-09-03T14:40:51.407Z</time>
      </trkpt>
      <trkpt lat="51.855609" lon="4.597039">
        <ele>-1.012443</ele>
        <time>2026-09-03T14:40:56.590Z</time>
      </trkpt>
      <trkpt lat="51.855588" lon="4.597181">
        <ele>-1.036904</ele>
        <time>2026-09-03T14:40:57.817Z</time>
      </trkpt>
      <trkpt lat="51.855550" lon="4.597244">
        <ele>-1.051657</ele>
        <time>2026-09-03T14:40:58.552Z</time>
      </trkpt>
      <trkpt lat="51.853485" lon="4.599660">
        <ele>-1.507985</ele>
        <time>2026-09-03T14:41:34.263Z</time>
      </trkpt>
      <trkpt lat="51.851570" lon="4.601493">
        <ele>-1.010550</ele>
        <time>2026-09-03T14:42:09.303Z</time>
      </trkpt>
      <trkpt lat="51.851513" lon="4.601527">
        <ele>-0.990217</ele>
        <time>2026-09-03T14:42:10.397Z</time>
      </trkpt>
      <trkpt lat="51.851402" lon="4.601505">
        <ele>-0.952786</ele>
        <time>2026-09-03T14:42:12.437Z</time>
      </trkpt>
      <trkpt lat="51.851360" lon="4.601798">
        <ele>-0.874019</ele>
        <time>2026-09-03T14:42:15.812Z</time>
      </trkpt>
      <trkpt lat="51.851351" lon="4.601861">
        <ele>-0.856987</ele>
        <time>2026-09-03T14:42:16.535Z</time>
      </trkpt>
      <trkpt lat="51.851345" lon="4.601916">
        <ele>-0.842276</ele>
        <time>2026-09-03T14:42:17.163Z</time>
      </trkpt>
      <trkpt lat="51.850964" lon="4.601942">
        <ele>-0.679669</ele>
        <time>2026-09-03T14:42:25.912Z</time>
      </trkpt>
      <trkpt lat="51.850786" lon="4.602473">
        <ele>-0.520536</ele>
        <time>2026-09-03T14:42:32.300Z</time>
      </trkpt>
      <trkpt lat="51.850683" lon="4.602642">
        <ele>-0.458002</ele>
        <time>2026-09-03T14:42:34.764Z</time>
      </trkpt>
      <trkpt lat="51.849936" lon="4.603423">
        <ele>-0.232483</ele>
        <time>2026-09-03T14:42:48.686Z</time>
      </trkpt>
      <trkpt lat="51.848417" lon="4.604946">
        <ele>-0.604332</ele>
        <time>2026-09-03T14:43:13.393Z</time>
      </trkpt>
      <trkpt lat="51.848349" lon="4.605015">
        <ele>-0.627621</ele>
        <time>2026-09-03T14:43:14.460Z</time>
      </trkpt>
      <trkpt lat="51.848301" lon="4.605058">
        <ele>-0.643540</ele>
        <time>2026-09-03T14:43:15.201Z</time>
      </trkpt>
      <trkpt lat="51.847923" lon="4.605392">
        <ele>-0.768507</ele>
        <time>2026-09-03T14:43:21.006Z</time>
      </trkpt>
      <trkpt lat="51.847734" lon="4.605511">
        <ele>-0.827355</ele>
        <time>2026-09-03T14:43:23.771Z</time>
      </trkpt>
      <trkpt lat="51.847405" lon="4.605839">
        <ele>-0.939480</ele>
        <time>2026-09-03T14:43:29.024Z</time>
      </trkpt>
      <trkpt lat="51.842062" lon="4.611089">
        <ele>-1.911629</ele>
        <time>2026-09-03T14:44:58.003Z</time>
      </trkpt>
      <trkpt lat="51.839707" lon="4.613285">
        <ele>-1.736519</ele>
        <time>2026-09-03T14:45:39.092Z</time>
      </trkpt>
      <trkpt lat="51.838296" lon="4.614658">
        <ele>-1.235116</ele>
        <time>2026-09-03T14:46:05.360Z</time>
      </trkpt>
      <trkpt lat="51.837874" lon="4.614903">
        <ele>-1.069020</ele>
        <time>2026-09-03T14:46:12.982Z</time>
      </trkpt>
      <trkpt lat="51.837655" lon="4.614952">
        <ele>-0.973903</ele>
        <time>2026-09-03T14:46:16.807Z</time>
      </trkpt>
      <trkpt lat="51.837464" lon="4.614939">
        <ele>-0.872888</ele>
        <time>2026-09-03T14:46:20.148Z</time>
      </trkpt>
      <trkpt lat="51.837256" lon="4.614894">
        <ele>-0.762001</ele>
        <time>2026-09-03T14:46:23.841Z</time>
      </trkpt>
      <trkpt lat="51.836149" lon="4.614350">
        <ele>-0.150680</ele>
        <time>2026-09-03T14:46:43.816Z</time>
      </trkpt>
      <trkpt lat="51.835927" lon="4.614275">
        <ele>-0.087270</ele>
        <time>2026-09-03T14:46:47.434Z</time>
      </trkpt>
      <trkpt lat="51.835734" lon="4.614273">
        <ele>-0.141481</ele>
        <time>2026-09-03T14:46:50.420Z</time>
      </trkpt>
      <trkpt lat="51.835426" lon="4.614420">
        <ele>-0.231677</ele>
        <time>2026-09-03T14:46:55.041Z</time>
      </trkpt>
      <trkpt lat="51.835221" lon="4.614637">
        <ele>-0.300482</ele>
        <time>2026-09-03T14:46:58.405Z</time>
      </trkpt>
      <trkpt lat="51.834954" lon="4.615169">
        <ele>-0.419437</ele>
        <time>2026-09-03T14:47:03.988Z</time>
      </trkpt>
      <trkpt lat="51.834885" lon="4.615251">
        <ele>-0.443483</ele>
        <time>2026-09-03T14:47:05.097Z</time>
      </trkpt>
      <trkpt lat="51.834783" lon="4.615241">
        <ele>-0.472185</ele>
        <time>2026-09-03T14:47:06.411Z</time>
      </trkpt>
      <trkpt lat="51.834106" lon="4.614509">
        <ele>-0.716684</ele>
        <time>2026-09-03T14:47:17.077Z</time>
      </trkpt>
      <trkpt lat="51.833858" lon="4.614223">
        <ele>-0.812782</ele>
        <time>2026-09-03T14:47:21.049Z</time>
      </trkpt>
      <trkpt lat="51.833752" lon="4.613995">
        <ele>-0.868420</ele>
        <time>2026-09-03T14:47:23.407Z</time>
      </trkpt>
      <trkpt lat="51.833656" lon="4.613896">
        <ele>-0.904342</ele>
        <time>2026-09-03T14:47:24.953Z</time>
      </trkpt>
      <trkpt lat="51.833581" lon="4.613827">
        <ele>-0.931567</ele>
        <time>2026-09-03T14:47:26.116Z</time>
      </trkpt>
      <trkpt lat="51.833484" lon="4.613735">
        <ele>-0.967047</ele>
        <time>2026-09-03T14:47:27.640Z</time>
      </trkpt>
      <trkpt lat="51.833432" lon="4.613771">
        <ele>-0.984894</ele>
        <time>2026-09-03T14:47:28.413Z</time>
      </trkpt>
      <trkpt lat="51.833151" lon="4.613539">
        <ele>-1.084442</ele>
        <time>2026-09-03T14:47:33.136Z</time>
      </trkpt>
      <trkpt lat="51.832532" lon="4.612841">
        <ele>-1.039450</ele>
        <time>2026-09-03T14:47:44.988Z</time>
      </trkpt>
      <trkpt lat="51.832280" lon="4.612577">
        <ele>-0.986876</ele>
        <time>2026-09-03T14:47:49.687Z</time>
      </trkpt>
      <trkpt lat="51.829721" lon="4.609554">
        <ele>-0.482599</ele>
        <time>2026-09-03T14:48:38.993Z</time>
      </trkpt>
      <trkpt lat="51.829149" lon="4.608944">
        <ele>-0.450125</ele>
        <time>2026-09-03T14:48:48.975Z</time>
      </trkpt>
      <trkpt lat="51.828378" lon="4.608236">
        <ele>-0.390986</ele>
        <time>2026-09-03T14:49:06.950Z</time>
      </trkpt>
      <trkpt lat="51.826336" lon="4.606605">
        <ele>-0.321689</ele>
        <time>2026-09-03T14:49:54.467Z</time>
      </trkpt>
      <trkpt lat="51.826221" lon="4.606501">
        <ele>-0.345719</ele>
        <time>2026-09-03T14:49:56.324Z</time>
      </trkpt>
      <trkpt lat="51.825461" lon="4.605792">
        <ele>-0.505730</ele>
        <time>2026-09-03T14:50:08.191Z</time>
      </trkpt>
      <trkpt lat="51.823786" lon="4.603837">
        <ele>-1.683023</ele>
        <time>2026-09-03T14:50:34.802Z</time>
      </trkpt>
      <trkpt lat="51.823651" lon="4.603618">
        <ele>-1.720565</ele>
        <time>2026-09-03T14:50:37.316Z</time>
      </trkpt>
      <trkpt lat="51.823564" lon="4.603411">
        <ele>-1.750948</ele>
        <time>2026-09-03T14:50:39.378Z</time>
      </trkpt>
      <trkpt lat="51.823507" lon="4.603191">
        <ele>-1.779902</ele>
        <time>2026-09-03T14:50:41.361Z</time>
      </trkpt>
      <trkpt lat="51.823326" lon="4.602967">
        <ele>-1.824653</ele>
        <time>2026-09-03T14:50:44.494Z</time>
      </trkpt>
      <trkpt lat="51.822701" lon="4.602241">
        <ele>-1.975746</ele>
        <time>2026-09-03T14:50:55.785Z</time>
      </trkpt>
      <trkpt lat="51.822422" lon="4.601929">
        <ele>-1.895945</ele>
        <time>2026-09-03T14:51:01.316Z</time>
      </trkpt>
      <trkpt lat="51.822343" lon="4.601841">
        <ele>-1.847240</ele>
        <time>2026-09-03T14:51:02.938Z</time>
      </trkpt>
      <trkpt lat="51.822163" lon="4.601620">
        <ele>-1.732497</ele>
        <time>2026-09-03T14:51:06.776Z</time>
      </trkpt>
      <trkpt lat="51.821254" lon="4.600569">
        <ele>-1.165149</ele>
        <time>2026-09-03T14:51:25.889Z</time>
      </trkpt>
      <trkpt lat="51.819933" lon="4.599068">
        <ele>-0.114877</ele>
        <time>2026-09-03T14:51:54.114Z</time>
      </trkpt>
      <trkpt lat="51.819614" lon="4.598700">
        <ele>0.105091</ele>
        <time>2026-09-03T14:52:01.279Z</time>
      </trkpt>
      <trkpt lat="51.819178" lon="4.598190">
        <ele>0.070594</ele>
        <time>2026-09-03T14:52:10.368Z</time>
      </trkpt>
      <trkpt lat="51.818984" lon="4.597973">
        <ele>0.055472</ele>
        <time>2026-09-03T14:52:14.109Z</time>
      </trkpt>
      <trkpt lat="51.818410" lon="4.597314">
        <ele>0.010343</ele>
        <time>2026-09-03T14:52:23.766Z</time>
      </trkpt>
      <trkpt lat="51.818323" lon="4.597313">
        <ele>0.004764</ele>
        <time>2026-09-03T14:52:24.841Z</time>
      </trkpt>
      <trkpt lat="51.818265" lon="4.597419">
        <ele>-0.000846</ele>
        <time>2026-09-03T14:52:25.902Z</time>
      </trkpt>
      <trkpt lat="51.817714" lon="4.596711">
        <ele>-0.293324</ele>
        <time>2026-09-03T14:52:38.306Z</time>
      </trkpt>
      <trkpt lat="51.817658" lon="4.596559">
        <ele>-0.344466</ele>
        <time>2026-09-03T14:52:40.302Z</time>
      </trkpt>
      <trkpt lat="51.817676" lon="4.596312">
        <ele>-0.416351</ele>
        <time>2026-09-03T14:52:43.118Z</time>
      </trkpt>
      <trkpt lat="51.817626" lon="4.596264">
        <ele>-0.443535</ele>
        <time>2026-09-03T14:52:44.169Z</time>
      </trkpt>
      <trkpt lat="51.817579" lon="4.596208">
        <ele>-0.470827</ele>
        <time>2026-09-03T14:52:45.269Z</time>
      </trkpt>
      <trkpt lat="51.817561" lon="4.596189">
        <ele>-0.480877</ele>
        <time>2026-09-03T14:52:45.680Z</time>
      </trkpt>
      <trkpt lat="51.817520" lon="4.596147">
        <ele>-0.503567</ele>
        <time>2026-09-03T14:52:46.586Z</time>
      </trkpt>
      <trkpt lat="51.817390" lon="4.596215">
        <ele>-0.567447</ele>
        <time>2026-09-03T14:52:49.192Z</time>
      </trkpt>
      <trkpt lat="51.817300" lon="4.596204">
        <ele>-0.609647</ele>
        <time>2026-09-03T14:52:50.906Z</time>
      </trkpt>
      <trkpt lat="51.816773" lon="4.595679">
        <ele>-0.855309</ele>
        <time>2026-09-03T14:53:02.949Z</time>
      </trkpt>
      <trkpt lat="51.815694" lon="4.594421">
        <ele>-0.948358</ele>
        <time>2026-09-03T14:53:29.758Z</time>
      </trkpt>
      <trkpt lat="51.815195" lon="4.593910">
        <ele>-0.941049</ele>
        <time>2026-09-03T14:53:41.430Z</time>
      </trkpt>
      <trkpt lat="51.814655" lon="4.593474">
        <ele>-0.856741</ele>
        <time>2026-09-03T14:53:53.391Z</time>
      </trkpt>
      <trkpt lat="51.813872" lon="4.592942">
        <ele>-0.738106</ele>
        <time>2026-09-03T14:54:11.488Z</time>
      </trkpt>
      <trkpt lat="51.813766" lon="4.592857">
        <ele>-0.720635</ele>
        <time>2026-09-03T14:54:14.133Z</time>
      </trkpt>
      <trkpt lat="51.813786" lon="4.592646">
        <ele>-0.673933</ele>
        <time>2026-09-03T14:54:17.106Z</time>
      </trkpt>
      <trkpt lat="51.813691" lon="4.592601">
        <ele>-0.638902</ele>
        <time>2026-09-03T14:54:19.347Z</time>
      </trkpt>
      <trkpt lat="51.813481" lon="4.592507">
        <ele>-0.561794</ele>
        <time>2026-09-03T14:54:24.244Z</time>
      </trkpt>
      <trkpt lat="51.813421" lon="4.592479">
        <ele>-0.539695</ele>
        <time>2026-09-03T14:54:25.652Z</time>
      </trkpt>
      <trkpt lat="51.813403" lon="4.592545">
        <ele>-0.523913</ele>
        <time>2026-09-03T14:54:26.629Z</time>
      </trkpt>
      <trkpt lat="51.813348" lon="4.592608">
        <ele>-0.500063</ele>
        <time>2026-09-03T14:54:28.144Z</time>
      </trkpt>
      <trkpt lat="51.813295" lon="4.592718">
        <ele>-0.469551</ele>
        <time>2026-09-03T14:54:30.021Z</time>
      </trkpt>
      <trkpt lat="51.813281" lon="4.592799">
        <ele>-0.451151</ele>
        <time>2026-09-03T14:54:31.189Z</time>
      </trkpt>
      <trkpt lat="51.813256" lon="4.592946">
        <ele>-0.417795</ele>
        <time>2026-09-03T14:54:33.255Z</time>
      </trkpt>
      <trkpt lat="51.813227" lon="4.593087">
        <ele>-0.385285</ele>
        <time>2026-09-03T14:54:35.300Z</time>
      </trkpt>
      <trkpt lat="51.813266" lon="4.593205">
        <ele>-0.356011</ele>
        <time>2026-09-03T14:54:37.091Z</time>
      </trkpt>
      <trkpt lat="51.813274" lon="4.593325">
        <ele>-0.329605</ele>
        <time>2026-09-03T14:54:38.758Z</time>
      </trkpt>
      <trkpt lat="51.813246" lon="4.593532">
        <ele>-0.283246</ele>
        <time>2026-09-03T14:54:41.646Z</time>
      </trkpt>
      <trkpt lat="51.813116" lon="4.594622">
        <ele>-0.080400</ele>
        <time>2026-09-03T14:54:56.112Z</time>
      </trkpt>
      <trkpt lat="51.813001" lon="4.595976">
        <ele>-0.045533</ele>
        <time>2026-09-03T14:55:13.027Z</time>
      </trkpt>
      <trkpt lat="51.812835" lon="4.597574">
        <ele>-0.022706</ele>
        <time>2026-09-03T14:55:33.365Z</time>
      </trkpt>
      <trkpt lat="51.812650" lon="4.599604">
        <ele>-0.103708</ele>
        <time>2026-09-03T14:55:58.720Z</time>
      </trkpt>
      <trkpt lat="51.812496" lon="4.601741">
        <ele>-0.184938</ele>
        <time>2026-09-03T14:56:25.277Z</time>
      </trkpt>
      <trkpt lat="51.812496" lon="4.601743">
        <ele>-0.185013</ele>
        <time>2026-09-03T14:56:25.303Z</time>
      </trkpt>
      <trkpt lat="51.812404" lon="4.603718">
        <ele>-0.064962</ele>
        <time>2026-09-03T14:56:49.807Z</time>
      </trkpt>
      <trkpt lat="51.812372" lon="4.605347">
        <ele>0.358289</ele>
        <time>2026-09-03T14:57:11.504Z</time>
      </trkpt>
      <trkpt lat="51.812371" lon="4.605430">
        <ele>0.379847</ele>
        <time>2026-09-03T14:57:12.679Z</time>
      </trkpt>
      <trkpt lat="51.812368" lon="4.605654">
        <ele>0.438032</ele>
        <time>2026-09-03T14:57:15.915Z</time>
      </trkpt>
      <trkpt lat="51.812366" lon="4.605933">
        <ele>0.510490</ele>
        <time>2026-09-03T14:57:20.000Z</time>
      </trkpt>
      <trkpt lat="51.812365" lon="4.606049">
        <ele>0.570496</ele>
        <time>2026-09-03T14:57:21.741Z</time>
      </trkpt>
      <trkpt lat="51.812348" lon="4.608088">
        <ele>1.914163</ele>
        <time>2026-09-03T14:57:53.791Z</time>
      </trkpt>
      <trkpt lat="51.812350" lon="4.608226">
        <ele>2.005119</ele>
        <time>2026-09-03T14:57:55.924Z</time>
      </trkpt>
      <trkpt lat="51.812352" lon="4.608364">
        <ele>2.096076</ele>
        <time>2026-09-03T14:57:58.003Z</time>
      </trkpt>
      <trkpt lat="51.812353" lon="4.608501">
        <ele>2.186354</ele>
        <time>2026-09-03T14:58:00.060Z</time>
      </trkpt>
      <trkpt lat="51.812354" lon="4.608719">
        <ele>2.330004</ele>
        <time>2026-09-03T14:58:03.259Z</time>
      </trkpt>
      <trkpt lat="51.812358" lon="4.609705">
        <ele>2.524042</ele>
        <time>2026-09-03T14:58:16.940Z</time>
      </trkpt>
      <trkpt lat="51.812363" lon="4.610137">
        <ele>2.569179</ele>
        <time>2026-09-03T14:58:22.563Z</time>
      </trkpt>
      <trkpt lat="51.812368" lon="4.610555">
        <ele>2.612854</ele>
        <time>2026-09-03T14:58:27.796Z</time>
      </trkpt>
      <trkpt lat="51.812366" lon="4.610796">
        <ele>2.638032</ele>
        <time>2026-09-03T14:58:30.747Z</time>
      </trkpt>
      <trkpt lat="51.812371" lon="4.610891">
        <ele>2.647992</ele>
        <time>2026-09-03T14:58:31.900Z</time>
      </trkpt>
      <trkpt lat="51.812426" lon="4.610940">
        <ele>2.658602</ele>
        <time>2026-09-03T14:58:33.125Z</time>
      </trkpt>
      <trkpt lat="51.812515" lon="4.610996">
        <ele>2.674738</ele>
        <time>2026-09-03T14:58:34.986Z</time>
      </trkpt>
      <trkpt lat="51.812591" lon="4.611787">
        <ele>2.731612</ele>
        <time>2026-09-03T14:58:44.428Z</time>
      </trkpt>
      <trkpt lat="51.812646" lon="4.614649">
        <ele>2.542604</ele>
        <time>2026-09-03T14:59:19.581Z</time>
      </trkpt>
      <trkpt lat="51.812635" lon="4.615133">
        <ele>2.528466</ele>
        <time>2026-09-03T14:59:25.762Z</time>
      </trkpt>
      <trkpt lat="51.812536" lon="4.615872">
        <ele>2.506392</ele>
        <time>2026-09-03T14:59:35.400Z</time>
      </trkpt>
      <trkpt lat="51.812535" lon="4.615877">
        <ele>2.506239</ele>
        <time>2026-09-03T14:59:35.470Z</time>
      </trkpt>
      <trkpt lat="51.812296" lon="4.616874">
        <ele>2.475023</ele>
        <time>2026-09-03T14:59:48.434Z</time>
      </trkpt>
      <trkpt lat="51.812204" lon="4.617423">
        <ele>2.466273</ele>
        <time>2026-09-03T14:59:55.366Z</time>
      </trkpt>
      <trkpt lat="51.812106" lon="4.617889">
        <ele>2.497823</ele>
        <time>2026-09-03T15:00:01.422Z</time>
      </trkpt>
      <trkpt lat="51.811954" lon="4.618387">
        <ele>2.533421</ele>
        <time>2026-09-03T15:00:08.425Z</time>
      </trkpt>
      <trkpt lat="51.811754" lon="4.618985">
        <ele>2.577000</ele>
        <time>2026-09-03T15:00:17.166Z</time>
      </trkpt>
      <trkpt lat="51.811510" lon="4.619691">
        <ele>2.628843</ele>
        <time>2026-09-03T15:00:27.712Z</time>
      </trkpt>
      <trkpt lat="51.811162" lon="4.620418">
        <ele>2.514866</ele>
        <time>2026-09-03T15:00:39.965Z</time>
      </trkpt>
      <trkpt lat="51.811074" lon="4.620743">
        <ele>2.440334</ele>
        <time>2026-09-03T15:00:44.410Z</time>
      </trkpt>
      <trkpt lat="51.811032" lon="4.621075">
        <ele>2.369147</ele>
        <time>2026-09-03T15:00:48.535Z</time>
      </trkpt>
      <trkpt lat="51.810918" lon="4.622769">
        <ele>2.000767</ele>
        <time>2026-09-03T15:01:07.500Z</time>
      </trkpt>
      <trkpt lat="51.810897" lon="4.623225">
        <ele>1.864704</ele>
        <time>2026-09-03T15:01:12.523Z</time>
      </trkpt>
      <trkpt lat="51.810916" lon="4.624073">
        <ele>1.612207</ele>
        <time>2026-09-03T15:01:21.932Z</time>
      </trkpt>
      <trkpt lat="51.810891" lon="4.624173">
        <ele>1.580110</ele>
        <time>2026-09-03T15:01:23.133Z</time>
      </trkpt>
      <trkpt lat="51.810807" lon="4.624328">
        <ele>1.518778</ele>
        <time>2026-09-03T15:01:25.435Z</time>
      </trkpt>
      <trkpt lat="51.809973" lon="4.625573">
        <ele>1.002338</ele>
        <time>2026-09-03T15:01:47.827Z</time>
      </trkpt>
      <trkpt lat="51.809807" lon="4.625843">
        <ele>0.906077</ele>
        <time>2026-09-03T15:01:52.473Z</time>
      </trkpt>
      <trkpt lat="51.809803" lon="4.625847">
        <ele>0.904154</ele>
        <time>2026-09-03T15:01:52.560Z</time>
      </trkpt>
      <trkpt lat="51.809591" lon="4.626094">
        <ele>0.797321</ele>
        <time>2026-09-03T15:01:57.422Z</time>
      </trkpt>
      <trkpt lat="51.809310" lon="4.626302">
        <ele>0.670963</ele>
        <time>2026-09-03T15:02:02.992Z</time>
      </trkpt>
      <trkpt lat="51.809292" lon="4.626313">
        <ele>0.663095</ele>
        <time>2026-09-03T15:02:03.341Z</time>
      </trkpt>
      <trkpt lat="51.809251" lon="4.626335">
        <ele>0.645432</ele>
        <time>2026-09-03T15:02:04.130Z</time>
      </trkpt>
      <trkpt lat="51.809175" lon="4.626375">
        <ele>0.612753</ele>
        <time>2026-09-03T15:02:05.609Z</time>
      </trkpt>
      <trkpt lat="51.809125" lon="4.626402">
        <ele>0.591199</ele>
        <time>2026-09-03T15:02:06.592Z</time>
      </trkpt>
      <trkpt lat="51.809101" lon="4.626414">
        <ele>0.580927</ele>
        <time>2026-09-03T15:02:07.067Z</time>
      </trkpt>
      <trkpt lat="51.808745" lon="4.626593">
        <ele>0.438471</ele>
        <time>2026-09-03T15:02:13.879Z</time>
      </trkpt>
      <trkpt lat="51.808702" lon="4.626554">
        <ele>0.448686</ele>
        <time>2026-09-03T15:02:14.741Z</time>
      </trkpt>
      <trkpt lat="51.808336" lon="4.626560">
        <ele>0.524527</ele>
        <time>2026-09-03T15:02:21.539Z</time>
      </trkpt>
      <trkpt lat="51.808026" lon="4.626565">
        <ele>0.588763</ele>
        <time>2026-09-03T15:02:27.422Z</time>
      </trkpt>
      <trkpt lat="51.807716" lon="4.626569">
        <ele>0.652998</ele>
        <time>2026-09-03T15:02:33.629Z</time>
      </trkpt>
      <trkpt lat="51.807524" lon="4.626572">
        <ele>0.692783</ele>
        <time>2026-09-03T15:02:37.789Z</time>
      </trkpt>
      <trkpt lat="51.807479" lon="4.626502">
        <ele>0.705720</ele>
        <time>2026-09-03T15:02:39.222Z</time>
      </trkpt>
      <trkpt lat="51.807416" lon="4.626468">
        <ele>0.719482</ele>
        <time>2026-09-03T15:02:40.757Z</time>
      </trkpt>
      <trkpt lat="51.806500" lon="4.626561">
        <ele>1.277356</ele>
        <time>2026-09-03T15:03:03.997Z</time>
      </trkpt>
      <trkpt lat="51.806299" lon="4.626620">
        <ele>1.472494</ele>
        <time>2026-09-03T15:03:09.230Z</time>
      </trkpt>
      <trkpt lat="51.806010" lon="4.626792">
        <ele>1.766655</ele>
        <time>2026-09-03T15:03:16.859Z</time>
      </trkpt>
      <trkpt lat="51.805824" lon="4.627002">
        <ele>1.983341</ele>
        <time>2026-09-03T15:03:22.377Z</time>
      </trkpt>
      <trkpt lat="51.805674" lon="4.627229">
        <ele>2.179573</ele>
        <time>2026-09-03T15:03:27.250Z</time>
      </trkpt>
      <trkpt lat="51.805556" lon="4.627479">
        <ele>2.365340</ele>
        <time>2026-09-03T15:03:31.794Z</time>
      </trkpt>
      <trkpt lat="51.805460" lon="4.627804">
        <ele>2.513176</ele>
        <time>2026-09-03T15:03:36.916Z</time>
      </trkpt>
      <trkpt lat="51.805451" lon="4.627849">
        <ele>2.506350</ele>
        <time>2026-09-03T15:03:37.583Z</time>
      </trkpt>
      <trkpt lat="51.805377" lon="4.628343">
        <ele>2.432991</ele>
        <time>2026-09-03T15:03:44.315Z</time>
      </trkpt>
      <trkpt lat="51.805377" lon="4.628350">
        <ele>2.431980</ele>
        <time>2026-09-03T15:03:44.402Z</time>
      </trkpt>
      <trkpt lat="51.805397" lon="4.629590">
        <ele>2.252955</ele>
        <time>2026-09-03T15:03:58.942Z</time>
      </trkpt>
      <trkpt lat="51.805437" lon="4.630162">
        <ele>2.169874</ele>
        <time>2026-09-03T15:04:05.396Z</time>
      </trkpt>
      <trkpt lat="51.805531" lon="4.630653">
        <ele>2.081128</ele>
        <time>2026-09-03T15:04:11.089Z</time>
      </trkpt>
      <trkpt lat="51.805685" lon="4.631353">
        <ele>1.823832</ele>
        <time>2026-09-03T15:04:19.308Z</time>
      </trkpt>
      <trkpt lat="51.805998" lon="4.632512">
        <ele>1.385861</ele>
        <time>2026-09-03T15:04:33.624Z</time>
      </trkpt>
      <trkpt lat="51.806018" lon="4.632588">
        <ele>1.357258</ele>
        <time>2026-09-03T15:04:34.572Z</time>
      </trkpt>
      <trkpt lat="51.806195" lon="4.633151">
        <ele>1.138540</ele>
        <time>2026-09-03T15:04:41.866Z</time>
      </trkpt>
      <trkpt lat="51.807036" lon="4.635523">
        <ele>0.701235</ele>
        <time>2026-09-03T15:05:14.044Z</time>
      </trkpt>
      <trkpt lat="51.807170" lon="4.635951">
        <ele>0.732140</ele>
        <time>2026-09-03T15:05:20.201Z</time>
      </trkpt>
      <trkpt lat="51.807421" lon="4.636920">
        <ele>1.145482</ele>
        <time>2026-09-03T15:05:34.606Z</time>
      </trkpt>
      <trkpt lat="51.807768" lon="4.638197">
        <ele>1.694273</ele>
        <time>2026-09-03T15:05:55.369Z</time>
      </trkpt>
      <trkpt lat="51.807863" lon="4.638639">
        <ele>1.826501</ele>
        <time>2026-09-03T15:06:02.292Z</time>
      </trkpt>
      <trkpt lat="51.807945" lon="4.638914">
        <ele>1.865256</ele>
        <time>2026-09-03T15:06:06.684Z</time>
      </trkpt>
      <trkpt lat="51.808206" lon="4.639815">
        <ele>1.991557</ele>
        <time>2026-09-03T15:06:20.329Z</time>
      </trkpt>
      <trkpt lat="51.809022" lon="4.642609">
        <ele>1.984215</ele>
        <time>2026-09-03T15:06:57.093Z</time>
      </trkpt>
      <trkpt lat="51.809022" lon="4.642610">
        <ele>1.984104</ele>
        <time>2026-09-03T15:06:57.115Z</time>
      </trkpt>
      <trkpt lat="51.809201" lon="4.642987">
        <ele>1.931112</ele>
        <time>2026-09-03T15:07:02.717Z</time>
      </trkpt>
      <trkpt lat="51.809707" lon="4.643803">
        <ele>1.876677</ele>
        <time>2026-09-03T15:07:17.129Z</time>
      </trkpt>
      <trkpt lat="51.810303" lon="4.644669">
        <ele>1.973927</ele>
        <time>2026-09-03T15:07:34.056Z</time>
      </trkpt>
      <trkpt lat="51.810558" lon="4.645009">
        <ele>2.014041</ele>
        <time>2026-09-03T15:07:40.987Z</time>
      </trkpt>
      <trkpt lat="51.810646" lon="4.645072">
        <ele>2.025722</ele>
        <time>2026-09-03T15:07:42.968Z</time>
      </trkpt>
      <trkpt lat="51.810635" lon="4.645153">
        <ele>2.031946</ele>
        <time>2026-09-03T15:07:44.101Z</time>
      </trkpt>
      <trkpt lat="51.811173" lon="4.645490">
        <ele>2.116483</ele>
        <time>2026-09-03T15:07:52.928Z</time>
      </trkpt>
      <trkpt lat="51.811177" lon="4.645493">
        <ele>2.117229</ele>
        <time>2026-09-03T15:07:52.994Z</time>
      </trkpt>
      <trkpt lat="51.811344" lon="4.645551">
        <ele>2.146111</ele>
        <time>2026-09-03T15:07:55.480Z</time>
      </trkpt>
      <trkpt lat="51.811617" lon="4.645578">
        <ele>2.192360</ele>
        <time>2026-09-03T15:07:59.342Z</time>
      </trkpt>
      <trkpt lat="51.811789" lon="4.645535">
        <ele>2.221789</ele>
        <time>2026-09-03T15:08:01.959Z</time>
      </trkpt>
      <trkpt lat="51.811932" lon="4.645499">
        <ele>2.246260</ele>
        <time>2026-09-03T15:08:04.203Z</time>
      </trkpt>
      <trkpt lat="51.812326" lon="4.645299">
        <ele>2.316086</ele>
        <time>2026-09-03T15:08:10.880Z</time>
      </trkpt>
      <trkpt lat="51.812513" lon="4.645252">
        <ele>2.348086</ele>
        <time>2026-09-03T15:08:14.103Z</time>
      </trkpt>
      <trkpt lat="51.812522" lon="4.645174">
        <ele>2.356381</ele>
        <time>2026-09-03T15:08:15.166Z</time>
      </trkpt>
      <trkpt lat="51.812783" lon="4.645239">
        <ele>2.304394</ele>
        <time>2026-09-03T15:08:21.209Z</time>
      </trkpt>
      <trkpt lat="51.812810" lon="4.645249">
        <ele>2.294858</ele>
        <time>2026-09-03T15:08:21.787Z</time>
      </trkpt>
      <trkpt lat="51.812933" lon="4.644973">
        <ele>2.222443</ele>
        <time>2026-09-03T15:08:45.307Z</time>
      </trkpt>
      <trkpt lat="51.813025" lon="4.644748">
        <ele>2.165028</ele>
        <time>2026-09-03T15:09:03.669Z</time>
      </trkpt>
      <trkpt lat="51.813392" lon="4.644138">
        <ele>1.983865</ele>
        <time>2026-09-03T15:10:00.904Z</time>
      </trkpt>
      <trkpt lat="51.813489" lon="4.643968">
        <ele>1.934627</ele>
        <time>2026-09-03T15:10:16.646Z</time>
      </trkpt>
      <trkpt lat="51.813676" lon="4.643823">
        <ele>1.863234</ele>
        <time>2026-09-03T15:10:39.332Z</time>
      </trkpt>
      <trkpt lat="51.813882" lon="4.643404">
        <ele>1.749486</ele>
        <time>2026-09-03T15:11:15.148Z</time>
      </trkpt>
      <trkpt lat="51.813909" lon="4.643306">
        <ele>1.733040</ele>
        <time>2026-09-03T15:11:22.227Z</time>
      </trkpt>
      <trkpt lat="51.813596" lon="4.642685">
        <ele>1.610220</ele>
        <time>2026-09-03T15:11:30.894Z</time>
      </trkpt>
      <trkpt lat="51.813569" lon="4.642625">
        <ele>1.598844</ele>
        <time>2026-09-03T15:11:31.709Z</time>
      </trkpt>
      <trkpt lat="51.813427" lon="4.642335">
        <ele>1.542136</ele>
        <time>2026-09-03T15:11:34.619Z</time>
      </trkpt>
      <trkpt lat="51.813384" lon="4.642243">
        <ele>1.524456</ele>
        <time>2026-09-03T15:11:35.624Z</time>
      </trkpt>
      <trkpt lat="51.813285" lon="4.642029">
        <ele>1.483485</ele>
        <time>2026-09-03T15:11:38.081Z</time>
      </trkpt>
      <trkpt lat="51.813163" lon="4.642219">
        <ele>1.441493</ele>
        <time>2026-09-03T15:11:40.937Z</time>
      </trkpt>
      <trkpt lat="51.812982" lon="4.642520">
        <ele>1.377126</ele>
        <time>2026-09-03T15:11:45.379Z</time>
      </trkpt>
      <trkpt lat="51.812847" lon="4.642819">
        <ele>1.320370</ele>
        <time>2026-09-03T15:11:48.999Z</time>
      </trkpt>
      <trkpt lat="51.812759" lon="4.643091">
        <ele>1.342377</ele>
        <time>2026-09-03T15:11:51.868Z</time>
      </trkpt>
      <trkpt lat="51.812758" lon="4.643095">
        <ele>1.343204</ele>
        <time>2026-09-03T15:11:51.905Z</time>
      </trkpt>
      <trkpt lat="51.812722" lon="4.643272">
        <ele>1.378912</ele>
        <time>2026-09-03T15:11:53.674Z</time>
      </trkpt>
      <trkpt lat="51.812639" lon="4.644502">
        <ele>1.616025</ele>
        <time>2026-09-03T15:12:06.112Z</time>
      </trkpt>
      <trkpt lat="51.812626" lon="4.644655">
        <ele>1.645621</ele>
        <time>2026-09-03T15:12:07.637Z</time>
      </trkpt>
      <trkpt lat="51.812623" lon="4.644692">
        <ele>1.652773</ele>
        <time>2026-09-03T15:12:08.139Z</time>
      </trkpt>
      <trkpt lat="51.812528" lon="4.646074">
        <ele>1.919646</ele>
        <time>2026-09-03T15:12:21.916Z</time>
      </trkpt>
      <trkpt lat="51.812444" lon="4.646647">
        <ele>2.033279</ele>
        <time>2026-09-03T15:12:27.753Z</time>
      </trkpt>
      <trkpt lat="51.812358" lon="4.646978">
        <ele>2.102561</ele>
        <time>2026-09-03T15:12:31.329Z</time>
      </trkpt>
      <trkpt lat="51.812156" lon="4.647529">
        <ele>2.226171</ele>
        <time>2026-09-03T15:12:37.703Z</time>
      </trkpt>
      <trkpt lat="51.810981" lon="4.650141">
        <ele>2.867338</ele>
        <time>2026-09-03T15:13:09.775Z</time>
      </trkpt>
      <trkpt lat="51.810536" lon="4.651131">
        <ele>3.097097</ele>
        <time>2026-09-03T15:13:21.980Z</time>
      </trkpt>
      <trkpt lat="51.810265" lon="4.651739">
        <ele>3.224514</ele>
        <time>2026-09-03T15:13:29.429Z</time>
      </trkpt>
      <trkpt lat="51.810218" lon="4.651836">
        <ele>3.245465</ele>
        <time>2026-09-03T15:13:30.659Z</time>
      </trkpt>
      <trkpt lat="51.810034" lon="4.652145">
        <ele>3.318395</ele>
        <time>2026-09-03T15:13:34.901Z</time>
      </trkpt>
      <trkpt lat="51.809812" lon="4.652330">
        <ele>3.387061</ele>
        <time>2026-09-03T15:13:38.884Z</time>
      </trkpt>
      <trkpt lat="51.809697" lon="4.652384">
        <ele>3.419987</ele>
        <time>2026-09-03T15:13:40.783Z</time>
      </trkpt>
      <trkpt lat="51.808767" lon="4.652519">
        <ele>3.626125</ele>
        <time>2026-09-03T15:13:55.534Z</time>
      </trkpt>
      <trkpt lat="51.808483" lon="4.652512">
        <ele>3.681562</ele>
        <time>2026-09-03T15:13:59.997Z</time>
      </trkpt>
      <trkpt lat="51.807969" lon="4.652397">
        <ele>3.782839</ele>
        <time>2026-09-03T15:14:08.169Z</time>
      </trkpt>
      <trkpt lat="51.807689" lon="4.652287">
        <ele>3.839078</ele>
        <time>2026-09-03T15:14:12.735Z</time>
      </trkpt>
      <trkpt lat="51.807394" lon="4.652125">
        <ele>3.733071</ele>
        <time>2026-09-03T15:14:17.623Z</time>
      </trkpt>
      <trkpt lat="51.806512" lon="4.651381">
        <ele>3.230631</ele>
        <time>2026-09-03T15:14:30.697Z</time>
      </trkpt>
      <trkpt lat="51.806362" lon="4.651233">
        <ele>3.141881</ele>
        <time>2026-09-03T15:14:33.763Z</time>
      </trkpt>
      <trkpt lat="51.806333" lon="4.651092">
        <ele>3.095474</ele>
        <time>2026-09-03T15:14:35.300Z</time>
      </trkpt>
      <trkpt lat="51.806358" lon="4.650995">
        <ele>3.062654</ele>
        <time>2026-09-03T15:14:36.410Z</time>
      </trkpt>
      <trkpt lat="51.806413" lon="4.650946">
        <ele>3.030938</ele>
        <time>2026-09-03T15:14:37.451Z</time>
      </trkpt>
      <trkpt lat="51.806580" lon="4.650908">
        <ele>2.945758</ele>
        <time>2026-09-03T15:14:40.287Z</time>
      </trkpt>
      <trkpt lat="51.806619" lon="4.650931">
        <ele>2.951881</ele>
        <time>2026-09-03T15:14:41.022Z</time>
      </trkpt>
      <trkpt lat="51.806732" lon="4.651150">
        <ele>2.982694</ele>
        <time>2026-09-03T15:14:44.191Z</time>
      </trkpt>
      <trkpt lat="51.807024" lon="4.650755">
        <ele>3.049202</ele>
        <time>2026-09-03T15:14:49.449Z</time>
      </trkpt>
      <trkpt lat="51.807176" lon="4.650433">
        <ele>3.092964</ele>
        <time>2026-09-03T15:14:53.194Z</time>
      </trkpt>
      <trkpt lat="51.807260" lon="4.650081">
        <ele>3.133722</ele>
        <time>2026-09-03T15:14:58.378Z</time>
      </trkpt>
      <trkpt lat="51.807423" lon="4.649633">
        <ele>3.189874</ele>
        <time>2026-09-03T15:15:05.846Z</time>
      </trkpt>
      <trkpt lat="51.807456" lon="4.649547">
        <ele>3.200808</ele>
        <time>2026-09-03T15:15:07.266Z</time>
      </trkpt>
      <trkpt lat="51.807499" lon="4.649526">
        <ele>3.208655</ele>
        <time>2026-09-03T15:15:08.316Z</time>
      </trkpt>
      <trkpt lat="51.807562" lon="4.649500">
        <ele>3.220015</ele>
        <time>2026-09-03T15:15:09.834Z</time>
      </trkpt>
      <trkpt lat="51.807608" lon="4.649388">
        <ele>3.234539</ele>
        <time>2026-09-03T15:15:11.831Z</time>
      </trkpt>
      <trkpt lat="51.807488" lon="4.649273">
        <ele>3.258908</ele>
        <time>2026-09-03T15:15:15.249Z</time>
      </trkpt>
      <trkpt lat="51.807243" lon="4.649025">
        <ele>3.398765</ele>
        <time>2026-09-03T15:15:21.083Z</time>
      </trkpt>
      <trkpt lat="51.806497" lon="4.648255">
        <ele>3.828354</ele>
        <time>2026-09-03T15:15:36.616Z</time>
      </trkpt>
      <trkpt lat="51.806424" lon="4.648183">
        <ele>3.869859</ele>
        <time>2026-09-03T15:15:37.903Z</time>
      </trkpt>
      <trkpt lat="51.806403" lon="4.648162">
        <ele>3.881845</ele>
        <time>2026-09-03T15:15:38.294Z</time>
      </trkpt>
      <trkpt lat="51.805460" lon="4.647137">
        <ele>4.012768</ele>
        <time>2026-09-03T15:15:54.717Z</time>
      </trkpt>
      <trkpt lat="51.804892" lon="4.646598">
        <ele>3.885910</ele>
        <time>2026-09-03T15:16:03.636Z</time>
      </trkpt>
      <trkpt lat="51.804681" lon="4.646311">
        <ele>3.832801</ele>
        <time>2026-09-03T15:16:07.503Z</time>
      </trkpt>
      <trkpt lat="51.804465" lon="4.645762">
        <ele>3.689709</ele>
        <time>2026-09-03T15:16:13.351Z</time>
      </trkpt>
      <trkpt lat="51.804406" lon="4.645716">
        <ele>3.649958</ele>
        <time>2026-09-03T15:16:14.318Z</time>
      </trkpt>
      <trkpt lat="51.803332" lon="4.646382">
        <ele>2.951864</ele>
        <time>2026-09-03T15:16:29.690Z</time>
      </trkpt>
      <trkpt lat="51.803205" lon="4.646554">
        <ele>2.851328</ele>
        <time>2026-09-03T15:16:31.722Z</time>
      </trkpt>
      <trkpt lat="51.803034" lon="4.646945">
        <ele>2.655814</ele>
        <time>2026-09-03T15:16:35.266Z</time>
      </trkpt>
      <trkpt lat="51.802908" lon="4.647080">
        <ele>2.499970</ele>
        <time>2026-09-03T15:16:37.044Z</time>
      </trkpt>
      <trkpt lat="51.802727" lon="4.647114">
        <ele>2.312087</ele>
        <time>2026-09-03T15:16:39.164Z</time>
      </trkpt>
      <trkpt lat="51.802562" lon="4.647083">
        <ele>2.140812</ele>
        <time>2026-09-03T15:16:41.082Z</time>
      </trkpt>
      <trkpt lat="51.802287" lon="4.647166">
        <ele>1.852365</ele>
        <time>2026-09-03T15:16:44.304Z</time>
      </trkpt>
      <trkpt lat="51.802023" lon="4.647404">
        <ele>1.540714</ele>
        <time>2026-09-03T15:16:47.852Z</time>
      </trkpt>
      <trkpt lat="51.801950" lon="4.647564">
        <ele>1.413935</ele>
        <time>2026-09-03T15:16:49.347Z</time>
      </trkpt>
      <trkpt lat="51.801865" lon="4.648030">
        <ele>1.104152</ele>
        <time>2026-09-03T15:16:53.197Z</time>
      </trkpt>
      <trkpt lat="51.801733" lon="4.648492">
        <ele>0.855728</ele>
        <time>2026-09-03T15:16:57.348Z</time>
      </trkpt>
      <trkpt lat="51.801612" lon="4.648760">
        <ele>0.912599</ele>
        <time>2026-09-03T15:17:00.054Z</time>
      </trkpt>
      <trkpt lat="51.801476" lon="4.648903">
        <ele>0.957559</ele>
        <time>2026-09-03T15:17:02.271Z</time>
      </trkpt>
      <trkpt lat="51.801271" lon="4.648995">
        <ele>1.016522</ele>
        <time>2026-09-03T15:17:05.377Z</time>
      </trkpt>
      <trkpt lat="51.800749" lon="4.648943">
        <ele>1.161470</ele>
        <time>2026-09-03T15:17:13.818Z</time>
      </trkpt>
      <trkpt lat="51.800595" lon="4.648907">
        <ele>1.204595</ele>
        <time>2026-09-03T15:17:16.531Z</time>
      </trkpt>
      <trkpt lat="51.800480" lon="4.648878">
        <ele>1.236852</ele>
        <time>2026-09-03T15:17:18.629Z</time>
      </trkpt>
      <trkpt lat="51.800386" lon="4.648857">
        <ele>1.263152</ele>
        <time>2026-09-03T15:17:20.392Z</time>
      </trkpt>
      <trkpt lat="51.799316" lon="4.648568">
        <ele>1.895085</ele>
        <time>2026-09-03T15:17:41.119Z</time>
      </trkpt>
      <trkpt lat="51.797980" lon="4.647976">
        <ele>2.479942</ele>
        <time>2026-09-03T15:18:04.175Z</time>
      </trkpt>
      <trkpt lat="51.797916" lon="4.647855">
        <ele>2.458254</ele>
        <time>2026-09-03T15:18:05.532Z</time>
      </trkpt>
      <trkpt lat="51.797838" lon="4.647838">
        <ele>2.440918</ele>
        <time>2026-09-03T15:18:06.584Z</time>
      </trkpt>
      <trkpt lat="51.797716" lon="4.647832">
        <ele>2.414034</ele>
        <time>2026-09-03T15:18:08.230Z</time>
      </trkpt>
      <trkpt lat="51.797610" lon="4.647818">
        <ele>2.390609</ele>
        <time>2026-09-03T15:18:09.640Z</time>
      </trkpt>
      <trkpt lat="51.797536" lon="4.647917">
        <ele>2.369454</ele>
        <time>2026-09-03T15:18:10.895Z</time>
      </trkpt>
      <trkpt lat="51.797245" lon="4.648089">
        <ele>2.301211</ele>
        <time>2026-09-03T15:18:14.955Z</time>
      </trkpt>
      <trkpt lat="51.797115" lon="4.648209">
        <ele>2.268240</ele>
        <time>2026-09-03T15:18:16.910Z</time>
      </trkpt>
      <trkpt lat="51.796525" lon="4.648481">
        <ele>2.167471</ele>
        <time>2026-09-03T15:18:25.119Z</time>
      </trkpt>
      <trkpt lat="51.796186" lon="4.648509">
        <ele>2.158603</ele>
        <time>2026-09-03T15:18:29.941Z</time>
      </trkpt>
      <trkpt lat="51.795296" lon="4.648457">
        <ele>2.135335</ele>
        <time>2026-09-03T15:18:43.429Z</time>
      </trkpt>
      <trkpt lat="51.794990" lon="4.648441">
        <ele>2.127336</ele>
        <time>2026-09-03T15:18:48.265Z</time>
      </trkpt>
      <trkpt lat="51.792552" lon="4.648291">
        <ele>2.356146</ele>
        <time>2026-09-03T15:19:25.381Z</time>
      </trkpt>
      <trkpt lat="51.792289" lon="4.648217">
        <ele>2.369493</ele>
        <time>2026-09-03T15:19:29.646Z</time>
      </trkpt>
      <trkpt lat="51.792064" lon="4.648238">
        <ele>2.380762</ele>
        <time>2026-09-03T15:19:33.240Z</time>
      </trkpt>
      <trkpt lat="51.791817" lon="4.648178">
        <ele>2.393251</ele>
        <time>2026-09-03T15:19:36.988Z</time>
      </trkpt>
      <trkpt lat="51.791770" lon="4.648027">
        <ele>2.398478</ele>
        <time>2026-09-03T15:19:39.096Z</time>
      </trkpt>
      <trkpt lat="51.791719" lon="4.647457">
        <ele>2.416289</ele>
        <time>2026-09-03T15:19:46.128Z</time>
      </trkpt>
      <trkpt lat="51.791695" lon="4.647400">
        <ele>2.418032</ele>
        <time>2026-09-03T15:19:46.971Z</time>
      </trkpt>
      <trkpt lat="51.791582" lon="4.647292">
        <ele>2.404529</ele>
        <time>2026-09-03T15:19:49.561Z</time>
      </trkpt>
      <trkpt lat="51.791510" lon="4.647229">
        <ele>2.396108</ele>
        <time>2026-09-03T15:19:51.177Z</time>
      </trkpt>
      <trkpt lat="51.791456" lon="4.647193">
        <ele>2.390099</ele>
        <time>2026-09-03T15:19:52.316Z</time>
      </trkpt>
      <trkpt lat="51.791133" lon="4.647064">
        <ele>2.355876</ele>
        <time>2026-09-03T15:19:58.680Z</time>
      </trkpt>
      <trkpt lat="51.790806" lon="4.647030">
        <ele>2.322170</ele>
        <time>2026-09-03T15:20:04.920Z</time>
      </trkpt>
      <trkpt lat="51.788202" lon="4.646869">
        <ele>2.347240</ele>
        <time>2026-09-03T15:20:58.016Z</time>
      </trkpt>
      <trkpt lat="51.787343" lon="4.646816">
        <ele>2.349842</ele>
        <time>2026-09-03T15:21:16.102Z</time>
      </trkpt>
      <trkpt lat="51.786913" lon="4.646790">
        <ele>2.349241</ele>
        <time>2026-09-03T15:21:24.736Z</time>
      </trkpt>
      <trkpt lat="51.786133" lon="4.646741">
        <ele>2.309770</ele>
        <time>2026-09-03T15:21:39.940Z</time>
      </trkpt>
      <trkpt lat="51.785915" lon="4.646704">
        <ele>2.270328</ele>
        <time>2026-09-03T15:21:44.123Z</time>
      </trkpt>
      <trkpt lat="51.785758" lon="4.646638">
        <ele>2.241138</ele>
        <time>2026-09-03T15:21:47.168Z</time>
      </trkpt>
      <trkpt lat="51.785541" lon="4.646489">
        <ele>2.198715</ele>
        <time>2026-09-03T15:21:51.595Z</time>
      </trkpt>
      <trkpt lat="51.785286" lon="4.646225">
        <ele>2.144228</ele>
        <time>2026-09-03T15:21:57.429Z</time>
      </trkpt>
      <trkpt lat="51.785149" lon="4.646016">
        <ele>2.110332</ele>
        <time>2026-09-03T15:22:01.165Z</time>
      </trkpt>
      <trkpt lat="51.785012" lon="4.645726">
        <ele>2.069716</ele>
        <time>2026-09-03T15:22:05.672Z</time>
      </trkpt>
      <trkpt lat="51.784928" lon="4.645503">
        <ele>2.040653</ele>
        <time>2026-09-03T15:22:08.908Z</time>
      </trkpt>
      <trkpt lat="51.784844" lon="4.645157">
        <ele>2.023445</ele>
        <time>2026-09-03T15:22:13.597Z</time>
      </trkpt>
      <trkpt lat="51.784788" lon="4.644707">
        <ele>2.020715</ele>
        <time>2026-09-03T15:22:19.560Z</time>
      </trkpt>
      <trkpt lat="51.784787" lon="4.644407">
        <ele>2.018931</ele>
        <time>2026-09-03T15:22:23.462Z</time>
      </trkpt>
      <trkpt lat="51.784842" lon="4.641849">
        <ele>1.930616</ele>
        <time>2026-09-03T15:22:55.244Z</time>
      </trkpt>
      <trkpt lat="51.784859" lon="4.640294">
        <ele>1.743850</ele>
        <time>2026-09-03T15:23:13.594Z</time>
      </trkpt>
      <trkpt lat="51.784886" lon="4.639025">
        <ele>1.592564</ele>
        <time>2026-09-03T15:23:29.079Z</time>
      </trkpt>
      <trkpt lat="51.784892" lon="4.638807">
        <ele>1.566827</ele>
        <time>2026-09-03T15:23:31.773Z</time>
      </trkpt>
      <trkpt lat="51.784916" lon="4.637718">
        <ele>1.438304</ele>
        <time>2026-09-03T15:23:44.976Z</time>
      </trkpt>
      <trkpt lat="51.784939" lon="4.636654">
        <ele>1.313645</ele>
        <time>2026-09-03T15:23:57.635Z</time>
      </trkpt>
      <trkpt lat="51.784945" lon="4.636309">
        <ele>1.286673</ele>
        <time>2026-09-03T15:24:01.628Z</time>
      </trkpt>
      <trkpt lat="51.785067" lon="4.631770">
        <ele>1.120912</ele>
        <time>2026-09-03T15:24:57.746Z</time>
      </trkpt>
      <trkpt lat="51.785068" lon="4.631708">
        <ele>1.121925</ele>
        <time>2026-09-03T15:24:58.578Z</time>
      </trkpt>
      <trkpt lat="51.785074" lon="4.631482">
        <ele>1.125617</ele>
        <time>2026-09-03T15:25:01.604Z</time>
      </trkpt>
      <trkpt lat="51.785094" lon="4.630735">
        <ele>1.130843</ele>
        <time>2026-09-03T15:25:11.431Z</time>
      </trkpt>
      <trkpt lat="51.785145" lon="4.630261">
        <ele>1.113292</ele>
        <time>2026-09-03T15:25:17.538Z</time>
      </trkpt>
      <trkpt lat="51.785247" lon="4.629859">
        <ele>1.097442</ele>
        <time>2026-09-03T15:25:23.003Z</time>
      </trkpt>
      <trkpt lat="51.785157" lon="4.629796">
        <ele>1.091658</ele>
        <time>2026-09-03T15:25:24.985Z</time>
      </trkpt>
      <trkpt lat="51.785092" lon="4.629746">
        <ele>1.087413</ele>
        <time>2026-09-03T15:25:26.427Z</time>
      </trkpt>
      <trkpt lat="51.785075" lon="4.629770">
        <ele>1.086082</ele>
        <time>2026-09-03T15:25:26.871Z</time>
      </trkpt>
      <trkpt lat="51.784999" lon="4.629832">
        <ele>1.081062</ele>
        <time>2026-09-03T15:25:28.572Z</time>
      </trkpt>
      <trkpt lat="51.784848" lon="4.629872">
        <ele>1.072039</ele>
        <time>2026-09-03T15:25:31.599Z</time>
      </trkpt>
      <trkpt lat="51.784706" lon="4.629741">
        <ele>1.062397</ele>
        <time>2026-09-03T15:25:33.924Z</time>
      </trkpt>
      <trkpt lat="51.784651" lon="4.629680">
        <ele>1.058464</ele>
        <time>2026-09-03T15:25:34.856Z</time>
      </trkpt>
      <trkpt lat="51.784290" lon="4.629403">
        <ele>1.034899</ele>
        <time>2026-09-03T15:25:40.372Z</time>
      </trkpt>
      <trkpt lat="51.784190" lon="4.629351">
        <ele>1.029207</ele>
        <time>2026-09-03T15:25:41.812Z</time>
      </trkpt>
      <trkpt lat="51.784011" lon="4.629341">
        <ele>1.024587</ele>
        <time>2026-09-03T15:25:44.289Z</time>
      </trkpt>
      <trkpt lat="51.784004" lon="4.629199">
        <ele>1.022314</ele>
        <time>2026-09-03T15:25:45.526Z</time>
      </trkpt>
      <trkpt lat="51.783970" lon="4.629163">
        <ele>1.021266</ele>
        <time>2026-09-03T15:25:46.091Z</time>
      </trkpt>
      <trkpt lat="51.782439" lon="4.629450">
        <ele>0.981911</ele>
        <time>2026-09-03T15:26:09.246Z</time>
      </trkpt>
      <trkpt lat="51.781201" lon="4.629633">
        <ele>0.957390</ele>
        <time>2026-09-03T15:26:27.546Z</time>
      </trkpt>
      <trkpt lat="51.780242" lon="4.629731">
        <ele>0.906861</ele>
        <time>2026-09-03T15:26:41.527Z</time>
      </trkpt>
      <trkpt lat="51.780040" lon="4.629746">
        <ele>0.889319</ele>
        <time>2026-09-03T15:26:44.503Z</time>
      </trkpt>
      <trkpt lat="51.779229" lon="4.629794">
        <ele>0.818915</ele>
        <time>2026-09-03T15:26:56.368Z</time>
      </trkpt>
      <trkpt lat="51.777189" lon="4.629747">
        <ele>0.694654</ele>
        <time>2026-09-03T15:27:26.006Z</time>
      </trkpt>
      <trkpt lat="51.775791" lon="4.629594">
        <ele>0.573395</ele>
        <time>2026-09-03T15:27:46.445Z</time>
      </trkpt>
      <trkpt lat="51.774346" lon="4.629340">
        <ele>0.443238</ele>
        <time>2026-09-03T15:28:07.350Z</time>
      </trkpt>
      <trkpt lat="51.773900" lon="4.629323">
        <ele>0.403001</ele>
        <time>2026-09-03T15:28:13.588Z</time>
      </trkpt>
      <trkpt lat="51.773647" lon="4.629280">
        <ele>0.380056</ele>
        <time>2026-09-03T15:28:17.287Z</time>
      </trkpt>
      <trkpt lat="51.773432" lon="4.629121">
        <ele>0.401600</ele>
        <time>2026-09-03T15:28:20.855Z</time>
      </trkpt>
      <trkpt lat="51.773363" lon="4.629116">
        <ele>0.419611</ele>
        <time>2026-09-03T15:28:21.912Z</time>
      </trkpt>
      <trkpt lat="51.773315" lon="4.629119">
        <ele>0.432138</ele>
        <time>2026-09-03T15:28:22.670Z</time>
      </trkpt>
      <trkpt lat="51.773103" lon="4.629256">
        <ele>0.491679</ele>
        <time>2026-09-03T15:28:26.312Z</time>
      </trkpt>
      <trkpt lat="51.772867" lon="4.629279">
        <ele>0.553334</ele>
        <time>2026-09-03T15:28:30.218Z</time>
      </trkpt>
      <trkpt lat="51.772174" lon="4.629271">
        <ele>0.734056</ele>
        <time>2026-09-03T15:28:41.741Z</time>
      </trkpt>
      <trkpt lat="51.771841" lon="4.629178">
        <ele>0.822181</ele>
        <time>2026-09-03T15:28:47.247Z</time>
      </trkpt>
      <trkpt lat="51.771634" lon="4.629236">
        <ele>0.806060</ele>
        <time>2026-09-03T15:28:50.540Z</time>
      </trkpt>
      <trkpt lat="51.771448" lon="4.629235">
        <ele>0.764477</ele>
        <time>2026-09-03T15:28:53.320Z</time>
      </trkpt>
      <trkpt lat="51.770176" lon="4.629089">
        <ele>0.479384</ele>
        <time>2026-09-03T15:29:10.384Z</time>
      </trkpt>
      <trkpt lat="51.770046" lon="4.629086">
        <ele>0.450318</ele>
        <time>2026-09-03T15:29:12.128Z</time>
      </trkpt>
      <trkpt lat="51.769192" lon="4.629088">
        <ele>0.476376</ele>
        <time>2026-09-03T15:29:24.399Z</time>
      </trkpt>
      <trkpt lat="51.768333" lon="4.628750">
        <ele>0.520639</ele>
        <time>2026-09-03T15:29:38.379Z</time>
      </trkpt>
      <trkpt lat="51.766597" lon="4.628049">
        <ele>0.868992</ele>
        <time>2026-09-03T15:30:06.445Z</time>
      </trkpt>
      <trkpt lat="51.766506" lon="4.628046">
        <ele>0.887671</ele>
        <time>2026-09-03T15:30:07.849Z</time>
      </trkpt>
      <trkpt lat="51.765813" lon="4.628278">
        <ele>0.905898</ele>
        <time>2026-09-03T15:30:18.671Z</time>
      </trkpt>
      <trkpt lat="51.765486" lon="4.628332">
        <ele>0.910848</ele>
        <time>2026-09-03T15:30:23.628Z</time>
      </trkpt>
      <trkpt lat="51.764367" lon="4.628260">
        <ele>0.891159</ele>
        <time>2026-09-03T15:30:39.967Z</time>
      </trkpt>
      <trkpt lat="51.763678" lon="4.628329">
        <ele>0.822169</ele>
        <time>2026-09-03T15:30:49.844Z</time>
      </trkpt>
      <trkpt lat="51.762258" lon="4.628610">
        <ele>0.661935</ele>
        <time>2026-09-03T15:31:10.476Z</time>
      </trkpt>
      <trkpt lat="51.761078" lon="4.628900">
        <ele>0.510787</ele>
        <time>2026-09-03T15:31:27.656Z</time>
      </trkpt>
      <trkpt lat="51.760814" lon="4.628984">
        <ele>0.479066</ele>
        <time>2026-09-03T15:31:31.451Z</time>
      </trkpt>
      <trkpt lat="51.760458" lon="4.629179">
        <ele>0.434750</ele>
        <time>2026-09-03T15:31:36.754Z</time>
      </trkpt>
      <trkpt lat="51.760028" lon="4.629202">
        <ele>0.384028</ele>
        <time>2026-09-03T15:31:42.866Z</time>
      </trkpt>
      <trkpt lat="51.759847" lon="4.629246">
        <ele>0.362449</ele>
        <time>2026-09-03T15:31:45.481Z</time>
      </trkpt>
      <trkpt lat="51.757982" lon="4.629984">
        <ele>0.310864</ele>
        <time>2026-09-03T15:32:13.832Z</time>
      </trkpt>
      <trkpt lat="51.754618" lon="4.631615">
        <ele>0.389046</ele>
        <time>2026-09-03T15:33:06.462Z</time>
      </trkpt>
      <trkpt lat="51.753241" lon="4.632191">
        <ele>0.399355</ele>
        <time>2026-09-03T15:33:27.536Z</time>
      </trkpt>
      <trkpt lat="51.752112" lon="4.632602">
        <ele>0.417076</ele>
        <time>2026-09-03T15:33:44.520Z</time>
      </trkpt>
      <trkpt lat="51.751606" lon="4.632833">
        <ele>0.445697</ele>
        <time>2026-09-03T15:33:52.325Z</time>
      </trkpt>
      <trkpt lat="51.750392" lon="4.633445">
        <ele>0.525887</ele>
        <time>2026-09-03T15:34:11.944Z</time>
      </trkpt>
      <trkpt lat="51.750268" lon="4.633612">
        <ele>0.540366</ele>
        <time>2026-09-03T15:34:14.478Z</time>
      </trkpt>
      <trkpt lat="51.750228" lon="4.633729">
        <ele>0.547786</ele>
        <time>2026-09-03T15:34:15.813Z</time>
      </trkpt>
      <trkpt lat="51.749321" lon="4.636296">
        <ele>0.646328</ele>
        <time>2026-09-03T15:34:43.382Z</time>
      </trkpt>
      <trkpt lat="51.749322" lon="4.636459">
        <ele>0.644098</ele>
        <time>2026-09-03T15:34:44.774Z</time>
      </trkpt>
      <trkpt lat="51.749401" lon="4.636699">
        <ele>0.640379</ele>
        <time>2026-09-03T15:34:47.116Z</time>
      </trkpt>
      <trkpt lat="51.749869" lon="4.637656">
        <ele>0.623695</ele>
        <time>2026-09-03T15:34:57.853Z</time>
      </trkpt>
      <trkpt lat="51.749891" lon="4.637791">
        <ele>0.621785</ele>
        <time>2026-09-03T15:34:59.105Z</time>
      </trkpt>
      <trkpt lat="51.748820" lon="4.637360">
        <ele>0.971322</ele>
        <time>2026-09-03T15:35:16.950Z</time>
      </trkpt>
      <trkpt lat="51.748555" lon="4.637284">
        <ele>1.065790</ele>
        <time>2026-09-03T15:35:21.577Z</time>
      </trkpt>
      <trkpt lat="51.747602" lon="4.636863">
        <ele>1.352357</ele>
        <time>2026-09-03T15:35:37.890Z</time>
      </trkpt>
      <trkpt lat="51.744076" lon="4.635416">
        <ele>1.881738</ele>
        <time>2026-09-03T15:36:33.564Z</time>
      </trkpt>
      <trkpt lat="51.743617" lon="4.635231">
        <ele>1.912315</ele>
        <time>2026-09-03T15:36:40.809Z</time>
      </trkpt>
      <trkpt lat="51.743140" lon="4.635067">
        <ele>1.943837</ele>
        <time>2026-09-03T15:36:48.218Z</time>
      </trkpt>
      <trkpt lat="51.739517" lon="4.633597">
        <ele>1.711113</ele>
        <time>2026-09-03T15:37:42.452Z</time>
      </trkpt>
      <trkpt lat="51.737261" lon="4.632687">
        <ele>1.603964</ele>
        <time>2026-09-03T15:38:16.505Z</time>
      </trkpt>
      <trkpt lat="51.737062" lon="4.632610">
        <ele>1.595392</ele>
        <time>2026-09-03T15:38:19.496Z</time>
      </trkpt>
      <trkpt lat="51.736908" lon="4.632659">
        <ele>1.588817</ele>
        <time>2026-09-03T15:38:21.783Z</time>
      </trkpt>
      <trkpt lat="51.736830" lon="4.632634">
        <ele>1.585486</ele>
        <time>2026-09-03T15:38:22.927Z</time>
      </trkpt>
      <trkpt lat="51.735303" lon="4.632048">
        <ele>1.592576</ele>
        <time>2026-09-03T15:38:45.801Z</time>
      </trkpt>
      <trkpt lat="51.733465" lon="4.631305">
        <ele>2.027008</ele>
        <time>2026-09-03T15:39:15.389Z</time>
      </trkpt>
      <trkpt lat="51.733035" lon="4.631196">
        <ele>2.244160</ele>
        <time>2026-09-03T15:39:23.091Z</time>
      </trkpt>
      <trkpt lat="51.732389" lon="4.631325">
        <ele>2.568899</ele>
        <time>2026-09-03T15:39:34.600Z</time>
      </trkpt>
      <trkpt lat="51.732151" lon="4.631404">
        <ele>2.639219</ele>
        <time>2026-09-03T15:39:38.861Z</time>
      </trkpt>
      <trkpt lat="51.731710" lon="4.631461">
        <ele>2.725259</ele>
        <time>2026-09-03T15:39:46.204Z</time>
      </trkpt>
      <trkpt lat="51.728990" lon="4.631025">
        <ele>2.989991</ele>
        <time>2026-09-03T15:40:26.553Z</time>
      </trkpt>
      <trkpt lat="51.728536" lon="4.631046">
        <ele>3.047955</ele>
        <time>2026-09-03T15:40:33.456Z</time>
      </trkpt>
      <trkpt lat="51.725497" lon="4.631836">
        <ele>3.900567</ele>
        <time>2026-09-03T15:41:22.900Z</time>
      </trkpt>
      <trkpt lat="51.724822" lon="4.632047">
        <ele>4.050292</ele>
        <time>2026-09-03T15:41:33.851Z</time>
      </trkpt>
      <trkpt lat="51.723563" lon="4.632574">
        <ele>4.248972</ele>
        <time>2026-09-03T15:41:54.641Z</time>
      </trkpt>
      <trkpt lat="51.722631" lon="4.633077">
        <ele>3.321921</ele>
        <time>2026-09-03T15:42:07.347Z</time>
      </trkpt>
      <trkpt lat="51.722169" lon="4.633356">
        <ele>2.774359</ele>
        <time>2026-09-03T15:42:12.802Z</time>
      </trkpt>
      <trkpt lat="51.721878" lon="4.633590">
        <ele>2.413470</ele>
        <time>2026-09-03T15:42:16.390Z</time>
      </trkpt>
      <trkpt lat="51.721703" lon="4.633725">
        <ele>2.240659</ele>
        <time>2026-09-03T15:42:18.517Z</time>
      </trkpt>
      <trkpt lat="51.721614" lon="4.633779">
        <ele>2.195713</ele>
        <time>2026-09-03T15:42:19.575Z</time>
      </trkpt>
      <trkpt lat="51.717338" lon="4.636369">
        <ele>0.434318</ele>
        <time>2026-09-03T15:43:22.140Z</time>
      </trkpt>
      <trkpt lat="51.713038" lon="4.638983">
        <ele>1.462848</ele>
        <time>2026-09-03T15:44:34.467Z</time>
      </trkpt>
      <trkpt lat="51.712947" lon="4.639037">
        <ele>1.527483</ele>
        <time>2026-09-03T15:44:36.435Z</time>
      </trkpt>
      <trkpt lat="51.712262" lon="4.639451">
        <ele>2.015108</ele>
        <time>2026-09-03T15:44:50.956Z</time>
      </trkpt>
      <trkpt lat="51.712036" lon="4.639590">
        <ele>2.176341</ele>
        <time>2026-09-03T15:44:55.463Z</time>
      </trkpt>
      <trkpt lat="51.711391" lon="4.639947">
        <ele>2.210677</ele>
        <time>2026-09-03T15:45:06.357Z</time>
      </trkpt>
      <trkpt lat="51.710977" lon="4.640134">
        <ele>1.861254</ele>
        <time>2026-09-03T15:45:11.627Z</time>
      </trkpt>
      <trkpt lat="51.711124" lon="4.639955">
        <ele>1.711581</ele>
        <time>2026-09-03T15:45:14.787Z</time>
      </trkpt>
      <trkpt lat="51.711860" lon="4.639320">
        <ele>1.033258</ele>
        <time>2026-09-03T15:45:28.768Z</time>
      </trkpt>
      <trkpt lat="51.711903" lon="4.639157">
        <ele>0.956006</ele>
        <time>2026-09-03T15:45:30.592Z</time>
      </trkpt>
      <trkpt lat="51.712050" lon="4.638979">
        <ele>0.856842</ele>
        <time>2026-09-03T15:45:33.728Z</time>
      </trkpt>
      <trkpt lat="51.711843" lon="4.638386">
        <ele>0.629280</ele>
        <time>2026-09-03T15:45:38.912Z</time>
      </trkpt>
      <trkpt lat="51.711660" lon="4.637980">
        <ele>0.461421</ele>
        <time>2026-09-03T15:45:42.904Z</time>
      </trkpt>
      <trkpt lat="51.711520" lon="4.637518">
        <ele>0.289471</ele>
        <time>2026-09-03T15:45:47.208Z</time>
      </trkpt>
      <trkpt lat="51.710926" lon="4.634869">
        <ele>0.011247</ele>
        <time>2026-09-03T15:46:14.292Z</time>
      </trkpt>
      <trkpt lat="51.709924" lon="4.631513">
        <ele>-0.445991</ele>
        <time>2026-09-03T15:46:46.077Z</time>
      </trkpt>
      <trkpt lat="51.708875" lon="4.628056">
        <ele>-0.621964</ele>
        <time>2026-09-03T15:47:20.710Z</time>
      </trkpt>
      <trkpt lat="51.708611" lon="4.627320">
        <ele>-0.605914</ele>
        <time>2026-09-03T15:47:29.258Z</time>
      </trkpt>
      <trkpt lat="51.708580" lon="4.627237">
        <ele>-0.604085</ele>
        <time>2026-09-03T15:47:30.235Z</time>
      </trkpt>
      <trkpt lat="51.708031" lon="4.625817">
        <ele>-0.521876</ele>
        <time>2026-09-03T15:47:45.140Z</time>
      </trkpt>
      <trkpt lat="51.707838" lon="4.625376">
        <ele>-0.463172</ele>
        <time>2026-09-03T15:47:49.827Z</time>
      </trkpt>
      <trkpt lat="51.707468" lon="4.624869">
        <ele>-0.378002</ele>
        <time>2026-09-03T15:47:56.823Z</time>
      </trkpt>
      <trkpt lat="51.707225" lon="4.624670">
        <ele>-0.330188</ele>
        <time>2026-09-03T15:48:00.931Z</time>
      </trkpt>
      <trkpt lat="51.706923" lon="4.624550">
        <ele>-0.275614</ele>
        <time>2026-09-03T15:48:05.888Z</time>
      </trkpt>
      <trkpt lat="51.705669" lon="4.624210">
        <ele>1.119158</ele>
        <time>2026-09-03T15:48:32.369Z</time>
      </trkpt>
      <trkpt lat="51.705571" lon="4.624104">
        <ele>1.252656</ele>
        <time>2026-09-03T15:48:34.767Z</time>
      </trkpt>
      <trkpt lat="51.705440" lon="4.624090">
        <ele>1.401213</ele>
        <time>2026-09-03T15:48:38.043Z</time>
      </trkpt>
      <trkpt lat="51.705115" lon="4.624060">
        <ele>1.767710</ele>
        <time>2026-09-03T15:48:45.752Z</time>
      </trkpt>
      <trkpt lat="51.704859" lon="4.624114">
        <ele>1.766560</ele>
        <time>2026-09-03T15:48:51.741Z</time>
      </trkpt>
      <trkpt lat="51.704669" lon="4.624207">
        <ele>1.765676</ele>
        <time>2026-09-03T15:48:56.125Z</time>
      </trkpt>
      <trkpt lat="51.704377" lon="4.624454">
        <ele>1.764207</ele>
        <time>2026-09-03T15:49:02.940Z</time>
      </trkpt>
      <trkpt lat="51.704237" lon="4.624515">
        <ele>1.763561</ele>
        <time>2026-09-03T15:49:04.891Z</time>
      </trkpt>
      <trkpt lat="51.704237" lon="4.624676">
        <ele>1.763116</ele>
        <time>2026-09-03T15:49:06.242Z</time>
      </trkpt>
      <trkpt lat="51.704217" lon="4.624774">
        <ele>1.762831</ele>
        <time>2026-09-03T15:49:07.072Z</time>
      </trkpt>
      <trkpt lat="51.704089" lon="4.625019">
        <ele>1.761946</ele>
        <time>2026-09-03T15:49:09.701Z</time>
      </trkpt>
      <trkpt lat="51.703376" lon="4.625911">
        <ele>1.660726</ele>
        <time>2026-09-03T15:49:21.872Z</time>
      </trkpt>
      <trkpt lat="51.702250" lon="4.627281">
        <ele>1.311031</ele>
        <time>2026-09-03T15:49:41.828Z</time>
      </trkpt>
      <trkpt lat="51.702180" lon="4.627377">
        <ele>1.290038</ele>
        <time>2026-09-03T15:49:43.150Z</time>
      </trkpt>
      <trkpt lat="51.702062" lon="4.627419">
        <ele>1.262427</ele>
        <time>2026-09-03T15:49:44.879Z</time>
      </trkpt>
      <trkpt lat="51.701997" lon="4.627467">
        <ele>1.246092</ele>
        <time>2026-09-03T15:49:45.878Z</time>
      </trkpt>
      <trkpt lat="51.701937" lon="4.627602">
        <ele>1.222567</ele>
        <time>2026-09-03T15:49:47.327Z</time>
      </trkpt>
      <trkpt lat="51.701858" lon="4.627766">
        <ele>1.193151</ele>
        <time>2026-09-03T15:49:49.088Z</time>
      </trkpt>
      <trkpt lat="51.701732" lon="4.627851">
        <ele>1.161945</ele>
        <time>2026-09-03T15:49:50.937Z</time>
      </trkpt>
      <trkpt lat="51.701667" lon="4.627920">
        <ele>1.144166</ele>
        <time>2026-09-03T15:49:51.994Z</time>
      </trkpt>
      <trkpt lat="51.701603" lon="4.628079">
        <ele>1.117317</ele>
        <time>2026-09-03T15:49:53.595Z</time>
      </trkpt>
      <trkpt lat="51.701434" lon="4.628264">
        <ele>1.070651</ele>
        <time>2026-09-03T15:49:56.386Z</time>
      </trkpt>
      <trkpt lat="51.701201" lon="4.628553">
        <ele>1.003497</ele>
        <time>2026-09-03T15:50:00.397Z</time>
      </trkpt>
      <trkpt lat="51.700949" lon="4.628864">
        <ele>0.931001</ele>
        <time>2026-09-03T15:50:04.793Z</time>
      </trkpt>
      <trkpt lat="51.700369" lon="4.629576">
        <ele>0.910795</ele>
        <time>2026-09-03T15:50:16.057Z</time>
      </trkpt>
      <trkpt lat="51.700164" lon="4.629633">
        <ele>0.913675</ele>
        <time>2026-09-03T15:50:19.308Z</time>
      </trkpt>
      <trkpt lat="51.700170" lon="4.629719">
        <ele>0.914418</ele>
        <time>2026-09-03T15:50:20.165Z</time>
      </trkpt>
      <trkpt lat="51.700142" lon="4.629833">
        <ele>0.915470</ele>
        <time>2026-09-03T15:50:21.362Z</time>
      </trkpt>
      <trkpt lat="51.699965" lon="4.630076">
        <ele>0.918688</ele>
        <time>2026-09-03T15:50:25.077Z</time>
      </trkpt>
      <trkpt lat="51.699578" lon="4.630618">
        <ele>0.925784</ele>
        <time>2026-09-03T15:50:32.714Z</time>
      </trkpt>
      <trkpt lat="51.699493" lon="4.630802">
        <ele>0.909026</ele>
        <time>2026-09-03T15:50:34.711Z</time>
      </trkpt>
      <trkpt lat="51.699278" lon="4.631121">
        <ele>0.729985</ele>
        <time>2026-09-03T15:50:38.590Z</time>
      </trkpt>
      <trkpt lat="51.698855" lon="4.631952">
        <ele>0.321452</ele>
        <time>2026-09-03T15:50:46.893Z</time>
      </trkpt>
      <trkpt lat="51.698795" lon="4.632066">
        <ele>0.264633</ele>
        <time>2026-09-03T15:50:48.034Z</time>
      </trkpt>
      <trkpt lat="51.698755" lon="4.632137">
        <ele>0.228181</ele>
        <time>2026-09-03T15:50:48.780Z</time>
      </trkpt>
      <trkpt lat="51.698546" lon="4.632534">
        <ele>0.030289</ele>
        <time>2026-09-03T15:50:52.834Z</time>
      </trkpt>
      <trkpt lat="51.698444" lon="4.632597">
        <ele>-0.036658</ele>
        <time>2026-09-03T15:50:54.225Z</time>
      </trkpt>
      <trkpt lat="51.698348" lon="4.632765">
        <ele>-0.123471</ele>
        <time>2026-09-03T15:50:56.062Z</time>
      </trkpt>
      <trkpt lat="51.698330" lon="4.632826">
        <ele>-0.149138</ele>
        <time>2026-09-03T15:50:56.615Z</time>
      </trkpt>
      <trkpt lat="51.698366" lon="4.632872">
        <ele>-0.175470</ele>
        <time>2026-09-03T15:50:57.221Z</time>
      </trkpt>
      <trkpt lat="51.698405" lon="4.632941">
        <ele>-0.180483</ele>
        <time>2026-09-03T15:50:57.987Z</time>
      </trkpt>
      <trkpt lat="51.698228" lon="4.633218">
        <ele>-0.201841</ele>
        <time>2026-09-03T15:51:01.356Z</time>
      </trkpt>
      <trkpt lat="51.697867" lon="4.633913">
        <ele>-0.250521</ele>
        <time>2026-09-03T15:51:09.628Z</time>
      </trkpt>
      <trkpt lat="51.697294" lon="4.635017">
        <ele>-0.327825</ele>
        <time>2026-09-03T15:51:23.233Z</time>
      </trkpt>
      <trkpt lat="51.697138" lon="4.635398">
        <ele>-0.371764</ele>
        <time>2026-09-03T15:51:27.466Z</time>
      </trkpt>
      <trkpt lat="51.697054" lon="4.635735">
        <ele>-0.408981</ele>
        <time>2026-09-03T15:51:30.806Z</time>
      </trkpt>
      <trkpt lat="51.696692" lon="4.636615">
        <ele>-0.517200</ele>
        <time>2026-09-03T15:51:40.225Z</time>
      </trkpt>
      <trkpt lat="51.696559" lon="4.636877">
        <ele>-0.551900</ele>
        <time>2026-09-03T15:51:43.109Z</time>
      </trkpt>
      <trkpt lat="51.696435" lon="4.637047">
        <ele>-0.578800</ele>
        <time>2026-09-03T15:51:45.310Z</time>
      </trkpt>
      <trkpt lat="51.696193" lon="4.637284">
        <ele>-0.625599</ele>
        <time>2026-09-03T15:51:49.116Z</time>
      </trkpt>
      <trkpt lat="51.695551" lon="4.637658">
        <ele>-0.864729</ele>
        <time>2026-09-03T15:51:58.304Z</time>
      </trkpt>
      <trkpt lat="51.695261" lon="4.637869">
        <ele>-0.977621</ele>
        <time>2026-09-03T15:52:02.642Z</time>
      </trkpt>
      <trkpt lat="51.694968" lon="4.638198">
        <ele>-1.104302</ele>
        <time>2026-09-03T15:52:07.484Z</time>
      </trkpt>
      <trkpt lat="51.694730" lon="4.638558">
        <ele>-1.220076</ele>
        <time>2026-09-03T15:52:12.014Z</time>
      </trkpt>
      <trkpt lat="51.694615" lon="4.638505">
        <ele>-1.262518</ele>
        <time>2026-09-03T15:52:14.340Z</time>
      </trkpt>
      <trkpt lat="51.694551" lon="4.638464">
        <ele>-1.273941</ele>
        <time>2026-09-03T15:52:15.699Z</time>
      </trkpt>
      <trkpt lat="51.694524" lon="4.638264">
        <ele>-1.290218</ele>
        <time>2026-09-03T15:52:18.186Z</time>
      </trkpt>
      <trkpt lat="51.694466" lon="4.638144">
        <ele>-1.302319</ele>
        <time>2026-09-03T15:52:20.025Z</time>
      </trkpt>
      <trkpt lat="51.694400" lon="4.638094">
        <ele>-1.311674</ele>
        <time>2026-09-03T15:52:21.479Z</time>
      </trkpt>
      <trkpt lat="51.694229" lon="4.638068">
        <ele>-1.333710</ele>
        <time>2026-09-03T15:52:24.839Z</time>
      </trkpt>
      <trkpt lat="51.694151" lon="4.637985">
        <ele>-1.345698</ele>
        <time>2026-09-03T15:52:26.676Z</time>
      </trkpt>
      <trkpt lat="51.693656" lon="4.638031">
        <ele>-1.409309</ele>
        <time>2026-09-03T15:52:36.354Z</time>
      </trkpt>
      <trkpt lat="51.693504" lon="4.638001">
        <ele>-1.428955</ele>
        <time>2026-09-03T15:52:39.342Z</time>
      </trkpt>
      <trkpt lat="51.693358" lon="4.637881">
        <ele>-1.449978</ele>
        <time>2026-09-03T15:52:42.588Z</time>
      </trkpt>
      <trkpt lat="51.693108" lon="4.637543">
        <ele>-1.491826</ele>
        <time>2026-09-03T15:52:49.120Z</time>
      </trkpt>
      <trkpt lat="51.692983" lon="4.637431">
        <ele>-1.477782</ele>
        <time>2026-09-03T15:52:52.017Z</time>
      </trkpt>
      <trkpt lat="51.692827" lon="4.637309">
        <ele>-1.443926</ele>
        <time>2026-09-03T15:52:55.543Z</time>
      </trkpt>
      <trkpt lat="51.692552" lon="4.637166">
        <ele>-1.387500</ele>
        <time>2026-09-03T15:53:01.441Z</time>
      </trkpt>
      <trkpt lat="51.692251" lon="4.637123">
        <ele>-1.328487</ele>
        <time>2026-09-03T15:53:07.726Z</time>
      </trkpt>
      <trkpt lat="51.691422" lon="4.637214">
        <ele>-1.166217</ele>
        <time>2026-09-03T15:53:25.536Z</time>
      </trkpt>
      <trkpt lat="51.691115" lon="4.637183">
        <ele>-1.053394</ele>
        <time>2026-09-03T15:53:32.331Z</time>
      </trkpt>
      <trkpt lat="51.690729" lon="4.637053">
        <ele>-0.874640</ele>
        <time>2026-09-03T15:53:41.157Z</time>
      </trkpt>
      <trkpt lat="51.690261" lon="4.636762">
        <ele>-0.647271</ele>
        <time>2026-09-03T15:53:52.342Z</time>
      </trkpt>
      <trkpt lat="51.689900" lon="4.636402">
        <ele>-0.454877</ele>
        <time>2026-09-03T15:54:01.769Z</time>
      </trkpt>
      <trkpt lat="51.689254" lon="4.635513">
        <ele>-0.295690</ele>
        <time>2026-09-03T15:54:19.953Z</time>
      </trkpt>
      <trkpt lat="51.687770" lon="4.633344">
        <ele>-0.180762</ele>
        <time>2026-09-03T15:54:59.599Z</time>
      </trkpt>
      <trkpt lat="51.686679" lon="4.631931">
        <ele>0.025592</ele>
        <time>2026-09-03T15:55:28.791Z</time>
      </trkpt>
      <trkpt lat="51.685173" lon="4.629760">
        <ele>0.720023</ele>
        <time>2026-09-03T15:56:13.829Z</time>
      </trkpt>
      <trkpt lat="51.684976" lon="4.629433">
        <ele>0.776963</ele>
        <time>2026-09-03T15:56:19.777Z</time>
      </trkpt>
      <trkpt lat="51.684771" lon="4.629129">
        <ele>0.833055</ele>
        <time>2026-09-03T15:56:25.503Z</time>
      </trkpt>
      <trkpt lat="51.684428" lon="4.628727">
        <ele>0.918458</ele>
        <time>2026-09-03T15:56:34.024Z</time>
      </trkpt>
      <trkpt lat="51.681826" lon="4.624828">
        <ele>0.710087</ele>
        <time>2026-09-03T15:57:44.301Z</time>
      </trkpt>
      <trkpt lat="51.681212" lon="4.623748">
        <ele>0.966774</ele>
        <time>2026-09-03T15:58:03.439Z</time>
      </trkpt>
      <trkpt lat="51.680703" lon="4.622706">
        <ele>1.304895</ele>
        <time>2026-09-03T15:58:21.892Z</time>
      </trkpt>
      <trkpt lat="51.680161" lon="4.621327">
        <ele>1.709513</ele>
        <time>2026-09-03T15:58:45.038Z</time>
      </trkpt>
      <trkpt lat="51.679986" lon="4.620817">
        <ele>1.852007</ele>
        <time>2026-09-03T15:58:52.832Z</time>
      </trkpt>
      <trkpt lat="51.679839" lon="4.620279">
        <ele>1.995732</ele>
        <time>2026-09-03T15:59:00.607Z</time>
      </trkpt>
      <trkpt lat="51.679755" lon="4.619493">
        <ele>2.150010</ele>
        <time>2026-09-03T15:59:10.938Z</time>
      </trkpt>
      <trkpt lat="51.678080" lon="4.619640">
        <ele>2.181112</ele>
        <time>2026-09-03T15:59:45.155Z</time>
      </trkpt>
      <trkpt lat="51.677400" lon="4.619653">
        <ele>1.874335</ele>
        <time>2026-09-03T15:59:57.887Z</time>
      </trkpt>
      <trkpt lat="51.676960" lon="4.619684">
        <ele>1.671679</ele>
        <time>2026-09-03T16:00:05.905Z</time>
      </trkpt>
      <trkpt lat="51.676216" lon="4.619708">
        <ele>1.337079</ele>
        <time>2026-09-03T16:00:19.471Z</time>
      </trkpt>
      <trkpt lat="51.675499" lon="4.619751">
        <ele>1.112411</ele>
        <time>2026-09-03T16:00:33.044Z</time>
      </trkpt>
      <trkpt lat="51.675300" lon="4.619689">
        <ele>1.048947</ele>
        <time>2026-09-03T16:00:36.949Z</time>
      </trkpt>
      <trkpt lat="51.674990" lon="4.619520">
        <ele>0.946480</ele>
        <time>2026-09-03T16:00:43.256Z</time>
      </trkpt>
      <trkpt lat="51.671330" lon="4.617170">
        <ele>0.060557</ele>
        <time>2026-09-03T16:01:59.972Z</time>
      </trkpt>
      <trkpt lat="51.671210" lon="4.617070">
        <ele>0.029883</ele>
        <time>2026-09-03T16:02:02.663Z</time>
      </trkpt>
      <trkpt lat="51.669968" lon="4.615565">
        <ele>-0.678375</ele>
        <time>2026-09-03T16:02:31.746Z</time>
      </trkpt>
      <trkpt lat="51.669485" lon="4.614932">
        <ele>-0.758342</ele>
        <time>2026-09-03T16:02:43.000Z</time>
      </trkpt>
      <trkpt lat="51.669299" lon="4.614541">
        <ele>-0.722303</ele>
        <time>2026-09-03T16:02:48.675Z</time>
      </trkpt>
      <trkpt lat="51.667962" lon="4.611298">
        <ele>-0.036717</ele>
        <time>2026-09-03T16:03:42.757Z</time>
      </trkpt>
      <trkpt lat="51.667760" lon="4.611020">
        <ele>0.077840</ele>
        <time>2026-09-03T16:03:48.499Z</time>
      </trkpt>
      <trkpt lat="51.666922" lon="4.610278">
        <ele>0.247878</ele>
        <time>2026-09-03T16:04:08.209Z</time>
      </trkpt>
      <trkpt lat="51.666354" lon="4.609797">
        <ele>0.303037</ele>
        <time>2026-09-03T16:04:21.160Z</time>
      </trkpt>
      <trkpt lat="51.666126" lon="4.609665">
        <ele>0.323865</ele>
        <time>2026-09-03T16:04:26.129Z</time>
      </trkpt>
      <trkpt lat="51.665597" lon="4.609615">
        <ele>0.340755</ele>
        <time>2026-09-03T16:04:37.158Z</time>
      </trkpt>
      <trkpt lat="51.663688" lon="4.609420">
        <ele>0.375149</ele>
        <time>2026-09-03T16:05:15.441Z</time>
      </trkpt>
      <trkpt lat="51.662229" lon="4.609300">
        <ele>0.518366</ele>
        <time>2026-09-03T16:05:45.754Z</time>
      </trkpt>
      <trkpt lat="51.660969" lon="4.609286">
        <ele>0.692071</ele>
        <time>2026-09-03T16:06:12.358Z</time>
      </trkpt>
      <trkpt lat="51.660440" lon="4.609280">
        <ele>0.745113</ele>
        <time>2026-09-03T16:06:23.150Z</time>
      </trkpt>
      <trkpt lat="51.659905" lon="4.609285">
        <ele>0.691681</ele>
        <time>2026-09-03T16:06:33.735Z</time>
      </trkpt>
      <trkpt lat="51.658094" lon="4.609165">
        <ele>0.646885</ele>
        <time>2026-09-03T16:07:09.523Z</time>
      </trkpt>
      <trkpt lat="51.658020" lon="4.609076">
        <ele>0.657548</ele>
        <time>2026-09-03T16:07:11.451Z</time>
      </trkpt>
      <trkpt lat="51.657109" lon="4.608977">
        <ele>0.762997</ele>
        <time>2026-09-03T16:07:30.739Z</time>
      </trkpt>
      <trkpt lat="51.656023" lon="4.608856">
        <ele>1.020280</ele>
        <time>2026-09-03T16:07:54.228Z</time>
      </trkpt>
      <trkpt lat="51.654893" lon="4.608879">
        <ele>1.261706</ele>
        <time>2026-09-03T16:08:18.081Z</time>
      </trkpt>
      <trkpt lat="51.653798" lon="4.608826">
        <ele>1.335218</ele>
        <time>2026-09-03T16:08:40.318Z</time>
      </trkpt>
      <trkpt lat="51.652118" lon="4.609065">
        <ele>1.487241</ele>
        <time>2026-09-03T16:09:14.204Z</time>
      </trkpt>
      <trkpt lat="51.651984" lon="4.609154">
        <ele>1.501497</ele>
        <time>2026-09-03T16:09:17.250Z</time>
      </trkpt>
      <trkpt lat="51.650200" lon="4.609389">
        <ele>2.239961</ele>
        <time>2026-09-03T16:09:47.183Z</time>
      </trkpt>
      <trkpt lat="51.650062" lon="4.609444">
        <ele>2.311922</ele>
        <time>2026-09-03T16:09:49.615Z</time>
      </trkpt>
      <trkpt lat="51.650029" lon="4.609514">
        <ele>2.339534</ele>
        <time>2026-09-03T16:09:50.590Z</time>
      </trkpt>
      <trkpt lat="51.650044" lon="4.609717">
        <ele>2.403743</ele>
        <time>2026-09-03T16:09:52.761Z</time>
      </trkpt>
      <trkpt lat="51.650218" lon="4.610549">
        <ele>2.579041</ele>
        <time>2026-09-03T16:10:02.104Z</time>
      </trkpt>
      <trkpt lat="51.649932" lon="4.610620">
        <ele>2.660721</ele>
        <time>2026-09-03T16:10:07.089Z</time>
      </trkpt>
      <trkpt lat="51.649505" lon="4.610712">
        <ele>2.782322</ele>
        <time>2026-09-03T16:10:14.017Z</time>
      </trkpt>
      <trkpt lat="51.648954" lon="4.610824">
        <ele>2.939084</ele>
        <time>2026-09-03T16:10:22.548Z</time>
      </trkpt>
      <trkpt lat="51.647956" lon="4.611032">
        <ele>2.635179</ele>
        <time>2026-09-03T16:10:36.139Z</time>
      </trkpt>
      <trkpt lat="51.647760" lon="4.611040">
        <ele>2.566812</ele>
        <time>2026-09-03T16:10:38.741Z</time>
      </trkpt>
      <trkpt lat="51.647550" lon="4.610970">
        <ele>2.492034</ele>
        <time>2026-09-03T16:10:41.647Z</time>
      </trkpt>
      <trkpt lat="51.647534" lon="4.610960">
        <ele>2.486050</ele>
        <time>2026-09-03T16:10:41.877Z</time>
      </trkpt>
      <trkpt lat="51.647460" lon="4.610916">
        <ele>2.458546</ele>
        <time>2026-09-03T16:10:42.962Z</time>
      </trkpt>
      <trkpt lat="51.647392" lon="4.610875">
        <ele>2.433229</ele>
        <time>2026-09-03T16:10:43.920Z</time>
      </trkpt>
      <trkpt lat="51.647318" lon="4.610721">
        <ele>2.391085</ele>
        <time>2026-09-03T16:10:46.206Z</time>
      </trkpt>
      <trkpt lat="51.646982" lon="4.610417">
        <ele>2.340083</ele>
        <time>2026-09-03T16:10:53.294Z</time>
      </trkpt>
      <trkpt lat="51.646948" lon="4.610346">
        <ele>2.341907</ele>
        <time>2026-09-03T16:10:54.319Z</time>
      </trkpt>
      <trkpt lat="51.646946" lon="4.610308">
        <ele>2.342683</ele>
        <time>2026-09-03T16:10:54.750Z</time>
      </trkpt>
      <trkpt lat="51.646810" lon="4.610249">
        <ele>2.347301</ele>
        <time>2026-09-03T16:10:57.437Z</time>
      </trkpt>
      <trkpt lat="51.646687" lon="4.610220">
        <ele>2.351377</ele>
        <time>2026-09-03T16:10:59.937Z</time>
      </trkpt>
      <trkpt lat="51.646667" lon="4.610295">
        <ele>2.353038</ele>
        <time>2026-09-03T16:11:00.951Z</time>
      </trkpt>
      <trkpt lat="51.646296" lon="4.610272">
        <ele>2.365212</ele>
        <time>2026-09-03T16:11:09.027Z</time>
      </trkpt>
      <trkpt lat="51.646144" lon="4.610177">
        <ele>2.370558</ele>
        <time>2026-09-03T16:11:12.605Z</time>
      </trkpt>
      <trkpt lat="51.646084" lon="4.610149">
        <ele>2.372606</ele>
        <time>2026-09-03T16:11:13.923Z</time>
      </trkpt>
      <trkpt lat="51.646006" lon="4.610167">
        <ele>2.375189</ele>
        <time>2026-09-03T16:11:15.661Z</time>
      </trkpt>
      <trkpt lat="51.645800" lon="4.610075">
        <ele>2.382199</ele>
        <time>2026-09-03T16:11:20.186Z</time>
      </trkpt>
      <trkpt lat="51.645604" lon="4.610030">
        <ele>2.388690</ele>
        <time>2026-09-03T16:11:24.302Z</time>
      </trkpt>
      <trkpt lat="51.645570" lon="4.610022">
        <ele>2.389817</ele>
        <time>2026-09-03T16:11:24.996Z</time>
      </trkpt>
      <trkpt lat="51.645549" lon="4.609970">
        <ele>2.391079</ele>
        <time>2026-09-03T16:11:25.782Z</time>
      </trkpt>
      <trkpt lat="51.645450" lon="4.609960">
        <ele>2.378175</ele>
        <time>2026-09-03T16:11:27.818Z</time>
      </trkpt>
      <trkpt lat="51.645340" lon="4.609994">
        <ele>2.357509</ele>
        <time>2026-09-03T16:11:30.101Z</time>
      </trkpt>
      <trkpt lat="51.644970" lon="4.609982">
        <ele>2.289229</ele>
        <time>2026-09-03T16:11:37.826Z</time>
      </trkpt>
      <trkpt lat="51.644941" lon="4.610008">
        <ele>2.283106</ele>
        <time>2026-09-03T16:11:38.532Z</time>
      </trkpt>
      <trkpt lat="51.644562" lon="4.610016">
        <ele>2.213173</ele>
        <time>2026-09-03T16:11:46.279Z</time>
      </trkpt>
      <trkpt lat="51.644177" lon="4.609953">
        <ele>2.141773</ele>
        <time>2026-09-03T16:11:53.513Z</time>
      </trkpt>
      <trkpt lat="51.644081" lon="4.609971">
        <ele>2.123942</ele>
        <time>2026-09-03T16:11:55.279Z</time>
      </trkpt>
      <trkpt lat="51.643986" lon="4.609984">
        <ele>2.106351</ele>
        <time>2026-09-03T16:11:57.005Z</time>
      </trkpt>
      <trkpt lat="51.643608" lon="4.609964">
        <ele>2.003833</ele>
        <time>2026-09-03T16:12:03.846Z</time>
      </trkpt>
      <trkpt lat="51.643194" lon="4.609935">
        <ele>1.820711</ele>
        <time>2026-09-03T16:12:11.369Z</time>
      </trkpt>
      <trkpt lat="51.643094" lon="4.609928">
        <ele>1.776479</ele>
        <time>2026-09-03T16:12:13.198Z</time>
      </trkpt>
      <trkpt lat="51.642998" lon="4.609926">
        <ele>1.734053</ele>
        <time>2026-09-03T16:12:14.935Z</time>
      </trkpt>
      <trkpt lat="51.642798" lon="4.610085">
        <ele>1.635501</ele>
        <time>2026-09-03T16:12:19.043Z</time>
      </trkpt>
      <trkpt lat="51.642783" lon="4.610099">
        <ele>1.627841</ele>
        <time>2026-09-03T16:12:19.352Z</time>
      </trkpt>
      <trkpt lat="51.642719" lon="4.610117">
        <ele>1.599131</ele>
        <time>2026-09-03T16:12:20.554Z</time>
      </trkpt>
      <trkpt lat="51.642554" lon="4.610070">
        <ele>1.525086</ele>
        <time>2026-09-03T16:12:23.689Z</time>
      </trkpt>
      <trkpt lat="51.642536" lon="4.610064">
        <ele>1.516964</ele>
        <time>2026-09-03T16:12:24.025Z</time>
      </trkpt>
      <trkpt lat="51.642111" lon="4.609915">
        <ele>1.324760</ele>
        <time>2026-09-03T16:12:32.368Z</time>
      </trkpt>
      <trkpt lat="51.641952" lon="4.609821">
        <ele>1.274686</ele>
        <time>2026-09-03T16:12:35.723Z</time>
      </trkpt>
      <trkpt lat="51.641802" lon="4.609681">
        <ele>1.322194</ele>
        <time>2026-09-03T16:12:39.221Z</time>
      </trkpt>
      <trkpt lat="51.641450" lon="4.609307">
        <ele>1.437748</ele>
        <time>2026-09-03T16:12:47.935Z</time>
      </trkpt>
      <trkpt lat="51.641477" lon="4.609174">
        <ele>1.461548</ele>
        <time>2026-09-03T16:12:49.789Z</time>
      </trkpt>
      <trkpt lat="51.641793" lon="4.608278">
        <ele>1.636827</ele>
        <time>2026-09-03T16:13:03.666Z</time>
      </trkpt>
      <trkpt lat="51.641869" lon="4.607973">
        <ele>1.692726</ele>
        <time>2026-09-03T16:13:08.174Z</time>
      </trkpt>
      <trkpt lat="51.642060" lon="4.607520">
        <ele>1.779212</ele>
        <time>2026-09-03T16:13:15.835Z</time>
      </trkpt>
      <trkpt lat="51.642064" lon="4.607449">
        <ele>1.788425</ele>
        <time>2026-09-03T16:13:16.919Z</time>
      </trkpt>
      <trkpt lat="51.642073" lon="4.607306">
        <ele>1.806999</ele>
        <time>2026-09-03T16:13:18.972Z</time>
      </trkpt>
      <trkpt lat="51.642075" lon="4.607251">
        <ele>1.814119</ele>
        <time>2026-09-03T16:13:19.762Z</time>
      </trkpt>
      <trkpt lat="51.642093" lon="4.606772">
        <ele>1.876131</ele>
        <time>2026-09-03T16:13:26.403Z</time>
      </trkpt>
      <trkpt lat="51.642204" lon="4.606053">
        <ele>1.971876</ele>
        <time>2026-09-03T16:13:36.051Z</time>
      </trkpt>
      <trkpt lat="51.642260" lon="4.605751">
        <ele>2.012607</ele>
        <time>2026-09-03T16:13:39.962Z</time>
      </trkpt>
      <trkpt lat="51.642304" lon="4.605510">
        <ele>2.045070</ele>
        <time>2026-09-03T16:13:43.077Z</time>
      </trkpt>
      <trkpt lat="51.642377" lon="4.605118">
        <ele>2.097958</ele>
        <time>2026-09-03T16:13:48.159Z</time>
      </trkpt>
      <trkpt lat="51.642515" lon="4.604341">
        <ele>2.146358</ele>
        <time>2026-09-03T16:13:58.251Z</time>
      </trkpt>
      <trkpt lat="51.642521" lon="4.604305">
        <ele>2.147303</ele>
        <time>2026-09-03T16:13:58.740Z</time>
      </trkpt>
      <trkpt lat="51.642563" lon="4.604230">
        <ele>2.149863</ele>
        <time>2026-09-03T16:14:00.022Z</time>
      </trkpt>
      <trkpt lat="51.642657" lon="4.604179">
        <ele>2.153912</ele>
        <time>2026-09-03T16:14:02.043Z</time>
      </trkpt>
      <trkpt lat="51.642668" lon="4.604069">
        <ele>2.156736</ele>
        <time>2026-09-03T16:14:03.366Z</time>
      </trkpt>
      <trkpt lat="51.642678" lon="4.603981">
        <ele>2.159002</ele>
        <time>2026-09-03T16:14:04.458Z</time>
      </trkpt>
      <trkpt lat="51.642628" lon="4.603904">
        <ele>2.161826</ele>
        <time>2026-09-03T16:14:05.767Z</time>
      </trkpt>
      <trkpt lat="51.642614" lon="4.603780">
        <ele>2.165020</ele>
        <time>2026-09-03T16:14:07.293Z</time>
      </trkpt>
      <trkpt lat="51.642739" lon="4.603167">
        <ele>2.181369</ele>
        <time>2026-09-03T16:14:15.366Z</time>
      </trkpt>
      <trkpt lat="51.642779" lon="4.603002">
        <ele>2.185858</ele>
        <time>2026-09-03T16:14:17.648Z</time>
      </trkpt>
      <trkpt lat="51.642846" lon="4.602791">
        <ele>2.191863</ele>
        <time>2026-09-03T16:14:20.787Z</time>
      </trkpt>
      <trkpt lat="51.642921" lon="4.602557">
        <ele>2.198537</ele>
        <time>2026-09-03T16:14:24.328Z</time>
      </trkpt>
      <trkpt lat="51.643120" lon="4.601965">
        <ele>2.180973</ele>
        <time>2026-09-03T16:14:33.184Z</time>
      </trkpt>
      <trkpt lat="51.643188" lon="4.601754">
        <ele>2.164962</ele>
        <time>2026-09-03T16:14:36.181Z</time>
      </trkpt>
      <trkpt lat="51.643202" lon="4.601677">
        <ele>2.159558</ele>
        <time>2026-09-03T16:14:37.182Z</time>
      </trkpt>
      <trkpt lat="51.643219" lon="4.601592">
        <ele>2.153544</ele>
        <time>2026-09-03T16:14:38.296Z</time>
      </trkpt>
      <trkpt lat="51.643223" lon="4.601476">
        <ele>2.145720</ele>
        <time>2026-09-03T16:14:39.732Z</time>
      </trkpt>
      <trkpt lat="51.643209" lon="4.601290">
        <ele>2.133103</ele>
        <time>2026-09-03T16:14:42.048Z</time>
      </trkpt>
      <trkpt lat="51.643188" lon="4.601229">
        <ele>2.128405</ele>
        <time>2026-09-03T16:14:42.899Z</time>
      </trkpt>
      <trkpt lat="51.643141" lon="4.601092">
        <ele>2.117863</ele>
        <time>2026-09-03T16:14:44.742Z</time>
      </trkpt>
      <trkpt lat="51.643068" lon="4.600947">
        <ele>2.105289</ele>
        <time>2026-09-03T16:14:46.973Z</time>
      </trkpt>
      <trkpt lat="51.642717" lon="4.600571">
        <ele>2.059549</ele>
        <time>2026-09-03T16:14:55.245Z</time>
      </trkpt>
      <trkpt lat="51.642657" lon="4.600424">
        <ele>2.047700</ele>
        <time>2026-09-03T16:14:57.386Z</time>
      </trkpt>
      <trkpt lat="51.642652" lon="4.600249">
        <ele>2.035902</ele>
        <time>2026-09-03T16:14:59.516Z</time>
      </trkpt>
      <trkpt lat="51.642587" lon="4.600200">
        <ele>2.028115</ele>
        <time>2026-09-03T16:15:00.884Z</time>
      </trkpt>
      <trkpt lat="51.642511" lon="4.600169">
        <ele>2.019607</ele>
        <time>2026-09-03T16:15:02.408Z</time>
      </trkpt>
      <trkpt lat="51.642469" lon="4.600204">
        <ele>2.014476</ele>
        <time>2026-09-03T16:15:03.308Z</time>
      </trkpt>
      <trkpt lat="51.642426" lon="4.600200">
        <ele>2.008787</ele>
        <time>2026-09-03T16:15:04.139Z</time>
      </trkpt>
      <trkpt lat="51.642317" lon="4.600189">
        <ele>1.986369</ele>
        <time>2026-09-03T16:15:06.224Z</time>
      </trkpt>
      <trkpt lat="51.642191" lon="4.600041">
        <ele>1.954363</ele>
        <time>2026-09-03T16:15:09.184Z</time>
      </trkpt>
      <trkpt lat="51.642029" lon="4.599894">
        <ele>1.916199</ele>
        <time>2026-09-03T16:15:12.725Z</time>
      </trkpt>
      <trkpt lat="51.640215" lon="4.598293">
        <ele>1.492244</ele>
        <time>2026-09-03T16:15:53.104Z</time>
      </trkpt>
      <trkpt lat="51.639063" lon="4.597269">
        <ele>1.127269</ele>
        <time>2026-09-03T16:16:19.051Z</time>
      </trkpt>
      <trkpt lat="51.637691" lon="4.595981">
        <ele>0.195167</ele>
        <time>2026-09-03T16:16:47.599Z</time>
      </trkpt>
      <trkpt lat="51.637299" lon="4.595629">
        <ele>0.009700</ele>
        <time>2026-09-03T16:16:55.623Z</time>
      </trkpt>
      <trkpt lat="51.637267" lon="4.595594">
        <ele>-0.006284</ele>
        <time>2026-09-03T16:16:56.351Z</time>
      </trkpt>
      <trkpt lat="51.637224" lon="4.595524">
        <ele>-0.031546</ele>
        <time>2026-09-03T16:16:57.475Z</time>
      </trkpt>
      <trkpt lat="51.637193" lon="4.595495">
        <ele>-0.046361</ele>
        <time>2026-09-03T16:16:58.126Z</time>
      </trkpt>
      <trkpt lat="51.637129" lon="4.595432">
        <ele>-0.077357</ele>
        <time>2026-09-03T16:16:59.506Z</time>
      </trkpt>
      <trkpt lat="51.636529" lon="4.594833">
        <ele>-0.369068</ele>
        <time>2026-09-03T16:17:12.985Z</time>
      </trkpt>
      <trkpt lat="51.635016" lon="4.593350">
        <ele>-0.571603</ele>
        <time>2026-09-03T16:17:48.138Z</time>
      </trkpt>
      <trkpt lat="51.634735" lon="4.593074">
        <ele>-0.580911</ele>
        <time>2026-09-03T16:17:54.968Z</time>
      </trkpt>
      <trkpt lat="51.634229" lon="4.592574">
        <ele>-0.510579</ele>
        <time>2026-09-03T16:18:07.290Z</time>
      </trkpt>
      <trkpt lat="51.631155" lon="4.589496">
        <ele>0.060655</ele>
        <time>2026-09-03T16:19:22.456Z</time>
      </trkpt>
      <trkpt lat="51.629675" lon="4.588073">
        <ele>0.399161</ele>
        <time>2026-09-03T16:19:59.682Z</time>
      </trkpt>
      <trkpt lat="51.629463" lon="4.587849">
        <ele>0.415150</ele>
        <time>2026-09-03T16:20:04.984Z</time>
      </trkpt>
      <trkpt lat="51.626696" lon="4.586722">
        <ele>0.297876</ele>
        <time>2026-09-03T16:21:01.628Z</time>
      </trkpt>
      <trkpt lat="51.626657" lon="4.586706">
        <ele>0.293597</ele>
        <time>2026-09-03T16:21:02.444Z</time>
      </trkpt>
      <trkpt lat="51.625870" lon="4.586388">
        <ele>0.145415</ele>
        <time>2026-09-03T16:21:32.156Z</time>
      </trkpt>
      <trkpt lat="51.625012" lon="4.586043">
        <ele>-0.016376</ele>
        <time>2026-09-03T16:21:49.282Z</time>
      </trkpt>
      <trkpt lat="51.625898" lon="4.583399">
        <ele>-0.390990</ele>
        <time>2026-09-03T16:22:25.100Z</time>
      </trkpt>
      <trkpt lat="51.626100" lon="4.582593">
        <ele>-0.364674</ele>
        <time>2026-09-03T16:22:36.328Z</time>
      </trkpt>
      <trkpt lat="51.626359" lon="4.581887">
        <ele>-0.329695</ele>
        <time>2026-09-03T16:22:47.127Z</time>
      </trkpt>
      <trkpt lat="51.626651" lon="4.581039">
        <ele>-0.288332</ele>
        <time>2026-09-03T16:22:59.547Z</time>
      </trkpt>
      <trkpt lat="51.626768" lon="4.580612">
        <ele>-0.278788</ele>
        <time>2026-09-03T16:23:05.377Z</time>
      </trkpt>
      <trkpt lat="51.626784" lon="4.580248">
        <ele>-0.286236</ele>
        <time>2026-09-03T16:23:09.879Z</time>
      </trkpt>
      <trkpt lat="51.626726" lon="4.579204">
        <ele>-0.307632</ele>
        <time>2026-09-03T16:23:22.507Z</time>
      </trkpt>
      <trkpt lat="51.626309" lon="4.573150">
        <ele>-0.142030</ele>
        <time>2026-09-03T16:24:40.170Z</time>
      </trkpt>
      <trkpt lat="51.626194" lon="4.571138">
        <ele>-0.350681</ele>
        <time>2026-09-03T16:25:05.475Z</time>
      </trkpt>
      <trkpt lat="51.626093" lon="4.568984">
        <ele>-0.856975</ele>
        <time>2026-09-03T16:25:29.989Z</time>
      </trkpt>
      <trkpt lat="51.626090" lon="4.568219">
        <ele>-1.022613</ele>
        <time>2026-09-03T16:25:38.662Z</time>
      </trkpt>
      <trkpt lat="51.626281" lon="4.564125">
        <ele>-1.547321</ele>
        <time>2026-09-03T16:26:28.339Z</time>
      </trkpt>
      <trkpt lat="51.626264" lon="4.563534">
        <ele>-1.578921</ele>
        <time>2026-09-03T16:26:36.187Z</time>
      </trkpt>
      <trkpt lat="51.626091" lon="4.562530">
        <ele>-1.489477</ele>
        <time>2026-09-03T16:26:49.795Z</time>
      </trkpt>
      <trkpt lat="51.625933" lon="4.562025">
        <ele>-1.435022</ele>
        <time>2026-09-03T16:26:57.014Z</time>
      </trkpt>
      <trkpt lat="51.625134" lon="4.560378">
        <ele>-1.065081</ele>
        <time>2026-09-03T16:27:23.878Z</time>
      </trkpt>
      <trkpt lat="51.624937" lon="4.559959">
        <ele>-0.892636</ele>
        <time>2026-09-03T16:27:31.369Z</time>
      </trkpt>
      <trkpt lat="51.624278" lon="4.558604">
        <ele>-0.351080</ele>
        <time>2026-09-03T16:27:56.704Z</time>
      </trkpt>
      <trkpt lat="51.621507" lon="4.553803">
        <ele>-0.486209</ele>
        <time>2026-09-03T16:29:17.367Z</time>
      </trkpt>
      <trkpt lat="51.619319" lon="4.550171">
        <ele>-0.651252</ele>
        <time>2026-09-03T16:30:20.363Z</time>
      </trkpt>
      <trkpt lat="51.618843" lon="4.549302">
        <ele>-0.600651</ele>
        <time>2026-09-03T16:30:35.321Z</time>
      </trkpt>
      <trkpt lat="51.618504" lon="4.548605">
        <ele>-0.561990</ele>
        <time>2026-09-03T16:30:46.927Z</time>
      </trkpt>
      <trkpt lat="51.618406" lon="4.548339">
        <ele>-0.548484</ele>
        <time>2026-09-03T16:30:50.856Z</time>
      </trkpt>
      <trkpt lat="51.618268" lon="4.547846">
        <ele>-0.548153</ele>
        <time>2026-09-03T16:30:57.494Z</time>
      </trkpt>
      <trkpt lat="51.618257" lon="4.547808">
        <ele>-0.555859</ele>
        <time>2026-09-03T16:30:57.990Z</time>
      </trkpt>
      <trkpt lat="51.617616" lon="4.545315">
        <ele>-1.051829</ele>
        <time>2026-09-03T16:31:29.874Z</time>
      </trkpt>
      <trkpt lat="51.617182" lon="4.543563">
        <ele>-1.350790</ele>
        <time>2026-09-03T16:31:51.814Z</time>
      </trkpt>
      <trkpt lat="51.616946" lon="4.542516">
        <ele>-1.509679</ele>
        <time>2026-09-03T16:32:05.586Z</time>
      </trkpt>
      <trkpt lat="51.615933" lon="4.538693">
        <ele>-0.887279</ele>
        <time>2026-09-03T16:33:01.285Z</time>
      </trkpt>
      <trkpt lat="51.615839" lon="4.538469">
        <ele>-0.867272</ele>
        <time>2026-09-03T16:33:04.757Z</time>
      </trkpt>
      <trkpt lat="51.615728" lon="4.538337">
        <ele>-0.850826</ele>
        <time>2026-09-03T16:33:07.586Z</time>
      </trkpt>
      <trkpt lat="51.613949" lon="4.536910">
        <ele>-0.896974</ele>
        <time>2026-09-03T16:33:47.002Z</time>
      </trkpt>
      <trkpt lat="51.613548" lon="4.536677">
        <ele>-0.938449</ele>
        <time>2026-09-03T16:33:55.370Z</time>
      </trkpt>
      <trkpt lat="51.613419" lon="4.536659">
        <ele>-0.937192</ele>
        <time>2026-09-03T16:33:57.956Z</time>
      </trkpt>
      <trkpt lat="51.613324" lon="4.536601">
        <ele>-0.925279</ele>
        <time>2026-09-03T16:33:59.991Z</time>
      </trkpt>
      <trkpt lat="51.613359" lon="4.536338">
        <ele>-0.905694</ele>
        <time>2026-09-03T16:34:03.417Z</time>
      </trkpt>
      <trkpt lat="51.613252" lon="4.535460">
        <ele>-0.840544</ele>
        <time>2026-09-03T16:34:15.121Z</time>
      </trkpt>
      <trkpt lat="51.613060" lon="4.533948">
        <ele>-0.728841</ele>
        <time>2026-09-03T16:34:35.240Z</time>
      </trkpt>
      <trkpt lat="51.612938" lon="4.533393">
        <ele>-0.691037</ele>
        <time>2026-09-03T16:34:42.693Z</time>
      </trkpt>
      <trkpt lat="51.612806" lon="4.532935">
        <ele>-0.658614</ele>
        <time>2026-09-03T16:34:49.125Z</time>
      </trkpt>
      <trkpt lat="51.612626" lon="4.532412">
        <ele>-0.620218</ele>
        <time>2026-09-03T16:34:56.752Z</time>
      </trkpt>
      <trkpt lat="51.612560" lon="4.532193">
        <ele>-0.604587</ele>
        <time>2026-09-03T16:34:59.890Z</time>
      </trkpt>
      <trkpt lat="51.612003" lon="4.530534">
        <ele>-0.559443</ele>
        <time>2026-09-03T16:35:23.944Z</time>
      </trkpt>
      <trkpt lat="51.611742" lon="4.529833">
        <ele>-0.568881</ele>
        <time>2026-09-03T16:35:34.638Z</time>
      </trkpt>
      <trkpt lat="51.611668" lon="4.529634">
        <ele>-0.571560</ele>
        <time>2026-09-03T16:35:37.557Z</time>
      </trkpt>
      <trkpt lat="51.611601" lon="4.529463">
        <ele>-0.573894</ele>
        <time>2026-09-03T16:35:39.363Z</time>
      </trkpt>
      <trkpt lat="51.611438" lon="4.529050">
        <ele>-0.579545</ele>
        <time>2026-09-03T16:35:43.583Z</time>
      </trkpt>
      <trkpt lat="51.611180" lon="4.528411">
        <ele>-0.680905</ele>
        <time>2026-09-03T16:35:49.920Z</time>
      </trkpt>
      <trkpt lat="51.610685" lon="4.527026">
        <ele>-0.942146</ele>
        <time>2026-09-03T16:36:03.374Z</time>
      </trkpt>
      <trkpt lat="51.610291" lon="4.525831">
        <ele>-0.967396</ele>
        <time>2026-09-03T16:36:15.812Z</time>
      </trkpt>
      <trkpt lat="51.608399" lon="4.521576">
        <ele>-0.113094</ele>
        <time>2026-09-03T16:37:07.922Z</time>
      </trkpt>
      <trkpt lat="51.608256" lon="4.521359">
        <ele>-0.064935</ele>
        <time>2026-09-03T16:37:11.011Z</time>
      </trkpt>
      <trkpt lat="51.608148" lon="4.521268">
        <ele>-0.035060</ele>
        <time>2026-09-03T16:37:12.894Z</time>
      </trkpt>
      <trkpt lat="51.608049" lon="4.521230">
        <ele>-0.010117</ele>
        <time>2026-09-03T16:37:14.509Z</time>
      </trkpt>
      <trkpt lat="51.607934" lon="4.521227">
        <ele>0.018073</ele>
        <time>2026-09-03T16:37:16.301Z</time>
      </trkpt>
      <trkpt lat="51.607894" lon="4.521109">
        <ele>0.038535</ele>
        <time>2026-09-03T16:37:17.570Z</time>
      </trkpt>
      <trkpt lat="51.607842" lon="4.520953">
        <ele>0.065484</ele>
        <time>2026-09-03T16:37:19.302Z</time>
      </trkpt>
      <trkpt lat="51.606710" lon="4.518500">
        <ele>0.490074</ele>
        <time>2026-09-03T16:37:49.048Z</time>
      </trkpt>
      <trkpt lat="51.606510" lon="4.518280">
        <ele>0.538429</ele>
        <time>2026-09-03T16:37:52.784Z</time>
      </trkpt>
      <trkpt lat="51.606135" lon="4.518096">
        <ele>0.616692</ele>
        <time>2026-09-03T16:37:58.982Z</time>
      </trkpt>
      <trkpt lat="51.606091" lon="4.517516">
        <ele>0.678854</ele>
        <time>2026-09-03T16:38:04.959Z</time>
      </trkpt>
      <trkpt lat="51.606039" lon="4.517055">
        <ele>0.704178</ele>
        <time>2026-09-03T16:38:09.539Z</time>
      </trkpt>
      <trkpt lat="51.605983" lon="4.516462">
        <ele>0.736598</ele>
        <time>2026-09-03T16:38:15.178Z</time>
      </trkpt>
      <trkpt lat="51.606168" lon="4.516398">
        <ele>0.753065</ele>
        <time>2026-09-03T16:38:18.063Z</time>
      </trkpt>
      <trkpt lat="51.606226" lon="4.516296">
        <ele>0.760540</ele>
        <time>2026-09-03T16:38:19.351Z</time>
      </trkpt>
      <trkpt lat="51.606231" lon="4.515675">
        <ele>0.794107</ele>
        <time>2026-09-03T16:38:25.187Z</time>
      </trkpt>
      <trkpt lat="51.606125" lon="4.510586">
        <ele>0.564580</ele>
        <time>2026-09-03T16:39:10.393Z</time>
      </trkpt>
      <trkpt lat="51.606232" lon="4.509671">
        <ele>0.570189</ele>
        <time>2026-09-03T16:39:19.204Z</time>
      </trkpt>
      <trkpt lat="51.606511" lon="4.507849">
        <ele>0.784679</ele>
        <time>2026-09-03T16:39:37.561Z</time>
      </trkpt>
      <trkpt lat="51.607198" lon="4.504209">
        <ele>1.347273</ele>
        <time>2026-09-03T16:40:14.513Z</time>
      </trkpt>
      <trkpt lat="51.607411" lon="4.503366">
        <ele>1.449797</ele>
        <time>2026-09-03T16:40:23.793Z</time>
      </trkpt>
      <trkpt lat="51.607483" lon="4.502819">
        <ele>1.486884</ele>
        <time>2026-09-03T16:40:29.641Z</time>
      </trkpt>
      <trkpt lat="51.607493" lon="4.502669">
        <ele>1.496890</ele>
        <time>2026-09-03T16:40:31.193Z</time>
      </trkpt>
      <trkpt lat="51.607509" lon="4.502527">
        <ele>1.506462</ele>
        <time>2026-09-03T16:40:32.669Z</time>
      </trkpt>
      <trkpt lat="51.607527" lon="4.502394">
        <ele>1.515491</ele>
        <time>2026-09-03T16:40:33.960Z</time>
      </trkpt>
      <trkpt lat="51.607577" lon="4.502067">
        <ele>1.537827</ele>
        <time>2026-09-03T16:40:37.159Z</time>
      </trkpt>
      <trkpt lat="51.607667" lon="4.501549">
        <ele>1.573503</ele>
        <time>2026-09-03T16:40:42.028Z</time>
      </trkpt>
      <trkpt lat="51.607745" lon="4.501081">
        <ele>1.605643</ele>
        <time>2026-09-03T16:40:46.399Z</time>
      </trkpt>
      <trkpt lat="51.607774" lon="4.500925">
        <ele>1.605116</ele>
        <time>2026-09-03T16:40:47.854Z</time>
      </trkpt>
      <trkpt lat="51.607906" lon="4.500226">
        <ele>1.371359</ele>
        <time>2026-09-03T16:40:54.046Z</time>
      </trkpt>
      <trkpt lat="51.607932" lon="4.500118">
        <ele>1.334299</ele>
        <time>2026-09-03T16:40:54.988Z</time>
      </trkpt>
      <trkpt lat="51.607977" lon="4.499962">
        <ele>1.279265</ele>
        <time>2026-09-03T16:40:56.357Z</time>
      </trkpt>
      <trkpt lat="51.608007" lon="4.499879">
        <ele>1.248539</ele>
        <time>2026-09-03T16:40:57.118Z</time>
      </trkpt>
      <trkpt lat="51.608115" lon="4.499645">
        <ele>1.155259</ele>
        <time>2026-09-03T16:40:59.394Z</time>
      </trkpt>
      <trkpt lat="51.608526" lon="4.498997">
        <ele>0.858916</ele>
        <time>2026-09-03T16:41:06.729Z</time>
      </trkpt>
      <trkpt lat="51.610441" lon="4.496026">
        <ele>-0.125906</ele>
        <time>2026-09-03T16:41:42.579Z</time>
      </trkpt>
      <trkpt lat="51.610807" lon="4.495412">
        <ele>-0.186254</ele>
        <time>2026-09-03T16:41:50.114Z</time>
      </trkpt>
      <trkpt lat="51.612450" lon="4.492220">
        <ele>-0.258034</ele>
        <time>2026-09-03T16:42:28.733Z</time>
      </trkpt>
      <trkpt lat="51.613088" lon="4.490965">
        <ele>-0.472568</ele>
        <time>2026-09-03T16:42:43.213Z</time>
      </trkpt>
      <trkpt lat="51.613180" lon="4.490648">
        <ele>-0.518851</ele>
        <time>2026-09-03T16:42:46.172Z</time>
      </trkpt>
      <trkpt lat="51.613204" lon="4.490439">
        <ele>-0.546964</ele>
        <time>2026-09-03T16:42:47.953Z</time>
      </trkpt>
      <trkpt lat="51.613219" lon="4.488540">
        <ele>-0.655412</ele>
        <time>2026-09-03T16:43:04.064Z</time>
      </trkpt>
      <trkpt lat="51.613201" lon="4.485476">
        <ele>-0.738765</ele>
        <time>2026-09-03T16:43:33.731Z</time>
      </trkpt>
      <trkpt lat="51.613189" lon="4.484850">
        <ele>-0.763028</ele>
        <time>2026-09-03T16:43:39.352Z</time>
      </trkpt>
      <trkpt lat="51.613129" lon="4.482622">
        <ele>-0.855192</ele>
        <time>2026-09-03T16:43:58.230Z</time>
      </trkpt>
      <trkpt lat="51.613035" lon="4.478366">
        <ele>-0.642358</ele>
        <time>2026-09-03T16:44:39.427Z</time>
      </trkpt>
      <trkpt lat="51.612888" lon="4.472617">
        <ele>-0.507611</ele>
        <time>2026-09-03T16:45:32.684Z</time>
      </trkpt>
      <trkpt lat="51.612873" lon="4.472247">
        <ele>-0.504865</ele>
        <time>2026-09-03T16:45:36.204Z</time>
      </trkpt>
      <trkpt lat="51.612729" lon="4.468655">
        <ele>-0.594626</ele>
        <time>2026-09-03T16:46:09.207Z</time>
      </trkpt>
      <trkpt lat="51.612479" lon="4.463182">
        <ele>-1.199022</ele>
        <time>2026-09-03T16:46:56.819Z</time>
      </trkpt>
      <trkpt lat="51.612353" lon="4.459878">
        <ele>-0.837005</ele>
        <time>2026-09-03T16:47:27.708Z</time>
      </trkpt>
      <trkpt lat="51.612354" lon="4.459710">
        <ele>-0.771260</ele>
        <time>2026-09-03T16:47:29.528Z</time>
      </trkpt>
      <trkpt lat="51.612394" lon="4.459424">
        <ele>-0.656538</ele>
        <time>2026-09-03T16:47:32.788Z</time>
      </trkpt>
      <trkpt lat="51.612495" lon="4.459082">
        <ele>-0.508342</ele>
        <time>2026-09-03T16:47:37.200Z</time>
      </trkpt>
      <trkpt lat="51.612365" lon="4.458948">
        <ele>-0.411075</ele>
        <time>2026-09-03T16:47:40.935Z</time>
      </trkpt>
      <trkpt lat="51.612320" lon="4.458797">
        <ele>-0.345533</ele>
        <time>2026-09-03T16:47:43.485Z</time>
      </trkpt>
      <trkpt lat="51.612268" lon="4.457558">
        <ele>0.077620</ele>
        <time>2026-09-03T16:48:02.525Z</time>
      </trkpt>
      <trkpt lat="51.612345" lon="4.457380">
        <ele>0.139024</ele>
        <time>2026-09-03T16:48:05.611Z</time>
      </trkpt>
      <trkpt lat="51.612505" lon="4.457348">
        <ele>0.212515</ele>
        <time>2026-09-03T16:48:09.372Z</time>
      </trkpt>
      <trkpt lat="51.612615" lon="4.457328">
        <ele>0.262973</ele>
        <time>2026-09-03T16:48:11.983Z</time>
      </trkpt>
      <trkpt lat="51.613830" lon="4.457108">
        <ele>0.681421</ele>
        <time>2026-09-03T16:48:37.459Z</time>
      </trkpt>
      <trkpt lat="51.614179" lon="4.457047">
        <ele>0.586017</ele>
        <time>2026-09-03T16:48:44.094Z</time>
      </trkpt>
      <trkpt lat="51.614530" lon="4.456986">
        <ele>0.490073</ele>
        <time>2026-09-03T16:48:50.698Z</time>
      </trkpt>
      <trkpt lat="51.616552" lon="4.456638">
        <ele>0.075157</ele>
        <time>2026-09-03T16:49:29.128Z</time>
      </trkpt>
      <trkpt lat="51.616555" lon="4.456637">
        <ele>0.074698</ele>
        <time>2026-09-03T16:49:29.200Z</time>
      </trkpt>
      <trkpt lat="51.617026" lon="4.456466">
        <ele>0.002340</ele>
        <time>2026-09-03T16:49:39.218Z</time>
      </trkpt>
      <trkpt lat="51.617683" lon="4.456088">
        <ele>0.087538</ele>
        <time>2026-09-03T16:49:54.475Z</time>
      </trkpt>
      <trkpt lat="51.618466" lon="4.455429">
        <ele>0.280834</ele>
        <time>2026-09-03T16:50:13.374Z</time>
      </trkpt>
      <trkpt lat="51.618640" lon="4.455210">
        <ele>0.329150</ele>
        <time>2026-09-03T16:50:17.938Z</time>
      </trkpt>
      <trkpt lat="51.619070" lon="4.454499">
        <ele>0.332125</ele>
        <time>2026-09-03T16:50:30.377Z</time>
      </trkpt>
      <trkpt lat="51.620066" lon="4.452741">
        <ele>0.214783</ele>
        <time>2026-09-03T16:50:59.500Z</time>
      </trkpt>
      <trkpt lat="51.620207" lon="4.452542">
        <ele>0.208269</ele>
        <time>2026-09-03T16:51:03.163Z</time>
      </trkpt>
      <trkpt lat="51.620230" lon="4.452510">
        <ele>0.207213</ele>
        <time>2026-09-03T16:51:03.768Z</time>
      </trkpt>
      <trkpt lat="51.620315" lon="4.452386">
        <ele>0.203228</ele>
        <time>2026-09-03T16:51:06.001Z</time>
      </trkpt>
      <trkpt lat="51.620265" lon="4.452331">
        <ele>0.201125</ele>
        <time>2026-09-03T16:51:07.196Z</time>
      </trkpt>
      <trkpt lat="51.620213" lon="4.452273">
        <ele>0.198927</ele>
        <time>2026-09-03T16:51:08.414Z</time>
      </trkpt>
      <trkpt lat="51.620163" lon="4.452227">
        <ele>0.196926</ele>
        <time>2026-09-03T16:51:09.555Z</time>
      </trkpt>
      <trkpt lat="51.619903" lon="4.451910">
        <ele>0.185596</ele>
        <time>2026-09-03T16:51:15.947Z</time>
      </trkpt>
      <trkpt lat="51.618009" lon="4.448168">
        <ele>0.393913</ele>
        <time>2026-09-03T16:52:17.610Z</time>
      </trkpt>
      <trkpt lat="51.617941" lon="4.447953">
        <ele>0.424683</ele>
        <time>2026-09-03T16:52:21.004Z</time>
      </trkpt>
      <trkpt lat="51.617915" lon="4.447724">
        <ele>0.454370</ele>
        <time>2026-09-03T16:52:24.248Z</time>
      </trkpt>
      <trkpt lat="51.617895" lon="4.446818">
        <ele>0.569979</ele>
        <time>2026-09-03T16:52:36.414Z</time>
      </trkpt>
      <trkpt lat="51.617846" lon="4.446314">
        <ele>0.635033</ele>
        <time>2026-09-03T16:52:43.036Z</time>
      </trkpt>
      <trkpt lat="51.617825" lon="4.445706">
        <ele>0.666673</ele>
        <time>2026-09-03T16:52:50.642Z</time>
      </trkpt>
      <trkpt lat="51.617890" lon="4.445415">
        <ele>0.625309</ele>
        <time>2026-09-03T16:52:54.390Z</time>
      </trkpt>
      <trkpt lat="51.618232" lon="4.444690">
        <ele>0.503528</ele>
        <time>2026-09-03T16:53:05.081Z</time>
      </trkpt>
      <trkpt lat="51.618410" lon="4.444550">
        <ele>0.460856</ele>
        <time>2026-09-03T16:53:08.773Z</time>
      </trkpt>
      <trkpt lat="51.618591" lon="4.444505">
        <ele>0.421404</ele>
        <time>2026-09-03T16:53:12.244Z</time>
      </trkpt>
      <trkpt lat="51.618643" lon="4.444444">
        <ele>0.407546</ele>
        <time>2026-09-03T16:53:13.481Z</time>
      </trkpt>
      <trkpt lat="51.618681" lon="4.444330">
        <ele>0.390240</ele>
        <time>2026-09-03T16:53:15.029Z</time>
      </trkpt>
      <trkpt lat="51.619069" lon="4.440957">
        <ele>0.212778</ele>
        <time>2026-09-03T16:53:57.756Z</time>
      </trkpt>
      <trkpt lat="51.619155" lon="4.440482">
        <ele>0.210718</ele>
        <time>2026-09-03T16:54:03.974Z</time>
      </trkpt>
      <trkpt lat="51.619507" lon="4.439467">
        <ele>0.216446</ele>
        <time>2026-09-03T16:54:18.468Z</time>
      </trkpt>
      <trkpt lat="51.619664" lon="4.439076">
        <ele>0.218740</ele>
        <time>2026-09-03T16:54:24.299Z</time>
      </trkpt>
      <trkpt lat="51.620031" lon="4.438370">
        <ele>0.224716</ele>
        <time>2026-09-03T16:54:35.919Z</time>
      </trkpt>
      <trkpt lat="51.621231" lon="4.436055">
        <ele>0.399176</ele>
        <time>2026-09-03T16:55:14.559Z</time>
      </trkpt>
      <trkpt lat="51.621687" lon="4.435094">
        <ele>0.433624</ele>
        <time>2026-09-03T16:55:30.043Z</time>
      </trkpt>
      <trkpt lat="51.621911" lon="4.434786">
        <ele>0.447135</ele>
        <time>2026-09-03T16:55:36.115Z</time>
      </trkpt>
      <trkpt lat="51.622850" lon="4.433870">
        <ele>0.359386</ele>
        <time>2026-09-03T16:55:58.123Z</time>
      </trkpt>
      <trkpt lat="51.624676" lon="4.433216">
        <ele>-0.174624</ele>
        <time>2026-09-03T16:56:33.467Z</time>
      </trkpt>
      <trkpt lat="51.625911" lon="4.432785">
        <ele>-0.581922</ele>
        <time>2026-09-03T16:56:57.436Z</time>
      </trkpt>
      <trkpt lat="51.628661" lon="4.431832">
        <ele>-0.397350</ele>
        <time>2026-09-03T16:57:55.500Z</time>
      </trkpt>
      <trkpt lat="51.628639" lon="4.431551">
        <ele>-0.378127</ele>
        <time>2026-09-03T16:57:58.226Z</time>
      </trkpt>
      <trkpt lat="51.628859" lon="4.428113">
        <ele>-0.119217</ele>
        <time>2026-09-03T16:58:31.070Z</time>
      </trkpt>
      <trkpt lat="51.628891" lon="4.427946">
        <ele>-0.105605</ele>
        <time>2026-09-03T16:58:32.732Z</time>
      </trkpt>
      <trkpt lat="51.628948" lon="4.427830">
        <ele>-0.094083</ele>
        <time>2026-09-03T16:58:34.137Z</time>
      </trkpt>
      <trkpt lat="51.633535" lon="4.421541">
        <ele>0.569883</ele>
        <time>2026-09-03T17:00:06.337Z</time>
      </trkpt>
      <trkpt lat="51.633716" lon="4.421385">
        <ele>0.578355</ele>
        <time>2026-09-03T17:00:09.651Z</time>
      </trkpt>
      <trkpt lat="51.635089" lon="4.420588">
        <ele>0.350633</ele>
        <time>2026-09-03T17:00:31.211Z</time>
      </trkpt>
      <trkpt lat="51.635587" lon="4.420321">
        <ele>-0.002107</ele>
        <time>2026-09-03T17:00:40.275Z</time>
      </trkpt>
      <trkpt lat="51.635820" lon="4.420320">
        <ele>-0.158702</ele>
        <time>2026-09-03T17:00:44.277Z</time>
      </trkpt>
      <trkpt lat="51.636291" lon="4.420403">
        <ele>-0.477139</ele>
        <time>2026-09-03T17:00:52.498Z</time>
      </trkpt>
      <trkpt lat="51.636707" lon="4.420509">
        <ele>-0.609368</ele>
        <time>2026-09-03T17:01:00.067Z</time>
      </trkpt>
      <trkpt lat="51.637517" lon="4.420644">
        <ele>-0.680315</ele>
        <time>2026-09-03T17:01:16.287Z</time>
      </trkpt>
      <trkpt lat="51.637706" lon="4.420688">
        <ele>-0.696952</ele>
        <time>2026-09-03T17:01:20.401Z</time>
      </trkpt>
      <trkpt lat="51.639160" lon="4.420960">
        <ele>-0.473387</ele>
        <time>2026-09-03T17:01:51.324Z</time>
      </trkpt>
      <trkpt lat="51.639390" lon="4.420970">
        <ele>-0.406409</ele>
        <time>2026-09-03T17:01:56.277Z</time>
      </trkpt>
      <trkpt lat="51.639620" lon="4.420930">
        <ele>-0.339066</ele>
        <time>2026-09-03T17:02:01.293Z</time>
      </trkpt>
      <trkpt lat="51.639870" lon="4.420840">
        <ele>-0.264495</ele>
        <time>2026-09-03T17:02:06.911Z</time>
      </trkpt>
      <trkpt lat="51.640539" lon="4.420461">
        <ele>-0.092391</ele>
        <time>2026-09-03T17:02:22.564Z</time>
      </trkpt>
      <trkpt lat="51.640630" lon="4.420410">
        <ele>-0.070289</ele>
        <time>2026-09-03T17:02:24.609Z</time>
      </trkpt>
      <trkpt lat="51.641262" lon="4.420057">
        <ele>0.083152</ele>
        <time>2026-09-03T17:02:38.583Z</time>
      </trkpt>
      <trkpt lat="51.641740" lon="4.419790">
        <ele>0.191357</ele>
        <time>2026-09-03T17:02:48.938Z</time>
      </trkpt>
      <trkpt lat="51.642550" lon="4.419340">
        <ele>0.154714</ele>
        <time>2026-09-03T17:03:06.045Z</time>
      </trkpt>
      <trkpt lat="51.643170" lon="4.418870">
        <ele>0.125410</ele>
        <time>2026-09-03T17:03:19.852Z</time>
      </trkpt>
      <trkpt lat="51.643490" lon="4.418605">
        <ele>0.081655</ele>
        <time>2026-09-03T17:03:27.008Z</time>
      </trkpt>
      <trkpt lat="51.643980" lon="4.418200">
        <ele>-0.060301</ele>
        <time>2026-09-03T17:03:37.766Z</time>
      </trkpt>
      <trkpt lat="51.645057" lon="4.417309">
        <ele>-0.354252</ele>
        <time>2026-09-03T17:04:00.801Z</time>
      </trkpt>
      <trkpt lat="51.645882" lon="4.416618">
        <ele>-0.415864</ele>
        <time>2026-09-03T17:04:18.828Z</time>
      </trkpt>
      <trkpt lat="51.647971" lon="4.414844">
        <ele>-0.257368</ele>
        <time>2026-09-03T17:05:08.122Z</time>
      </trkpt>
      <trkpt lat="51.648163" lon="4.414746">
        <ele>-0.230743</ele>
        <time>2026-09-03T17:05:12.282Z</time>
      </trkpt>
      <trkpt lat="51.648519" lon="4.414633">
        <ele>-0.265503</ele>
        <time>2026-09-03T17:05:19.689Z</time>
      </trkpt>
      <trkpt lat="51.648546" lon="4.414763">
        <ele>-0.274214</ele>
        <time>2026-09-03T17:05:20.943Z</time>
      </trkpt>
      <trkpt lat="51.648590" lon="4.414820">
        <ele>-0.279995</ele>
        <time>2026-09-03T17:05:21.772Z</time>
      </trkpt>
      <trkpt lat="51.649676" lon="4.415917">
        <ele>-0.411244</ele>
        <time>2026-09-03T17:05:39.899Z</time>
      </trkpt>
      <trkpt lat="51.651811" lon="4.418074">
        <ele>-0.787962</ele>
        <time>2026-09-03T17:06:15.553Z</time>
      </trkpt>
      <trkpt lat="51.653300" lon="4.419590">
        <ele>-0.722854</ele>
        <time>2026-09-03T17:06:41.987Z</time>
      </trkpt>
      <trkpt lat="51.653337" lon="4.419773">
        <ele>-0.702721</ele>
        <time>2026-09-03T17:06:43.872Z</time>
      </trkpt>
      <trkpt lat="51.653426" lon="4.419768">
        <ele>-0.687706</ele>
        <time>2026-09-03T17:06:45.286Z</time>
      </trkpt>
      <trkpt lat="51.653510" lon="4.419657">
        <ele>-0.669392</ele>
        <time>2026-09-03T17:06:46.986Z</time>
      </trkpt>
      <trkpt lat="51.654282" lon="4.417664">
        <ele>-0.355864</ele>
        <time>2026-09-03T17:07:09.908Z</time>
      </trkpt>
      <trkpt lat="51.654587" lon="4.416980">
        <ele>-0.212165</ele>
        <time>2026-09-03T17:07:18.183Z</time>
      </trkpt>
      <trkpt lat="51.654895" lon="4.416317">
        <ele>-0.070869</ele>
        <time>2026-09-03T17:07:26.629Z</time>
      </trkpt>
      <trkpt lat="51.655615" lon="4.414830">
        <ele>0.350676</ele>
        <time>2026-09-03T17:07:45.982Z</time>
      </trkpt>
      <trkpt lat="51.655661" lon="4.414733">
        <ele>0.378735</ele>
        <time>2026-09-03T17:07:47.201Z</time>
      </trkpt>
      <trkpt lat="51.655998" lon="4.414036">
        <ele>0.581815</ele>
        <time>2026-09-03T17:07:55.913Z</time>
      </trkpt>
      <trkpt lat="51.656105" lon="4.413813">
        <ele>0.639199</ele>
        <time>2026-09-03T17:07:58.689Z</time>
      </trkpt>
      <trkpt lat="51.656239" lon="4.413483">
        <ele>0.689812</ele>
        <time>2026-09-03T17:08:02.549Z</time>
      </trkpt>
      <trkpt lat="51.656278" lon="4.413328">
        <ele>0.711276</ele>
        <time>2026-09-03T17:08:04.179Z</time>
      </trkpt>
      <trkpt lat="51.656393" lon="4.412717">
        <ele>0.793213</ele>
        <time>2026-09-03T17:08:10.365Z</time>
      </trkpt>
      <trkpt lat="51.656576" lon="4.411976">
        <ele>0.895560</ele>
        <time>2026-09-03T17:08:18.133Z</time>
      </trkpt>
      <trkpt lat="51.656762" lon="4.411410">
        <ele>0.977753</ele>
        <time>2026-09-03T17:08:24.370Z</time>
      </trkpt>
      <trkpt lat="51.656791" lon="4.411326">
        <ele>0.990090</ele>
        <time>2026-09-03T17:08:25.319Z</time>
      </trkpt>
      <trkpt lat="51.656920" lon="4.410996">
        <ele>0.967165</ele>
        <time>2026-09-03T17:08:29.054Z</time>
      </trkpt>
      <trkpt lat="51.657180" lon="4.410280">
        <ele>0.870513</ele>
        <time>2026-09-03T17:08:36.714Z</time>
      </trkpt>
      <trkpt lat="51.657478" lon="4.409456">
        <ele>0.759398</ele>
        <time>2026-09-03T17:08:45.033Z</time>
      </trkpt>
      <trkpt lat="51.658068" lon="4.407966">
        <ele>0.445681</ele>
        <time>2026-09-03T17:08:59.640Z</time>
      </trkpt>
      <trkpt lat="51.658310" lon="4.407341">
        <ele>0.276245</ele>
        <time>2026-09-03T17:09:05.686Z</time>
      </trkpt>
      <trkpt lat="51.658561" lon="4.406708">
        <ele>0.103473</ele>
        <time>2026-09-03T17:09:12.035Z</time>
      </trkpt>
      <trkpt lat="51.658801" lon="4.406340">
        <ele>-0.003361</ele>
        <time>2026-09-03T17:09:16.666Z</time>
      </trkpt>
      <trkpt lat="51.660521" lon="4.404090">
        <ele>-0.130995</ele>
        <time>2026-09-03T17:09:49.735Z</time>
      </trkpt>
      <trkpt lat="51.661069" lon="4.403279">
        <ele>-0.293196</ele>
        <time>2026-09-03T17:10:00.404Z</time>
      </trkpt>
      <trkpt lat="51.661191" lon="4.403276">
        <ele>-0.319801</ele>
        <time>2026-09-03T17:10:02.160Z</time>
      </trkpt>
      <trkpt lat="51.662072" lon="4.403454">
        <ele>-0.739237</ele>
        <time>2026-09-03T17:10:13.897Z</time>
      </trkpt>
      <trkpt lat="51.662333" lon="4.403626">
        <ele>-0.953604</ele>
        <time>2026-09-03T17:10:17.316Z</time>
      </trkpt>
      <trkpt lat="51.663085" lon="4.405085">
        <ele>-1.787632</ele>
        <time>2026-09-03T17:10:37.667Z</time>
      </trkpt>
      <trkpt lat="51.665178" lon="4.409181">
        <ele>-1.189244</ele>
        <time>2026-09-03T17:11:29.199Z</time>
      </trkpt>
      <trkpt lat="51.665476" lon="4.409605">
        <ele>-1.082039</ele>
        <time>2026-09-03T17:11:36.473Z</time>
      </trkpt>
      <trkpt lat="51.666005" lon="4.410263">
        <ele>-0.971993</ele>
        <time>2026-09-03T17:11:48.474Z</time>
      </trkpt>
      <trkpt lat="51.666883" lon="4.411410">
        <ele>-0.871681</ele>
        <time>2026-09-03T17:12:04.381Z</time>
      </trkpt>
      <trkpt lat="51.666990" lon="4.411554">
        <ele>-0.919954</ele>
        <time>2026-09-03T17:12:06.146Z</time>
      </trkpt>
      <trkpt lat="51.667357" lon="4.412049">
        <ele>-1.085677</ele>
        <time>2026-09-03T17:12:12.268Z</time>
      </trkpt>
      <trkpt lat="51.667938" lon="4.412778">
        <ele>-1.340661</ele>
        <time>2026-09-03T17:12:21.912Z</time>
      </trkpt>
      <trkpt lat="51.670797" lon="4.416470">
        <ele>-0.643565</ele>
        <time>2026-09-03T17:13:20.427Z</time>
      </trkpt>
      <trkpt lat="51.672011" lon="4.418025">
        <ele>-0.579730</ele>
        <time>2026-09-03T17:13:44.205Z</time>
      </trkpt>
      <trkpt lat="51.672231" lon="4.418324">
        <ele>-0.577151</ele>
        <time>2026-09-03T17:13:48.184Z</time>
      </trkpt>
      <trkpt lat="51.672013" lon="4.418854">
        <ele>-0.643552</ele>
        <time>2026-09-03T17:13:55.607Z</time>
      </trkpt>
      <trkpt lat="51.671660" lon="4.419850">
        <ele>-0.860437</ele>
        <time>2026-09-03T17:14:08.824Z</time>
      </trkpt>
      <trkpt lat="51.671530" lon="4.420340">
        <ele>-0.961199</ele>
        <time>2026-09-03T17:14:15.019Z</time>
      </trkpt>
      <trkpt lat="51.671390" lon="4.421290">
        <ele>-1.109611</ele>
        <time>2026-09-03T17:14:26.871Z</time>
      </trkpt>
      <trkpt lat="51.671350" lon="4.421750">
        <ele>-1.052086</ele>
        <time>2026-09-03T17:14:32.820Z</time>
      </trkpt>
      <trkpt lat="51.671340" lon="4.422220">
        <ele>-0.993846</ele>
        <time>2026-09-03T17:14:39.001Z</time>
      </trkpt>
      <trkpt lat="51.671439" lon="4.424632">
        <ele>-0.768382</ele>
        <time>2026-09-03T17:15:11.091Z</time>
      </trkpt>
      <trkpt lat="51.671464" lon="4.425259">
        <ele>-0.772387</ele>
        <time>2026-09-03T17:15:18.959Z</time>
      </trkpt>
      <trkpt lat="51.671493" lon="4.426143">
        <ele>-0.778030</ele>
        <time>2026-09-03T17:15:29.808Z</time>
      </trkpt>
      <trkpt lat="51.671580" lon="4.428250">
        <ele>-0.793863</ele>
        <time>2026-09-03T17:15:55.496Z</time>
      </trkpt>
      <trkpt lat="51.671740" lon="4.429210">
        <ele>-0.802025</ele>
        <time>2026-09-03T17:16:08.284Z</time>
      </trkpt>
      <trkpt lat="51.672049" lon="4.430399">
        <ele>-0.780537</ele>
        <time>2026-09-03T17:16:24.799Z</time>
      </trkpt>
      <trkpt lat="51.672567" lon="4.432262">
        <ele>-0.700352</ele>
        <time>2026-09-03T17:16:50.681Z</time>
      </trkpt>
      <trkpt lat="51.672701" lon="4.432188">
        <ele>-0.690925</ele>
        <time>2026-09-03T17:16:52.825Z</time>
      </trkpt>
      <trkpt lat="51.672915" lon="4.432071">
        <ele>-0.672937</ele>
        <time>2026-09-03T17:16:56.191Z</time>
      </trkpt>
      <trkpt lat="51.673441" lon="4.431776">
        <ele>-0.628604</ele>
        <time>2026-09-03T17:17:04.600Z</time>
      </trkpt>
      <trkpt lat="51.673558" lon="4.431735">
        <ele>-0.619072</ele>
        <time>2026-09-03T17:17:06.425Z</time>
      </trkpt>
      <trkpt lat="51.673739" lon="4.431737">
        <ele>-0.604663</ele>
        <time>2026-09-03T17:17:09.196Z</time>
      </trkpt>
      <trkpt lat="51.673937" lon="4.431863">
        <ele>-0.587718</ele>
        <time>2026-09-03T17:17:12.491Z</time>
      </trkpt>
      <trkpt lat="51.674757" lon="4.432628">
        <ele>-0.547586</ele>
        <time>2026-09-03T17:17:26.733Z</time>
      </trkpt>
      <trkpt lat="51.675111" lon="4.432949">
        <ele>-0.545536</ele>
        <time>2026-09-03T17:17:32.745Z</time>
      </trkpt>
      <trkpt lat="51.675190" lon="4.433014">
        <ele>-0.545088</ele>
        <time>2026-09-03T17:17:34.056Z</time>
      </trkpt>
      <trkpt lat="51.675306" lon="4.433132">
        <ele>-0.544396</ele>
        <time>2026-09-03T17:17:36.079Z</time>
      </trkpt>
      <trkpt lat="51.675421" lon="4.433239">
        <ele>-0.543726</ele>
        <time>2026-09-03T17:17:38.030Z</time>
      </trkpt>
      <trkpt lat="51.676678" lon="4.434401">
        <ele>-0.559569</ele>
        <time>2026-09-03T17:17:59.221Z</time>
      </trkpt>
      <trkpt lat="51.677077" lon="4.434778">
        <ele>-0.569291</ele>
        <time>2026-09-03T17:18:06.276Z</time>
      </trkpt>
      <trkpt lat="51.677399" lon="4.435082">
        <ele>-0.577136</ele>
        <time>2026-09-03T17:18:11.885Z</time>
      </trkpt>
      <trkpt lat="51.677889" lon="4.435558">
        <ele>-0.623517</ele>
        <time>2026-09-03T17:18:20.202Z</time>
      </trkpt>
      <trkpt lat="51.678675" lon="4.436272">
        <ele>-0.704824</ele>
        <time>2026-09-03T17:18:33.111Z</time>
      </trkpt>
      <trkpt lat="51.678692" lon="4.436287">
        <ele>-0.706570</ele>
        <time>2026-09-03T17:18:33.360Z</time>
      </trkpt>
      <trkpt lat="51.678792" lon="4.436272">
        <ele>-0.715622</ele>
        <time>2026-09-03T17:18:35.296Z</time>
      </trkpt>
      <trkpt lat="51.683613" lon="4.440783">
        <ele>-1.366984</ele>
        <time>2026-09-03T17:20:25.614Z</time>
      </trkpt>
      <trkpt lat="51.684007" lon="4.441160">
        <ele>-1.374373</ele>
        <time>2026-09-03T17:20:34.895Z</time>
      </trkpt>
      <trkpt lat="51.684080" lon="4.441218">
        <ele>-1.373590</ele>
        <time>2026-09-03T17:20:36.529Z</time>
      </trkpt>
      <trkpt lat="51.684159" lon="4.441168">
        <ele>-1.372773</ele>
        <time>2026-09-03T17:20:38.245Z</time>
      </trkpt>
      <trkpt lat="51.684213" lon="4.441211">
        <ele>-1.372194</ele>
        <time>2026-09-03T17:20:39.450Z</time>
      </trkpt>
      <trkpt lat="51.684289" lon="4.441285">
        <ele>-1.371340</ele>
        <time>2026-09-03T17:20:41.248Z</time>
      </trkpt>
      <trkpt lat="51.684878" lon="4.441861">
        <ele>-1.364713</ele>
        <time>2026-09-03T17:20:55.052Z</time>
      </trkpt>
      <trkpt lat="51.685453" lon="4.442400">
        <ele>-1.290405</ele>
        <time>2026-09-03T17:21:08.626Z</time>
      </trkpt>
      <trkpt lat="51.685694" lon="4.442625">
        <ele>-1.204299</ele>
        <time>2026-09-03T17:21:14.351Z</time>
      </trkpt>
      <trkpt lat="51.686093" lon="4.442919">
        <ele>-1.068655</ele>
        <time>2026-09-03T17:21:23.613Z</time>
      </trkpt>
      <trkpt lat="51.686108" lon="4.442995">
        <ele>-1.053364</ele>
        <time>2026-09-03T17:21:24.668Z</time>
      </trkpt>
      <trkpt lat="51.686083" lon="4.443077">
        <ele>-1.035846</ele>
        <time>2026-09-03T17:21:25.868Z</time>
      </trkpt>
      <trkpt lat="51.686161" lon="4.443160">
        <ele>-1.006951</ele>
        <time>2026-09-03T17:21:27.958Z</time>
      </trkpt>
      <trkpt lat="51.686484" lon="4.443453">
        <ele>-0.892361</ele>
        <time>2026-09-03T17:21:36.278Z</time>
      </trkpt>
      <trkpt lat="51.686728" lon="4.443602">
        <ele>-0.811684</ele>
        <time>2026-09-03T17:21:42.115Z</time>
      </trkpt>
      <trkpt lat="51.687101" lon="4.443758">
        <ele>-0.680735</ele>
        <time>2026-09-03T17:21:50.592Z</time>
      </trkpt>
      <trkpt lat="51.687369" lon="4.443801">
        <ele>-0.588666</ele>
        <time>2026-09-03T17:21:56.566Z</time>
      </trkpt>
      <trkpt lat="51.687460" lon="4.443804">
        <ele>-0.557551</ele>
        <time>2026-09-03T17:21:58.531Z</time>
      </trkpt>
      <trkpt lat="51.687628" lon="4.443788">
        <ele>-0.500020</ele>
        <time>2026-09-03T17:22:02.202Z</time>
      </trkpt>
      <trkpt lat="51.687982" lon="4.443681">
        <ele>-0.376898</ele>
        <time>2026-09-03T17:22:09.969Z</time>
      </trkpt>
      <trkpt lat="51.688301" lon="4.443499">
        <ele>-0.261227</ele>
        <time>2026-09-03T17:22:17.180Z</time>
      </trkpt>
      <trkpt lat="51.688701" lon="4.443144">
        <ele>-0.160268</ele>
        <time>2026-09-03T17:22:26.613Z</time>
      </trkpt>
      <trkpt lat="51.688724" lon="4.443116">
        <ele>-0.156858</ele>
        <time>2026-09-03T17:22:27.062Z</time>
      </trkpt>
      <trkpt lat="51.689166" lon="4.442627">
        <ele>-0.093436</ele>
        <time>2026-09-03T17:22:34.991Z</time>
      </trkpt>
      <trkpt lat="51.689630" lon="4.442151">
        <ele>-0.028368</ele>
        <time>2026-09-03T17:22:46.151Z</time>
      </trkpt>
      <trkpt lat="51.689923" lon="4.441938">
        <ele>0.009661</ele>
        <time>2026-09-03T17:22:52.836Z</time>
      </trkpt>
      <trkpt lat="51.689948" lon="4.442055">
        <ele>0.018739</ele>
        <time>2026-09-03T17:22:54.451Z</time>
      </trkpt>
      <trkpt lat="51.690128" lon="4.441929">
        <ele>0.120640</ele>
        <time>2026-09-03T17:22:58.557Z</time>
      </trkpt>
      <trkpt lat="51.690337" lon="4.441785">
        <ele>0.261503</ele>
        <time>2026-09-03T17:23:03.551Z</time>
      </trkpt>
      <trkpt lat="51.690831" lon="4.441472">
        <ele>0.590466</ele>
        <time>2026-09-03T17:23:15.551Z</time>
      </trkpt>
      <trkpt lat="51.691002" lon="4.441357">
        <ele>0.705296</ele>
        <time>2026-09-03T17:23:19.899Z</time>
      </trkpt>
      <trkpt lat="51.691211" lon="4.441104">
        <ele>0.867256</ele>
        <time>2026-09-03T17:23:26.152Z</time>
      </trkpt>
      <trkpt lat="51.691360" lon="4.440800">
        <ele>1.016159</ele>
        <time>2026-09-03T17:23:31.979Z</time>
      </trkpt>
      <trkpt lat="51.691828" lon="4.439686">
        <ele>1.357846</ele>
        <time>2026-09-03T17:23:51.398Z</time>
      </trkpt>
      <trkpt lat="51.691866" lon="4.439594">
        <ele>1.381463</ele>
        <time>2026-09-03T17:23:52.898Z</time>
      </trkpt>
      <trkpt lat="51.691998" lon="4.439279">
        <ele>1.462690</ele>
        <time>2026-09-03T17:23:57.875Z</time>
      </trkpt>
      <trkpt lat="51.691866" lon="4.439594">
        <ele>1.543918</ele>
        <time>2026-09-03T17:24:02.659Z</time>
      </trkpt>
      <trkpt lat="51.692310" lon="4.440090">
        <ele>1.730039</ele>
        <time>2026-09-03T17:24:13.535Z</time>
      </trkpt>
      <trkpt lat="51.692602" lon="4.440409">
        <ele>1.839148</ele>
        <time>2026-09-03T17:24:20.729Z</time>
      </trkpt>
      <trkpt lat="51.692708" lon="4.440536">
        <ele>1.878603</ele>
        <time>2026-09-03T17:24:23.478Z</time>
      </trkpt>
      <trkpt lat="51.692776" lon="4.440612">
        <ele>1.903323</ele>
        <time>2026-09-03T17:24:25.225Z</time>
      </trkpt>
      <trkpt lat="51.692890" lon="4.440740">
        <ele>1.944828</ele>
        <time>2026-09-03T17:24:28.193Z</time>
      </trkpt>
      <trkpt lat="51.692999" lon="4.440862">
        <ele>1.984471</ele>
        <time>2026-09-03T17:24:31.051Z</time>
      </trkpt>
      <trkpt lat="51.693254" lon="4.441148">
        <ele>2.077276</ele>
        <time>2026-09-03T17:24:37.775Z</time>
      </trkpt>
      <trkpt lat="51.693329" lon="4.441231">
        <ele>2.104454</ele>
        <time>2026-09-03T17:24:39.777Z</time>
      </trkpt>
      <trkpt lat="51.693466" lon="4.441384">
        <ele>2.154245</ele>
        <time>2026-09-03T17:24:43.554Z</time>
      </trkpt>
      <trkpt lat="51.693502" lon="4.441412">
        <ele>2.166187</ele>
        <time>2026-09-03T17:24:45.138Z</time>
      </trkpt>
      <trkpt lat="51.693577" lon="4.441431">
        <ele>2.188874</ele>
        <time>2026-09-03T17:24:48.146Z</time>
      </trkpt>
      <trkpt lat="51.693765" lon="4.441538">
        <ele>2.248446</ele>
        <time>2026-09-03T17:24:56.147Z</time>
      </trkpt>
      <trkpt lat="51.693794" lon="4.441509">
        <ele>2.258641</ele>
        <time>2026-09-03T17:24:57.539Z</time>
      </trkpt>
      <trkpt lat="51.694119" lon="4.440792">
        <ele>2.056689</ele>
        <time>2026-09-03T17:25:18.364Z</time>
      </trkpt>
      <trkpt lat="51.694236" lon="4.440513">
        <ele>1.939895</ele>
        <time>2026-09-03T17:25:25.774Z</time>
      </trkpt>
      <trkpt lat="51.694262" lon="4.440461">
        <ele>1.916731</ele>
        <time>2026-09-03T17:25:26.522Z</time>
      </trkpt>
      <trkpt lat="51.694294" lon="4.440389">
        <ele>1.886013</ele>
        <time>2026-09-03T17:25:27.563Z</time>
      </trkpt>
      <trkpt lat="51.694473" lon="4.439997">
        <ele>1.717200</ele>
        <time>2026-09-03T17:25:32.872Z</time>
      </trkpt>
      <trkpt lat="51.694919" lon="4.440487">
        <ele>1.415372</ele>
        <time>2026-09-03T17:25:42.076Z</time>
      </trkpt>
      <trkpt lat="51.695009" lon="4.440586">
        <ele>1.354441</ele>
        <time>2026-09-03T17:25:43.976Z</time>
      </trkpt>
      <trkpt lat="51.695210" lon="4.440845">
        <ele>1.226940</ele>
        <time>2026-09-03T17:25:48.390Z</time>
      </trkpt>
      <trkpt lat="51.695372" lon="4.441042">
        <ele>1.137029</ele>
        <time>2026-09-03T17:25:51.867Z</time>
      </trkpt>
      <trkpt lat="51.695567" lon="4.441042">
        <ele>1.050604</ele>
        <time>2026-09-03T17:25:55.225Z</time>
      </trkpt>
      <trkpt lat="51.695729" lon="4.440992">
        <ele>0.977503</ele>
        <time>2026-09-03T17:25:58.268Z</time>
      </trkpt>
      <trkpt lat="51.695978" lon="4.440751">
        <ele>0.848809</ele>
        <time>2026-09-03T17:26:04.052Z</time>
      </trkpt>
      <trkpt lat="51.696245" lon="4.440398">
        <ele>0.695816</ele>
        <time>2026-09-03T17:26:10.727Z</time>
      </trkpt>
      <trkpt lat="51.696286" lon="4.440220">
        <ele>0.643650</ele>
        <time>2026-09-03T17:26:13.050Z</time>
      </trkpt>
      <trkpt lat="51.696284" lon="4.439932">
        <ele>0.564528</ele>
        <time>2026-09-03T17:26:16.709Z</time>
      </trkpt>
      <trkpt lat="51.696241" lon="4.439611">
        <ele>0.487052</ele>
        <time>2026-09-03T17:26:20.921Z</time>
      </trkpt>
      <trkpt lat="51.696161" lon="4.439390">
        <ele>0.466515</ele>
        <time>2026-09-03T17:26:24.195Z</time>
      </trkpt>
      <trkpt lat="51.695870" lon="4.438815">
        <ele>0.406945</ele>
        <time>2026-09-03T17:26:33.502Z</time>
      </trkpt>
      <trkpt lat="51.695794" lon="4.438556">
        <ele>0.383949</ele>
        <time>2026-09-03T17:26:37.006Z</time>
      </trkpt>
      <trkpt lat="51.695693" lon="4.437473">
        <ele>0.296062</ele>
        <time>2026-09-03T17:26:50.008Z</time>
      </trkpt>
      <trkpt lat="51.695690" lon="4.436990">
        <ele>0.257054</ele>
        <time>2026-09-03T17:26:55.877Z</time>
      </trkpt>
      <trkpt lat="51.695689" lon="4.436843">
        <ele>0.243906</ele>
        <time>2026-09-03T17:26:57.707Z</time>
      </trkpt>
      <trkpt lat="51.695696" lon="4.436789">
        <ele>0.238972</ele>
        <time>2026-09-03T17:26:58.376Z</time>
      </trkpt>
      <trkpt lat="51.695706" lon="4.436749">
        <ele>0.235114</ele>
        <time>2026-09-03T17:26:58.896Z</time>
      </trkpt>
      <trkpt lat="51.695792" lon="4.436715">
        <ele>0.222337</ele>
        <time>2026-09-03T17:27:00.685Z</time>
      </trkpt>
      <trkpt lat="51.695853" lon="4.436517">
        <ele>0.202561</ele>
        <time>2026-09-03T17:27:02.640Z</time>
      </trkpt>
      <trkpt lat="51.696392" lon="4.435171">
        <ele>0.059236</ele>
        <time>2026-09-03T17:27:16.552Z</time>
      </trkpt>
      <trkpt lat="51.696448" lon="4.434876">
        <ele>0.031642</ele>
        <time>2026-09-03T17:27:19.256Z</time>
      </trkpt>
      <trkpt lat="51.696467" lon="4.434448">
        <ele>0.018431</ele>
        <time>2026-09-03T17:27:23.096Z</time>
      </trkpt>
      <trkpt lat="51.696462" lon="4.434301">
        <ele>0.055150</ele>
        <time>2026-09-03T17:27:24.435Z</time>
      </trkpt>
      <trkpt lat="51.696416" lon="4.432859">
        <ele>0.415284</ele>
        <time>2026-09-03T17:27:38.817Z</time>
      </trkpt>
      <trkpt lat="51.696409" lon="4.432681">
        <ele>0.459770</ele>
        <time>2026-09-03T17:27:40.750Z</time>
      </trkpt>
      <trkpt lat="51.696350" lon="4.430610">
        <ele>1.079757</ele>
        <time>2026-09-03T17:28:03.808Z</time>
      </trkpt>
      <trkpt lat="51.696370" lon="4.430255">
        <ele>1.204799</ele>
        <time>2026-09-03T17:28:07.544Z</time>
      </trkpt>
      <trkpt lat="51.696554" lon="4.428943">
        <ele>1.676661</ele>
        <time>2026-09-03T17:28:20.924Z</time>
      </trkpt>
      <trkpt lat="51.696677" lon="4.428066">
        <ele>2.055374</ele>
        <time>2026-09-03T17:28:30.241Z</time>
      </trkpt>
      <trkpt lat="51.696849" lon="4.426690">
        <ele>2.672201</ele>
        <time>2026-09-03T17:28:46.622Z</time>
      </trkpt>
      <trkpt lat="51.696851" lon="4.426366">
        <ele>2.814582</ele>
        <time>2026-09-03T17:28:50.301Z</time>
      </trkpt>
      <trkpt lat="51.696796" lon="4.425812">
        <ele>3.017024</ele>
        <time>2026-09-03T17:28:56.420Z</time>
      </trkpt>
      <trkpt lat="51.696647" lon="4.425286">
        <ele>3.018555</ele>
        <time>2026-09-03T17:29:02.150Z</time>
      </trkpt>
      <trkpt lat="51.696264" lon="4.424550">
        <ele>3.021100</ele>
        <time>2026-09-03T17:29:10.761Z</time>
      </trkpt>
      <trkpt lat="51.695858" lon="4.423783">
        <ele>3.023771</ele>
        <time>2026-09-03T17:29:19.149Z</time>
      </trkpt>
      <trkpt lat="51.695451" lon="4.423027">
        <ele>3.081087</ele>
        <time>2026-09-03T17:29:28.453Z</time>
      </trkpt>
      <trkpt lat="51.695119" lon="4.422432">
        <ele>3.141679</ele>
        <time>2026-09-03T17:29:36.525Z</time>
      </trkpt>
      <trkpt lat="51.694881" lon="4.421986">
        <ele>3.186221</ele>
        <time>2026-09-03T17:29:42.503Z</time>
      </trkpt>
      <trkpt lat="51.693682" lon="4.419762">
        <ele>3.004016</ele>
        <time>2026-09-03T17:30:09.212Z</time>
      </trkpt>
      <trkpt lat="51.693182" lon="4.418832">
        <ele>2.735261</ele>
        <time>2026-09-03T17:30:19.379Z</time>
      </trkpt>
      <trkpt lat="51.692214" lon="4.417046">
        <ele>1.857067</ele>
        <time>2026-09-03T17:30:38.278Z</time>
      </trkpt>
      <trkpt lat="51.692099" lon="4.416989">
        <ele>1.806904</ele>
        <time>2026-09-03T17:30:39.808Z</time>
      </trkpt>
      <trkpt lat="51.691286" lon="4.418074">
        <ele>1.384666</ele>
        <time>2026-09-03T17:30:53.718Z</time>
      </trkpt>
      <trkpt lat="51.689078" lon="4.419784">
        <ele>0.791535</ele>
        <time>2026-09-03T17:31:28.836Z</time>
      </trkpt>
      <trkpt lat="51.688904" lon="4.419949">
        <ele>0.677030</ele>
        <time>2026-09-03T17:31:31.569Z</time>
      </trkpt>
      <trkpt lat="51.688755" lon="4.420005">
        <ele>0.590237</ele>
        <time>2026-09-03T17:31:33.606Z</time>
      </trkpt>
      <trkpt lat="51.688608" lon="4.419935">
        <ele>0.503285</ele>
        <time>2026-09-03T17:31:36.448Z</time>
      </trkpt>
      <trkpt lat="51.686964" lon="4.418574">
        <ele>-0.294701</ele>
        <time>2026-09-03T17:32:00.119Z</time>
      </trkpt>
      <trkpt lat="51.686726" lon="4.418477">
        <ele>-0.327006</ele>
        <time>2026-09-03T17:32:03.516Z</time>
      </trkpt>
      <trkpt lat="51.686551" lon="4.418467">
        <ele>-0.350049</ele>
        <time>2026-09-03T17:32:06.017Z</time>
      </trkpt>
      <trkpt lat="51.683922" lon="4.418866">
        <ele>0.187190</ele>
        <time>2026-09-03T17:32:48.417Z</time>
      </trkpt>
      <trkpt lat="51.683611" lon="4.418803">
        <ele>0.421566</ele>
        <time>2026-09-03T17:32:53.805Z</time>
      </trkpt>
      <trkpt lat="51.683423" lon="4.418651">
        <ele>0.578816</ele>
        <time>2026-09-03T17:32:57.549Z</time>
      </trkpt>
      <trkpt lat="51.683268" lon="4.418419">
        <ele>0.736934</ele>
        <time>2026-09-03T17:33:01.414Z</time>
      </trkpt>
      <trkpt lat="51.682752" lon="4.417453">
        <ele>1.328067</ele>
        <time>2026-09-03T17:33:20.353Z</time>
      </trkpt>
      <trkpt lat="51.682596" lon="4.417097">
        <ele>1.529978</ele>
        <time>2026-09-03T17:33:26.921Z</time>
      </trkpt>
      <trkpt lat="51.685560" lon="4.412800">
        <ele>4.485825</ele>
        <time>2026-09-03T17:34:58.525Z</time>
      </trkpt>
      <trkpt lat="51.688358" lon="4.408517">
        <ele>7.301932</ele>
        <time>2026-09-03T17:36:30.845Z</time>
      </trkpt>
      <trkpt lat="51.688408" lon="4.408446">
        <ele>7.297720</ele>
        <time>2026-09-03T17:36:32.144Z</time>
      </trkpt>
      <trkpt lat="51.688721" lon="4.408007">
        <ele>7.271491</ele>
        <time>2026-09-03T17:36:39.665Z</time>
      </trkpt>
      <trkpt lat="51.688927" lon="4.407717">
        <ele>7.254200</ele>
        <time>2026-09-03T17:36:44.344Z</time>
      </trkpt>
      <trkpt lat="51.690125" lon="4.406038">
        <ele>7.441987</ele>
        <time>2026-09-03T17:37:13.474Z</time>
      </trkpt>
      <trkpt lat="51.690570" lon="4.405491">
        <ele>7.537977</ele>
        <time>2026-09-03T17:37:28.421Z</time>
      </trkpt>
      <trkpt lat="51.691735" lon="4.403932">
        <ele>9.371335</ele>
        <time>2026-09-03T17:38:10.204Z</time>
      </trkpt>
      <trkpt lat="51.693587" lon="4.401428">
        <ele>9.239568</ele>
        <time>2026-09-03T17:38:53.831Z</time>
      </trkpt>
      <trkpt lat="51.694289" lon="4.400565">
        <ele>10.212336</ele>
        <time>2026-09-03T17:39:15.192Z</time>
      </trkpt>
      <trkpt lat="51.694930" lon="4.399872">
        <ele>11.043213</ele>
        <time>2026-09-03T17:39:34.297Z</time>
      </trkpt>
      <trkpt lat="51.695643" lon="4.399256">
        <ele>11.844831</ele>
        <time>2026-09-03T17:39:53.589Z</time>
      </trkpt>
      <trkpt lat="51.697143" lon="4.398128">
        <ele>11.780415</ele>
        <time>2026-09-03T17:40:15.358Z</time>
      </trkpt>
      <trkpt lat="51.698244" lon="4.397426">
        <ele>10.416193</ele>
        <time>2026-09-03T17:40:29.042Z</time>
      </trkpt>
      <trkpt lat="51.699118" lon="4.396908">
        <ele>8.880794</ele>
        <time>2026-09-03T17:40:39.499Z</time>
      </trkpt>
      <trkpt lat="51.699868" lon="4.396544">
        <ele>7.642294</ele>
        <time>2026-09-03T17:40:48.295Z</time>
      </trkpt>
      <trkpt lat="51.700739" lon="4.396221">
        <ele>6.501373</ele>
        <time>2026-09-03T17:40:58.798Z</time>
      </trkpt>
      <trkpt lat="51.701431" lon="4.396031">
        <ele>5.605258</ele>
        <time>2026-09-03T17:41:07.217Z</time>
      </trkpt>
      <trkpt lat="51.701558" lon="4.395924">
        <ele>5.491190</ele>
        <time>2026-09-03T17:41:08.941Z</time>
      </trkpt>
      <trkpt lat="51.701623" lon="4.395828">
        <ele>5.452126</ele>
        <time>2026-09-03T17:41:10.017Z</time>
      </trkpt>
      <trkpt lat="51.701717" lon="4.395916">
        <ele>5.403948</ele>
        <time>2026-09-03T17:41:11.352Z</time>
      </trkpt>
      <trkpt lat="51.701820" lon="4.395950">
        <ele>5.357340</ele>
        <time>2026-09-03T17:41:12.660Z</time>
      </trkpt>
      <trkpt lat="51.702667" lon="4.395850">
        <ele>4.980848</ele>
        <time>2026-09-03T17:41:23.882Z</time>
      </trkpt>
      <trkpt lat="51.703727" lon="4.395793">
        <ele>4.841657</ele>
        <time>2026-09-03T17:41:39.733Z</time>
      </trkpt>
      <trkpt lat="51.703966" lon="4.395798">
        <ele>4.895279</ele>
        <time>2026-09-03T17:41:43.609Z</time>
      </trkpt>
      <trkpt lat="51.704180" lon="4.395896">
        <ele>4.945185</ele>
        <time>2026-09-03T17:41:47.126Z</time>
      </trkpt>
      <trkpt lat="51.704377" lon="4.395851">
        <ele>4.989821</ele>
        <time>2026-09-03T17:41:50.235Z</time>
      </trkpt>
      <trkpt lat="51.705532" lon="4.396056">
        <ele>5.449709</ele>
        <time>2026-09-03T17:42:09.096Z</time>
      </trkpt>
      <trkpt lat="51.706499" lon="4.396072">
        <ele>6.037490</ele>
        <time>2026-09-03T17:42:26.235Z</time>
      </trkpt>
      <trkpt lat="51.707285" lon="4.396181">
        <ele>6.416750</ele>
        <time>2026-09-03T17:42:40.372Z</time>
      </trkpt>
      <trkpt lat="51.708094" lon="4.396447">
        <ele>6.745002</ele>
        <time>2026-09-03T17:42:54.376Z</time>
      </trkpt>
      <trkpt lat="51.709545" lon="4.397128">
        <ele>6.391446</ele>
        <time>2026-09-03T17:43:16.267Z</time>
      </trkpt>
      <trkpt lat="51.709917" lon="4.397296">
        <ele>6.181784</ele>
        <time>2026-09-03T17:43:20.956Z</time>
      </trkpt>
      <trkpt lat="51.710387" lon="4.397554">
        <ele>5.874322</ele>
        <time>2026-09-03T17:43:26.827Z</time>
      </trkpt>
      <trkpt lat="51.710823" lon="4.397827">
        <ele>5.440907</ele>
        <time>2026-09-03T17:43:32.253Z</time>
      </trkpt>
      <trkpt lat="51.711351" lon="4.398158">
        <ele>4.915956</ele>
        <time>2026-09-03T17:43:39.118Z</time>
      </trkpt>
      <trkpt lat="51.711776" lon="4.398423">
        <ele>4.493707</ele>
        <time>2026-09-03T17:43:45.171Z</time>
      </trkpt>
      <trkpt lat="51.712110" lon="4.398632">
        <ele>4.228020</ele>
        <time>2026-09-03T17:43:49.954Z</time>
      </trkpt>
      <trkpt lat="51.712787" lon="4.399054">
        <ele>3.879922</ele>
        <time>2026-09-03T17:43:59.650Z</time>
      </trkpt>
      <trkpt lat="51.713118" lon="4.399260">
        <ele>3.709765</ele>
        <time>2026-09-03T17:44:04.379Z</time>
      </trkpt>
      <trkpt lat="51.714080" lon="4.399859">
        <ele>3.226482</ele>
        <time>2026-09-03T17:44:18.143Z</time>
      </trkpt>
      <trkpt lat="51.714412" lon="4.400067">
        <ele>3.064375</ele>
        <time>2026-09-03T17:44:22.893Z</time>
      </trkpt>
      <trkpt lat="51.715091" lon="4.400491">
        <ele>2.732982</ele>
        <time>2026-09-03T17:44:32.625Z</time>
      </trkpt>
      <trkpt lat="51.715424" lon="4.400698">
        <ele>2.567499</ele>
        <time>2026-09-03T17:44:37.382Z</time>
      </trkpt>
      <trkpt lat="51.716317" lon="4.401257">
        <ele>2.103297</ele>
        <time>2026-09-03T17:44:50.174Z</time>
      </trkpt>
      <trkpt lat="51.716657" lon="4.401469">
        <ele>1.926647</ele>
        <time>2026-09-03T17:44:55.044Z</time>
      </trkpt>
      <trkpt lat="51.717338" lon="4.401894">
        <ele>1.586256</ele>
        <time>2026-09-03T17:45:04.785Z</time>
      </trkpt>
      <trkpt lat="51.717667" lon="4.402099">
        <ele>1.428626</ele>
        <time>2026-09-03T17:45:09.495Z</time>
      </trkpt>
      <trkpt lat="51.718558" lon="4.402655">
        <ele>1.001650</ele>
        <time>2026-09-03T17:45:22.245Z</time>
      </trkpt>
      <trkpt lat="51.719279" lon="4.403106">
        <ele>0.800963</ele>
        <time>2026-09-03T17:45:32.565Z</time>
      </trkpt>
      <trkpt lat="51.719300" lon="4.403119">
        <ele>0.796004</ele>
        <time>2026-09-03T17:45:32.855Z</time>
      </trkpt>
      <trkpt lat="51.719610" lon="4.403313">
        <ele>0.722692</ele>
        <time>2026-09-03T17:45:37.324Z</time>
      </trkpt>
      <trkpt lat="51.719680" lon="4.403356">
        <ele>0.706177</ele>
        <time>2026-09-03T17:45:38.343Z</time>
      </trkpt>
      <trkpt lat="51.720492" lon="4.403864">
        <ele>0.658912</ele>
        <time>2026-09-03T17:45:51.115Z</time>
      </trkpt>
      <trkpt lat="51.720671" lon="4.403981">
        <ele>0.813152</ele>
        <time>2026-09-03T17:45:54.295Z</time>
      </trkpt>
      <trkpt lat="51.721207" lon="4.404400">
        <ele>1.288801</ele>
        <time>2026-09-03T17:46:05.030Z</time>
      </trkpt>
      <trkpt lat="51.723757" lon="4.406019">
        <ele>3.528549</ele>
        <time>2026-09-03T17:46:58.066Z</time>
      </trkpt>
      <trkpt lat="51.723879" lon="4.406163">
        <ele>3.398091</ele>
        <time>2026-09-03T17:46:59.963Z</time>
      </trkpt>
      <trkpt lat="51.724099" lon="4.406232">
        <ele>3.204635</ele>
        <time>2026-09-03T17:47:02.693Z</time>
      </trkpt>
      <trkpt lat="51.724522" lon="4.406493">
        <ele>2.813737</ele>
        <time>2026-09-03T17:47:07.932Z</time>
      </trkpt>
      <trkpt lat="51.727442" lon="4.408310">
        <ele>0.011975</ele>
        <time>2026-09-03T17:47:45.250Z</time>
      </trkpt>
      <trkpt lat="51.728747" lon="4.409200">
        <ele>0.004536</ele>
        <time>2026-09-03T17:48:09.173Z</time>
      </trkpt>
      <trkpt lat="51.729972" lon="4.409982">
        <ele>-0.034526</ele>
        <time>2026-09-03T17:48:29.493Z</time>
      </trkpt>
      <trkpt lat="51.731040" lon="4.410594">
        <ele>-0.050172</ele>
        <time>2026-09-03T17:48:44.124Z</time>
      </trkpt>
      <trkpt lat="51.731963" lon="4.411065">
        <ele>-0.054172</ele>
        <time>2026-09-03T17:48:58.769Z</time>
      </trkpt>
      <trkpt lat="51.732213" lon="4.411196">
        <ele>0.000728</ele>
        <time>2026-09-03T17:49:04.042Z</time>
      </trkpt>
      <trkpt lat="51.732374" lon="4.411357">
        <ele>0.077985</ele>
        <time>2026-09-03T17:49:07.712Z</time>
      </trkpt>
      <trkpt lat="51.732603" lon="4.411685">
        <ele>0.202866</ele>
        <time>2026-09-03T17:49:13.552Z</time>
      </trkpt>
      <trkpt lat="51.732655" lon="4.411756">
        <ele>0.230648</ele>
        <time>2026-09-03T17:49:14.856Z</time>
      </trkpt>
      <trkpt lat="51.732778" lon="4.411520">
        <ele>0.308579</ele>
        <time>2026-09-03T17:49:18.304Z</time>
      </trkpt>
      <trkpt lat="51.732829" lon="4.411413">
        <ele>0.342693</ele>
        <time>2026-09-03T17:49:19.761Z</time>
      </trkpt>
      <trkpt lat="51.732878" lon="4.411307">
        <ele>0.376112</ele>
        <time>2026-09-03T17:49:21.554Z</time>
      </trkpt>
      <trkpt lat="51.733019" lon="4.411007">
        <ele>0.471264</ele>
        <time>2026-09-03T17:49:25.300Z</time>
      </trkpt>
      <trkpt lat="51.733354" lon="4.410274">
        <ele>0.634392</ele>
        <time>2026-09-03T17:49:33.615Z</time>
      </trkpt>
      <trkpt lat="51.733475" lon="4.410000">
        <ele>0.464515</ele>
        <time>2026-09-03T17:49:36.271Z</time>
      </trkpt>
      <trkpt lat="51.733499" lon="4.409940">
        <ele>0.428459</ele>
        <time>2026-09-03T17:49:36.808Z</time>
      </trkpt>
      <trkpt lat="51.733510" lon="4.409910">
        <ele>0.410860</ele>
        <time>2026-09-03T17:49:37.071Z</time>
      </trkpt>
      <trkpt lat="51.733802" lon="4.409073">
        <ele>-0.074081</ele>
        <time>2026-09-03T17:49:44.156Z</time>
      </trkpt>
      <trkpt lat="51.733844" lon="4.408959">
        <ele>-0.141041</ele>
        <time>2026-09-03T17:49:45.147Z</time>
      </trkpt>
      <trkpt lat="51.734214" lon="4.408060">
        <ele>-0.685923</ele>
        <time>2026-09-03T17:49:53.242Z</time>
      </trkpt>
      <trkpt lat="51.734507" lon="4.407393">
        <ele>-0.844500</ele>
        <time>2026-09-03T17:49:59.947Z</time>
      </trkpt>
      <trkpt lat="51.736474" lon="4.403055">
        <ele>-1.073882</ele>
        <time>2026-09-03T17:50:49.746Z</time>
      </trkpt>
      <trkpt lat="51.736645" lon="4.402559">
        <ele>-1.142623</ele>
        <time>2026-09-03T17:50:54.688Z</time>
      </trkpt>
      <trkpt lat="51.736892" lon="4.401714">
        <ele>-1.255771</ele>
        <time>2026-09-03T17:51:02.770Z</time>
      </trkpt>
      <trkpt lat="51.737332" lon="4.400231">
        <ele>-1.437149</ele>
        <time>2026-09-03T17:51:16.957Z</time>
      </trkpt>
      <trkpt lat="51.738028" lon="4.397773">
        <ele>-1.611263</ele>
        <time>2026-09-03T17:51:40.862Z</time>
      </trkpt>
      <trkpt lat="51.738058" lon="4.397670">
        <ele>-1.599666</ele>
        <time>2026-09-03T17:51:41.967Z</time>
      </trkpt>
      <trkpt lat="51.738808" lon="4.395086">
        <ele>-1.305874</ele>
        <time>2026-09-03T17:52:09.954Z</time>
      </trkpt>
      <trkpt lat="51.739516" lon="4.392664">
        <ele>-1.016682</ele>
        <time>2026-09-03T17:52:36.012Z</time>
      </trkpt>
      <trkpt lat="51.740179" lon="4.390386">
        <ele>-1.212178</ele>
        <time>2026-09-03T17:52:57.840Z</time>
      </trkpt>
      <trkpt lat="51.740378" lon="4.389851">
        <ele>-1.211290</ele>
        <time>2026-09-03T17:53:03.367Z</time>
      </trkpt>
      <trkpt lat="51.741894" lon="4.384634">
        <ele>-0.549384</ele>
        <time>2026-09-03T17:53:58.960Z</time>
      </trkpt>
      <trkpt lat="51.742108" lon="4.384226">
        <ele>-0.434583</ele>
        <time>2026-09-03T17:54:04.551Z</time>
      </trkpt>
      <trkpt lat="51.742689" lon="4.383454">
        <ele>-0.173708</ele>
        <time>2026-09-03T17:54:17.152Z</time>
      </trkpt>
      <trkpt lat="51.742945" lon="4.383137">
        <ele>-0.061855</ele>
        <time>2026-09-03T17:54:22.516Z</time>
      </trkpt>
      <trkpt lat="51.743150" lon="4.382982">
        <ele>0.016630</ele>
        <time>2026-09-03T17:54:26.204Z</time>
      </trkpt>
      <trkpt lat="51.745872" lon="4.382028">
        <ele>0.031827</ele>
        <time>2026-09-03T17:55:07.764Z</time>
      </trkpt>
      <trkpt lat="51.746603" lon="4.381765">
        <ele>-0.070223</ele>
        <time>2026-09-03T17:55:17.800Z</time>
      </trkpt>
      <trkpt lat="51.747994" lon="4.381297">
        <ele>-0.251198</ele>
        <time>2026-09-03T17:55:38.050Z</time>
      </trkpt>
      <trkpt lat="51.749048" lon="4.380929">
        <ele>-0.509018</ele>
        <time>2026-09-03T17:55:54.670Z</time>
      </trkpt>
      <trkpt lat="51.749209" lon="4.380838">
        <ele>-0.563543</ele>
        <time>2026-09-03T17:55:57.029Z</time>
      </trkpt>
      <trkpt lat="51.749274" lon="4.380761">
        <ele>-0.589310</ele>
        <time>2026-09-03T17:55:58.115Z</time>
      </trkpt>
      <trkpt lat="51.749314" lon="4.380593">
        <ele>-0.624931</ele>
        <time>2026-09-03T17:55:59.596Z</time>
      </trkpt>
      <trkpt lat="51.749296" lon="4.380316">
        <ele>-0.680051</ele>
        <time>2026-09-03T17:56:01.833Z</time>
      </trkpt>
      <trkpt lat="51.749182" lon="4.379467">
        <ele>-0.851976</ele>
        <time>2026-09-03T17:56:08.660Z</time>
      </trkpt>
      <trkpt lat="51.749028" lon="4.378322">
        <ele>-0.985819</ele>
        <time>2026-09-03T17:56:18.000Z</time>
      </trkpt>
      <trkpt lat="51.748770" lon="4.376608">
        <ele>-1.164226</ele>
        <time>2026-09-03T17:56:34.343Z</time>
      </trkpt>
      <trkpt lat="51.748544" lon="4.374896">
        <ele>-0.720023</ele>
        <time>2026-09-03T17:56:52.493Z</time>
      </trkpt>
      <trkpt lat="51.748540" lon="4.374654">
        <ele>-0.651810</ele>
        <time>2026-09-03T17:56:54.992Z</time>
      </trkpt>
      <trkpt lat="51.748807" lon="4.373174">
        <ele>-0.199138</ele>
        <time>2026-09-03T17:57:11.296Z</time>
      </trkpt>
      <trkpt lat="51.749141" lon="4.371316">
        <ele>0.416721</ele>
        <time>2026-09-03T17:57:31.860Z</time>
      </trkpt>
      <trkpt lat="51.749283" lon="4.370740">
        <ele>0.579542</ele>
        <time>2026-09-03T17:57:38.209Z</time>
      </trkpt>
      <trkpt lat="51.749300" lon="4.370556">
        <ele>0.596044</ele>
        <time>2026-09-03T17:57:39.984Z</time>
      </trkpt>
      <trkpt lat="51.749535" lon="4.369215">
        <ele>0.719666</ele>
        <time>2026-09-03T17:57:53.210Z</time>
      </trkpt>
      <trkpt lat="51.749547" lon="4.369159">
        <ele>0.724922</ele>
        <time>2026-09-03T17:57:53.777Z</time>
      </trkpt>
      <trkpt lat="51.749631" lon="4.368685">
        <ele>0.768655</ele>
        <time>2026-09-03T17:57:58.571Z</time>
      </trkpt>
      <trkpt lat="51.749785" lon="4.367822">
        <ele>0.767854</ele>
        <time>2026-09-03T17:58:06.979Z</time>
      </trkpt>
      <trkpt lat="51.749894" lon="4.367340">
        <ele>0.663378</ele>
        <time>2026-09-03T17:58:11.192Z</time>
      </trkpt>
      <trkpt lat="51.750019" lon="4.366723">
        <ele>0.531205</ele>
        <time>2026-09-03T17:58:16.679Z</time>
      </trkpt>
      <trkpt lat="51.750049" lon="4.366351">
        <ele>0.454827</ele>
        <time>2026-09-03T17:58:20.026Z</time>
      </trkpt>
      <trkpt lat="51.750070" lon="4.366245">
        <ele>0.432168</ele>
        <time>2026-09-03T17:58:20.943Z</time>
      </trkpt>
      <trkpt lat="51.750216" lon="4.365585">
        <ele>0.289475</ele>
        <time>2026-09-03T17:58:26.654Z</time>
      </trkpt>
      <trkpt lat="51.750392" lon="4.364587">
        <ele>0.048049</ele>
        <time>2026-09-03T17:58:34.909Z</time>
      </trkpt>
      <trkpt lat="51.750462" lon="4.364050">
        <ele>-0.085528</ele>
        <time>2026-09-03T17:58:39.615Z</time>
      </trkpt>
      <trkpt lat="51.750713" lon="4.362604">
        <ele>-0.451072</ele>
        <time>2026-09-03T17:58:52.432Z</time>
      </trkpt>
      <trkpt lat="51.750856" lon="4.361738">
        <ele>-0.509214</ele>
        <time>2026-09-03T17:59:00.278Z</time>
      </trkpt>
      <trkpt lat="51.751098" lon="4.360449">
        <ele>-0.567266</ele>
        <time>2026-09-03T17:59:12.309Z</time>
      </trkpt>
      <trkpt lat="51.751202" lon="4.359989">
        <ele>-0.588372</ele>
        <time>2026-09-03T17:59:16.910Z</time>
      </trkpt>
      <trkpt lat="51.751372" lon="4.359460">
        <ele>-0.609335</ele>
        <time>2026-09-03T17:59:22.613Z</time>
      </trkpt>
      <trkpt lat="51.751708" lon="4.358643">
        <ele>-0.637403</ele>
        <time>2026-09-03T17:59:31.511Z</time>
      </trkpt>
      <trkpt lat="51.751825" lon="4.358251">
        <ele>-0.649857</ele>
        <time>2026-09-03T17:59:35.362Z</time>
      </trkpt>
      <trkpt lat="51.752166" lon="4.357257">
        <ele>-0.682376</ele>
        <time>2026-09-03T17:59:45.587Z</time>
      </trkpt>
      <trkpt lat="51.752420" lon="4.356556">
        <ele>-0.750854</ele>
        <time>2026-09-03T17:59:52.813Z</time>
      </trkpt>
      <trkpt lat="51.752792" lon="4.355506">
        <ele>-0.855138</ele>
        <time>2026-09-03T18:00:03.482Z</time>
      </trkpt>
      <trkpt lat="51.753498" lon="4.353557">
        <ele>-0.742934</ele>
        <time>2026-09-03T18:00:23.742Z</time>
      </trkpt>
      <trkpt lat="51.753960" lon="4.352237">
        <ele>-0.528467</ele>
        <time>2026-09-03T18:00:39.213Z</time>
      </trkpt>
      <trkpt lat="51.754471" lon="4.350864">
        <ele>-0.180448</ele>
        <time>2026-09-03T18:00:56.572Z</time>
      </trkpt>
      <trkpt lat="51.755054" lon="4.349251">
        <ele>-0.004042</ele>
        <time>2026-09-03T18:01:14.186Z</time>
      </trkpt>
      <trkpt lat="51.755424" lon="4.348192">
        <ele>-0.279202</ele>
        <time>2026-09-03T18:01:24.163Z</time>
      </trkpt>
      <trkpt lat="51.755623" lon="4.347638">
        <ele>-0.424134</ele>
        <time>2026-09-03T18:01:29.229Z</time>
      </trkpt>
      <trkpt lat="51.756558" lon="4.344987">
        <ele>-0.909976</ele>
        <time>2026-09-03T18:01:55.283Z</time>
      </trkpt>
      <trkpt lat="51.756869" lon="4.344143">
        <ele>-0.946506</ele>
        <time>2026-09-03T18:02:04.302Z</time>
      </trkpt>
      <trkpt lat="51.756988" lon="4.343795">
        <ele>-0.934124</ele>
        <time>2026-09-03T18:02:07.996Z</time>
      </trkpt>
      <trkpt lat="51.758402" lon="4.339841">
        <ele>-0.669868</ele>
        <time>2026-09-03T18:02:51.231Z</time>
      </trkpt>
      <trkpt lat="51.758467" lon="4.339604">
        <ele>-0.650142</ele>
        <time>2026-09-03T18:02:53.779Z</time>
      </trkpt>
      <trkpt lat="51.758605" lon="4.339574">
        <ele>-0.636812</ele>
        <time>2026-09-03T18:02:55.988Z</time>
      </trkpt>
      <trkpt lat="51.761045" lon="4.337619">
        <ele>-0.398022</ele>
        <time>2026-09-03T18:03:37.413Z</time>
      </trkpt>
      <trkpt lat="51.763343" lon="4.335775">
        <ele>-0.268391</ele>
        <time>2026-09-03T18:04:15.919Z</time>
      </trkpt>
      <trkpt lat="51.763472" lon="4.335708">
        <ele>-0.278026</ele>
        <time>2026-09-03T18:04:17.874Z</time>
      </trkpt>
      <trkpt lat="51.763626" lon="4.335718">
        <ele>-0.288984</ele>
        <time>2026-09-03T18:04:20.090Z</time>
      </trkpt>
      <trkpt lat="51.763731" lon="4.335764">
        <ele>-0.296719</ele>
        <time>2026-09-03T18:04:21.640Z</time>
      </trkpt>
      <trkpt lat="51.763925" lon="4.335971">
        <ele>-0.313249</ele>
        <time>2026-09-03T18:04:24.959Z</time>
      </trkpt>
      <trkpt lat="51.764306" lon="4.335204">
        <ele>-0.356528</ele>
        <time>2026-09-03T18:04:33.638Z</time>
      </trkpt>
      <trkpt lat="51.764490" lon="4.334937">
        <ele>-0.374112</ele>
        <time>2026-09-03T18:04:37.202Z</time>
      </trkpt>
      <trkpt lat="51.764693" lon="4.334717">
        <ele>-0.391491</ele>
        <time>2026-09-03T18:04:40.822Z</time>
      </trkpt>
      <trkpt lat="51.764888" lon="4.334525">
        <ele>-0.394106</ele>
        <time>2026-09-03T18:04:44.316Z</time>
      </trkpt>
      <trkpt lat="51.766363" lon="4.333328">
        <ele>-0.396963</ele>
        <time>2026-09-03T18:05:08.943Z</time>
      </trkpt>
      <trkpt lat="51.766539" lon="4.333190">
        <ele>-0.385962</ele>
        <time>2026-09-03T18:05:11.850Z</time>
      </trkpt>
      <trkpt lat="51.766654" lon="4.333101">
        <ele>-0.378791</ele>
        <time>2026-09-03T18:05:13.728Z</time>
      </trkpt>
      <trkpt lat="51.767353" lon="4.332512">
        <ele>-0.334458</ele>
        <time>2026-09-03T18:05:25.374Z</time>
      </trkpt>
      <trkpt lat="51.767775" lon="4.332182">
        <ele>-0.308093</ele>
        <time>2026-09-03T18:05:32.546Z</time>
      </trkpt>
      <trkpt lat="51.768751" lon="4.331415">
        <ele>-0.243074</ele>
        <time>2026-09-03T18:05:49.005Z</time>
      </trkpt>
      <trkpt lat="51.769340" lon="4.330940">
        <ele>-0.203207</ele>
        <time>2026-09-03T18:05:58.812Z</time>
      </trkpt>
      <trkpt lat="51.769873" lon="4.330514">
        <ele>-0.157588</ele>
        <time>2026-09-03T18:06:07.725Z</time>
      </trkpt>
      <trkpt lat="51.770548" lon="4.329962">
        <ele>-0.092403</ele>
        <time>2026-09-03T18:06:19.328Z</time>
      </trkpt>
      <trkpt lat="51.771194" lon="4.329446">
        <ele>-0.031822</ele>
        <time>2026-09-03T18:06:30.434Z</time>
      </trkpt>
      <trkpt lat="51.771341" lon="4.329328">
        <ele>-0.022298</ele>
        <time>2026-09-03T18:06:32.910Z</time>
      </trkpt>
      <trkpt lat="51.772597" lon="4.328335">
        <ele>0.058836</ele>
        <time>2026-09-03T18:06:53.655Z</time>
      </trkpt>
      <trkpt lat="51.774694" lon="4.326645">
        <ele>0.394197</ele>
        <time>2026-09-03T18:07:30.415Z</time>
      </trkpt>
      <trkpt lat="51.774906" lon="4.326470">
        <ele>0.388834</ele>
        <time>2026-09-03T18:07:33.845Z</time>
      </trkpt>
      <trkpt lat="51.776268" lon="4.325375">
        <ele>0.381078</ele>
        <time>2026-09-03T18:07:55.525Z</time>
      </trkpt>
      <trkpt lat="51.776313" lon="4.325343">
        <ele>0.384010</ele>
        <time>2026-09-03T18:07:56.287Z</time>
      </trkpt>
      <trkpt lat="51.776499" lon="4.325194">
        <ele>0.396392</ele>
        <time>2026-09-03T18:07:59.549Z</time>
      </trkpt>
      <trkpt lat="51.776850" lon="4.324912">
        <ele>0.419770</ele>
        <time>2026-09-03T18:08:05.713Z</time>
      </trkpt>
      <trkpt lat="51.777468" lon="4.324422">
        <ele>0.460825</ele>
        <time>2026-09-03T18:08:16.469Z</time>
      </trkpt>
      <trkpt lat="51.778128" lon="4.323902">
        <ele>0.364893</ele>
        <time>2026-09-03T18:08:27.258Z</time>
      </trkpt>
      <trkpt lat="51.779997" lon="4.322397">
        <ele>-0.087616</ele>
        <time>2026-09-03T18:08:56.232Z</time>
      </trkpt>
      <trkpt lat="51.780237" lon="4.322261">
        <ele>-0.157139</ele>
        <time>2026-09-03T18:08:59.732Z</time>
      </trkpt>
      <trkpt lat="51.780762" lon="4.322058">
        <ele>-0.304705</ele>
        <time>2026-09-03T18:09:07.086Z</time>
      </trkpt>
      <trkpt lat="51.780873" lon="4.321945">
        <ele>-0.338925</ele>
        <time>2026-09-03T18:09:08.888Z</time>
      </trkpt>
      <trkpt lat="51.781039" lon="4.321687">
        <ele>-0.369011</ele>
        <time>2026-09-03T18:09:12.076Z</time>
      </trkpt>
      <trkpt lat="51.781381" lon="4.320938">
        <ele>-0.444251</ele>
        <time>2026-09-03T18:09:20.015Z</time>
      </trkpt>
      <trkpt lat="51.782403" lon="4.319483">
        <ele>-0.475934</ele>
        <time>2026-09-03T18:09:40.301Z</time>
      </trkpt>
      <trkpt lat="51.783692" lon="4.318816">
        <ele>-0.133196</ele>
        <time>2026-09-03T18:10:02.278Z</time>
      </trkpt>
      <trkpt lat="51.784586" lon="4.318330">
        <ele>-0.071600</ele>
        <time>2026-09-03T18:10:16.936Z</time>
      </trkpt>
      <trkpt lat="51.786545" lon="4.316635">
        <ele>-0.172595</ele>
        <time>2026-09-03T18:10:48.773Z</time>
      </trkpt>
      <trkpt lat="51.787396" lon="4.315969">
        <ele>-0.150866</ele>
        <time>2026-09-03T18:11:02.388Z</time>
      </trkpt>
      <trkpt lat="51.790940" lon="4.313490">
        <ele>0.811986</ele>
        <time>2026-09-03T18:12:04.203Z</time>
      </trkpt>
      <trkpt lat="51.791031" lon="4.313421">
        <ele>0.842302</ele>
        <time>2026-09-03T18:12:05.847Z</time>
      </trkpt>
      <trkpt lat="51.791098" lon="4.313382">
        <ele>0.863781</ele>
        <time>2026-09-03T18:12:07.006Z</time>
      </trkpt>
      <trkpt lat="51.791257" lon="4.313268">
        <ele>0.916243</ele>
        <time>2026-09-03T18:12:09.823Z</time>
      </trkpt>
      <trkpt lat="51.791400" lon="4.313178">
        <ele>0.962527</ele>
        <time>2026-09-03T18:12:12.295Z</time>
      </trkpt>
      <trkpt lat="51.792185" lon="4.312735">
        <ele>1.148784</ele>
        <time>2026-09-03T18:12:25.629Z</time>
      </trkpt>
      <trkpt lat="51.792870" lon="4.312436">
        <ele>1.176110</ele>
        <time>2026-09-03T18:12:36.826Z</time>
      </trkpt>
      <trkpt lat="51.793423" lon="4.312245">
        <ele>1.197888</ele>
        <time>2026-09-03T18:12:44.961Z</time>
      </trkpt>
      <trkpt lat="51.793497" lon="4.312245">
        <ele>1.200738</ele>
        <time>2026-09-03T18:12:45.988Z</time>
      </trkpt>
      <trkpt lat="51.793601" lon="4.312230">
        <ele>1.204759</ele>
        <time>2026-09-03T18:12:47.995Z</time>
      </trkpt>
      <trkpt lat="51.793914" lon="4.312119">
        <ele>1.124865</ele>
        <time>2026-09-03T18:12:54.141Z</time>
      </trkpt>
      <trkpt lat="51.794073" lon="4.312104">
        <ele>1.064359</ele>
        <time>2026-09-03T18:12:57.198Z</time>
      </trkpt>
      <trkpt lat="51.794572" lon="4.312055">
        <ele>0.874445</ele>
        <time>2026-09-03T18:13:06.567Z</time>
      </trkpt>
      <trkpt lat="51.794607" lon="4.312052">
        <ele>0.861130</ele>
        <time>2026-09-03T18:13:07.228Z</time>
      </trkpt>
      <trkpt lat="51.794671" lon="4.312048">
        <ele>0.836799</ele>
        <time>2026-09-03T18:13:08.402Z</time>
      </trkpt>
      <trkpt lat="51.795670" lon="4.311957">
        <ele>0.469714</ele>
        <time>2026-09-03T18:13:21.824Z</time>
      </trkpt>
      <trkpt lat="51.796093" lon="4.311929">
        <ele>0.339409</ele>
        <time>2026-09-03T18:13:27.680Z</time>
      </trkpt>
      <trkpt lat="51.796727" lon="4.311888">
        <ele>0.144114</ele>
        <time>2026-09-03T18:13:36.298Z</time>
      </trkpt>
      <trkpt lat="51.797984" lon="4.311754">
        <ele>-0.075666</ele>
        <time>2026-09-03T18:13:53.933Z</time>
      </trkpt>
      <trkpt lat="51.798099" lon="4.311747">
        <ele>-0.083461</ele>
        <time>2026-09-03T18:13:55.646Z</time>
      </trkpt>
      <trkpt lat="51.798410" lon="4.311724">
        <ele>-0.104546</ele>
        <time>2026-09-03T18:14:00.358Z</time>
      </trkpt>
      <trkpt lat="51.798833" lon="4.311702">
        <ele>-0.133210</ele>
        <time>2026-09-03T18:14:06.845Z</time>
      </trkpt>
      <trkpt lat="51.799396" lon="4.311752">
        <ele>-0.224823</ele>
        <time>2026-09-03T18:14:15.192Z</time>
      </trkpt>
      <trkpt lat="51.799766" lon="4.311970">
        <ele>-0.318400</ele>
        <time>2026-09-03T18:14:20.741Z</time>
      </trkpt>
      <trkpt lat="51.799968" lon="4.312191">
        <ele>-0.376354</ele>
        <time>2026-09-03T18:14:24.121Z</time>
      </trkpt>
      <trkpt lat="51.800151" lon="4.312505">
        <ele>-0.439759</ele>
        <time>2026-09-03T18:14:27.780Z</time>
      </trkpt>
      <trkpt lat="51.800252" lon="4.312807">
        <ele>-0.490212</ele>
        <time>2026-09-03T18:14:30.702Z</time>
      </trkpt>
      <trkpt lat="51.800363" lon="4.313319">
        <ele>-0.569940</ele>
        <time>2026-09-03T18:14:35.276Z</time>
      </trkpt>
      <trkpt lat="51.800440" lon="4.313999">
        <ele>-0.684259</ele>
        <time>2026-09-03T18:14:41.099Z</time>
      </trkpt>
      <trkpt lat="51.800484" lon="4.314870">
        <ele>-0.830068</ele>
        <time>2026-09-03T18:14:48.638Z</time>
      </trkpt>
      <trkpt lat="51.800535" lon="4.317017">
        <ele>-0.965099</ele>
        <time>2026-09-03T18:15:07.250Z</time>
      </trkpt>
      <trkpt lat="51.800604" lon="4.320787">
        <ele>-0.262873</ele>
        <time>2026-09-03T18:15:45.342Z</time>
      </trkpt>
      <trkpt lat="51.800631" lon="4.321196">
        <ele>-0.155277</ele>
        <time>2026-09-03T18:15:49.703Z</time>
      </trkpt>
      <trkpt lat="51.800823" lon="4.322762">
        <ele>0.073481</ele>
        <time>2026-09-03T18:16:05.896Z</time>
      </trkpt>
      <trkpt lat="51.801761" lon="4.328246">
        <ele>-0.220126</ele>
        <time>2026-09-03T18:16:56.079Z</time>
      </trkpt>
      <trkpt lat="51.802232" lon="4.330999">
        <ele>-0.205362</ele>
        <time>2026-09-03T18:17:22.424Z</time>
      </trkpt>
      <trkpt lat="51.802304" lon="4.331248">
        <ele>-0.197182</ele>
        <time>2026-09-03T18:17:25.082Z</time>
      </trkpt>
      <trkpt lat="51.802482" lon="4.331536">
        <ele>-0.185066</ele>
        <time>2026-09-03T18:17:29.003Z</time>
      </trkpt>
      <trkpt lat="51.802701" lon="4.331668">
        <ele>-0.173819</ele>
        <time>2026-09-03T18:17:32.650Z</time>
      </trkpt>
      <trkpt lat="51.802887" lon="4.331716">
        <ele>-0.164756</ele>
        <time>2026-09-03T18:17:35.577Z</time>
      </trkpt>
      <trkpt lat="51.808568" lon="4.332607">
        <ele>-0.246605</ele>
        <time>2026-09-03T18:18:59.105Z</time>
      </trkpt>
      <trkpt lat="51.809584" lon="4.332767">
        <ele>0.030085</ele>
        <time>2026-09-03T18:19:15.840Z</time>
      </trkpt>
      <trkpt lat="51.809821" lon="4.332816">
        <ele>0.117951</ele>
        <time>2026-09-03T18:19:19.873Z</time>
      </trkpt>
      <trkpt lat="51.810598" lon="4.332940">
        <ele>0.405080</ele>
        <time>2026-09-03T18:19:32.605Z</time>
      </trkpt>
      <trkpt lat="51.810843" lon="4.332979">
        <ele>0.474972</ele>
        <time>2026-09-03T18:19:36.377Z</time>
      </trkpt>
      <trkpt lat="51.811106" lon="4.333072">
        <ele>0.542551</ele>
        <time>2026-09-03T18:19:40.494Z</time>
      </trkpt>
      <trkpt lat="51.811138" lon="4.333099">
        <ele>0.551611</ele>
        <time>2026-09-03T18:19:41.047Z</time>
      </trkpt>
      <trkpt lat="51.811259" lon="4.333310">
        <ele>0.596275</ele>
        <time>2026-09-03T18:19:43.743Z</time>
      </trkpt>
      <trkpt lat="51.811460" lon="4.333786">
        <ele>0.685735</ele>
        <time>2026-09-03T18:19:49.272Z</time>
      </trkpt>
      <trkpt lat="51.811949" lon="4.335064">
        <ele>0.895106</ele>
        <time>2026-09-03T18:20:04.569Z</time>
      </trkpt>
      <trkpt lat="51.812112" lon="4.335497">
        <ele>0.922868</ele>
        <time>2026-09-03T18:20:09.429Z</time>
      </trkpt>
      <trkpt lat="51.812349" lon="4.336074">
        <ele>0.960803</ele>
        <time>2026-09-03T18:20:16.221Z</time>
      </trkpt>
      <trkpt lat="51.812424" lon="4.336197">
        <ele>0.970263</ele>
        <time>2026-09-03T18:20:17.906Z</time>
      </trkpt>
      <trkpt lat="51.812644" lon="4.336413">
        <ele>0.993059</ele>
        <time>2026-09-03T18:20:21.874Z</time>
      </trkpt>
      <trkpt lat="51.812874" lon="4.336638">
        <ele>1.016868</ele>
        <time>2026-09-03T18:20:25.771Z</time>
      </trkpt>
      <trkpt lat="51.813062" lon="4.336823">
        <ele>1.036360</ele>
        <time>2026-09-03T18:20:28.677Z</time>
      </trkpt>
      <trkpt lat="51.813678" lon="4.337414">
        <ele>1.093486</ele>
        <time>2026-09-03T18:20:38.530Z</time>
      </trkpt>
      <trkpt lat="51.814140" lon="4.337927">
        <ele>1.137758</ele>
        <time>2026-09-03T18:20:47.038Z</time>
      </trkpt>
      <trkpt lat="51.814218" lon="4.338099">
        <ele>1.148176</ele>
        <time>2026-09-03T18:20:49.797Z</time>
      </trkpt>
      <trkpt lat="51.814635" lon="4.338575">
        <ele>1.190900</ele>
        <time>2026-09-03T18:21:01.061Z</time>
      </trkpt>
      <trkpt lat="51.814668" lon="4.338669">
        <ele>1.198717</ele>
        <time>2026-09-03T18:21:02.573Z</time>
      </trkpt>
      <trkpt lat="51.814699" lon="4.338672">
        <ele>1.202350</ele>
        <time>2026-09-03T18:21:03.285Z</time>
      </trkpt>
      <trkpt lat="51.814737" lon="4.338601">
        <ele>1.209142</ele>
        <time>2026-09-03T18:21:04.641Z</time>
      </trkpt>
      <trkpt lat="51.814774" lon="4.338520">
        <ele>1.216426</ele>
        <time>2026-09-03T18:21:06.062Z</time>
      </trkpt>
      <trkpt lat="51.814945" lon="4.338719">
        <ele>1.241069</ele>
        <time>2026-09-03T18:21:10.991Z</time>
      </trkpt>
      <trkpt lat="51.815157" lon="4.338733">
        <ele>1.265891</ele>
        <time>2026-09-03T18:21:15.975Z</time>
      </trkpt>
      <trkpt lat="51.815203" lon="4.338765">
        <ele>1.271749</ele>
        <time>2026-09-03T18:21:17.103Z</time>
      </trkpt>
      <trkpt lat="51.815313" lon="4.338895">
        <ele>1.287686</ele>
        <time>2026-09-03T18:21:20.087Z</time>
      </trkpt>
      <trkpt lat="51.815434" lon="4.339038">
        <ele>1.305216</ele>
        <time>2026-09-03T18:21:23.232Z</time>
      </trkpt>
      <trkpt lat="51.815508" lon="4.338866">
        <ele>1.320371</ele>
        <time>2026-09-03T18:21:25.149Z</time>
      </trkpt>
      <trkpt lat="51.815580" lon="4.338777">
        <ele>1.330972</ele>
        <time>2026-09-03T18:21:26.436Z</time>
      </trkpt>
      <trkpt lat="51.815714" lon="4.338714">
        <ele>1.347297</ele>
        <time>2026-09-03T18:21:28.346Z</time>
      </trkpt>
      <trkpt lat="51.816034" lon="4.338733">
        <ele>1.384757</ele>
        <time>2026-09-03T18:21:32.575Z</time>
      </trkpt>
      <trkpt lat="51.816197" lon="4.338666">
        <ele>1.355795</ele>
        <time>2026-09-03T18:21:35.613Z</time>
      </trkpt>
      <trkpt lat="51.816287" lon="4.338541">
        <ele>1.305506</ele>
        <time>2026-09-03T18:21:37.742Z</time>
      </trkpt>
      <trkpt lat="51.816700" lon="4.338452">
        <ele>1.128870</ele>
        <time>2026-09-03T18:21:43.532Z</time>
      </trkpt>
      <trkpt lat="51.816868" lon="4.338346">
        <ele>1.052422</ele>
        <time>2026-09-03T18:21:46.029Z</time>
      </trkpt>
      <trkpt lat="51.817051" lon="4.338168">
        <ele>0.961895</ele>
        <time>2026-09-03T18:21:49.000Z</time>
      </trkpt>
      <trkpt lat="51.817235" lon="4.338094">
        <ele>0.881515</ele>
        <time>2026-09-03T18:21:51.642Z</time>
      </trkpt>
      <trkpt lat="51.817338" lon="4.338091">
        <ele>0.837841</ele>
        <time>2026-09-03T18:21:53.043Z</time>
      </trkpt>
      <trkpt lat="51.817327" lon="4.338247">
        <ele>0.796693</ele>
        <time>2026-09-03T18:21:54.941Z</time>
      </trkpt>
      <trkpt lat="51.817350" lon="4.338396">
        <ele>0.756446</ele>
        <time>2026-09-03T18:21:56.813Z</time>
      </trkpt>
      <trkpt lat="51.817536" lon="4.339257">
        <ele>0.659706</ele>
        <time>2026-09-03T18:22:08.569Z</time>
      </trkpt>
      <trkpt lat="51.817623" lon="4.339436">
        <ele>0.674534</ele>
        <time>2026-09-03T18:22:11.627Z</time>
      </trkpt>
      <trkpt lat="51.817668" lon="4.339499">
        <ele>0.680803</ele>
        <time>2026-09-03T18:22:12.932Z</time>
      </trkpt>
      <trkpt lat="51.817717" lon="4.339512">
        <ele>0.686034</ele>
        <time>2026-09-03T18:22:14.011Z</time>
      </trkpt>
      <trkpt lat="51.817730" lon="4.339831">
        <ele>0.706851</ele>
        <time>2026-09-03T18:22:17.215Z</time>
      </trkpt>
      <trkpt lat="51.817791" lon="4.340143">
        <ele>0.728160</ele>
        <time>2026-09-03T18:22:20.493Z</time>
      </trkpt>
      <trkpt lat="51.817759" lon="4.340299">
        <ele>0.738863</ele>
        <time>2026-09-03T18:22:22.080Z</time>
      </trkpt>
      <trkpt lat="51.817853" lon="4.341320">
        <ele>0.806082</ele>
        <time>2026-09-03T18:22:31.584Z</time>
      </trkpt>
      <trkpt lat="51.818318" lon="4.345122">
        <ele>0.364490</ele>
        <time>2026-09-03T18:23:05.120Z</time>
      </trkpt>
      <trkpt lat="51.818535" lon="4.346132">
        <ele>0.284449</ele>
        <time>2026-09-03T18:23:14.602Z</time>
      </trkpt>
      <trkpt lat="51.818875" lon="4.347953">
        <ele>0.202124</ele>
        <time>2026-09-03T18:23:31.981Z</time>
      </trkpt>
      <trkpt lat="51.819226" lon="4.349559">
        <ele>0.202370</ele>
        <time>2026-09-03T18:23:47.636Z</time>
      </trkpt>
      <trkpt lat="51.819477" lon="4.351016">
        <ele>0.318430</ele>
        <time>2026-09-03T18:24:01.457Z</time>
      </trkpt>
      <trkpt lat="51.819663" lon="4.351817">
        <ele>0.408081</ele>
        <time>2026-09-03T18:24:09.609Z</time>
      </trkpt>
      <trkpt lat="51.819811" lon="4.352337">
        <ele>0.468062</ele>
        <time>2026-09-03T18:24:15.264Z</time>
      </trkpt>
      <trkpt lat="51.820018" lon="4.352917">
        <ele>0.530466</ele>
        <time>2026-09-03T18:24:22.043Z</time>
      </trkpt>
      <trkpt lat="51.820088" lon="4.353032">
        <ele>0.543130</ele>
        <time>2026-09-03T18:24:23.705Z</time>
      </trkpt>
      <trkpt lat="51.820276" lon="4.353209">
        <ele>0.570743</ele>
        <time>2026-09-03T18:24:27.277Z</time>
      </trkpt>
      <trkpt lat="51.820740" lon="4.353531">
        <ele>0.634835</ele>
        <time>2026-09-03T18:25:23.998Z</time>
      </trkpt>
      <trkpt lat="51.820882" lon="4.353772">
        <ele>0.660960</ele>
        <time>2026-09-03T18:25:27.145Z</time>
      </trkpt>
      <trkpt lat="51.820929" lon="4.353908">
        <ele>0.673186</ele>
        <time>2026-09-03T18:25:28.596Z</time>
      </trkpt>
      <trkpt lat="51.820996" lon="4.354358">
        <ele>0.709506</ele>
        <time>2026-09-03T18:25:32.776Z</time>
      </trkpt>
      <trkpt lat="51.820807" lon="4.354929">
        <ele>0.687324</ele>
        <time>2026-09-03T18:25:38.415Z</time>
      </trkpt>
      <trkpt lat="51.820535" lon="4.355432">
        <ele>0.584802</ele>
        <time>2026-09-03T18:25:44.069Z</time>
      </trkpt>
      <trkpt lat="51.820132" lon="4.356637">
        <ele>0.374627</ele>
        <time>2026-09-03T18:25:55.640Z</time>
      </trkpt>
      <trkpt lat="51.819988" lon="4.357216">
        <ele>0.287173</ele>
        <time>2026-09-03T18:26:01.113Z</time>
      </trkpt>
      <trkpt lat="51.819906" lon="4.357574">
        <ele>0.275464</ele>
        <time>2026-09-03T18:26:04.497Z</time>
      </trkpt>
      <trkpt lat="51.819566" lon="4.359643">
        <ele>0.209802</ele>
        <time>2026-09-03T18:26:24.096Z</time>
      </trkpt>
      <trkpt lat="51.818939" lon="4.362737">
        <ele>0.190087</ele>
        <time>2026-09-03T18:26:53.902Z</time>
      </trkpt>
      <trkpt lat="51.818910" lon="4.362953">
        <ele>0.184287</ele>
        <time>2026-09-03T18:26:55.928Z</time>
      </trkpt>
      <trkpt lat="51.818819" lon="4.365667">
        <ele>0.113386</ele>
        <time>2026-09-03T18:27:20.583Z</time>
      </trkpt>
      <trkpt lat="51.818792" lon="4.365800">
        <ele>0.110771</ele>
        <time>2026-09-03T18:27:21.831Z</time>
      </trkpt>
      <trkpt lat="51.818566" lon="4.366419">
        <ele>0.097342</ele>
        <time>2026-09-03T18:27:28.255Z</time>
      </trkpt>
      <trkpt lat="51.818528" lon="4.366784">
        <ele>0.090428</ele>
        <time>2026-09-03T18:27:31.581Z</time>
      </trkpt>
      <trkpt lat="51.818530" lon="4.367013">
        <ele>0.086150</ele>
        <time>2026-09-03T18:27:33.641Z</time>
      </trkpt>
      <trkpt lat="51.818574" lon="4.367147">
        <ele>0.083316</ele>
        <time>2026-09-03T18:27:35.003Z</time>
      </trkpt>
      <trkpt lat="51.818851" lon="4.367638">
        <ele>0.070899</ele>
        <time>2026-09-03T18:27:41.020Z</time>
      </trkpt>
      <trkpt lat="51.818908" lon="4.367868">
        <ele>0.066270</ele>
        <time>2026-09-03T18:27:43.290Z</time>
      </trkpt>
      <trkpt lat="51.819874" lon="4.370006">
        <ele>0.158688</ele>
        <time>2026-09-03T18:28:08.106Z</time>
      </trkpt>
      <trkpt lat="51.820351" lon="4.371132">
        <ele>0.149095</ele>
        <time>2026-09-03T18:28:20.601Z</time>
      </trkpt>
      <trkpt lat="51.820827" lon="4.372110">
        <ele>0.092948</ele>
        <time>2026-09-03T18:28:31.710Z</time>
      </trkpt>
      <trkpt lat="51.820993" lon="4.372522">
        <ele>0.070766</ele>
        <time>2026-09-03T18:28:36.107Z</time>
      </trkpt>
      <trkpt lat="51.821050" lon="4.373220">
        <ele>0.058366</ele>
        <time>2026-09-03T18:28:42.399Z</time>
      </trkpt>
      <trkpt lat="51.821094" lon="4.373370">
        <ele>0.061485</ele>
        <time>2026-09-03T18:28:43.901Z</time>
      </trkpt>
      <trkpt lat="51.821265" lon="4.373753">
        <ele>0.070362</ele>
        <time>2026-09-03T18:28:48.184Z</time>
      </trkpt>
      <trkpt lat="51.821560" lon="4.374412">
        <ele>0.085650</ele>
        <time>2026-09-03T18:28:55.696Z</time>
      </trkpt>
      <trkpt lat="51.821847" lon="4.374538">
        <ele>0.094689</ele>
        <time>2026-09-03T18:29:00.206Z</time>
      </trkpt>
      <trkpt lat="51.821935" lon="4.374624">
        <ele>0.097814</ele>
        <time>2026-09-03T18:29:01.785Z</time>
      </trkpt>
      <trkpt lat="51.823913" lon="4.378920">
        <ele>0.358497</ele>
        <time>2026-09-03T18:29:52.415Z</time>
      </trkpt>
      <trkpt lat="51.824641" lon="4.380228">
        <ele>0.351372</ele>
        <time>2026-09-03T18:30:08.325Z</time>
      </trkpt>
      <trkpt lat="51.825984" lon="4.383620">
        <ele>0.273149</ele>
        <time>2026-09-03T18:30:44.153Z</time>
      </trkpt>
      <trkpt lat="51.826239" lon="4.384610">
        <ele>0.292976</ele>
        <time>2026-09-03T18:30:54.734Z</time>
      </trkpt>
      <trkpt lat="51.826324" lon="4.384723">
        <ele>0.301867</ele>
        <time>2026-09-03T18:30:56.526Z</time>
      </trkpt>
      <trkpt lat="51.826659" lon="4.385336">
        <ele>0.342739</ele>
        <time>2026-09-03T18:31:04.573Z</time>
      </trkpt>
      <trkpt lat="51.826740" lon="4.385381">
        <ele>0.349660</ele>
        <time>2026-09-03T18:31:05.963Z</time>
      </trkpt>
      <trkpt lat="51.827598" lon="4.386604">
        <ele>0.428106</ele>
        <time>2026-09-03T18:31:29.015Z</time>
      </trkpt>
      <trkpt lat="51.827878" lon="4.387168">
        <ele>0.394592</ele>
        <time>2026-09-03T18:31:37.581Z</time>
      </trkpt>
      <trkpt lat="51.829251" lon="4.389998">
        <ele>0.344654</ele>
        <time>2026-09-03T18:32:22.543Z</time>
      </trkpt>
      <trkpt lat="51.829978" lon="4.391592">
        <ele>0.479685</ele>
        <time>2026-09-03T18:32:47.502Z</time>
      </trkpt>
      <trkpt lat="51.829981" lon="4.391599">
        <ele>0.480992</ele>
        <time>2026-09-03T18:32:47.611Z</time>
      </trkpt>
      <trkpt lat="51.830728" lon="4.393435">
        <ele>0.818281</ele>
        <time>2026-09-03T18:33:16.597Z</time>
      </trkpt>
      <trkpt lat="51.830897" lon="4.393800">
        <ele>0.846911</ele>
        <time>2026-09-03T18:33:22.845Z</time>
      </trkpt>
      <trkpt lat="51.831013" lon="4.393712">
        <ele>0.856105</ele>
        <time>2026-09-03T18:33:24.964Z</time>
      </trkpt>
      <trkpt lat="51.831127" lon="4.393763">
        <ele>0.864592</ele>
        <time>2026-09-03T18:33:26.900Z</time>
      </trkpt>
      <trkpt lat="51.831223" lon="4.393764">
        <ele>0.871481</ele>
        <time>2026-09-03T18:33:28.423Z</time>
      </trkpt>
      <trkpt lat="51.831463" lon="4.393617">
        <ele>0.889895</ele>
        <time>2026-09-03T18:33:32.549Z</time>
      </trkpt>
      <trkpt lat="51.831701" lon="4.393402">
        <ele>0.909455</ele>
        <time>2026-09-03T18:33:36.843Z</time>
      </trkpt>
      <trkpt lat="51.832125" lon="4.392899">
        <ele>0.947181</ele>
        <time>2026-09-03T18:33:44.380Z</time>
      </trkpt>
      <trkpt lat="51.832804" lon="4.391778">
        <ele>0.819913</ele>
        <time>2026-09-03T18:33:57.211Z</time>
      </trkpt>
      <trkpt lat="51.832964" lon="4.391425">
        <ele>0.772994</ele>
        <time>2026-09-03T18:34:00.833Z</time>
      </trkpt>
      <trkpt lat="51.833166" lon="4.390744">
        <ele>0.692034</ele>
        <time>2026-09-03T18:34:07.257Z</time>
      </trkpt>
      <trkpt lat="51.833440" lon="4.389373">
        <ele>0.997805</ele>
        <time>2026-09-03T18:34:22.824Z</time>
      </trkpt>
      <trkpt lat="51.833510" lon="4.388695">
        <ele>1.233430</ele>
        <time>2026-09-03T18:34:31.007Z</time>
      </trkpt>
      <trkpt lat="51.833563" lon="4.388488">
        <ele>1.310234</ele>
        <time>2026-09-03T18:34:33.550Z</time>
      </trkpt>
      <trkpt lat="51.833786" lon="4.387912">
        <ele>1.543222</ele>
        <time>2026-09-03T18:34:40.901Z</time>
      </trkpt>
      <trkpt lat="51.833920" lon="4.387529">
        <ele>1.576946</ele>
        <time>2026-09-03T18:34:45.291Z</time>
      </trkpt>
      <trkpt lat="51.834014" lon="4.387134">
        <ele>1.376286</ele>
        <time>2026-09-03T18:34:49.023Z</time>
      </trkpt>
      <trkpt lat="51.834210" lon="4.385987">
        <ele>0.812134</ele>
        <time>2026-09-03T18:34:57.841Z</time>
      </trkpt>
      <trkpt lat="51.834373" lon="4.385211">
        <ele>0.423594</ele>
        <time>2026-09-03T18:35:03.721Z</time>
      </trkpt>
      <trkpt lat="51.834562" lon="4.384681">
        <ele>0.242908</ele>
        <time>2026-09-03T18:35:08.373Z</time>
      </trkpt>
      <trkpt lat="51.835228" lon="4.383339">
        <ele>0.105375</ele>
        <time>2026-09-03T18:35:23.496Z</time>
      </trkpt>
      <trkpt lat="51.835362" lon="4.383027">
        <ele>0.075014</ele>
        <time>2026-09-03T18:35:27.538Z</time>
      </trkpt>
      <trkpt lat="51.835412" lon="4.382834">
        <ele>0.058292</ele>
        <time>2026-09-03T18:35:29.714Z</time>
      </trkpt>
      <trkpt lat="51.835429" lon="4.382476">
        <ele>0.038573</ele>
        <time>2026-09-03T18:35:33.375Z</time>
      </trkpt>
      <trkpt lat="51.835358" lon="4.382157">
        <ele>0.095268</ele>
        <time>2026-09-03T18:35:36.768Z</time>
      </trkpt>
      <trkpt lat="51.835070" lon="4.381706">
        <ele>0.203715</ele>
        <time>2026-09-03T18:35:43.096Z</time>
      </trkpt>
      <trkpt lat="51.835047" lon="4.381601">
        <ele>0.222343</ele>
        <time>2026-09-03T18:35:44.179Z</time>
      </trkpt>
      <trkpt lat="51.835053" lon="4.381496">
        <ele>0.239975</ele>
        <time>2026-09-03T18:35:45.209Z</time>
      </trkpt>
      <trkpt lat="51.835096" lon="4.381222">
        <ele>0.287245</ele>
        <time>2026-09-03T18:35:47.955Z</time>
      </trkpt>
      <trkpt lat="51.835398" lon="4.380443">
        <ele>0.441017</ele>
        <time>2026-09-03T18:35:56.979Z</time>
      </trkpt>
      <trkpt lat="51.835483" lon="4.380280">
        <ele>0.476680</ele>
        <time>2026-09-03T18:35:59.005Z</time>
      </trkpt>
      <trkpt lat="51.838646" lon="4.376548">
        <ele>0.973129</ele>
        <time>2026-09-03T18:36:59.849Z</time>
      </trkpt>
      <trkpt lat="51.838721" lon="4.376426">
        <ele>0.926297</ele>
        <time>2026-09-03T18:37:01.267Z</time>
      </trkpt>
      <trkpt lat="51.839311" lon="4.374983">
        <ele>0.455433</ele>
        <time>2026-09-03T18:37:15.287Z</time>
      </trkpt>
      <trkpt lat="51.839392" lon="4.374930">
        <ele>0.416954</ele>
        <time>2026-09-03T18:37:16.414Z</time>
      </trkpt>
      <trkpt lat="51.839432" lon="4.374922">
        <ele>0.399203</ele>
        <time>2026-09-03T18:37:16.945Z</time>
      </trkpt>
      <trkpt lat="51.839418" lon="4.374631">
        <ele>0.319777</ele>
        <time>2026-09-03T18:37:19.281Z</time>
      </trkpt>
      <trkpt lat="51.839461" lon="4.374251">
        <ele>0.213691</ele>
        <time>2026-09-03T18:37:22.442Z</time>
      </trkpt>
      <trkpt lat="51.839922" lon="4.372821">
        <ele>-0.236690</ele>
        <time>2026-09-03T18:37:35.574Z</time>
      </trkpt>
      <trkpt lat="51.840114" lon="4.371906">
        <ele>-0.506514</ele>
        <time>2026-09-03T18:37:43.603Z</time>
      </trkpt>
      <trkpt lat="51.840093" lon="4.371737">
        <ele>-0.554648</ele>
        <time>2026-09-03T18:37:45.026Z</time>
      </trkpt>
      <trkpt lat="51.840175" lon="4.371485">
        <ele>-0.566055</ele>
        <time>2026-09-03T18:37:47.471Z</time>
      </trkpt>
      <trkpt lat="51.840371" lon="4.370116">
        <ele>-0.590805</ele>
        <time>2026-09-03T18:38:00.023Z</time>
      </trkpt>
      <trkpt lat="51.840451" lon="4.369229">
        <ele>-0.606592</ele>
        <time>2026-09-03T18:38:08.826Z</time>
      </trkpt>
      <trkpt lat="51.840457" lon="4.368942">
        <ele>-0.611649</ele>
        <time>2026-09-03T18:38:12.576Z</time>
      </trkpt>
      <trkpt lat="51.840308" lon="4.364944">
        <ele>-0.577980</ele>
        <time>2026-09-03T18:39:02.859Z</time>
      </trkpt>
      <trkpt lat="51.840304" lon="4.364830">
        <ele>-0.583495</ele>
        <time>2026-09-03T18:39:04.209Z</time>
      </trkpt>
      <trkpt lat="51.840208" lon="4.361730">
        <ele>-0.527573</ele>
        <time>2026-09-03T18:39:42.039Z</time>
      </trkpt>
      <trkpt lat="51.840233" lon="4.361592">
        <ele>-0.512416</ele>
        <time>2026-09-03T18:39:43.997Z</time>
      </trkpt>
      <trkpt lat="51.840329" lon="4.361357">
        <ele>-0.482725</ele>
        <time>2026-09-03T18:39:47.817Z</time>
      </trkpt>
      <trkpt lat="51.840427" lon="4.361193">
        <ele>-0.458679</ele>
        <time>2026-09-03T18:39:50.960Z</time>
      </trkpt>
      <trkpt lat="51.840526" lon="4.361089">
        <ele>-0.438547</ele>
        <time>2026-09-03T18:39:53.605Z</time>
      </trkpt>
      <trkpt lat="51.842582" lon="4.360153">
        <ele>0.044732</ele>
        <time>2026-09-03T18:40:39.457Z</time>
      </trkpt>
      <trkpt lat="51.842658" lon="4.359993">
        <ele>0.077005</ele>
        <time>2026-09-03T18:40:41.323Z</time>
      </trkpt>
      <trkpt lat="51.842680" lon="4.359846">
        <ele>0.115976</ele>
        <time>2026-09-03T18:40:42.637Z</time>
      </trkpt>
      <trkpt lat="51.842661" lon="4.359660">
        <ele>0.164551</ele>
        <time>2026-09-03T18:40:44.284Z</time>
      </trkpt>
      <trkpt lat="51.842496" lon="4.359002">
        <ele>0.347522</ele>
        <time>2026-09-03T18:40:50.424Z</time>
      </trkpt>
      <trkpt lat="51.842472" lon="4.358710">
        <ele>0.423421</ele>
        <time>2026-09-03T18:40:53.067Z</time>
      </trkpt>
      <trkpt lat="51.842485" lon="4.358325">
        <ele>0.522768</ele>
        <time>2026-09-03T18:40:57.032Z</time>
      </trkpt>
      <trkpt lat="51.843144" lon="4.358255">
        <ele>0.798189</ele>
        <time>2026-09-03T18:41:12.681Z</time>
      </trkpt>
      <trkpt lat="51.843216" lon="4.358262">
        <ele>0.835694</ele>
        <time>2026-09-03T18:41:14.443Z</time>
      </trkpt>
      <trkpt lat="51.843379" lon="4.358369">
        <ele>0.994268</ele>
        <time>2026-09-03T18:41:18.856Z</time>
      </trkpt>
      <trkpt lat="51.843409" lon="4.358397">
        <ele>1.025487</ele>
        <time>2026-09-03T18:41:19.781Z</time>
      </trkpt>
      <trkpt lat="51.844003" lon="4.358794">
        <ele>1.604847</ele>
        <time>2026-09-03T18:41:35.814Z</time>
      </trkpt>
      <trkpt lat="51.844155" lon="4.358792">
        <ele>1.741884</ele>
        <time>2026-09-03T18:41:39.672Z</time>
      </trkpt>
      <trkpt lat="51.844299" lon="4.358678">
        <ele>1.886398</ele>
        <time>2026-09-03T18:41:43.776Z</time>
      </trkpt>
      <trkpt lat="51.844448" lon="4.358180">
        <ele>2.194580</ele>
        <time>2026-09-03T18:41:49.810Z</time>
      </trkpt>
      <trkpt lat="51.844823" lon="4.356866">
        <ele>2.620198</ele>
        <time>2026-09-03T18:42:03.927Z</time>
      </trkpt>
      <trkpt lat="51.845052" lon="4.356364">
        <ele>2.730449</ele>
        <time>2026-09-03T18:42:09.741Z</time>
      </trkpt>
      <trkpt lat="51.846208" lon="4.354011">
        <ele>3.438148</ele>
        <time>2026-09-03T18:42:39.609Z</time>
      </trkpt>
      <trkpt lat="51.846283" lon="4.353870">
        <ele>3.490123</ele>
        <time>2026-09-03T18:42:41.614Z</time>
      </trkpt>
      <trkpt lat="51.846300" lon="4.353839">
        <ele>3.501702</ele>
        <time>2026-09-03T18:42:42.069Z</time>
      </trkpt>
      <trkpt lat="51.846868" lon="4.352696">
        <ele>3.871902</ele>
        <time>2026-09-03T18:42:57.906Z</time>
      </trkpt>
      <trkpt lat="51.846995" lon="4.352438">
        <ele>3.938082</ele>
        <time>2026-09-03T18:43:01.547Z</time>
      </trkpt>
      <trkpt lat="51.847500" lon="4.351381">
        <ele>4.206142</ele>
        <time>2026-09-03T18:43:14.847Z</time>
      </trkpt>
      <trkpt lat="51.847617" lon="4.351146">
        <ele>4.266689</ele>
        <time>2026-09-03T18:43:17.595Z</time>
      </trkpt>
      <trkpt lat="51.848156" lon="4.350035">
        <ele>4.168120</ele>
        <time>2026-09-03T18:43:30.425Z</time>
      </trkpt>
      <trkpt lat="51.848170" lon="4.350010">
        <ele>4.161624</ele>
        <time>2026-09-03T18:43:30.717Z</time>
      </trkpt>
      <trkpt lat="51.848316" lon="4.349710">
        <ele>4.088101</ele>
        <time>2026-09-03T18:43:33.849Z</time>
      </trkpt>
      <trkpt lat="51.848659" lon="4.349023">
        <ele>3.918050</ele>
        <time>2026-09-03T18:43:40.933Z</time>
      </trkpt>
      <trkpt lat="51.848843" lon="4.348672">
        <ele>3.829428</ele>
        <time>2026-09-03T18:43:44.762Z</time>
      </trkpt>
      <trkpt lat="51.849208" lon="4.348092">
        <ele>3.769362</ele>
        <time>2026-09-03T18:43:51.788Z</time>
      </trkpt>
      <trkpt lat="51.851843" lon="4.344468">
        <ele>3.755485</ele>
        <time>2026-09-03T18:44:43.834Z</time>
      </trkpt>
      <trkpt lat="51.851857" lon="4.344452">
        <ele>3.754677</ele>
        <time>2026-09-03T18:44:44.054Z</time>
      </trkpt>
      <trkpt lat="51.852627" lon="4.343390">
        <ele>3.706980</ele>
        <time>2026-09-03T18:44:58.696Z</time>
      </trkpt>
      <trkpt lat="51.852982" lon="4.342902">
        <ele>3.685020</ele>
        <time>2026-09-03T18:45:05.512Z</time>
      </trkpt>
      <trkpt lat="51.853366" lon="4.342375">
        <ele>3.544095</ele>
        <time>2026-09-03T18:45:12.990Z</time>
      </trkpt>
      <trkpt lat="51.854222" lon="4.341494">
        <ele>3.237437</ele>
        <time>2026-09-03T18:45:26.668Z</time>
      </trkpt>
      <trkpt lat="51.854367" lon="4.341343">
        <ele>3.185314</ele>
        <time>2026-09-03T18:45:28.842Z</time>
      </trkpt>
      <trkpt lat="51.855469" lon="4.340195">
        <ele>2.754703</ele>
        <time>2026-09-03T18:45:47.104Z</time>
      </trkpt>
      <trkpt lat="51.855533" lon="4.340097">
        <ele>2.725451</ele>
        <time>2026-09-03T18:45:48.397Z</time>
      </trkpt>
      <trkpt lat="51.855585" lon="4.339976">
        <ele>2.695217</ele>
        <time>2026-09-03T18:45:49.718Z</time>
      </trkpt>
      <trkpt lat="51.855614" lon="4.339684">
        <ele>2.634558</ele>
        <time>2026-09-03T18:45:52.172Z</time>
      </trkpt>
      <trkpt lat="51.855588" lon="4.339493">
        <ele>2.594443</ele>
        <time>2026-09-03T18:45:53.711Z</time>
      </trkpt>
      <trkpt lat="51.855491" lon="4.339261">
        <ele>2.543062</ele>
        <time>2026-09-03T18:45:55.845Z</time>
      </trkpt>
      <trkpt lat="51.855258" lon="4.338717">
        <ele>2.575815</ele>
        <time>2026-09-03T18:46:01.367Z</time>
      </trkpt>
      <trkpt lat="51.855283" lon="4.338686">
        <ele>2.578338</ele>
        <time>2026-09-03T18:46:01.884Z</time>
      </trkpt>
      <trkpt lat="51.855518" lon="4.338426">
        <ele>2.601138</ele>
        <time>2026-09-03T18:46:06.115Z</time>
      </trkpt>
      <trkpt lat="51.855622" lon="4.338312">
        <ele>2.611198</ele>
        <time>2026-09-03T18:46:08.599Z</time>
      </trkpt>
      <trkpt lat="51.855697" lon="4.338228">
        <ele>2.618504</ele>
        <time>2026-09-03T18:46:10.391Z</time>
      </trkpt>
      <trkpt lat="51.855775" lon="4.338141">
        <ele>2.626091</ele>
        <time>2026-09-03T18:46:12.172Z</time>
      </trkpt>
      <trkpt lat="51.856192" lon="4.337651">
        <ele>2.667365</ele>
        <time>2026-09-03T18:46:19.931Z</time>
      </trkpt>
      <trkpt lat="51.857420" lon="4.336252">
        <ele>3.517382</ele>
        <time>2026-09-03T18:46:48.996Z</time>
      </trkpt>
      <trkpt lat="51.857471" lon="4.336184">
        <ele>3.560654</ele>
        <time>2026-09-03T18:46:50.185Z</time>
      </trkpt>
      <trkpt lat="51.857631" lon="4.336271">
        <ele>3.671201</ele>
        <time>2026-09-03T18:46:52.907Z</time>
      </trkpt>
      <trkpt lat="51.858321" lon="4.337472">
        <ele>3.736973</ele>
        <time>2026-09-03T18:47:06.575Z</time>
      </trkpt>
      <trkpt lat="51.858370" lon="4.337472">
        <ele>3.728310</ele>
        <time>2026-09-03T18:47:07.193Z</time>
      </trkpt>
      <trkpt lat="51.858391" lon="4.337517">
        <ele>3.722152</ele>
        <time>2026-09-03T18:47:07.653Z</time>
      </trkpt>
      <trkpt lat="51.858454" lon="4.337658">
        <ele>3.703150</ele>
        <time>2026-09-03T18:47:09.045Z</time>
      </trkpt>
      <trkpt lat="51.858962" lon="4.338889">
        <ele>3.565190</ele>
        <time>2026-09-03T18:47:33.706Z</time>
      </trkpt>
      <trkpt lat="51.859995" lon="4.341392">
        <ele>4.927217</ele>
        <time>2026-09-03T18:48:32.203Z</time>
      </trkpt>
      <trkpt lat="51.860534" lon="4.342698">
        <ele>5.394196</ele>
        <time>2026-09-03T18:49:01.849Z</time>
      </trkpt>
      <trkpt lat="51.860565" lon="4.342779">
        <ele>5.422526</ele>
        <time>2026-09-03T18:49:02.854Z</time>
      </trkpt>
      <trkpt lat="51.860755" lon="4.343478">
        <ele>5.649568</ele>
        <time>2026-09-03T18:49:10.038Z</time>
      </trkpt>
      <trkpt lat="51.860857" lon="4.344145">
        <ele>5.742088</ele>
        <time>2026-09-03T18:49:16.269Z</time>
      </trkpt>
      <trkpt lat="51.860883" lon="4.344383">
        <ele>5.735470</ele>
        <time>2026-09-03T18:49:18.501Z</time>
      </trkpt>
      <trkpt lat="51.860808" lon="4.344552">
        <ele>5.729771</ele>
        <time>2026-09-03T18:49:20.412Z</time>
      </trkpt>
      <trkpt lat="51.860590" lon="4.343815">
        <ele>5.707394</ele>
        <time>2026-09-03T18:49:27.228Z</time>
      </trkpt>
      <trkpt lat="51.860399" lon="4.342925">
        <ele>5.681593</ele>
        <time>2026-09-03T18:49:35.430Z</time>
      </trkpt>
      <trkpt lat="51.860381" lon="4.342725">
        <ele>5.676058</ele>
        <time>2026-09-03T18:49:37.467Z</time>
      </trkpt>
      <trkpt lat="51.860420" lon="4.342609">
        <ele>5.672441</ele>
        <time>2026-09-03T18:49:38.817Z</time>
      </trkpt>
      <trkpt lat="51.860461" lon="4.342568">
        <ele>5.680981</ele>
        <time>2026-09-03T18:49:39.635Z</time>
      </trkpt>
      <trkpt lat="51.860604" lon="4.342423">
        <ele>5.728327</ele>
        <time>2026-09-03T18:49:43.449Z</time>
      </trkpt>
      <trkpt lat="51.860629" lon="4.342389">
        <ele>5.737489</ele>
        <time>2026-09-03T18:49:43.983Z</time>
      </trkpt>
      <trkpt lat="51.860731" lon="4.342421">
        <ele>5.766644</ele>
        <time>2026-09-03T18:49:45.832Z</time>
      </trkpt>
      <trkpt lat="51.860797" lon="4.342544">
        <ele>5.794882</ele>
        <time>2026-09-03T18:49:47.582Z</time>
      </trkpt>
      <trkpt lat="51.861016" lon="4.343329">
        <ele>5.944158</ele>
        <time>2026-09-03T18:49:56.322Z</time>
      </trkpt>
      <trkpt lat="51.861074" lon="4.343791">
        <ele>6.025859</ele>
        <time>2026-09-03T18:50:00.898Z</time>
      </trkpt>
      <trkpt lat="51.861112" lon="4.343907">
        <ele>6.048615</ele>
        <time>2026-09-03T18:50:02.229Z</time>
      </trkpt>
      <trkpt lat="51.861215" lon="4.344066">
        <ele>6.088548</ele>
        <time>2026-09-03T18:50:04.643Z</time>
      </trkpt>
      <trkpt lat="51.861245" lon="4.344197">
        <ele>6.112760</ele>
        <time>2026-09-03T18:50:06.048Z</time>
      </trkpt>
      <trkpt lat="51.861579" lon="4.343994">
        <ele>6.169647</ele>
        <time>2026-09-03T18:50:11.486Z</time>
      </trkpt>
      <trkpt lat="51.862069" lon="4.343621">
        <ele>6.141096</ele>
        <time>2026-09-03T18:50:19.070Z</time>
      </trkpt>
      <trkpt lat="51.862264" lon="4.343623">
        <ele>6.130813</ele>
        <time>2026-09-03T18:50:21.743Z</time>
      </trkpt>
      <trkpt lat="51.862331" lon="4.343608">
        <ele>6.127247</ele>
        <time>2026-09-03T18:50:22.658Z</time>
      </trkpt>
      <trkpt lat="51.863339" lon="4.342991">
        <ele>6.060000</ele>
        <time>2026-09-03T18:50:38.579Z</time>
      </trkpt>
      <trkpt lat="51.863751" lon="4.342750">
        <ele>6.015437</ele>
        <time>2026-09-03T18:50:45.568Z</time>
      </trkpt>
      <trkpt lat="51.864469" lon="4.342288">
        <ele>5.936840</ele>
        <time>2026-09-03T18:50:56.908Z</time>
      </trkpt>
      <trkpt lat="51.865087" lon="4.341908">
        <ele>5.797136</ele>
        <time>2026-09-03T18:51:05.730Z</time>
      </trkpt>
      <trkpt lat="51.866193" lon="4.341300">
        <ele>5.382195</ele>
        <time>2026-09-03T18:51:21.138Z</time>
      </trkpt>
      <trkpt lat="51.866592" lon="4.341139">
        <ele>5.250818</ele>
        <time>2026-09-03T18:51:27.002Z</time>
      </trkpt>
      <trkpt lat="51.867795" lon="4.340785">
        <ele>5.087542</ele>
        <time>2026-09-03T18:51:45.716Z</time>
      </trkpt>
      <trkpt lat="51.868072" lon="4.340798">
        <ele>5.050536</ele>
        <time>2026-09-03T18:51:49.852Z</time>
      </trkpt>
      <trkpt lat="51.868338" lon="4.340862">
        <ele>4.968709</ele>
        <time>2026-09-03T18:51:53.433Z</time>
      </trkpt>
      <trkpt lat="51.869073" lon="4.341117">
        <ele>3.920683</ele>
        <time>2026-09-03T18:52:02.605Z</time>
      </trkpt>
      <trkpt lat="51.869205" lon="4.341184">
        <ele>3.727815</ele>
        <time>2026-09-03T18:52:04.186Z</time>
      </trkpt>
      <trkpt lat="51.869374" lon="4.341277">
        <ele>3.478955</ele>
        <time>2026-09-03T18:52:06.190Z</time>
      </trkpt>
      <trkpt lat="51.869719" lon="4.341418">
        <ele>2.982859</ele>
        <time>2026-09-03T18:52:10.108Z</time>
      </trkpt>
      <trkpt lat="51.870066" lon="4.341784">
        <ele>2.431653</ele>
        <time>2026-09-03T18:52:14.557Z</time>
      </trkpt>
      <trkpt lat="51.870149" lon="4.341881">
        <ele>2.324084</ele>
        <time>2026-09-03T18:52:15.647Z</time>
      </trkpt>
      <trkpt lat="51.870887" lon="4.342848">
        <ele>1.326420</ele>
        <time>2026-09-03T18:52:26.586Z</time>
      </trkpt>
      <trkpt lat="51.872056" lon="4.344395">
        <ele>0.643985</ele>
        <time>2026-09-03T18:52:49.070Z</time>
      </trkpt>
      <trkpt lat="51.872196" lon="4.344649">
        <ele>0.649644</ele>
        <time>2026-09-03T18:52:52.151Z</time>
      </trkpt>
      <trkpt lat="51.872275" lon="4.344985">
        <ele>0.655620</ele>
        <time>2026-09-03T18:52:55.423Z</time>
      </trkpt>
      <trkpt lat="51.872255" lon="4.345356">
        <ele>0.661810</ele>
        <time>2026-09-03T18:52:58.860Z</time>
      </trkpt>
      <trkpt lat="51.872197" lon="4.345555">
        <ele>0.665467</ele>
        <time>2026-09-03T18:53:00.921Z</time>
      </trkpt>
      <trkpt lat="51.871978" lon="4.346020">
        <ele>0.644818</ele>
        <time>2026-09-03T18:53:06.555Z</time>
      </trkpt>
      <trkpt lat="51.872143" lon="4.346308">
        <ele>0.614371</ele>
        <time>2026-09-03T18:53:10.355Z</time>
      </trkpt>
      <trkpt lat="51.872209" lon="4.346424">
        <ele>0.602146</ele>
        <time>2026-09-03T18:53:11.910Z</time>
      </trkpt>
      <trkpt lat="51.872298" lon="4.346584">
        <ele>0.585457</ele>
        <time>2026-09-03T18:53:14.859Z</time>
      </trkpt>
      <trkpt lat="51.872808" lon="4.347516">
        <ele>0.488949</ele>
        <time>2026-09-03T18:53:25.601Z</time>
      </trkpt>
      <trkpt lat="51.872853" lon="4.347764">
        <ele>0.468917</ele>
        <time>2026-09-03T18:53:27.811Z</time>
      </trkpt>
      <trkpt lat="51.872822" lon="4.348016">
        <ele>0.449005</ele>
        <time>2026-09-03T18:53:29.956Z</time>
      </trkpt>
      <trkpt lat="51.872719" lon="4.348541">
        <ele>0.377288</ele>
        <time>2026-09-03T18:53:34.387Z</time>
      </trkpt>
      <trkpt lat="51.872736" lon="4.348766">
        <ele>0.346216</ele>
        <time>2026-09-03T18:53:36.199Z</time>
      </trkpt>
      <trkpt lat="51.873210" lon="4.349794">
        <ele>0.170340</ele>
        <time>2026-09-03T18:53:46.016Z</time>
      </trkpt>
      <trkpt lat="51.873357" lon="4.350265">
        <ele>0.097996</ele>
        <time>2026-09-03T18:53:51.237Z</time>
      </trkpt>
      <trkpt lat="51.873529" lon="4.351051">
        <ele>0.218454</ele>
        <time>2026-09-03T18:54:01.504Z</time>
      </trkpt>
      <trkpt lat="51.873657" lon="4.351210">
        <ele>0.320373</ele>
        <time>2026-09-03T18:54:04.633Z</time>
      </trkpt>
      <trkpt lat="51.873839" lon="4.351300">
        <ele>0.440606</ele>
        <time>2026-09-03T18:54:08.112Z</time>
      </trkpt>
      <trkpt lat="51.874074" lon="4.351401">
        <ele>0.594224</ele>
        <time>2026-09-03T18:54:12.360Z</time>
      </trkpt>
      <trkpt lat="51.874181" lon="4.351516">
        <ele>0.675359</ele>
        <time>2026-09-03T18:54:14.565Z</time>
      </trkpt>
      <trkpt lat="51.874188" lon="4.351523">
        <ele>0.680557</ele>
        <time>2026-09-03T18:54:14.692Z</time>
      </trkpt>
      <trkpt lat="51.874271" lon="4.351715">
        <ele>0.771988</ele>
        <time>2026-09-03T18:54:17.185Z</time>
      </trkpt>
      <trkpt lat="51.874342" lon="4.352069">
        <ele>0.917181</ele>
        <time>2026-09-03T18:54:21.122Z</time>
      </trkpt>
      <trkpt lat="51.874389" lon="4.352431">
        <ele>1.061480</ele>
        <time>2026-09-03T18:54:25.138Z</time>
      </trkpt>
      <trkpt lat="51.874459" lon="4.352632">
        <ele>1.151501</ele>
        <time>2026-09-03T18:54:27.526Z</time>
      </trkpt>
      <trkpt lat="51.874497" lon="4.352717">
        <ele>1.184143</ele>
        <time>2026-09-03T18:54:28.563Z</time>
      </trkpt>
      <trkpt lat="51.874601" lon="4.352946">
        <ele>1.213429</ele>
        <time>2026-09-03T18:54:31.208Z</time>
      </trkpt>
      <trkpt lat="51.874633" lon="4.353047">
        <ele>1.225124</ele>
        <time>2026-09-03T18:54:32.198Z</time>
      </trkpt>
      <trkpt lat="51.874709" lon="4.353682">
        <ele>1.291757</ele>
        <time>2026-09-03T18:54:37.724Z</time>
      </trkpt>
      <trkpt lat="51.874688" lon="4.354292">
        <ele>1.354696</ele>
        <time>2026-09-03T18:54:43.504Z</time>
      </trkpt>
      <trkpt lat="51.874627" lon="4.354531">
        <ele>1.381338</ele>
        <time>2026-09-03T18:54:46.200Z</time>
      </trkpt>
      <trkpt lat="51.874406" lon="4.355140">
        <ele>1.454111</ele>
        <time>2026-09-03T18:54:53.415Z</time>
      </trkpt>
      <trkpt lat="51.874210" lon="4.355886">
        <ele>1.345763</ele>
        <time>2026-09-03T18:55:01.159Z</time>
      </trkpt>
      <trkpt lat="51.873928" lon="4.357138">
        <ele>1.015512</ele>
        <time>2026-09-03T18:55:12.552Z</time>
      </trkpt>
      <trkpt lat="51.873907" lon="4.357485">
        <ele>0.929112</ele>
        <time>2026-09-03T18:55:15.029Z</time>
      </trkpt>
      <trkpt lat="51.873904" lon="4.357645">
        <ele>0.889445</ele>
        <time>2026-09-03T18:55:16.750Z</time>
      </trkpt>
      <trkpt lat="51.873898" lon="4.357831">
        <ele>0.843291</ele>
        <time>2026-09-03T18:55:18.745Z</time>
      </trkpt>
      <trkpt lat="51.873889" lon="4.358038">
        <ele>0.791868</ele>
        <time>2026-09-03T18:55:20.980Z</time>
      </trkpt>
      <trkpt lat="51.873883" lon="4.358176">
        <ele>0.758197</ele>
        <time>2026-09-03T18:55:22.488Z</time>
      </trkpt>
      <trkpt lat="51.873880" lon="4.358242">
        <ele>0.747413</ele>
        <time>2026-09-03T18:55:23.004Z</time>
      </trkpt>
      <trkpt lat="51.873896" lon="4.358621">
        <ele>0.685511</ele>
        <time>2026-09-03T18:55:25.992Z</time>
      </trkpt>
      <trkpt lat="51.873954" lon="4.359180">
        <ele>0.593145</ele>
        <time>2026-09-03T18:55:30.579Z</time>
      </trkpt>
      <trkpt lat="51.873956" lon="4.359252">
        <ele>0.581401</ele>
        <time>2026-09-03T18:55:31.192Z</time>
      </trkpt>
      <trkpt lat="51.873956" lon="4.359420">
        <ele>0.554026</ele>
        <time>2026-09-03T18:55:32.550Z</time>
      </trkpt>
      <trkpt lat="51.873951" lon="4.360291">
        <ele>0.412091</ele>
        <time>2026-09-03T18:55:42.551Z</time>
      </trkpt>
      <trkpt lat="51.873787" lon="4.361363">
        <ele>0.398200</ele>
        <time>2026-09-03T18:55:57.864Z</time>
      </trkpt>
      <trkpt lat="51.873696" lon="4.362025">
        <ele>0.637111</ele>
        <time>2026-09-03T18:56:07.699Z</time>
      </trkpt>
      <trkpt lat="51.873694" lon="4.362444">
        <ele>0.784715</ele>
        <time>2026-09-03T18:56:13.773Z</time>
      </trkpt>
      <trkpt lat="51.873779" lon="4.363002">
        <ele>0.987173</ele>
        <time>2026-09-03T18:56:21.921Z</time>
      </trkpt>
      <trkpt lat="51.873950" lon="4.363519">
        <ele>1.193783</ele>
        <time>2026-09-03T18:56:30.066Z</time>
      </trkpt>
      <trkpt lat="51.874212" lon="4.364058">
        <ele>1.208246</ele>
        <time>2026-09-03T18:56:39.441Z</time>
      </trkpt>
      <trkpt lat="51.874268" lon="4.364208">
        <ele>1.157350</ele>
        <time>2026-09-03T18:56:41.702Z</time>
      </trkpt>
      <trkpt lat="51.874285" lon="4.364365">
        <ele>1.111069</ele>
        <time>2026-09-03T18:56:43.699Z</time>
      </trkpt>
      <trkpt lat="51.874272" lon="4.364622">
        <ele>1.036200</ele>
        <time>2026-09-03T18:56:46.801Z</time>
      </trkpt>
      <trkpt lat="51.874124" lon="4.365211">
        <ele>0.851562</ele>
        <time>2026-09-03T18:56:54.061Z</time>
      </trkpt>
      <trkpt lat="51.874108" lon="4.365536">
        <ele>0.756898</ele>
        <time>2026-09-03T18:56:57.661Z</time>
      </trkpt>
      <trkpt lat="51.874133" lon="4.367754">
        <ele>0.054169</ele>
        <time>2026-09-03T18:57:21.335Z</time>
      </trkpt>
      <trkpt lat="51.874208" lon="4.368289">
        <ele>-0.131635</ele>
        <time>2026-09-03T18:57:27.329Z</time>
      </trkpt>
      <trkpt lat="51.874316" lon="4.368662">
        <ele>-0.271163</ele>
        <time>2026-09-03T18:57:32.156Z</time>
      </trkpt>
      <trkpt lat="51.874688" lon="4.369571">
        <ele>-0.405476</ele>
        <time>2026-09-03T18:57:45.948Z</time>
      </trkpt>
      <trkpt lat="51.874700" lon="4.369764">
        <ele>-0.341272</ele>
        <time>2026-09-03T18:57:48.548Z</time>
      </trkpt>
      <trkpt lat="51.874659" lon="4.370125">
        <ele>-0.219782</ele>
        <time>2026-09-03T18:57:53.619Z</time>
      </trkpt>
      <trkpt lat="51.874571" lon="4.370378">
        <ele>-0.123667</ele>
        <time>2026-09-03T18:57:57.729Z</time>
      </trkpt>
      <trkpt lat="51.874480" lon="4.370449">
        <ele>-0.069516</ele>
        <time>2026-09-03T18:58:00.051Z</time>
      </trkpt>
      <trkpt lat="51.874369" lon="4.370460">
        <ele>-0.009896</ele>
        <time>2026-09-03T18:58:02.645Z</time>
      </trkpt>
      <trkpt lat="51.874359" lon="4.370458">
        <ele>-0.004494</ele>
        <time>2026-09-03T18:58:02.867Z</time>
      </trkpt>
      <trkpt lat="51.874180" lon="4.370412">
        <ele>0.092670</ele>
        <time>2026-09-03T18:58:07.108Z</time>
      </trkpt>
      <trkpt lat="51.873767" lon="4.370090">
        <ele>0.338399</ele>
        <time>2026-09-03T18:58:18.057Z</time>
      </trkpt>
      <trkpt lat="51.873537" lon="4.370009">
        <ele>0.419328</ele>
        <time>2026-09-03T18:58:23.433Z</time>
      </trkpt>
      <trkpt lat="51.873303" lon="4.370002">
        <ele>0.286184</ele>
        <time>2026-09-03T18:58:28.540Z</time>
      </trkpt>
      <trkpt lat="51.873135" lon="4.370076">
        <ele>0.187139</ele>
        <time>2026-09-03T18:58:32.259Z</time>
      </trkpt>
      <trkpt lat="51.872878" lon="4.370173">
        <ele>0.037017</ele>
        <time>2026-09-03T18:58:37.748Z</time>
      </trkpt>
      <trkpt lat="51.872632" lon="4.370375">
        <ele>-0.119888</ele>
        <time>2026-09-03T18:58:42.940Z</time>
      </trkpt>
      <trkpt lat="51.871994" lon="4.371176">
        <ele>-0.579116</ele>
        <time>2026-09-03T18:58:56.297Z</time>
      </trkpt>
      <trkpt lat="51.871808" lon="4.371295">
        <ele>-0.746410</ele>
        <time>2026-09-03T18:58:59.516Z</time>
      </trkpt>
      <trkpt lat="51.871555" lon="4.371373">
        <ele>-0.962766</ele>
        <time>2026-09-03T18:59:03.621Z</time>
      </trkpt>
      <trkpt lat="51.871524" lon="4.371700">
        <ele>-1.134365</ele>
        <time>2026-09-03T18:59:07.040Z</time>
      </trkpt>
      <trkpt lat="51.871459" lon="4.372313">
        <ele>-1.456975</ele>
        <time>2026-09-03T18:59:13.514Z</time>
      </trkpt>
      <trkpt lat="51.871468" lon="4.372378">
        <ele>-1.491527</ele>
        <time>2026-09-03T18:59:14.021Z</time>
      </trkpt>
      <trkpt lat="51.871530" lon="4.372469">
        <ele>-1.561818</ele>
        <time>2026-09-03T18:59:15.020Z</time>
      </trkpt>
      <trkpt lat="51.872064" lon="4.373163">
        <ele>-2.056528</ele>
        <time>2026-09-03T18:59:25.098Z</time>
      </trkpt>
      <trkpt lat="51.872165" lon="4.373251">
        <ele>-1.982049</ele>
        <time>2026-09-03T18:59:27.003Z</time>
      </trkpt>
      <trkpt lat="51.872236" lon="4.373339">
        <ele>-1.923989</ele>
        <time>2026-09-03T18:59:28.509Z</time>
      </trkpt>
      <trkpt lat="51.872297" lon="4.373422">
        <ele>-1.872252</ele>
        <time>2026-09-03T18:59:30.364Z</time>
      </trkpt>
      <trkpt lat="51.872349" lon="4.373496">
        <ele>-1.827299</ele>
        <time>2026-09-03T18:59:31.589Z</time>
      </trkpt>
      <trkpt lat="51.872357" lon="4.373527">
        <ele>-1.813827</ele>
        <time>2026-09-03T18:59:31.959Z</time>
      </trkpt>
      <trkpt lat="51.872805" lon="4.374283">
        <ele>-1.393676</ele>
        <time>2026-09-03T18:59:43.757Z</time>
      </trkpt>
      <trkpt lat="51.873115" lon="4.374605">
        <ele>-1.154517</ele>
        <time>2026-09-03T18:59:50.185Z</time>
      </trkpt>
      <trkpt lat="51.873302" lon="4.374734">
        <ele>-1.022521</ele>
        <time>2026-09-03T18:59:53.854Z</time>
      </trkpt>
      <trkpt lat="51.873477" lon="4.374804">
        <ele>-0.899175</ele>
        <time>2026-09-03T18:59:57.123Z</time>
      </trkpt>
      <trkpt lat="51.873632" lon="4.374830">
        <ele>-0.762814</ele>
        <time>2026-09-03T18:59:59.937Z</time>
      </trkpt>
      <trkpt lat="51.876746" lon="4.374583">
        <ele>1.910909</ele>
        <time>2026-09-03T19:00:57.179Z</time>
      </trkpt>
      <trkpt lat="51.876928" lon="4.374522">
        <ele>2.066805</ele>
        <time>2026-09-03T19:01:00.620Z</time>
      </trkpt>
      <trkpt lat="51.877044" lon="4.374447">
        <ele>2.164811</ele>
        <time>2026-09-03T19:01:02.883Z</time>
      </trkpt>
      <trkpt lat="51.877168" lon="4.374436">
        <ele>2.212564</ele>
        <time>2026-09-03T19:01:05.141Z</time>
      </trkpt>
      <trkpt lat="51.877308" lon="4.374426">
        <ele>2.266451</ele>
        <time>2026-09-03T19:01:07.638Z</time>
      </trkpt>
      <trkpt lat="51.877386" lon="4.374419">
        <ele>2.296491</ele>
        <time>2026-09-03T19:01:09.001Z</time>
      </trkpt>
      <trkpt lat="51.877495" lon="4.377776">
        <ele>3.078868</ele>
        <time>2026-09-03T19:01:41.717Z</time>
      </trkpt>
      <trkpt lat="51.877553" lon="4.378147">
        <ele>3.163891</ele>
        <time>2026-09-03T19:01:45.518Z</time>
      </trkpt>
      <trkpt lat="51.877500" lon="4.378295">
        <ele>3.201901</ele>
        <time>2026-09-03T19:01:47.213Z</time>
      </trkpt>
      <trkpt lat="51.877513" lon="4.378760">
        <ele>3.305311</ele>
        <time>2026-09-03T19:01:51.949Z</time>
      </trkpt>
      <trkpt lat="51.877565" lon="4.380872">
        <ele>3.713764</ele>
        <time>2026-09-03T19:02:14.209Z</time>
      </trkpt>
      <trkpt lat="51.877584" lon="4.380958">
        <ele>3.729577</ele>
        <time>2026-09-03T19:02:15.177Z</time>
      </trkpt>
      <trkpt lat="51.878816" lon="4.381497">
        <ele>3.895758</ele>
        <time>2026-09-03T19:02:34.665Z</time>
      </trkpt>
      <trkpt lat="51.879251" lon="4.381622">
        <ele>3.740470</ele>
        <time>2026-09-03T19:02:42.727Z</time>
      </trkpt>
      <trkpt lat="51.879623" lon="4.381647">
        <ele>3.609600</ele>
        <time>2026-09-03T19:02:49.446Z</time>
      </trkpt>
      <trkpt lat="51.879950" lon="4.381600">
        <ele>3.494209</ele>
        <time>2026-09-03T19:02:55.374Z</time>
      </trkpt>
      <trkpt lat="51.880306" lon="4.381517">
        <ele>3.370332</ele>
        <time>2026-09-03T19:03:02.020Z</time>
      </trkpt>
      <trkpt lat="51.881946" lon="4.381011">
        <ele>3.412112</ele>
        <time>2026-09-03T19:03:37.269Z</time>
      </trkpt>
      <trkpt lat="51.882065" lon="4.380979">
        <ele>3.415131</ele>
        <time>2026-09-03T19:03:39.842Z</time>
      </trkpt>
      <trkpt lat="51.882202" lon="4.380942">
        <ele>3.344511</ele>
        <time>2026-09-03T19:03:42.649Z</time>
      </trkpt>
      <trkpt lat="51.884555" lon="4.380265">
        <ele>2.099037</ele>
        <time>2026-09-03T19:04:26.041Z</time>
      </trkpt>
      <trkpt lat="51.885367" lon="4.379893">
        <ele>1.648106</ele>
        <time>2026-09-03T19:04:41.479Z</time>
      </trkpt>
      <trkpt lat="51.888194" lon="4.378433">
        <ele>1.298338</ele>
        <time>2026-09-03T19:05:39.771Z</time>
      </trkpt>
      <trkpt lat="51.889751" lon="4.377716">
        <ele>1.492941</ele>
        <time>2026-09-03T19:06:14.417Z</time>
      </trkpt>
      <trkpt lat="51.890815" lon="4.377449">
        <ele>1.691779</ele>
        <time>2026-09-03T19:06:36.213Z</time>
      </trkpt>
      <trkpt lat="51.891437" lon="4.377285">
        <ele>2.043702</ele>
        <time>2026-09-03T19:06:49.742Z</time>
      </trkpt>
      <trkpt lat="51.891905" lon="4.377040">
        <ele>2.318357</ele>
        <time>2026-09-03T19:07:00.985Z</time>
      </trkpt>
      <trkpt lat="51.892267" lon="4.376728">
        <ele>2.547333</ele>
        <time>2026-09-03T19:07:10.732Z</time>
      </trkpt>
      <trkpt lat="51.892667" lon="4.376239">
        <ele>2.785298</ele>
        <time>2026-09-03T19:07:22.914Z</time>
      </trkpt>
      <trkpt lat="51.892675" lon="4.376228">
        <ele>2.789557</ele>
        <time>2026-09-03T19:07:23.188Z</time>
      </trkpt>
      <trkpt lat="51.892874" lon="4.375941">
        <ele>2.897709</ele>
        <time>2026-09-03T19:07:27.994Z</time>
      </trkpt>
      <trkpt lat="51.893128" lon="4.375500">
        <ele>3.048838</ele>
        <time>2026-09-03T19:07:34.320Z</time>
      </trkpt>
      <trkpt lat="51.894152" lon="4.373583">
        <ele>3.411897</ele>
        <time>2026-09-03T19:07:57.565Z</time>
      </trkpt>
      <trkpt lat="51.894153" lon="4.373582">
        <ele>3.411911</ele>
        <time>2026-09-03T19:07:57.580Z</time>
      </trkpt>
      <trkpt lat="51.894380" lon="4.373284">
        <ele>3.415236</ele>
        <time>2026-09-03T19:08:02.290Z</time>
      </trkpt>
      <trkpt lat="51.894408" lon="4.373351">
        <ele>3.415805</ele>
        <time>2026-09-03T19:08:07.928Z</time>
      </trkpt>
      <trkpt lat="51.894773" lon="4.372995">
        <ele>3.420654</ele>
        <time>2026-09-03T19:08:17.069Z</time>
      </trkpt>
      <trkpt lat="51.895030" lon="4.372810">
        <ele>3.423855</ele>
        <time>2026-09-03T19:08:22.554Z</time>
      </trkpt>
      <trkpt lat="51.895036" lon="4.372806">
        <ele>3.423929</ele>
        <time>2026-09-03T19:08:22.679Z</time>
      </trkpt>
      <trkpt lat="51.895169" lon="4.372818">
        <ele>3.343155</ele>
        <time>2026-09-03T19:08:25.122Z</time>
      </trkpt>
      <trkpt lat="51.895242" lon="4.372861">
        <ele>3.265342</ele>
        <time>2026-09-03T19:08:26.520Z</time>
      </trkpt>
      <trkpt lat="51.895383" lon="4.373087">
        <ele>3.066662</ele>
        <time>2026-09-03T19:08:30.056Z</time>
      </trkpt>
      <trkpt lat="51.895575" lon="4.373483">
        <ele>2.755326</ele>
        <time>2026-09-03T19:08:35.602Z</time>
      </trkpt>
      <trkpt lat="51.895655" lon="4.373664">
        <ele>2.617689</ele>
        <time>2026-09-03T19:08:37.328Z</time>
      </trkpt>
      <trkpt lat="51.895926" lon="4.374267">
        <ele>2.156526</ele>
        <time>2026-09-03T19:08:42.885Z</time>
      </trkpt>
      <trkpt lat="51.895956" lon="4.374461">
        <ele>2.032886</ele>
        <time>2026-09-03T19:08:44.291Z</time>
      </trkpt>
      <trkpt lat="51.895961" lon="4.374871">
        <ele>1.779372</ele>
        <time>2026-09-03T19:08:47.143Z</time>
      </trkpt>
      <trkpt lat="51.895960" lon="4.374870">
        <ele>1.778195</ele>
        <time>2026-09-03T19:08:47.161Z</time>
      </trkpt>
      <trkpt lat="51.895510" lon="4.374890">
        <ele>1.309498</ele>
        <time>2026-09-03T19:08:55.504Z</time>
      </trkpt>
      <trkpt lat="51.895440" lon="4.374920">
        <ele>1.232611</ele>
        <time>2026-09-03T19:08:56.846Z</time>
      </trkpt>
      <trkpt lat="51.894750" lon="4.375750">
        <ele>0.320109</ele>
        <time>2026-09-03T19:09:12.772Z</time>
      </trkpt>
      <trkpt lat="51.894450" lon="4.376230">
        <ele>-0.127573</ele>
        <time>2026-09-03T19:09:20.586Z</time>
      </trkpt>
      <trkpt lat="51.894320" lon="4.376360">
        <ele>-0.287394</ele>
        <time>2026-09-03T19:09:23.417Z</time>
      </trkpt>
      <trkpt lat="51.894040" lon="4.376590">
        <ele>-0.298387</ele>
        <time>2026-09-03T19:09:29.235Z</time>
      </trkpt>
      <trkpt lat="51.893660" lon="4.376870">
        <ele>-0.313006</ele>
        <time>2026-09-03T19:09:36.971Z</time>
      </trkpt>
      <trkpt lat="51.893630" lon="4.376910">
        <ele>-0.314367</ele>
        <time>2026-09-03T19:09:37.691Z</time>
      </trkpt>
      <trkpt lat="51.893620" lon="4.377000">
        <ele>-0.316343</ele>
        <time>2026-09-03T19:09:38.737Z</time>
      </trkpt>
      <trkpt lat="51.893660" lon="4.377060">
        <ele>-0.318252</ele>
        <time>2026-09-03T19:09:39.747Z</time>
      </trkpt>
      <trkpt lat="51.894020" lon="4.376840">
        <ele>-0.331726</ele>
        <time>2026-09-03T19:09:46.877Z</time>
      </trkpt>
      <trkpt lat="51.894330" lon="4.376550">
        <ele>-0.344262</ele>
        <time>2026-09-03T19:09:53.511Z</time>
      </trkpt>
      <trkpt lat="51.894830" lon="4.375970">
        <ele>-0.134221</ele>
        <time>2026-09-03T19:10:04.907Z</time>
      </trkpt>
      <trkpt lat="51.894823" lon="4.375953">
        <ele>-0.128062</ele>
        <time>2026-09-03T19:10:05.132Z</time>
      </trkpt>
      <trkpt lat="51.895221" lon="4.375541">
        <ele>0.102586</ele>
        <time>2026-09-03T19:10:14.197Z</time>
      </trkpt>
      <trkpt lat="51.895339" lon="4.375396">
        <ele>0.174909</ele>
        <time>2026-09-03T19:10:16.653Z</time>
      </trkpt>
      <trkpt lat="51.895701" lon="4.374953">
        <ele>0.396449</ele>
        <time>2026-09-03T19:10:23.822Z</time>
      </trkpt>
      <trkpt lat="51.895700" lon="4.374950">
        <ele>0.397476</ele>
        <time>2026-09-03T19:10:23.869Z</time>
      </trkpt>
      <trkpt lat="51.895800" lon="4.375160">
        <ele>0.477417</ele>
        <time>2026-09-03T19:10:26.902Z</time>
      </trkpt>
      <trkpt lat="51.896260" lon="4.374710">
        <ele>0.395976</ele>
        <time>2026-09-03T19:10:36.860Z</time>
      </trkpt>
      <trkpt lat="51.896720" lon="4.374260">
        <ele>0.232206</ele>
        <time>2026-09-03T19:10:46.818Z</time>
      </trkpt>
      <trkpt lat="51.897491" lon="4.373824">
        <ele>-0.016686</ele>
        <time>2026-09-03T19:11:01.957Z</time>
      </trkpt>
      <trkpt lat="51.898263" lon="4.373388">
        <ele>-0.045265</ele>
        <time>2026-09-03T19:11:17.096Z</time>
      </trkpt>
      <trkpt lat="51.899034" lon="4.372951">
        <ele>-0.070753</ele>
        <time>2026-09-03T19:11:32.235Z</time>
      </trkpt>
      <trkpt lat="51.899805" lon="4.372515">
        <ele>0.056286</ele>
        <time>2026-09-03T19:11:47.373Z</time>
      </trkpt>
      <trkpt lat="51.900576" lon="4.372079">
        <ele>0.225086</ele>
        <time>2026-09-03T19:12:02.512Z</time>
      </trkpt>
      <trkpt lat="51.901348" lon="4.371643">
        <ele>0.448980</ele>
        <time>2026-09-03T19:12:17.651Z</time>
      </trkpt>
      <trkpt lat="51.902119" lon="4.371206">
        <ele>0.711920</ele>
        <time>2026-09-03T19:12:32.790Z</time>
      </trkpt>
      <trkpt lat="51.902112" lon="4.371081">
        <ele>0.736850</ele>
        <time>2026-09-03T19:12:34.231Z</time>
      </trkpt>
      <trkpt lat="51.902623" lon="4.371007">
        <ele>0.869806</ele>
        <time>2026-09-03T19:12:42.437Z</time>
      </trkpt>
      <trkpt lat="51.902783" lon="4.370997">
        <ele>0.860815</ele>
        <time>2026-09-03T19:12:44.962Z</time>
      </trkpt>
      <trkpt lat="51.902973" lon="4.370981">
        <ele>0.850132</ele>
        <time>2026-09-03T19:12:47.714Z</time>
      </trkpt>
      <trkpt lat="51.902890" lon="4.370770">
        <ele>0.841462</ele>
        <time>2026-09-03T19:12:50.577Z</time>
      </trkpt>
      <trkpt lat="51.902900" lon="4.370510">
        <ele>0.832436</ele>
        <time>2026-09-03T19:12:53.556Z</time>
      </trkpt>
      <trkpt lat="51.902970" lon="4.371040">
        <ele>0.813657</ele>
        <time>2026-09-03T19:12:59.753Z</time>
      </trkpt>
      <trkpt lat="51.902980" lon="4.371310">
        <ele>0.804286</ele>
        <time>2026-09-03T19:13:02.846Z</time>
      </trkpt>
      <trkpt lat="51.903360" lon="4.371250">
        <ele>0.782846</ele>
        <time>2026-09-03T19:13:09.922Z</time>
      </trkpt>
      <trkpt lat="51.903361" lon="4.371281">
        <ele>0.781771</ele>
        <time>2026-09-03T19:13:10.275Z</time>
      </trkpt>
      <trkpt lat="51.903644" lon="4.371252">
        <ele>0.826837</ele>
        <time>2026-09-03T19:13:14.443Z</time>
      </trkpt>
      <trkpt lat="51.904437" lon="4.371364">
        <ele>1.134330</ele>
        <time>2026-09-03T19:13:27.226Z</time>
      </trkpt>
      <trkpt lat="51.906400" lon="4.371763">
        <ele>2.119497</ele>
        <time>2026-09-03T19:14:01.579Z</time>
      </trkpt>
      <trkpt lat="51.906617" lon="4.371830">
        <ele>2.248657</ele>
        <time>2026-09-03T19:14:05.143Z</time>
      </trkpt>
      <trkpt lat="51.906708" lon="4.371927">
        <ele>2.312338</ele>
        <time>2026-09-03T19:14:06.935Z</time>
      </trkpt>
      <trkpt lat="51.906784" lon="4.372046">
        <ele>2.374122</ele>
        <time>2026-09-03T19:14:08.667Z</time>
      </trkpt>
      <trkpt lat="51.906870" lon="4.372407">
        <ele>2.513713</ele>
        <time>2026-09-03T19:14:12.620Z</time>
      </trkpt>
      <trkpt lat="51.908077" lon="4.372707">
        <ele>3.153579</ele>
        <time>2026-09-03T19:14:33.772Z</time>
      </trkpt>
      <trkpt lat="51.908200" lon="4.372735">
        <ele>3.218596</ele>
        <time>2026-09-03T19:14:36.055Z</time>
      </trkpt>
      <trkpt lat="51.908558" lon="4.372804">
        <ele>3.407316</ele>
        <time>2026-09-03T19:14:42.394Z</time>
      </trkpt>
      <trkpt lat="51.908826" lon="4.372679">
        <ele>3.388498</ele>
        <time>2026-09-03T19:14:46.914Z</time>
      </trkpt>
      <trkpt lat="51.908993" lon="4.373003">
        <ele>3.279889</ele>
        <time>2026-09-03T19:14:52.175Z</time>
      </trkpt>
      <trkpt lat="51.909050" lon="4.372996">
        <ele>3.256053</ele>
        <time>2026-09-03T19:14:53.224Z</time>
      </trkpt>
      <trkpt lat="51.909216" lon="4.373571">
        <ele>3.092745</ele>
        <time>2026-09-03T19:14:58.247Z</time>
      </trkpt>
      <trkpt lat="51.909542" lon="4.374515">
        <ele>2.814452</ele>
        <time>2026-09-03T19:15:06.963Z</time>
      </trkpt>
      <trkpt lat="51.909590" lon="4.374691">
        <ele>2.764951</ele>
        <time>2026-09-03T19:15:08.412Z</time>
      </trkpt>
      <trkpt lat="51.909637" lon="4.374861">
        <ele>2.717030</ele>
        <time>2026-09-03T19:15:09.866Z</time>
      </trkpt>
      <trkpt lat="51.909695" lon="4.375052">
        <ele>2.629450</ele>
        <time>2026-09-03T19:15:11.483Z</time>
      </trkpt>
      <trkpt lat="51.909819" lon="4.374950">
        <ele>2.532869</ele>
        <time>2026-09-03T19:15:13.146Z</time>
      </trkpt>
      <trkpt lat="51.909940" lon="4.374870">
        <ele>2.442105</ele>
        <time>2026-09-03T19:15:14.744Z</time>
      </trkpt>
      <trkpt lat="51.910037" lon="4.374795">
        <ele>2.367460</ele>
        <time>2026-09-03T19:15:16.041Z</time>
      </trkpt>
      <trkpt lat="51.910133" lon="4.374670">
        <ele>2.281934</ele>
        <time>2026-09-03T19:15:17.582Z</time>
      </trkpt>
      <trkpt lat="51.910759" lon="4.374150">
        <ele>1.793371</ele>
        <time>2026-09-03T19:15:26.901Z</time>
      </trkpt>
      <trkpt lat="51.910839" lon="4.374086">
        <ele>1.731407</ele>
        <time>2026-09-03T19:15:28.060Z</time>
      </trkpt>
      <trkpt lat="51.911268" lon="4.373746">
        <ele>1.430659</ele>
        <time>2026-09-03T19:15:34.121Z</time>
      </trkpt>
      <trkpt lat="51.911356" lon="4.373662">
        <ele>1.394798</ele>
        <time>2026-09-03T19:15:35.419Z</time>
      </trkpt>
      <trkpt lat="51.911437" lon="4.373337">
        <ele>1.318866</ele>
        <time>2026-09-03T19:15:38.234Z</time>
      </trkpt>
      <trkpt lat="51.911587" lon="4.373157">
        <ele>1.253330</ele>
        <time>2026-09-03T19:15:40.698Z</time>
      </trkpt>
      <trkpt lat="51.911768" lon="4.373056">
        <ele>1.186110</ele>
        <time>2026-09-03T19:15:43.283Z</time>
      </trkpt>
      <trkpt lat="51.912148" lon="4.373194">
        <ele>1.049362</ele>
        <time>2026-09-03T19:15:48.592Z</time>
      </trkpt>
      <trkpt lat="51.912498" lon="4.373242">
        <ele>0.926017</ele>
        <time>2026-09-03T19:15:53.521Z</time>
      </trkpt>
      <trkpt lat="51.912742" lon="4.373380">
        <ele>0.835269</ele>
        <time>2026-09-03T19:15:57.293Z</time>
      </trkpt>
      <trkpt lat="51.913537" lon="4.373793">
        <ele>0.836022</ele>
        <time>2026-09-03T19:16:09.897Z</time>
      </trkpt>
      <trkpt lat="51.915733" lon="4.374929">
        <ele>0.756643</ele>
        <time>2026-09-03T19:16:44.423Z</time>
      </trkpt>
      <trkpt lat="51.915826" lon="4.375128">
        <ele>0.746702</ele>
        <time>2026-09-03T19:16:46.576Z</time>
      </trkpt>
      <trkpt lat="51.915930" lon="4.375443">
        <ele>0.732476</ele>
        <time>2026-09-03T19:16:49.603Z</time>
      </trkpt>
      <trkpt lat="51.916037" lon="4.375466">
        <ele>0.722595</ele>
        <time>2026-09-03T19:16:51.074Z</time>
      </trkpt>
      <trkpt lat="51.916272" lon="4.375139">
        <ele>0.626495</ele>
        <time>2026-09-03T19:16:55.227Z</time>
      </trkpt>
      <trkpt lat="51.916360" lon="4.375109">
        <ele>0.598590</ele>
        <time>2026-09-03T19:16:56.416Z</time>
      </trkpt>
      <trkpt lat="51.917452" lon="4.375732">
        <ele>0.239361</ele>
        <time>2026-09-03T19:17:11.969Z</time>
      </trkpt>
      <trkpt lat="51.917978" lon="4.376057">
        <ele>0.199968</ele>
        <time>2026-09-03T19:17:20.236Z</time>
      </trkpt>
      <trkpt lat="51.918124" lon="4.376019">
        <ele>0.214089</ele>
        <time>2026-09-03T19:17:22.581Z</time>
      </trkpt>
      <trkpt lat="51.918211" lon="4.376055">
        <ele>0.222664</ele>
        <time>2026-09-03T19:17:24.029Z</time>
      </trkpt>
      <trkpt lat="51.918405" lon="4.376168">
        <ele>0.242351</ele>
        <time>2026-09-03T19:17:27.449Z</time>
      </trkpt>
      <trkpt lat="51.918852" lon="4.376429">
        <ele>0.287723</ele>
        <time>2026-09-03T19:17:35.239Z</time>
      </trkpt>
      <trkpt lat="51.919201" lon="4.376634">
        <ele>0.323173</ele>
        <time>2026-09-03T19:17:40.984Z</time>
      </trkpt>
      <trkpt lat="51.919356" lon="4.376946">
        <ele>0.309669</ele>
        <time>2026-09-03T19:17:44.574Z</time>
      </trkpt>
      <trkpt lat="51.919534" lon="4.377150">
        <ele>0.218024</ele>
        <time>2026-09-03T19:17:47.620Z</time>
      </trkpt>
      <trkpt lat="51.919700" lon="4.377227">
        <ele>0.145433</ele>
        <time>2026-09-03T19:17:49.955Z</time>
      </trkpt>
      <trkpt lat="51.919842" lon="4.377221">
        <ele>0.085711</ele>
        <time>2026-09-03T19:17:51.821Z</time>
      </trkpt>
      <trkpt lat="51.920012" lon="4.377226">
        <ele>0.014226</ele>
        <time>2026-09-03T19:17:54.046Z</time>
      </trkpt>
      <trkpt lat="51.920276" lon="4.377264">
        <ele>-0.097204</ele>
        <time>2026-09-03T19:17:57.425Z</time>
      </trkpt>
      <trkpt lat="51.920691" lon="4.377512">
        <ele>-0.283156</ele>
        <time>2026-09-03T19:18:02.997Z</time>
      </trkpt>
      <trkpt lat="51.920888" lon="4.377561">
        <ele>-0.366950</ele>
        <time>2026-09-03T19:18:05.565Z</time>
      </trkpt>
      <trkpt lat="51.922315" lon="4.378608">
        <ele>-0.554542</ele>
        <time>2026-09-03T19:18:28.153Z</time>
      </trkpt>
      <trkpt lat="51.922682" lon="4.378786">
        <ele>-0.576497</ele>
        <time>2026-09-03T19:18:34.190Z</time>
      </trkpt>
      <trkpt lat="51.922885" lon="4.378925">
        <ele>-0.501062</ele>
        <time>2026-09-03T19:18:37.619Z</time>
      </trkpt>
      <trkpt lat="51.922984" lon="4.379090">
        <ele>-0.452462</ele>
        <time>2026-09-03T19:18:39.842Z</time>
      </trkpt>
      <trkpt lat="51.923026" lon="4.379126">
        <ele>-0.436199</ele>
        <time>2026-09-03T19:18:40.601Z</time>
      </trkpt>
      <trkpt lat="51.923116" lon="4.379189">
        <ele>-0.402641</ele>
        <time>2026-09-03T19:18:42.165Z</time>
      </trkpt>
      <trkpt lat="51.923159" lon="4.379221">
        <ele>-0.386444</ele>
        <time>2026-09-03T19:18:42.924Z</time>
      </trkpt>
      <trkpt lat="51.923654" lon="4.379387">
        <ele>-0.213406</ele>
        <time>2026-09-03T19:18:51.332Z</time>
      </trkpt>
      <trkpt lat="51.923864" lon="4.379526">
        <ele>-0.135759</ele>
        <time>2026-09-03T19:18:55.249Z</time>
      </trkpt>
      <trkpt lat="51.924366" lon="4.379825">
        <ele>0.029142</ele>
        <time>2026-09-03T19:19:03.955Z</time>
      </trkpt>
      <trkpt lat="51.924466" lon="4.379855">
        <ele>0.031512</ele>
        <time>2026-09-03T19:19:05.620Z</time>
      </trkpt>
      <trkpt lat="51.924581" lon="4.379874">
        <ele>0.034205</ele>
        <time>2026-09-03T19:19:07.508Z</time>
      </trkpt>
      <trkpt lat="51.924830" lon="4.380044">
        <ele>0.040500</ele>
        <time>2026-09-03T19:19:11.826Z</time>
      </trkpt>
      <trkpt lat="51.925503" lon="4.380450">
        <ele>0.057230</ele>
        <time>2026-09-03T19:19:22.880Z</time>
      </trkpt>
      <trkpt lat="51.925660" lon="4.380553">
        <ele>0.061176</ele>
        <time>2026-09-03T19:19:26.199Z</time>
      </trkpt>
      <trkpt lat="51.925728" lon="4.380689">
        <ele>0.063692</ele>
        <time>2026-09-03T19:19:28.255Z</time>
      </trkpt>
      <trkpt lat="51.925780" lon="4.381832">
        <ele>-0.068317</ele>
        <time>2026-09-03T19:19:41.191Z</time>
      </trkpt>
      <trkpt lat="51.925979" lon="4.381873">
        <ele>-0.130130</ele>
        <time>2026-09-03T19:19:43.650Z</time>
      </trkpt>
      <trkpt lat="51.926706" lon="4.381743">
        <ele>-0.355509</ele>
        <time>2026-09-03T19:19:53.579Z</time>
      </trkpt>
      <trkpt lat="51.926972" lon="4.381698">
        <ele>-0.437921</ele>
        <time>2026-09-03T19:19:57.572Z</time>
      </trkpt>
      <trkpt lat="51.927688" lon="4.382125">
        <ele>-0.279948</ele>
        <time>2026-09-03T19:20:09.610Z</time>
      </trkpt>
      <trkpt lat="51.928260" lon="4.382531">
        <ele>-0.071118</ele>
        <time>2026-09-03T19:20:20.637Z</time>
      </trkpt>
      <trkpt lat="51.928845" lon="4.382883">
        <ele>0.128821</ele>
        <time>2026-09-03T19:20:30.604Z</time>
      </trkpt>
      <trkpt lat="51.929089" lon="4.383216">
        <ele>0.190007</ele>
        <time>2026-09-03T19:20:35.244Z</time>
      </trkpt>
      <trkpt lat="51.929695" lon="4.384061">
        <ele>0.343346</ele>
        <time>2026-09-03T19:20:47.388Z</time>
      </trkpt>
      <trkpt lat="51.929885" lon="4.384193">
        <ele>0.383004</ele>
        <time>2026-09-03T19:20:50.589Z</time>
      </trkpt>
      <trkpt lat="51.930297" lon="4.384342">
        <ele>0.464362</ele>
        <time>2026-09-03T19:20:57.370Z</time>
      </trkpt>
      <trkpt lat="51.931102" lon="4.384769">
        <ele>0.659099</ele>
        <time>2026-09-03T19:21:11.305Z</time>
      </trkpt>
      <trkpt lat="51.931206" lon="4.384887">
        <ele>0.688282</ele>
        <time>2026-09-03T19:21:13.377Z</time>
      </trkpt>
      <trkpt lat="51.931300" lon="4.385117">
        <ele>0.727402</ele>
        <time>2026-09-03T19:21:16.096Z</time>
      </trkpt>
      <trkpt lat="51.931376" lon="4.385501">
        <ele>0.784579</ele>
        <time>2026-09-03T19:21:19.950Z</time>
      </trkpt>
      <trkpt lat="51.931416" lon="4.385578">
        <ele>0.798853</ele>
        <time>2026-09-03T19:21:20.889Z</time>
      </trkpt>
      <trkpt lat="51.931550" lon="4.385593">
        <ele>0.829736</ele>
        <time>2026-09-03T19:21:22.907Z</time>
      </trkpt>
      <trkpt lat="51.931681" lon="4.385567">
        <ele>0.860081</ele>
        <time>2026-09-03T19:21:24.868Z</time>
      </trkpt>
      <trkpt lat="51.931748" lon="4.385560">
        <ele>0.875518</ele>
        <time>2026-09-03T19:21:25.869Z</time>
      </trkpt>
      <trkpt lat="51.931946" lon="4.385424">
        <ele>0.821691</ele>
        <time>2026-09-03T19:21:28.981Z</time>
      </trkpt>
      <trkpt lat="51.932067" lon="4.385374">
        <ele>0.790224</ele>
        <time>2026-09-03T19:21:30.783Z</time>
      </trkpt>
      <trkpt lat="51.932166" lon="4.385386">
        <ele>0.765205</ele>
        <time>2026-09-03T19:21:32.215Z</time>
      </trkpt>
      <trkpt lat="51.932916" lon="4.385803">
        <ele>0.565400</ele>
        <time>2026-09-03T19:21:43.503Z</time>
      </trkpt>
      <trkpt lat="51.933107" lon="4.385954">
        <ele>0.511852</ele>
        <time>2026-09-03T19:21:46.336Z</time>
      </trkpt>
      <trkpt lat="51.933359" lon="4.386153">
        <ele>0.441218</ele>
        <time>2026-09-03T19:21:50.027Z</time>
      </trkpt>
      <trkpt lat="51.934185" lon="4.386690">
        <ele>0.077175</ele>
        <time>2026-09-03T19:22:01.767Z</time>
      </trkpt>
      <trkpt lat="51.935771" lon="4.387800">
        <ele>-0.490292</ele>
        <time>2026-09-03T19:22:25.380Z</time>
      </trkpt>
      <trkpt lat="51.936014" lon="4.387948">
        <ele>-0.542990</ele>
        <time>2026-09-03T19:22:29.066Z</time>
      </trkpt>
      <trkpt lat="51.936031" lon="4.387960">
        <ele>-0.546754</ele>
        <time>2026-09-03T19:22:29.329Z</time>
      </trkpt>
      <trkpt lat="51.936193" lon="4.388076">
        <ele>-0.582707</ele>
        <time>2026-09-03T19:22:32.791Z</time>
      </trkpt>
      <trkpt lat="51.936242" lon="4.388105">
        <ele>-0.593297</ele>
        <time>2026-09-03T19:22:33.843Z</time>
      </trkpt>
      <trkpt lat="51.936353" lon="4.388151">
        <ele>-0.616556</ele>
        <time>2026-09-03T19:22:36.082Z</time>
      </trkpt>
      <trkpt lat="51.936757" lon="4.388208">
        <ele>-0.698888</ele>
        <time>2026-09-03T19:22:44.113Z</time>
      </trkpt>
      <trkpt lat="51.936881" lon="4.387874">
        <ele>-0.750150</ele>
        <time>2026-09-03T19:22:48.863Z</time>
      </trkpt>
      <trkpt lat="51.937154" lon="4.387134">
        <ele>-0.864229</ele>
        <time>2026-09-03T19:22:59.249Z</time>
      </trkpt>
      <trkpt lat="51.937328" lon="4.387110">
        <ele>-0.901699</ele>
        <time>2026-09-03T19:23:01.735Z</time>
      </trkpt>
      <trkpt lat="51.937935" lon="4.388232">
        <ele>-1.093616</ele>
        <time>2026-09-03T19:23:14.633Z</time>
      </trkpt>
      <trkpt lat="51.938082" lon="4.388335">
        <ele>-1.106369</ele>
        <time>2026-09-03T19:23:16.886Z</time>
      </trkpt>
      <trkpt lat="51.938196" lon="4.388412">
        <ele>-1.116203</ele>
        <time>2026-09-03T19:23:18.599Z</time>
      </trkpt>
      <trkpt lat="51.938299" lon="4.388534">
        <ele>-1.126360</ele>
        <time>2026-09-03T19:23:20.372Z</time>
      </trkpt>
      <trkpt lat="51.938615" lon="4.388736">
        <ele>-1.153410</ele>
        <time>2026-09-03T19:23:25.105Z</time>
      </trkpt>
      <trkpt lat="51.938750" lon="4.388743">
        <ele>-1.164167</ele>
        <time>2026-09-03T19:23:26.979Z</time>
      </trkpt>
      <trkpt lat="51.938833" lon="4.388838">
        <ele>-1.172257</ele>
        <time>2026-09-03T19:23:28.415Z</time>
      </trkpt>
      <trkpt lat="51.939706" lon="4.389444">
        <ele>-1.278496</ele>
        <time>2026-09-03T19:23:42.821Z</time>
      </trkpt>
      <trkpt lat="51.940642" lon="4.390187">
        <ele>-1.539196</ele>
        <time>2026-09-03T19:23:58.285Z</time>
      </trkpt>
      <trkpt lat="51.940894" lon="4.389900">
        <ele>-1.616228</ele>
        <time>2026-09-03T19:24:02.353Z</time>
      </trkpt>
      <trkpt lat="51.941081" lon="4.389620">
        <ele>-1.679895</ele>
        <time>2026-09-03T19:24:05.532Z</time>
      </trkpt>
      <trkpt lat="51.941748" lon="4.388086">
        <ele>-2.102581</ele>
        <time>2026-09-03T19:24:19.827Z</time>
      </trkpt>
      <trkpt lat="51.941875" lon="4.387971">
        <ele>-2.155922</ele>
        <time>2026-09-03T19:24:21.855Z</time>
      </trkpt>
      <trkpt lat="51.942333" lon="4.387967">
        <ele>-2.323889</ele>
        <time>2026-09-03T19:24:29.115Z</time>
      </trkpt>
      <trkpt lat="51.942522" lon="4.387887">
        <ele>-2.240288</ele>
        <time>2026-09-03T19:24:32.626Z</time>
      </trkpt>
      <trkpt lat="51.942693" lon="4.387683">
        <ele>-2.087227</ele>
        <time>2026-09-03T19:24:36.692Z</time>
      </trkpt>
      <trkpt lat="51.942976" lon="4.387110">
        <ele>-1.760854</ele>
        <time>2026-09-03T19:24:45.683Z</time>
      </trkpt>
      <trkpt lat="51.943076" lon="4.387190">
        <ele>-1.680453</ele>
        <time>2026-09-03T19:24:47.852Z</time>
      </trkpt>
      <trkpt lat="51.943445" lon="4.387485">
        <ele>-1.383813</ele>
        <time>2026-09-03T19:24:55.570Z</time>
      </trkpt>
      <trkpt lat="51.943619" lon="4.387574">
        <ele>-1.252254</ele>
        <time>2026-09-03T19:24:58.709Z</time>
      </trkpt>
      <trkpt lat="51.944008" lon="4.387663">
        <ele>-1.071558</ele>
        <time>2026-09-03T19:25:04.996Z</time>
      </trkpt>
      <trkpt lat="51.944803" lon="4.387750">
        <ele>-1.260184</ele>
        <time>2026-09-03T19:25:16.281Z</time>
      </trkpt>
      <trkpt lat="51.946513" lon="4.387769">
        <ele>-2.122111</ele>
        <time>2026-09-03T19:25:38.911Z</time>
      </trkpt>
      <trkpt lat="51.946697" lon="4.387800">
        <ele>-2.269620</ele>
        <time>2026-09-03T19:25:41.112Z</time>
      </trkpt>
      <trkpt lat="51.946891" lon="4.387981">
        <ele>-2.448071</ele>
        <time>2026-09-03T19:25:43.776Z</time>
      </trkpt>
      <trkpt lat="51.946997" lon="4.388151">
        <ele>-2.566923</ele>
        <time>2026-09-03T19:25:45.567Z</time>
      </trkpt>
      <trkpt lat="51.947204" lon="4.388446">
        <ele>-2.786623</ele>
        <time>2026-09-03T19:25:48.908Z</time>
      </trkpt>
      <trkpt lat="51.947653" lon="4.388942">
        <ele>-3.025058</ele>
        <time>2026-09-03T19:25:55.646Z</time>
      </trkpt>
      <trkpt lat="51.948192" lon="4.389653">
        <ele>-3.235008</ele>
        <time>2026-09-03T19:26:04.909Z</time>
      </trkpt>
      <trkpt lat="51.948765" lon="4.390511">
        <ele>-3.441128</ele>
        <time>2026-09-03T19:26:17.670Z</time>
      </trkpt>
      <trkpt lat="51.949760" lon="4.392116">
        <ele>-3.264572</ele>
        <time>2026-09-03T19:26:39.517Z</time>
      </trkpt>
      <trkpt lat="51.950015" lon="4.392657">
        <ele>-3.246219</ele>
        <time>2026-09-03T19:26:45.471Z</time>
      </trkpt>
      <trkpt lat="51.950263" lon="4.393282">
        <ele>-3.357960</ele>
        <time>2026-09-03T19:26:51.789Z</time>
      </trkpt>
      <trkpt lat="51.950393" lon="4.393547">
        <ele>-3.408874</ele>
        <time>2026-09-03T19:26:54.604Z</time>
      </trkpt>
      <trkpt lat="51.950616" lon="4.393842">
        <ele>-3.479051</ele>
        <time>2026-09-03T19:26:58.481Z</time>
      </trkpt>
      <trkpt lat="51.950864" lon="4.394056">
        <ele>-3.547561</ele>
        <time>2026-09-03T19:27:02.316Z</time>
      </trkpt>
      <trkpt lat="51.951409" lon="4.394379">
        <ele>-3.646971</ele>
        <time>2026-09-03T19:27:10.441Z</time>
      </trkpt>
      <trkpt lat="51.952240" lon="4.394665">
        <ele>-3.529937</ele>
        <time>2026-09-03T19:27:23.007Z</time>
      </trkpt>
      <trkpt lat="51.952344" lon="4.394730">
        <ele>-3.514582</ele>
        <time>2026-09-03T19:27:24.733Z</time>
      </trkpt>
      <trkpt lat="51.952496" lon="4.394906">
        <ele>-3.488856</ele>
        <time>2026-09-03T19:27:27.747Z</time>
      </trkpt>
      <trkpt lat="51.952675" lon="4.395284">
        <ele>-3.448380</ele>
        <time>2026-09-03T19:27:32.551Z</time>
      </trkpt>
      <trkpt lat="51.952833" lon="4.395528">
        <ele>-3.418328</ele>
        <time>2026-09-03T19:27:36.167Z</time>
      </trkpt>
      <trkpt lat="51.952989" lon="4.395724">
        <ele>-3.304896</ele>
        <time>2026-09-03T19:27:39.478Z</time>
      </trkpt>
      <trkpt lat="51.953229" lon="4.395900">
        <ele>-3.133852</ele>
        <time>2026-09-03T19:27:43.975Z</time>
      </trkpt>
      <trkpt lat="51.954510" lon="4.396561">
        <ele>-2.260872</ele>
        <time>2026-09-03T19:28:08.390Z</time>
      </trkpt>
      <trkpt lat="51.955317" lon="4.396908">
        <ele>-2.072717</ele>
        <time>2026-09-03T19:28:21.196Z</time>
      </trkpt>
      <trkpt lat="51.955665" lon="4.397045">
        <ele>-1.996214</ele>
        <time>2026-09-03T19:28:26.695Z</time>
      </trkpt>
      <trkpt lat="51.955777" lon="4.397087">
        <ele>-1.971656</ele>
        <time>2026-09-03T19:28:28.547Z</time>
      </trkpt>
      <trkpt lat="51.955790" lon="4.397091">
        <ele>-1.968830</ele>
        <time>2026-09-03T19:28:28.745Z</time>
      </trkpt>
      <trkpt lat="51.955821" lon="4.397098">
        <ele>-1.962143</ele>
        <time>2026-09-03T19:28:29.215Z</time>
      </trkpt>
      <trkpt lat="51.956286" lon="4.397282">
        <ele>-1.861009</ele>
        <time>2026-09-03T19:28:36.509Z</time>
      </trkpt>
      <trkpt lat="51.956543" lon="4.397438">
        <ele>-1.833298</ele>
        <time>2026-09-03T19:28:40.593Z</time>
      </trkpt>
      <trkpt lat="51.956709" lon="4.397474">
        <ele>-1.816384</ele>
        <time>2026-09-03T19:28:43.173Z</time>
      </trkpt>
      <trkpt lat="51.956858" lon="4.397438">
        <ele>-1.801171</ele>
        <time>2026-09-03T19:28:45.572Z</time>
      </trkpt>
      <trkpt lat="51.957333" lon="4.397098">
        <ele>-1.748741</ele>
        <time>2026-09-03T19:28:54.532Z</time>
      </trkpt>
      <trkpt lat="51.957680" lon="4.396837">
        <ele>-1.710116</ele>
        <time>2026-09-03T19:29:00.188Z</time>
      </trkpt>
      <trkpt lat="51.958190" lon="4.396610">
        <ele>-1.737266</ele>
        <time>2026-09-03T19:29:07.224Z</time>
      </trkpt>
      <trkpt lat="51.958356" lon="4.396456">
        <ele>-1.783711</ele>
        <time>2026-09-03T19:29:09.759Z</time>
      </trkpt>
      <trkpt lat="51.958757" lon="4.395970">
        <ele>-1.905282</ele>
        <time>2026-09-03T19:29:16.339Z</time>
      </trkpt>
      <trkpt lat="51.958972" lon="4.395781">
        <ele>-1.964676</ele>
        <time>2026-09-03T19:29:19.682Z</time>
      </trkpt>
      <trkpt lat="51.959499" lon="4.395180">
        <ele>-2.114875</ele>
        <time>2026-09-03T19:29:28.983Z</time>
      </trkpt>
      <trkpt lat="51.959766" lon="4.394958">
        <ele>-2.070084</ele>
        <time>2026-09-03T19:29:33.995Z</time>
      </trkpt>
      <trkpt lat="51.959781" lon="4.394948">
        <ele>-2.067663</ele>
        <time>2026-09-03T19:29:34.294Z</time>
      </trkpt>
      <trkpt lat="51.960522" lon="4.394463">
        <ele>-1.948372</ele>
        <time>2026-09-03T19:29:47.168Z</time>
      </trkpt>
      <trkpt lat="51.960975" lon="4.394280">
        <ele>-1.878674</ele>
        <time>2026-09-03T19:29:54.225Z</time>
      </trkpt>
      <trkpt lat="51.961246" lon="4.394095">
        <ele>-1.868082</ele>
        <time>2026-09-03T19:29:58.504Z</time>
      </trkpt>
      <trkpt lat="51.961962" lon="4.393389">
        <ele>-2.041867</ele>
        <time>2026-09-03T19:30:10.375Z</time>
      </trkpt>
      <trkpt lat="51.962300" lon="4.393117">
        <ele>-2.120124</ele>
        <time>2026-09-03T19:30:15.617Z</time>
      </trkpt>
      <trkpt lat="51.963066" lon="4.392603">
        <ele>-2.271812</ele>
        <time>2026-09-03T19:30:27.141Z</time>
      </trkpt>
      <trkpt lat="51.963395" lon="4.392371">
        <ele>-2.324772</ele>
        <time>2026-09-03T19:30:32.035Z</time>
      </trkpt>
      <trkpt lat="51.963605" lon="4.392147">
        <ele>-2.361874</ele>
        <time>2026-09-03T19:30:35.521Z</time>
      </trkpt>
      <trkpt lat="51.963827" lon="4.391980">
        <ele>-2.397999</ele>
        <time>2026-09-03T19:30:39.045Z</time>
      </trkpt>
      <trkpt lat="51.963956" lon="4.391931">
        <ele>-2.417559</ele>
        <time>2026-09-03T19:30:40.972Z</time>
      </trkpt>
      <trkpt lat="51.964336" lon="4.391656">
        <ele>-2.478987</ele>
        <time>2026-09-03T19:30:47.141Z</time>
      </trkpt>
      <trkpt lat="51.964416" lon="4.391602">
        <ele>-2.487138</ele>
        <time>2026-09-03T19:30:48.444Z</time>
      </trkpt>
      <trkpt lat="51.964668" lon="4.391457">
        <ele>-2.485142</ele>
        <time>2026-09-03T19:30:52.576Z</time>
      </trkpt>
      <trkpt lat="51.964690" lon="4.391566">
        <ele>-2.484615</ele>
        <time>2026-09-03T19:30:53.675Z</time>
      </trkpt>
      <trkpt lat="51.964694" lon="4.391585">
        <ele>-2.484523</ele>
        <time>2026-09-03T19:30:53.876Z</time>
      </trkpt>
      <trkpt lat="51.964663" lon="4.391667">
        <ele>-2.484080</ele>
        <time>2026-09-03T19:30:54.765Z</time>
      </trkpt>
      <trkpt lat="51.963788" lon="4.392267">
        <ele>-2.476992</ele>
        <time>2026-09-03T19:31:09.303Z</time>
      </trkpt>
      <trkpt lat="51.963747" lon="4.392367">
        <ele>-2.476440</ele>
        <time>2026-09-03T19:31:10.401Z</time>
      </trkpt>
      <trkpt lat="51.963788" lon="4.392530">
        <ele>-2.475630</ele>
        <time>2026-09-03T19:31:11.932Z</time>
      </trkpt>
      <trkpt lat="51.963846" lon="4.392730">
        <ele>-2.474614</ele>
        <time>2026-09-03T19:31:13.853Z</time>
      </trkpt>
      <trkpt lat="51.963971" lon="4.393160">
        <ele>-2.573208</ele>
        <time>2026-09-03T19:31:17.967Z</time>
      </trkpt>
      <trkpt lat="51.964689" lon="4.394897">
        <ele>-3.204972</ele>
        <time>2026-09-03T19:31:34.656Z</time>
      </trkpt>
      <trkpt lat="51.964711" lon="4.395130">
        <ele>-3.276168</ele>
        <time>2026-09-03T19:31:36.554Z</time>
      </trkpt>
      <trkpt lat="51.964679" lon="4.395307">
        <ele>-3.331883</ele>
        <time>2026-09-03T19:31:38.103Z</time>
      </trkpt>
      <trkpt lat="51.964575" lon="4.395485">
        <ele>-3.374091</ele>
        <time>2026-09-03T19:31:40.178Z</time>
      </trkpt>
      <trkpt lat="51.964321" lon="4.395676">
        <ele>-3.424404</ele>
        <time>2026-09-03T19:31:43.988Z</time>
      </trkpt>
      <trkpt lat="51.964454" lon="4.395998">
        <ele>-3.467333</ele>
        <time>2026-09-03T19:31:47.261Z</time>
      </trkpt>
      <trkpt lat="51.964749" lon="4.396583">
        <ele>-3.551045</ele>
        <time>2026-09-03T19:31:53.587Z</time>
      </trkpt>
      <trkpt lat="51.965770" lon="4.399089">
        <ele>-3.142681</ele>
        <time>2026-09-03T19:32:22.085Z</time>
      </trkpt>
      <trkpt lat="51.967041" lon="4.402234">
        <ele>-1.272500</ele>
        <time>2026-09-03T19:33:05.805Z</time>
      </trkpt>
      <trkpt lat="51.967126" lon="4.402454">
        <ele>-1.143262</ele>
        <time>2026-09-03T19:33:08.849Z</time>
      </trkpt>
      <trkpt lat="51.966752" lon="4.402763">
        <ele>-1.200179</ele>
        <time>2026-09-03T19:33:18.610Z</time>
      </trkpt>
      <trkpt lat="51.966727" lon="4.402813">
        <ele>-1.205559</ele>
        <time>2026-09-03T19:33:19.469Z</time>
      </trkpt>
      <trkpt lat="51.966730" lon="4.402932">
        <ele>-1.215511</ele>
        <time>2026-09-03T19:33:21.030Z</time>
      </trkpt>
      <trkpt lat="51.966900" lon="4.403421">
        <ele>-1.262428</ele>
        <time>2026-09-03T19:33:27.754Z</time>
      </trkpt>
      <trkpt lat="51.966981" lon="4.403633">
        <ele>-1.283273</ele>
        <time>2026-09-03T19:33:30.657Z</time>
      </trkpt>
      <trkpt lat="51.967060" lon="4.403629">
        <ele>-1.293992</ele>
        <time>2026-09-03T19:33:32.137Z</time>
      </trkpt>
      <trkpt lat="51.967327" lon="4.403394">
        <ele>-1.335185</ele>
        <time>2026-09-03T19:33:37.822Z</time>
      </trkpt>
      <trkpt lat="51.967855" lon="4.402951">
        <ele>-1.571214</ele>
        <time>2026-09-03T19:33:48.180Z</time>
      </trkpt>
      <trkpt lat="51.967823" lon="4.402842">
        <ele>-1.631437</ele>
        <time>2026-09-03T19:33:49.475Z</time>
      </trkpt>
      <trkpt lat="51.968142" lon="4.402594">
        <ele>-1.917783</ele>
        <time>2026-09-03T19:33:53.636Z</time>
      </trkpt>
      <trkpt lat="51.969128" lon="4.401814">
        <ele>-2.805770</ele>
        <time>2026-09-03T19:34:07.542Z</time>
      </trkpt>
      <trkpt lat="51.969539" lon="4.401496">
        <ele>-2.941636</ele>
        <time>2026-09-03T19:34:13.673Z</time>
      </trkpt>
      <trkpt lat="51.970740" lon="4.400515">
        <ele>-3.271041</ele>
        <time>2026-09-03T19:34:32.958Z</time>
      </trkpt>
      <trkpt lat="51.970892" lon="4.400413">
        <ele>-3.305891</ele>
        <time>2026-09-03T19:34:35.354Z</time>
      </trkpt>
      <trkpt lat="51.971310" lon="4.400164">
        <ele>-3.395192</ele>
        <time>2026-09-03T19:34:41.734Z</time>
      </trkpt>
      <trkpt lat="51.971812" lon="4.399933">
        <ele>-3.499840</ele>
        <time>2026-09-03T19:34:48.969Z</time>
      </trkpt>
      <trkpt lat="51.974668" lon="4.398688">
        <ele>-4.063482</ele>
        <time>2026-09-03T19:35:30.558Z</time>
      </trkpt>
      <trkpt lat="51.974816" lon="4.398625">
        <ele>-4.078916</ele>
        <time>2026-09-03T19:35:32.652Z</time>
      </trkpt>
      <trkpt lat="51.976813" lon="4.397801">
        <ele>-3.644481</ele>
        <time>2026-09-03T19:36:03.116Z</time>
      </trkpt>
      <trkpt lat="51.978107" lon="4.397200">
        <ele>-2.890685</ele>
        <time>2026-09-03T19:36:29.824Z</time>
      </trkpt>
      <trkpt lat="51.978158" lon="4.397403">
        <ele>-2.840228</ele>
        <time>2026-09-03T19:36:32.412Z</time>
      </trkpt>
      <trkpt lat="51.978288" lon="4.397803">
        <ele>-2.736139</ele>
        <time>2026-09-03T19:36:37.396Z</time>
      </trkpt>
      <trkpt lat="51.978332" lon="4.398026">
        <ele>-2.682246</ele>
        <time>2026-09-03T19:36:39.802Z</time>
      </trkpt>
      <trkpt lat="51.978377" lon="4.398552">
        <ele>-2.560025</ele>
        <time>2026-09-03T19:36:44.829Z</time>
      </trkpt>
      <trkpt lat="51.978381" lon="4.398885">
        <ele>-2.483371</ele>
        <time>2026-09-03T19:36:47.733Z</time>
      </trkpt>
      <trkpt lat="51.978316" lon="4.399526">
        <ele>-2.416797</ele>
        <time>2026-09-03T19:36:52.946Z</time>
      </trkpt>
      <trkpt lat="51.978269" lon="4.400291">
        <ele>-2.620272</ele>
        <time>2026-09-03T19:36:58.700Z</time>
      </trkpt>
      <trkpt lat="51.978313" lon="4.401183">
        <ele>-2.857109</ele>
        <time>2026-09-03T19:37:05.659Z</time>
      </trkpt>
      <trkpt lat="51.978345" lon="4.401401">
        <ele>-2.916422</ele>
        <time>2026-09-03T19:37:07.550Z</time>
      </trkpt>
      <trkpt lat="51.978400" lon="4.401610">
        <ele>-2.976574</ele>
        <time>2026-09-03T19:37:09.534Z</time>
      </trkpt>
      <trkpt lat="51.978521" lon="4.402363">
        <ele>-3.115793</ele>
        <time>2026-09-03T19:37:16.960Z</time>
      </trkpt>
      <trkpt lat="51.978828" lon="4.403557">
        <ele>-2.844823</ele>
        <time>2026-09-03T19:37:30.166Z</time>
      </trkpt>
      <trkpt lat="51.978945" lon="4.403995">
        <ele>-2.744839</ele>
        <time>2026-09-03T19:37:35.219Z</time>
      </trkpt>
      <trkpt lat="51.979010" lon="4.404161">
        <ele>-2.703644</ele>
        <time>2026-09-03T19:37:37.313Z</time>
      </trkpt>
      <trkpt lat="51.979298" lon="4.404574">
        <ele>-2.572992</ele>
        <time>2026-09-03T19:37:43.686Z</time>
      </trkpt>
      <trkpt lat="51.979451" lon="4.405392">
        <ele>-2.554851</ele>
        <time>2026-09-03T19:37:51.827Z</time>
      </trkpt>
      <trkpt lat="51.979845" lon="4.407666">
        <ele>-2.642175</ele>
        <time>2026-09-03T19:38:12.639Z</time>
      </trkpt>
      <trkpt lat="51.980226" lon="4.410113">
        <ele>-3.011361</ele>
        <time>2026-09-03T19:38:33.869Z</time>
      </trkpt>
      <trkpt lat="51.980298" lon="4.410324">
        <ele>-3.046645</ele>
        <time>2026-09-03T19:38:36.088Z</time>
      </trkpt>
      <trkpt lat="51.980536" lon="4.410409">
        <ele>-3.049723</ele>
        <time>2026-09-03T19:38:39.715Z</time>
      </trkpt>
      <trkpt lat="51.980871" lon="4.410284">
        <ele>-3.044022</ele>
        <time>2026-09-03T19:38:44.734Z</time>
      </trkpt>
      <trkpt lat="51.981356" lon="4.410215">
        <ele>-3.035948</ele>
        <time>2026-09-03T19:38:52.098Z</time>
      </trkpt>
      <trkpt lat="51.981687" lon="4.410929">
        <ele>-3.026820</ele>
        <time>2026-09-03T19:39:00.529Z</time>
      </trkpt>
      <trkpt lat="51.982324" lon="4.412328">
        <ele>-3.033853</ele>
        <time>2026-09-03T19:39:16.656Z</time>
      </trkpt>
      <trkpt lat="51.982475" lon="4.412719">
        <ele>-3.037247</ele>
        <time>2026-09-03T19:39:20.942Z</time>
      </trkpt>
      <trkpt lat="51.982658" lon="4.413608">
        <ele>-3.044140</ele>
        <time>2026-09-03T19:39:29.487Z</time>
      </trkpt>
      <trkpt lat="51.982851" lon="4.413537">
        <ele>-3.079949</ele>
        <time>2026-09-03T19:39:32.341Z</time>
      </trkpt>
      <trkpt lat="51.983038" lon="4.413452">
        <ele>-3.132084</ele>
        <time>2026-09-03T19:39:35.141Z</time>
      </trkpt>
      <trkpt lat="51.983983" lon="4.412822">
        <ele>-3.406342</ele>
        <time>2026-09-03T19:39:48.643Z</time>
      </trkpt>
      <trkpt lat="51.984139" lon="4.412796">
        <ele>-3.448444</ele>
        <time>2026-09-03T19:39:50.783Z</time>
      </trkpt>
      <trkpt lat="51.984241" lon="4.412664">
        <ele>-3.483461</ele>
        <time>2026-09-03T19:39:52.610Z</time>
      </trkpt>
      <trkpt lat="51.984818" lon="4.412275">
        <ele>-3.424073</ele>
        <time>2026-09-03T19:40:01.803Z</time>
      </trkpt>
      <trkpt lat="51.985763" lon="4.411649">
        <ele>-3.193609</ele>
        <time>2026-09-03T19:40:18.111Z</time>
      </trkpt>
      <trkpt lat="51.985871" lon="4.411584">
        <ele>-3.167600</ele>
        <time>2026-09-03T19:40:20.175Z</time>
      </trkpt>
      <trkpt lat="51.986506" lon="4.411153">
        <ele>-3.080793</ele>
        <time>2026-09-03T19:40:31.925Z</time>
      </trkpt>
      <trkpt lat="51.986740" lon="4.411002">
        <ele>-3.059560</ele>
        <time>2026-09-03T19:40:35.879Z</time>
      </trkpt>
      <trkpt lat="51.987883" lon="4.410236">
        <ele>-2.966602</ele>
        <time>2026-09-03T19:40:53.362Z</time>
      </trkpt>
      <trkpt lat="51.989115" lon="4.409398">
        <ele>-2.940521</ele>
        <time>2026-09-03T19:41:12.517Z</time>
      </trkpt>
      <trkpt lat="51.989417" lon="4.409228">
        <ele>-2.930556</ele>
        <time>2026-09-03T19:41:18.242Z</time>
      </trkpt>
      <trkpt lat="51.989685" lon="4.409043">
        <ele>-2.890200</ele>
        <time>2026-09-03T19:41:23.403Z</time>
      </trkpt>
      <trkpt lat="51.989810" lon="4.408960">
        <ele>-2.871485</ele>
        <time>2026-09-03T19:41:25.769Z</time>
      </trkpt>
      <trkpt lat="51.990190" lon="4.408728">
        <ele>-2.815226</ele>
        <time>2026-09-03T19:41:32.558Z</time>
      </trkpt>
      <trkpt lat="51.990633" lon="4.408467">
        <ele>-2.749918</ele>
        <time>2026-09-03T19:41:39.678Z</time>
      </trkpt>
      <trkpt lat="51.991415" lon="4.407938">
        <ele>-2.773535</ele>
        <time>2026-09-03T19:41:50.697Z</time>
      </trkpt>
      <trkpt lat="51.992948" lon="4.406830">
        <ele>-3.077559</ele>
        <time>2026-09-03T19:42:14.492Z</time>
      </trkpt>
      <trkpt lat="51.993242" lon="4.406625">
        <ele>-3.052428</ele>
        <time>2026-09-03T19:42:19.647Z</time>
      </trkpt>
      <trkpt lat="51.993554" lon="4.406407">
        <ele>-3.025749</ele>
        <time>2026-09-03T19:42:25.070Z</time>
      </trkpt>
      <trkpt lat="51.993734" lon="4.406281">
        <ele>-3.010353</ele>
        <time>2026-09-03T19:42:28.207Z</time>
      </trkpt>
      <trkpt lat="51.995219" lon="4.405278">
        <ele>-2.833214</ele>
        <time>2026-09-03T19:42:52.466Z</time>
      </trkpt>
      <trkpt lat="51.995290" lon="4.405223">
        <ele>-2.822728</ele>
        <time>2026-09-03T19:42:53.619Z</time>
      </trkpt>
      <trkpt lat="51.995541" lon="4.405058">
        <ele>-2.786630</ele>
        <time>2026-09-03T19:42:57.682Z</time>
      </trkpt>
      <trkpt lat="51.996346" lon="4.404522">
        <ele>-2.664491</ele>
        <time>2026-09-03T19:43:11.744Z</time>
      </trkpt>
      <trkpt lat="51.997187" lon="4.403949">
        <ele>-2.526812</ele>
        <time>2026-09-03T19:43:26.165Z</time>
      </trkpt>
      <trkpt lat="51.998603" lon="4.403026">
        <ele>-2.488583</ele>
        <time>2026-09-03T19:43:48.395Z</time>
      </trkpt>
      <trkpt lat="51.999019" lon="4.402751">
        <ele>-2.508127</ele>
        <time>2026-09-03T19:43:54.692Z</time>
      </trkpt>
      <trkpt lat="51.999110" lon="4.402693">
        <ele>-2.512381</ele>
        <time>2026-09-03T19:43:56.089Z</time>
      </trkpt>
      <trkpt lat="51.999217" lon="4.402624">
        <ele>-2.517391</ele>
        <time>2026-09-03T19:43:57.797Z</time>
      </trkpt>
      <trkpt lat="51.999716" lon="4.402304">
        <ele>-2.442722</ele>
        <time>2026-09-03T19:44:06.073Z</time>
      </trkpt>
      <trkpt lat="52.001048" lon="4.401441">
        <ele>-2.139916</ele>
        <time>2026-09-03T19:44:28.557Z</time>
      </trkpt>
      <trkpt lat="52.002210" lon="4.400674">
        <ele>-1.734417</ele>
        <time>2026-09-03T19:44:49.641Z</time>
      </trkpt>
      <trkpt lat="52.002393" lon="4.400553">
        <ele>-1.670541</ele>
        <time>2026-09-03T19:44:52.735Z</time>
      </trkpt>
      <trkpt lat="52.002448" lon="4.400515">
        <ele>-1.651218</ele>
        <time>2026-09-03T19:44:53.657Z</time>
      </trkpt>
      <trkpt lat="52.002484" lon="4.400488">
        <ele>-1.638399</ele>
        <time>2026-09-03T19:44:54.272Z</time>
      </trkpt>
      <trkpt lat="52.002969" lon="4.400169">
        <ele>-1.559950</ele>
        <time>2026-09-03T19:45:02.010Z</time>
      </trkpt>
      <trkpt lat="52.003450" lon="4.399893">
        <ele>-1.549821</ele>
        <time>2026-09-03T19:45:09.110Z</time>
      </trkpt>
      <trkpt lat="52.003629" lon="4.399778">
        <ele>-1.545998</ele>
        <time>2026-09-03T19:45:11.803Z</time>
      </trkpt>
      <trkpt lat="52.003870" lon="4.399618">
        <ele>-1.540828</ele>
        <time>2026-09-03T19:45:15.710Z</time>
      </trkpt>
      <trkpt lat="52.004487" lon="4.399188">
        <ele>-1.488586</ele>
        <time>2026-09-03T19:45:26.271Z</time>
      </trkpt>
      <trkpt lat="52.004857" lon="4.398944">
        <ele>-1.365278</ele>
        <time>2026-09-03T19:45:32.772Z</time>
      </trkpt>
      <trkpt lat="52.005090" lon="4.398791">
        <ele>-1.287674</ele>
        <time>2026-09-03T19:45:36.941Z</time>
      </trkpt>
      <trkpt lat="52.005893" lon="4.398201">
        <ele>-1.015533</ele>
        <time>2026-09-03T19:45:51.294Z</time>
      </trkpt>
      <trkpt lat="52.005974" lon="4.398142">
        <ele>-0.988121</ele>
        <time>2026-09-03T19:45:52.666Z</time>
      </trkpt>
      <trkpt lat="52.006328" lon="4.397919">
        <ele>-0.894351</ele>
        <time>2026-09-03T19:45:58.576Z</time>
      </trkpt>
      <trkpt lat="52.006503" lon="4.397808">
        <ele>-0.849446</ele>
        <time>2026-09-03T19:46:01.459Z</time>
      </trkpt>
      <trkpt lat="52.006976" lon="4.397482">
        <ele>-0.726633</ele>
        <time>2026-09-03T19:46:09.439Z</time>
      </trkpt>
      <trkpt lat="52.007015" lon="4.397454">
        <ele>-0.716441</ele>
        <time>2026-09-03T19:46:10.107Z</time>
      </trkpt>
      <trkpt lat="52.007356" lon="4.397210">
        <ele>-0.627378</ele>
        <time>2026-09-03T19:46:16.010Z</time>
      </trkpt>
      <trkpt lat="52.007401" lon="4.397178">
        <ele>-0.615636</ele>
        <time>2026-09-03T19:46:16.757Z</time>
      </trkpt>
      <trkpt lat="52.007954" lon="4.396838">
        <ele>-0.431769</ele>
        <time>2026-09-03T19:46:26.279Z</time>
      </trkpt>
      <trkpt lat="52.008190" lon="4.396681">
        <ele>-0.334056</ele>
        <time>2026-09-03T19:46:30.405Z</time>
      </trkpt>
      <trkpt lat="52.008507" lon="4.396463">
        <ele>-0.202161</ele>
        <time>2026-09-03T19:46:36.241Z</time>
      </trkpt>
      <trkpt lat="52.008679" lon="4.396327">
        <ele>-0.128867</ele>
        <time>2026-09-03T19:46:39.579Z</time>
      </trkpt>
      <trkpt lat="52.009055" lon="4.396049">
        <ele>0.029418</ele>
        <time>2026-09-03T19:46:46.401Z</time>
      </trkpt>
      <trkpt lat="52.009349" lon="4.395831">
        <ele>0.145922</ele>
        <time>2026-09-03T19:46:51.537Z</time>
      </trkpt>
      <trkpt lat="52.009378" lon="4.395802">
        <ele>0.148272</ele>
        <time>2026-09-03T19:46:52.256Z</time>
      </trkpt>
      <trkpt lat="52.009392" lon="4.395790">
        <ele>0.149365</ele>
        <time>2026-09-03T19:46:52.503Z</time>
      </trkpt>
      <trkpt lat="52.009468" lon="4.395734">
        <ele>0.155124</ele>
        <time>2026-09-03T19:46:53.783Z</time>
      </trkpt>
      <trkpt lat="52.009494" lon="4.395704">
        <ele>0.157325</ele>
        <time>2026-09-03T19:46:54.284Z</time>
      </trkpt>
      <trkpt lat="52.009505" lon="4.395689">
        <ele>0.158316</ele>
        <time>2026-09-03T19:46:54.507Z</time>
      </trkpt>
      <trkpt lat="52.009559" lon="4.395697">
        <ele>0.162059</ele>
        <time>2026-09-03T19:46:55.625Z</time>
      </trkpt>
      <trkpt lat="52.009617" lon="4.395652">
        <ele>0.166494</ele>
        <time>2026-09-03T19:46:56.945Z</time>
      </trkpt>
      <trkpt lat="52.009651" lon="4.395563">
        <ele>0.170944</ele>
        <time>2026-09-03T19:46:58.283Z</time>
      </trkpt>
      <trkpt lat="52.009715" lon="4.395418">
        <ele>0.178524</ele>
        <time>2026-09-03T19:46:59.990Z</time>
      </trkpt>
      <trkpt lat="52.009920" lon="4.395448">
        <ele>0.192729</ele>
        <time>2026-09-03T19:47:04.345Z</time>
      </trkpt>
      <trkpt lat="52.009994" lon="4.395492">
        <ele>0.198168</ele>
        <time>2026-09-03T19:47:05.996Z</time>
      </trkpt>
      <trkpt lat="52.010028" lon="4.395417">
        <ele>0.202124</ele>
        <time>2026-09-03T19:47:06.919Z</time>
      </trkpt>
      <trkpt lat="52.010150" lon="4.395288">
        <ele>0.212170</ele>
        <time>2026-09-03T19:47:09.191Z</time>
      </trkpt>
      <trkpt lat="52.010622" lon="4.394983">
        <ele>0.247228</ele>
        <time>2026-09-03T19:47:16.415Z</time>
      </trkpt>
      <trkpt lat="52.010736" lon="4.394908">
        <ele>0.255716</ele>
        <time>2026-09-03T19:47:18.114Z</time>
      </trkpt>
      <trkpt lat="52.011065" lon="4.394684">
        <ele>0.262369</ele>
        <time>2026-09-03T19:47:23.166Z</time>
      </trkpt>
      <trkpt lat="52.011465" lon="4.394484">
        <ele>0.247603</ele>
        <time>2026-09-03T19:47:29.248Z</time>
      </trkpt>
      <trkpt lat="52.011770" lon="4.394292">
        <ele>0.236063</ele>
        <time>2026-09-03T19:47:34.158Z</time>
      </trkpt>
      <trkpt lat="52.012158" lon="4.393968">
        <ele>0.220671</ele>
        <time>2026-09-03T19:47:40.577Z</time>
      </trkpt>
      <trkpt lat="52.012225" lon="4.393924">
        <ele>0.218121</ele>
        <time>2026-09-03T19:47:41.650Z</time>
      </trkpt>
      <trkpt lat="52.012856" lon="4.393517">
        <ele>0.265789</ele>
        <time>2026-09-03T19:47:51.925Z</time>
      </trkpt>
      <trkpt lat="52.013078" lon="4.393411">
        <ele>0.311669</ele>
        <time>2026-09-03T19:47:55.381Z</time>
      </trkpt>
      <trkpt lat="52.013754" lon="4.392974">
        <ele>0.455927</ele>
        <time>2026-09-03T19:48:06.642Z</time>
      </trkpt>
      <trkpt lat="52.013976" lon="4.392835">
        <ele>0.503101</ele>
        <time>2026-09-03T19:48:10.457Z</time>
      </trkpt>
      <trkpt lat="52.014904" lon="4.392251">
        <ele>0.611346</ele>
        <time>2026-09-03T19:48:27.028Z</time>
      </trkpt>
      <trkpt lat="52.015539" lon="4.391779">
        <ele>0.660945</ele>
        <time>2026-09-03T19:48:37.607Z</time>
      </trkpt>
      <trkpt lat="52.016213" lon="4.391325">
        <ele>0.443204</ele>
        <time>2026-09-03T19:48:47.653Z</time>
      </trkpt>
      <trkpt lat="52.016601" lon="4.391044">
        <ele>0.125628</ele>
        <time>2026-09-03T19:48:52.698Z</time>
      </trkpt>
      <trkpt lat="52.016973" lon="4.390787">
        <ele>-0.176571</ele>
        <time>2026-09-03T19:48:57.517Z</time>
      </trkpt>
      <trkpt lat="52.017465" lon="4.390437">
        <ele>-0.578094</ele>
        <time>2026-09-03T19:49:04.337Z</time>
      </trkpt>
      <trkpt lat="52.017654" lon="4.390303">
        <ele>-0.665360</ele>
        <time>2026-09-03T19:49:07.011Z</time>
      </trkpt>
      <trkpt lat="52.018366" lon="4.389825">
        <ele>-0.740789</ele>
        <time>2026-09-03T19:49:17.803Z</time>
      </trkpt>
      <trkpt lat="52.018881" lon="4.389440">
        <ele>-0.796294</ele>
        <time>2026-09-03T19:49:26.901Z</time>
      </trkpt>
      <trkpt lat="52.019117" lon="4.389318">
        <ele>-0.820543</ele>
        <time>2026-09-03T19:49:30.826Z</time>
      </trkpt>
      <trkpt lat="52.019162" lon="4.389301">
        <ele>-0.825066</ele>
        <time>2026-09-03T19:49:31.551Z</time>
      </trkpt>
      <trkpt lat="52.019188" lon="4.389292">
        <ele>-0.827669</ele>
        <time>2026-09-03T19:49:31.952Z</time>
      </trkpt>
      <trkpt lat="52.019830" lon="4.389000">
        <ele>-1.021486</ele>
        <time>2026-09-03T19:49:41.735Z</time>
      </trkpt>
      <trkpt lat="52.019893" lon="4.389202">
        <ele>-1.063625</ele>
        <time>2026-09-03T19:49:51.390Z</time>
      </trkpt>
      <trkpt lat="52.020381" lon="4.390410">
        <ele>-1.332507</ele>
        <time>2026-09-03T19:50:53.223Z</time>
      </trkpt>
      <trkpt lat="52.021282" lon="4.392640">
        <ele>-2.173723</ele>
        <time>2026-09-03T19:52:47.301Z</time>
      </trkpt>
      <trkpt lat="52.021856" lon="4.394061">
        <ele>-2.363057</ele>
        <time>2026-09-03T19:53:59.945Z</time>
      </trkpt>
      <trkpt lat="52.021882" lon="4.394036">
        <ele>-2.364291</ele>
        <time>2026-09-03T19:54:02.074Z</time>
      </trkpt>
      <trkpt lat="52.027581" lon="4.408283">
        <ele>-2.573681</ele>
        <time>2026-09-03T19:56:36.975Z</time>
      </trkpt>
      <trkpt lat="52.027615" lon="4.408357">
        <ele>-2.559298</ele>
        <time>2026-09-03T19:56:37.894Z</time>
      </trkpt>
      <trkpt lat="52.027594" lon="4.408404">
        <ele>-2.550253</ele>
        <time>2026-09-03T19:56:38.473Z</time>
      </trkpt>
      <trkpt lat="52.026400" lon="4.410580">
        <ele>-2.299052</ele>
        <time>2026-09-03T19:57:07.726Z</time>
      </trkpt>
      <trkpt lat="52.026126" lon="4.411126">
        <ele>-2.355263</ele>
        <time>2026-09-03T19:57:13.749Z</time>
      </trkpt>
      <trkpt lat="52.025174" lon="4.412464">
        <ele>-2.421673</ele>
        <time>2026-09-03T19:57:30.465Z</time>
      </trkpt>
      <trkpt lat="52.025005" lon="4.412740">
        <ele>-2.397977</ele>
        <time>2026-09-03T19:57:33.994Z</time>
      </trkpt>
      <trkpt lat="52.024267" lon="4.413735">
        <ele>-2.303138</ele>
        <time>2026-09-03T19:57:49.672Z</time>
      </trkpt>
      <trkpt lat="52.024096" lon="4.413964">
        <ele>-2.275831</ele>
        <time>2026-09-03T19:57:53.357Z</time>
      </trkpt>
      <trkpt lat="52.023980" lon="4.414120">
        <ele>-2.242843</ele>
        <time>2026-09-03T19:57:55.908Z</time>
      </trkpt>
      <trkpt lat="52.023661" lon="4.414515">
        <ele>-2.154976</ele>
        <time>2026-09-03T19:58:02.509Z</time>
      </trkpt>
      <trkpt lat="52.023371" lon="4.414902">
        <ele>-2.072762</ele>
        <time>2026-09-03T19:58:08.472Z</time>
      </trkpt>
      <trkpt lat="52.023326" lon="4.414997">
        <ele>-2.056599</ele>
        <time>2026-09-03T19:58:09.603Z</time>
      </trkpt>
      <trkpt lat="52.023396" lon="4.415138">
        <ele>-2.032175</ele>
        <time>2026-09-03T19:58:11.311Z</time>
      </trkpt>
      <trkpt lat="52.023475" lon="4.415395">
        <ele>-1.993444</ele>
        <time>2026-09-03T19:58:13.913Z</time>
      </trkpt>
      <trkpt lat="52.023495" lon="4.415489">
        <ele>-1.980035</ele>
        <time>2026-09-03T19:58:14.804Z</time>
      </trkpt>
      <trkpt lat="52.023514" lon="4.415578">
        <ele>-1.967335</ele>
        <time>2026-09-03T19:58:15.651Z</time>
      </trkpt>
      <trkpt lat="52.023527" lon="4.415657">
        <ele>-1.956310</ele>
        <time>2026-09-03T19:58:16.388Z</time>
      </trkpt>
      <trkpt lat="52.023544" lon="4.415743">
        <ele>-1.944132</ele>
        <time>2026-09-03T19:58:17.214Z</time>
      </trkpt>
      <trkpt lat="52.023639" lon="4.416003">
        <ele>-1.903366</ele>
        <time>2026-09-03T19:58:19.990Z</time>
      </trkpt>
      <trkpt lat="52.023866" lon="4.416332">
        <ele>-1.891588</ele>
        <time>2026-09-03T19:58:24.631Z</time>
      </trkpt>
      <trkpt lat="52.023933" lon="4.416477">
        <ele>-1.891588</ele>
        <time>2026-09-03T19:58:26.342Z</time>
      </trkpt>
      <trkpt lat="52.024379" lon="4.417770">
        <ele>-1.891588</ele>
        <time>2026-09-03T19:58:40.003Z</time>
      </trkpt>
      <trkpt lat="52.024433" lon="4.417927">
        <ele>-1.891588</ele>
        <time>2026-09-03T19:58:41.621Z</time>
      </trkpt>
      <trkpt lat="52.024506" lon="4.418150">
        <ele>-1.891588</ele>
        <time>2026-09-03T19:58:43.870Z</time>
      </trkpt>
      <trkpt lat="52.024764" lon="4.418883">
        <ele>-1.891588</ele>
        <time>2026-09-03T19:58:51.313Z</time>
      </trkpt>
      <trkpt lat="52.024794" lon="4.418962">
        <ele>-1.891588</ele>
        <time>2026-09-03T19:58:52.135Z</time>
      </trkpt>
      <trkpt lat="52.024922" lon="4.419356">
        <ele>-1.891588</ele>
        <time>2026-09-03T19:58:56.014Z</time>
      </trkpt>
    </trkseg>
  </trk>
</gpx>